<?xml version="1.0" encoding="UTF-8" standalone="no" ?>
<gpx xmlns="http://www.topografix.com/GPX/1/1" xmlns:xsi="http://www.w3.org/2001/XMLSchema-instance" xsi:schemaLocation="http://www.topografix.com/GPX/1/1 http://www.topografix.com/GPX/1/1/gpx.xsd" version="1.1" creator="VisuGPX - https://www.visugpx.com">
  <metadata>
    <name>Boucle Callelongue Col de Cortiou</name>
  </metadata>
  <trk>
    <name><![CDATA[Marseille Course à pied]]></name>
    <trkseg>
      <trkpt lat="43.21249" lon="5.35472">
        <ele>18.200000762939</ele>
        <time>2019-05-23T07:22:32.000Z</time>
      </trkpt>
      <trkpt lat="43.21247" lon="5.35474">
        <ele>19.200000762939</ele>
        <time>2019-05-23T07:22:34.000Z</time>
      </trkpt>
      <trkpt lat="43.21245" lon="5.35479">
        <ele>20.200000762939</ele>
        <time>2019-05-23T07:22:37.000Z</time>
      </trkpt>
      <trkpt lat="43.21245" lon="5.35482">
        <ele>20.39999961853</ele>
        <time>2019-05-23T07:22:38.000Z</time>
      </trkpt>
      <trkpt lat="43.21246" lon="5.35485">
        <ele>20.39999961853</ele>
        <time>2019-05-23T07:22:39.000Z</time>
      </trkpt>
      <trkpt lat="43.21244" lon="5.35493">
        <ele>21.60000038147</ele>
        <time>2019-05-23T07:22:43.000Z</time>
      </trkpt>
      <trkpt lat="43.21242" lon="5.35496">
        <ele>22.39999961853</ele>
        <time>2019-05-23T07:22:45.000Z</time>
      </trkpt>
      <trkpt lat="43.21242" lon="5.35498">
        <ele>22.799999237061</ele>
        <time>2019-05-23T07:22:46.000Z</time>
      </trkpt>
      <trkpt lat="43.2124" lon="5.35507">
        <ele>24</ele>
        <time>2019-05-23T07:22:50.000Z</time>
      </trkpt>
      <trkpt lat="43.21239" lon="5.35508">
        <ele>24.39999961853</ele>
        <time>2019-05-23T07:22:51.000Z</time>
      </trkpt>
      <trkpt lat="43.21235" lon="5.35508">
        <ele>25.200000762939</ele>
        <time>2019-05-23T07:22:53.000Z</time>
      </trkpt>
      <trkpt lat="43.21228" lon="5.35508">
        <ele>26.39999961853</ele>
        <time>2019-05-23T07:22:57.000Z</time>
      </trkpt>
      <trkpt lat="43.21228" lon="5.3551">
        <ele>26.799999237061</ele>
        <time>2019-05-23T07:22:58.000Z</time>
      </trkpt>
      <trkpt lat="43.21228" lon="5.35515">
        <ele>27.39999961853</ele>
        <time>2019-05-23T07:23:00.000Z</time>
      </trkpt>
      <trkpt lat="43.21228" lon="5.3552">
        <ele>27.799999237061</ele>
        <time>2019-05-23T07:23:02.000Z</time>
      </trkpt>
      <trkpt lat="43.21226" lon="5.35526">
        <ele>28.799999237061</ele>
        <time>2019-05-23T07:23:05.000Z</time>
      </trkpt>
      <trkpt lat="43.21221" lon="5.35527">
        <ele>29.60000038147</ele>
        <time>2019-05-23T07:23:08.000Z</time>
      </trkpt>
      <trkpt lat="43.21218" lon="5.35529">
        <ele>30</ele>
        <time>2019-05-23T07:23:10.000Z</time>
      </trkpt>
      <trkpt lat="43.21215" lon="5.35532">
        <ele>30.39999961853</ele>
        <time>2019-05-23T07:23:12.000Z</time>
      </trkpt>
      <trkpt lat="43.21214" lon="5.35533">
        <ele>30.799999237061</ele>
        <time>2019-05-23T07:23:13.000Z</time>
      </trkpt>
      <trkpt lat="43.21214" lon="5.35534">
        <ele>31</ele>
        <time>2019-05-23T07:23:14.000Z</time>
      </trkpt>
      <trkpt lat="43.21213" lon="5.35538">
        <ele>31.799999237061</ele>
        <time>2019-05-23T07:23:16.000Z</time>
      </trkpt>
      <trkpt lat="43.21212" lon="5.3554">
        <ele>32.200000762939</ele>
        <time>2019-05-23T07:23:17.000Z</time>
      </trkpt>
      <trkpt lat="43.21211" lon="5.35543">
        <ele>32.400001525879</ele>
        <time>2019-05-23T07:23:19.000Z</time>
      </trkpt>
      <trkpt lat="43.21211" lon="5.35544">
        <ele>32.599998474121</ele>
        <time>2019-05-23T07:23:20.000Z</time>
      </trkpt>
      <trkpt lat="43.2121" lon="5.35548">
        <ele>33.400001525879</ele>
        <time>2019-05-23T07:23:23.000Z</time>
      </trkpt>
      <trkpt lat="43.2121" lon="5.35549">
        <ele>33.799999237061</ele>
        <time>2019-05-23T07:23:24.000Z</time>
      </trkpt>
      <trkpt lat="43.2121" lon="5.35551">
        <ele>34</ele>
        <time>2019-05-23T07:23:25.000Z</time>
      </trkpt>
      <trkpt lat="43.2121" lon="5.35552">
        <ele>34.599998474121</ele>
        <time>2019-05-23T07:23:26.000Z</time>
      </trkpt>
      <trkpt lat="43.21212" lon="5.35558">
        <ele>35.400001525879</ele>
        <time>2019-05-23T07:23:29.000Z</time>
      </trkpt>
      <trkpt lat="43.21212" lon="5.3556">
        <ele>35.599998474121</ele>
        <time>2019-05-23T07:23:31.000Z</time>
      </trkpt>
      <trkpt lat="43.21212" lon="5.3556">
        <ele>36.599998474121</ele>
        <time>2019-05-23T07:23:34.000Z</time>
      </trkpt>
      <trkpt lat="43.21212" lon="5.35561">
        <ele>36.799999237061</ele>
        <time>2019-05-23T07:23:35.000Z</time>
      </trkpt>
      <trkpt lat="43.21212" lon="5.35563">
        <ele>37.599998474121</ele>
        <time>2019-05-23T07:23:37.000Z</time>
      </trkpt>
      <trkpt lat="43.21211" lon="5.35563">
        <ele>38</ele>
        <time>2019-05-23T07:23:38.000Z</time>
      </trkpt>
      <trkpt lat="43.21206" lon="5.35567">
        <ele>39</ele>
        <time>2019-05-23T07:23:42.000Z</time>
      </trkpt>
      <trkpt lat="43.21205" lon="5.35568">
        <ele>39.200000762939</ele>
        <time>2019-05-23T07:23:43.000Z</time>
      </trkpt>
      <trkpt lat="43.21203" lon="5.35576">
        <ele>39.799999237061</ele>
        <time>2019-05-23T07:23:47.000Z</time>
      </trkpt>
      <trkpt lat="43.21202" lon="5.35578">
        <ele>40.200000762939</ele>
        <time>2019-05-23T07:23:48.000Z</time>
      </trkpt>
      <trkpt lat="43.21201" lon="5.3558">
        <ele>40.400001525879</ele>
        <time>2019-05-23T07:23:49.000Z</time>
      </trkpt>
      <trkpt lat="43.21199" lon="5.35582">
        <ele>41.200000762939</ele>
        <time>2019-05-23T07:23:51.000Z</time>
      </trkpt>
      <trkpt lat="43.21198" lon="5.35583">
        <ele>41.599998474121</ele>
        <time>2019-05-23T07:23:52.000Z</time>
      </trkpt>
      <trkpt lat="43.21195" lon="5.35584">
        <ele>42</ele>
        <time>2019-05-23T07:23:54.000Z</time>
      </trkpt>
      <trkpt lat="43.21194" lon="5.35586">
        <ele>41</ele>
        <time>2019-05-23T07:23:56.000Z</time>
      </trkpt>
      <trkpt lat="43.21196" lon="5.3559">
        <ele>41.799999237061</ele>
        <time>2019-05-23T07:23:58.000Z</time>
      </trkpt>
      <trkpt lat="43.21198" lon="5.35592">
        <ele>41.799999237061</ele>
        <time>2019-05-23T07:23:59.000Z</time>
      </trkpt>
      <trkpt lat="43.21201" lon="5.35597">
        <ele>42.799999237061</ele>
        <time>2019-05-23T07:24:01.000Z</time>
      </trkpt>
      <trkpt lat="43.21203" lon="5.35602">
        <ele>43.200000762939</ele>
        <time>2019-05-23T07:24:05.000Z</time>
      </trkpt>
      <trkpt lat="43.21202" lon="5.35605">
        <ele>44</ele>
        <time>2019-05-23T07:24:07.000Z</time>
      </trkpt>
      <trkpt lat="43.21201" lon="5.35607">
        <ele>42.799999237061</ele>
        <time>2019-05-23T07:24:08.000Z</time>
      </trkpt>
      <trkpt lat="43.21201" lon="5.35608">
        <ele>43</ele>
        <time>2019-05-23T07:24:10.000Z</time>
      </trkpt>
      <trkpt lat="43.21201" lon="5.35612">
        <ele>43.200000762939</ele>
        <time>2019-05-23T07:24:12.000Z</time>
      </trkpt>
      <trkpt lat="43.21205" lon="5.3562">
        <ele>43.599998474121</ele>
        <time>2019-05-23T07:24:16.000Z</time>
      </trkpt>
      <trkpt lat="43.21205" lon="5.3562">
        <ele>43.799999237061</ele>
        <time>2019-05-23T07:24:17.000Z</time>
      </trkpt>
      <trkpt lat="43.21204" lon="5.35621">
        <ele>44</ele>
        <time>2019-05-23T07:24:18.000Z</time>
      </trkpt>
      <trkpt lat="43.21204" lon="5.35622">
        <ele>44.799999237061</ele>
        <time>2019-05-23T07:24:21.000Z</time>
      </trkpt>
      <trkpt lat="43.21204" lon="5.35624">
        <ele>45</ele>
        <time>2019-05-23T07:24:23.000Z</time>
      </trkpt>
      <trkpt lat="43.21204" lon="5.35625">
        <ele>45.400001525879</ele>
        <time>2019-05-23T07:24:24.000Z</time>
      </trkpt>
      <trkpt lat="43.21205" lon="5.35628">
        <ele>46.200000762939</ele>
        <time>2019-05-23T07:24:26.000Z</time>
      </trkpt>
      <trkpt lat="43.2121" lon="5.35637">
        <ele>46.799999237061</ele>
        <time>2019-05-23T07:24:31.000Z</time>
      </trkpt>
      <trkpt lat="43.21213" lon="5.35641">
        <ele>47.400001525879</ele>
        <time>2019-05-23T07:24:34.000Z</time>
      </trkpt>
      <trkpt lat="43.21214" lon="5.35642">
        <ele>47.599998474121</ele>
        <time>2019-05-23T07:24:35.000Z</time>
      </trkpt>
      <trkpt lat="43.21215" lon="5.35645">
        <ele>48.200000762939</ele>
        <time>2019-05-23T07:24:37.000Z</time>
      </trkpt>
      <trkpt lat="43.21215" lon="5.35647">
        <ele>48.400001525879</ele>
        <time>2019-05-23T07:24:38.000Z</time>
      </trkpt>
      <trkpt lat="43.21216" lon="5.35648">
        <ele>48.799999237061</ele>
        <time>2019-05-23T07:24:39.000Z</time>
      </trkpt>
      <trkpt lat="43.21217" lon="5.35651">
        <ele>49.599998474121</ele>
        <time>2019-05-23T07:24:41.000Z</time>
      </trkpt>
      <trkpt lat="43.21217" lon="5.35655">
        <ele>50.200000762939</ele>
        <time>2019-05-23T07:24:43.000Z</time>
      </trkpt>
      <trkpt lat="43.21218" lon="5.35661">
        <ele>50.799999237061</ele>
        <time>2019-05-23T07:24:45.000Z</time>
      </trkpt>
      <trkpt lat="43.21218" lon="5.35663">
        <ele>51.200000762939</ele>
        <time>2019-05-23T07:24:46.000Z</time>
      </trkpt>
      <trkpt lat="43.21218" lon="5.35665">
        <ele>51.400001525879</ele>
        <time>2019-05-23T07:24:47.000Z</time>
      </trkpt>
      <trkpt lat="43.21218" lon="5.35667">
        <ele>52</ele>
        <time>2019-05-23T07:24:49.000Z</time>
      </trkpt>
      <trkpt lat="43.21217" lon="5.35671">
        <ele>52.400001525879</ele>
        <time>2019-05-23T07:24:51.000Z</time>
      </trkpt>
      <trkpt lat="43.21215" lon="5.35677">
        <ele>53</ele>
        <time>2019-05-23T07:24:55.000Z</time>
      </trkpt>
      <trkpt lat="43.21214" lon="5.35688">
        <ele>54.200000762939</ele>
        <time>2019-05-23T07:25:01.000Z</time>
      </trkpt>
      <trkpt lat="43.21215" lon="5.35691">
        <ele>54.799999237061</ele>
        <time>2019-05-23T07:25:03.000Z</time>
      </trkpt>
      <trkpt lat="43.21216" lon="5.35694">
        <ele>55.200000762939</ele>
        <time>2019-05-23T07:25:05.000Z</time>
      </trkpt>
      <trkpt lat="43.21216" lon="5.35696">
        <ele>55.400001525879</ele>
        <time>2019-05-23T07:25:06.000Z</time>
      </trkpt>
      <trkpt lat="43.21216" lon="5.35697">
        <ele>55.599998474121</ele>
        <time>2019-05-23T07:25:07.000Z</time>
      </trkpt>
      <trkpt lat="43.21218" lon="5.35702">
        <ele>56.599998474121</ele>
        <time>2019-05-23T07:25:10.000Z</time>
      </trkpt>
      <trkpt lat="43.21218" lon="5.35703">
        <ele>57</ele>
        <time>2019-05-23T07:25:11.000Z</time>
      </trkpt>
      <trkpt lat="43.2122" lon="5.35708">
        <ele>57.599998474121</ele>
        <time>2019-05-23T07:25:14.000Z</time>
      </trkpt>
      <trkpt lat="43.21221" lon="5.3571">
        <ele>57.799999237061</ele>
        <time>2019-05-23T07:25:15.000Z</time>
      </trkpt>
      <trkpt lat="43.21222" lon="5.35713">
        <ele>58.200000762939</ele>
        <time>2019-05-23T07:25:17.000Z</time>
      </trkpt>
      <trkpt lat="43.21222" lon="5.35714">
        <ele>58.799999237061</ele>
        <time>2019-05-23T07:25:19.000Z</time>
      </trkpt>
      <trkpt lat="43.21222" lon="5.35715">
        <ele>59</ele>
        <time>2019-05-23T07:25:20.000Z</time>
      </trkpt>
      <trkpt lat="43.21222" lon="5.35717">
        <ele>59.200000762939</ele>
        <time>2019-05-23T07:25:21.000Z</time>
      </trkpt>
      <trkpt lat="43.21221" lon="5.35718">
        <ele>57.799999237061</ele>
        <time>2019-05-23T07:25:22.000Z</time>
      </trkpt>
      <trkpt lat="43.21222" lon="5.3572">
        <ele>57.799999237061</ele>
        <time>2019-05-23T07:25:24.000Z</time>
      </trkpt>
      <trkpt lat="43.21222" lon="5.35721">
        <ele>57.599998474121</ele>
        <time>2019-05-23T07:25:25.000Z</time>
      </trkpt>
      <trkpt lat="43.21222" lon="5.35723">
        <ele>58.200000762939</ele>
        <time>2019-05-23T07:25:27.000Z</time>
      </trkpt>
      <trkpt lat="43.21222" lon="5.35725">
        <ele>58.799999237061</ele>
        <time>2019-05-23T07:25:28.000Z</time>
      </trkpt>
      <trkpt lat="43.21222" lon="5.35728">
        <ele>58.799999237061</ele>
        <time>2019-05-23T07:25:31.000Z</time>
      </trkpt>
      <trkpt lat="43.21221" lon="5.35728">
        <ele>59</ele>
        <time>2019-05-23T07:25:32.000Z</time>
      </trkpt>
      <trkpt lat="43.2122" lon="5.35729">
        <ele>59.200000762939</ele>
        <time>2019-05-23T07:25:33.000Z</time>
      </trkpt>
      <trkpt lat="43.21219" lon="5.35729">
        <ele>59.400001525879</ele>
        <time>2019-05-23T07:25:34.000Z</time>
      </trkpt>
      <trkpt lat="43.21218" lon="5.35729">
        <ele>59.799999237061</ele>
        <time>2019-05-23T07:25:35.000Z</time>
      </trkpt>
      <trkpt lat="43.21215" lon="5.3573">
        <ele>61</ele>
        <time>2019-05-23T07:25:38.000Z</time>
      </trkpt>
      <trkpt lat="43.2121" lon="5.35732">
        <ele>62</ele>
        <time>2019-05-23T07:25:42.000Z</time>
      </trkpt>
      <trkpt lat="43.21209" lon="5.35732">
        <ele>62.200000762939</ele>
        <time>2019-05-23T07:25:43.000Z</time>
      </trkpt>
      <trkpt lat="43.21207" lon="5.35732">
        <ele>62.799999237061</ele>
        <time>2019-05-23T07:25:46.000Z</time>
      </trkpt>
      <trkpt lat="43.21205" lon="5.35733">
        <ele>63.200000762939</ele>
        <time>2019-05-23T07:25:48.000Z</time>
      </trkpt>
      <trkpt lat="43.21203" lon="5.35733">
        <ele>64</ele>
        <time>2019-05-23T07:25:50.000Z</time>
      </trkpt>
      <trkpt lat="43.212" lon="5.35733">
        <ele>64.400001525879</ele>
        <time>2019-05-23T07:25:52.000Z</time>
      </trkpt>
      <trkpt lat="43.21199" lon="5.35732">
        <ele>64.800003051758</ele>
        <time>2019-05-23T07:25:53.000Z</time>
      </trkpt>
      <trkpt lat="43.21196" lon="5.35731">
        <ele>65.199996948242</ele>
        <time>2019-05-23T07:25:55.000Z</time>
      </trkpt>
      <trkpt lat="43.21194" lon="5.35731">
        <ele>65.599998474121</ele>
        <time>2019-05-23T07:25:56.000Z</time>
      </trkpt>
      <trkpt lat="43.21192" lon="5.35729">
        <ele>66.199996948242</ele>
        <time>2019-05-23T07:25:59.000Z</time>
      </trkpt>
      <trkpt lat="43.21191" lon="5.35728">
        <ele>66.800003051758</ele>
        <time>2019-05-23T07:26:01.000Z</time>
      </trkpt>
      <trkpt lat="43.2119" lon="5.35728">
        <ele>67.199996948242</ele>
        <time>2019-05-23T07:26:02.000Z</time>
      </trkpt>
      <trkpt lat="43.21189" lon="5.35728">
        <ele>67.599998474121</ele>
        <time>2019-05-23T07:26:04.000Z</time>
      </trkpt>
      <trkpt lat="43.21189" lon="5.35728">
        <ele>68</ele>
        <time>2019-05-23T07:26:05.000Z</time>
      </trkpt>
      <trkpt lat="43.21186" lon="5.35726">
        <ele>69</ele>
        <time>2019-05-23T07:26:08.000Z</time>
      </trkpt>
      <trkpt lat="43.21185" lon="5.35726">
        <ele>69.199996948242</ele>
        <time>2019-05-23T07:26:09.000Z</time>
      </trkpt>
      <trkpt lat="43.21184" lon="5.35725">
        <ele>69.400001525879</ele>
        <time>2019-05-23T07:26:10.000Z</time>
      </trkpt>
      <trkpt lat="43.21183" lon="5.35725">
        <ele>69.599998474121</ele>
        <time>2019-05-23T07:26:11.000Z</time>
      </trkpt>
      <trkpt lat="43.2118" lon="5.35725">
        <ele>70.199996948242</ele>
        <time>2019-05-23T07:26:13.000Z</time>
      </trkpt>
      <trkpt lat="43.21176" lon="5.35725">
        <ele>71.199996948242</ele>
        <time>2019-05-23T07:26:16.000Z</time>
      </trkpt>
      <trkpt lat="43.21175" lon="5.35724">
        <ele>71.400001525879</ele>
        <time>2019-05-23T07:26:17.000Z</time>
      </trkpt>
      <trkpt lat="43.21172" lon="5.35724">
        <ele>72.400001525879</ele>
        <time>2019-05-23T07:26:21.000Z</time>
      </trkpt>
      <trkpt lat="43.21171" lon="5.35724">
        <ele>72.800003051758</ele>
        <time>2019-05-23T07:26:22.000Z</time>
      </trkpt>
      <trkpt lat="43.2117" lon="5.35724">
        <ele>73</ele>
        <time>2019-05-23T07:26:23.000Z</time>
      </trkpt>
      <trkpt lat="43.21168" lon="5.35724">
        <ele>73.800003051758</ele>
        <time>2019-05-23T07:26:25.000Z</time>
      </trkpt>
      <trkpt lat="43.21166" lon="5.35723">
        <ele>74.400001525879</ele>
        <time>2019-05-23T07:26:27.000Z</time>
      </trkpt>
      <trkpt lat="43.21164" lon="5.35721">
        <ele>74.800003051758</ele>
        <time>2019-05-23T07:26:29.000Z</time>
      </trkpt>
      <trkpt lat="43.21162" lon="5.35718">
        <ele>75.400001525879</ele>
        <time>2019-05-23T07:26:31.000Z</time>
      </trkpt>
      <trkpt lat="43.21161" lon="5.35715">
        <ele>76</ele>
        <time>2019-05-23T07:26:33.000Z</time>
      </trkpt>
      <trkpt lat="43.21159" lon="5.35713">
        <ele>76.599998474121</ele>
        <time>2019-05-23T07:26:35.000Z</time>
      </trkpt>
      <trkpt lat="43.21157" lon="5.3571">
        <ele>77.199996948242</ele>
        <time>2019-05-23T07:26:37.000Z</time>
      </trkpt>
      <trkpt lat="43.21152" lon="5.35707">
        <ele>78.199996948242</ele>
        <time>2019-05-23T07:26:41.000Z</time>
      </trkpt>
      <trkpt lat="43.21151" lon="5.35707">
        <ele>78.599998474121</ele>
        <time>2019-05-23T07:26:42.000Z</time>
      </trkpt>
      <trkpt lat="43.21147" lon="5.35707">
        <ele>79.199996948242</ele>
        <time>2019-05-23T07:26:45.000Z</time>
      </trkpt>
      <trkpt lat="43.21144" lon="5.35707">
        <ele>79.599998474121</ele>
        <time>2019-05-23T07:26:48.000Z</time>
      </trkpt>
      <trkpt lat="43.21141" lon="5.35707">
        <ele>80.199996948242</ele>
        <time>2019-05-23T07:26:51.000Z</time>
      </trkpt>
      <trkpt lat="43.21139" lon="5.35707">
        <ele>80.400001525879</ele>
        <time>2019-05-23T07:26:52.000Z</time>
      </trkpt>
      <trkpt lat="43.21138" lon="5.35707">
        <ele>80.599998474121</ele>
        <time>2019-05-23T07:26:53.000Z</time>
      </trkpt>
      <trkpt lat="43.21136" lon="5.35708">
        <ele>81.199996948242</ele>
        <time>2019-05-23T07:26:55.000Z</time>
      </trkpt>
      <trkpt lat="43.21134" lon="5.35708">
        <ele>81.599998474121</ele>
        <time>2019-05-23T07:26:56.000Z</time>
      </trkpt>
      <trkpt lat="43.2113" lon="5.35711">
        <ele>82.800003051758</ele>
        <time>2019-05-23T07:27:00.000Z</time>
      </trkpt>
      <trkpt lat="43.21129" lon="5.35711">
        <ele>83.599998474121</ele>
        <time>2019-05-23T07:27:02.000Z</time>
      </trkpt>
      <trkpt lat="43.21128" lon="5.35712">
        <ele>84</ele>
        <time>2019-05-23T07:27:03.000Z</time>
      </trkpt>
      <trkpt lat="43.21126" lon="5.35712">
        <ele>84.599998474121</ele>
        <time>2019-05-23T07:27:05.000Z</time>
      </trkpt>
      <trkpt lat="43.21124" lon="5.35711">
        <ele>85.400001525879</ele>
        <time>2019-05-23T07:27:07.000Z</time>
      </trkpt>
      <trkpt lat="43.21122" lon="5.3571">
        <ele>86</ele>
        <time>2019-05-23T07:27:09.000Z</time>
      </trkpt>
      <trkpt lat="43.21121" lon="5.3571">
        <ele>86.199996948242</ele>
        <time>2019-05-23T07:27:10.000Z</time>
      </trkpt>
      <trkpt lat="43.2112" lon="5.3571">
        <ele>86.599998474121</ele>
        <time>2019-05-23T07:27:11.000Z</time>
      </trkpt>
      <trkpt lat="43.21119" lon="5.3571">
        <ele>87</ele>
        <time>2019-05-23T07:27:12.000Z</time>
      </trkpt>
      <trkpt lat="43.21118" lon="5.35711">
        <ele>87.199996948242</ele>
        <time>2019-05-23T07:27:13.000Z</time>
      </trkpt>
      <trkpt lat="43.21121" lon="5.35707">
        <ele>87.599998474121</ele>
        <time>2019-05-23T07:27:15.000Z</time>
      </trkpt>
      <trkpt lat="43.2112" lon="5.35708">
        <ele>87.800003051758</ele>
        <time>2019-05-23T07:27:16.000Z</time>
      </trkpt>
      <trkpt lat="43.2112" lon="5.35709">
        <ele>88.400001525879</ele>
        <time>2019-05-23T07:27:18.000Z</time>
      </trkpt>
      <trkpt lat="43.21118" lon="5.35711">
        <ele>89</ele>
        <time>2019-05-23T07:27:20.000Z</time>
      </trkpt>
      <trkpt lat="43.21116" lon="5.35712">
        <ele>89.400001525879</ele>
        <time>2019-05-23T07:27:22.000Z</time>
      </trkpt>
      <trkpt lat="43.21115" lon="5.35712">
        <ele>89.800003051758</ele>
        <time>2019-05-23T07:27:23.000Z</time>
      </trkpt>
      <trkpt lat="43.21115" lon="5.35712">
        <ele>90.199996948242</ele>
        <time>2019-05-23T07:27:24.000Z</time>
      </trkpt>
      <trkpt lat="43.21114" lon="5.35714">
        <ele>90.800003051758</ele>
        <time>2019-05-23T07:27:26.000Z</time>
      </trkpt>
      <trkpt lat="43.21114" lon="5.35717">
        <ele>91.400001525879</ele>
        <time>2019-05-23T07:27:28.000Z</time>
      </trkpt>
      <trkpt lat="43.21115" lon="5.35719">
        <ele>91.599998474121</ele>
        <time>2019-05-23T07:27:29.000Z</time>
      </trkpt>
      <trkpt lat="43.21115" lon="5.35724">
        <ele>92.400001525879</ele>
        <time>2019-05-23T07:27:32.000Z</time>
      </trkpt>
      <trkpt lat="43.21116" lon="5.35726">
        <ele>92.599998474121</ele>
        <time>2019-05-23T07:27:33.000Z</time>
      </trkpt>
      <trkpt lat="43.21116" lon="5.35727">
        <ele>92.599998474121</ele>
        <time>2019-05-23T07:27:34.000Z</time>
      </trkpt>
      <trkpt lat="43.21119" lon="5.35735">
        <ele>93.400001525879</ele>
        <time>2019-05-23T07:27:39.000Z</time>
      </trkpt>
      <trkpt lat="43.2112" lon="5.35736">
        <ele>93.400001525879</ele>
        <time>2019-05-23T07:27:40.000Z</time>
      </trkpt>
      <trkpt lat="43.21121" lon="5.35738">
        <ele>93.599998474121</ele>
        <time>2019-05-23T07:27:41.000Z</time>
      </trkpt>
      <trkpt lat="43.21123" lon="5.35743">
        <ele>94</ele>
        <time>2019-05-23T07:27:43.000Z</time>
      </trkpt>
      <trkpt lat="43.21125" lon="5.35745">
        <ele>94.199996948242</ele>
        <time>2019-05-23T07:27:45.000Z</time>
      </trkpt>
      <trkpt lat="43.21126" lon="5.35747">
        <ele>94.400001525879</ele>
        <time>2019-05-23T07:27:46.000Z</time>
      </trkpt>
      <trkpt lat="43.21127" lon="5.35748">
        <ele>94.599998474121</ele>
        <time>2019-05-23T07:27:47.000Z</time>
      </trkpt>
      <trkpt lat="43.2113" lon="5.35751">
        <ele>95</ele>
        <time>2019-05-23T07:27:49.000Z</time>
      </trkpt>
      <trkpt lat="43.21132" lon="5.35752">
        <ele>95.199996948242</ele>
        <time>2019-05-23T07:27:50.000Z</time>
      </trkpt>
      <trkpt lat="43.21133" lon="5.35753">
        <ele>95.599998474121</ele>
        <time>2019-05-23T07:27:51.000Z</time>
      </trkpt>
      <trkpt lat="43.21135" lon="5.35755">
        <ele>96</ele>
        <time>2019-05-23T07:27:52.000Z</time>
      </trkpt>
      <trkpt lat="43.21141" lon="5.35761">
        <ele>96</ele>
        <time>2019-05-23T07:27:57.000Z</time>
      </trkpt>
      <trkpt lat="43.21142" lon="5.35763">
        <ele>96</ele>
        <time>2019-05-23T07:27:58.000Z</time>
      </trkpt>
      <trkpt lat="43.21143" lon="5.35764">
        <ele>96</ele>
        <time>2019-05-23T07:27:59.000Z</time>
      </trkpt>
      <trkpt lat="43.21147" lon="5.35769">
        <ele>96.400001525879</ele>
        <time>2019-05-23T07:28:02.000Z</time>
      </trkpt>
      <trkpt lat="43.21148" lon="5.35773">
        <ele>96.599998474121</ele>
        <time>2019-05-23T07:28:04.000Z</time>
      </trkpt>
      <trkpt lat="43.21149" lon="5.35775">
        <ele>96.800003051758</ele>
        <time>2019-05-23T07:28:05.000Z</time>
      </trkpt>
      <trkpt lat="43.2115" lon="5.35777">
        <ele>97</ele>
        <time>2019-05-23T07:28:06.000Z</time>
      </trkpt>
      <trkpt lat="43.21152" lon="5.35781">
        <ele>97.199996948242</ele>
        <time>2019-05-23T07:28:08.000Z</time>
      </trkpt>
      <trkpt lat="43.21155" lon="5.35788">
        <ele>97.199996948242</ele>
        <time>2019-05-23T07:28:11.000Z</time>
      </trkpt>
      <trkpt lat="43.21164" lon="5.35803">
        <ele>97.800003051758</ele>
        <time>2019-05-23T07:28:17.000Z</time>
      </trkpt>
      <trkpt lat="43.21165" lon="5.35806">
        <ele>98</ele>
        <time>2019-05-23T07:28:18.000Z</time>
      </trkpt>
      <trkpt lat="43.21168" lon="5.3581">
        <ele>98.199996948242</ele>
        <time>2019-05-23T07:28:20.000Z</time>
      </trkpt>
      <trkpt lat="43.21171" lon="5.35813">
        <ele>98.400001525879</ele>
        <time>2019-05-23T07:28:22.000Z</time>
      </trkpt>
      <trkpt lat="43.21176" lon="5.35818">
        <ele>99</ele>
        <time>2019-05-23T07:28:26.000Z</time>
      </trkpt>
      <trkpt lat="43.21178" lon="5.35819">
        <ele>99.400001525879</ele>
        <time>2019-05-23T07:28:28.000Z</time>
      </trkpt>
      <trkpt lat="43.21179" lon="5.35819">
        <ele>99.599998474121</ele>
        <time>2019-05-23T07:28:29.000Z</time>
      </trkpt>
      <trkpt lat="43.21181" lon="5.35821">
        <ele>100.40000152588</ele>
        <time>2019-05-23T07:28:31.000Z</time>
      </trkpt>
      <trkpt lat="43.21185" lon="5.35826">
        <ele>101.59999847412</ele>
        <time>2019-05-23T07:28:35.000Z</time>
      </trkpt>
      <trkpt lat="43.21188" lon="5.35831">
        <ele>102.80000305176</ele>
        <time>2019-05-23T07:28:39.000Z</time>
      </trkpt>
      <trkpt lat="43.21189" lon="5.35832">
        <ele>103</ele>
        <time>2019-05-23T07:28:40.000Z</time>
      </trkpt>
      <trkpt lat="43.21194" lon="5.35837">
        <ele>103.80000305176</ele>
        <time>2019-05-23T07:28:45.000Z</time>
      </trkpt>
      <trkpt lat="43.21197" lon="5.3584">
        <ele>104.59999847412</ele>
        <time>2019-05-23T07:28:48.000Z</time>
      </trkpt>
      <trkpt lat="43.21198" lon="5.35842">
        <ele>105</ele>
        <time>2019-05-23T07:28:50.000Z</time>
      </trkpt>
      <trkpt lat="43.212" lon="5.35844">
        <ele>105.40000152588</ele>
        <time>2019-05-23T07:28:52.000Z</time>
      </trkpt>
      <trkpt lat="43.21203" lon="5.35847">
        <ele>106</ele>
        <time>2019-05-23T07:28:55.000Z</time>
      </trkpt>
      <trkpt lat="43.21207" lon="5.35851">
        <ele>107.40000152588</ele>
        <time>2019-05-23T07:28:59.000Z</time>
      </trkpt>
      <trkpt lat="43.21209" lon="5.35854">
        <ele>107.80000305176</ele>
        <time>2019-05-23T07:29:01.000Z</time>
      </trkpt>
      <trkpt lat="43.2121" lon="5.35859">
        <ele>108.40000152588</ele>
        <time>2019-05-23T07:29:04.000Z</time>
      </trkpt>
      <trkpt lat="43.21213" lon="5.35862">
        <ele>109.19999694824</ele>
        <time>2019-05-23T07:29:08.000Z</time>
      </trkpt>
      <trkpt lat="43.21213" lon="5.35862">
        <ele>109.40000152588</ele>
        <time>2019-05-23T07:29:09.000Z</time>
      </trkpt>
      <trkpt lat="43.21217" lon="5.35866">
        <ele>110.19999694824</ele>
        <time>2019-05-23T07:29:13.000Z</time>
      </trkpt>
      <trkpt lat="43.21218" lon="5.35867">
        <ele>110.59999847412</ele>
        <time>2019-05-23T07:29:14.000Z</time>
      </trkpt>
      <trkpt lat="43.21221" lon="5.35871">
        <ele>111.19999694824</ele>
        <time>2019-05-23T07:29:18.000Z</time>
      </trkpt>
      <trkpt lat="43.21221" lon="5.35873">
        <ele>111.59999847412</ele>
        <time>2019-05-23T07:29:19.000Z</time>
      </trkpt>
      <trkpt lat="43.21222" lon="5.35874">
        <ele>112</ele>
        <time>2019-05-23T07:29:20.000Z</time>
      </trkpt>
      <trkpt lat="43.21222" lon="5.35879">
        <ele>112.80000305176</ele>
        <time>2019-05-23T07:29:23.000Z</time>
      </trkpt>
      <trkpt lat="43.21223" lon="5.35883">
        <ele>113.40000152588</ele>
        <time>2019-05-23T07:29:27.000Z</time>
      </trkpt>
      <trkpt lat="43.21224" lon="5.35885">
        <ele>113.80000305176</ele>
        <time>2019-05-23T07:29:29.000Z</time>
      </trkpt>
      <trkpt lat="43.21227" lon="5.35889">
        <ele>115</ele>
        <time>2019-05-23T07:29:33.000Z</time>
      </trkpt>
      <trkpt lat="43.21228" lon="5.35889">
        <ele>115.19999694824</ele>
        <time>2019-05-23T07:29:34.000Z</time>
      </trkpt>
      <trkpt lat="43.21232" lon="5.35889">
        <ele>115.80000305176</ele>
        <time>2019-05-23T07:29:36.000Z</time>
      </trkpt>
      <trkpt lat="43.21236" lon="5.35889">
        <ele>116.19999694824</ele>
        <time>2019-05-23T07:29:38.000Z</time>
      </trkpt>
      <trkpt lat="43.21238" lon="5.35889">
        <ele>116.40000152588</ele>
        <time>2019-05-23T07:29:39.000Z</time>
      </trkpt>
      <trkpt lat="43.21245" lon="5.35888">
        <ele>117.40000152588</ele>
        <time>2019-05-23T07:29:42.000Z</time>
      </trkpt>
      <trkpt lat="43.21246" lon="5.35888">
        <ele>117.59999847412</ele>
        <time>2019-05-23T07:29:43.000Z</time>
      </trkpt>
      <trkpt lat="43.2125" lon="5.35888">
        <ele>118.40000152588</ele>
        <time>2019-05-23T07:29:45.000Z</time>
      </trkpt>
      <trkpt lat="43.21258" lon="5.35896">
        <ele>119.40000152588</ele>
        <time>2019-05-23T07:29:50.000Z</time>
      </trkpt>
      <trkpt lat="43.2126" lon="5.35898">
        <ele>119.40000152588</ele>
        <time>2019-05-23T07:29:51.000Z</time>
      </trkpt>
      <trkpt lat="43.21265" lon="5.35913">
        <ele>119.80000305176</ele>
        <time>2019-05-23T07:29:56.000Z</time>
      </trkpt>
      <trkpt lat="43.21266" lon="5.35916">
        <ele>119.80000305176</ele>
        <time>2019-05-23T07:29:57.000Z</time>
      </trkpt>
      <trkpt lat="43.21267" lon="5.35922">
        <ele>119</ele>
        <time>2019-05-23T07:29:59.000Z</time>
      </trkpt>
      <trkpt lat="43.21267" lon="5.35924">
        <ele>118.59999847412</ele>
        <time>2019-05-23T07:30:00.000Z</time>
      </trkpt>
      <trkpt lat="43.21268" lon="5.35926">
        <ele>118.19999694824</ele>
        <time>2019-05-23T07:30:01.000Z</time>
      </trkpt>
      <trkpt lat="43.21269" lon="5.35931">
        <ele>117.59999847412</ele>
        <time>2019-05-23T07:30:03.000Z</time>
      </trkpt>
      <trkpt lat="43.21269" lon="5.35934">
        <ele>117.19999694824</ele>
        <time>2019-05-23T07:30:04.000Z</time>
      </trkpt>
      <trkpt lat="43.2127" lon="5.35936">
        <ele>117</ele>
        <time>2019-05-23T07:30:05.000Z</time>
      </trkpt>
      <trkpt lat="43.21272" lon="5.35944">
        <ele>116.19999694824</ele>
        <time>2019-05-23T07:30:08.000Z</time>
      </trkpt>
      <trkpt lat="43.21273" lon="5.35947">
        <ele>116.19999694824</ele>
        <time>2019-05-23T07:30:09.000Z</time>
      </trkpt>
      <trkpt lat="43.21274" lon="5.35952">
        <ele>116</ele>
        <time>2019-05-23T07:30:11.000Z</time>
      </trkpt>
      <trkpt lat="43.21274" lon="5.35957">
        <ele>116.19999694824</ele>
        <time>2019-05-23T07:30:13.000Z</time>
      </trkpt>
      <trkpt lat="43.21276" lon="5.35964">
        <ele>117</ele>
        <time>2019-05-23T07:30:16.000Z</time>
      </trkpt>
      <trkpt lat="43.21276" lon="5.35966">
        <ele>117.19999694824</ele>
        <time>2019-05-23T07:30:17.000Z</time>
      </trkpt>
      <trkpt lat="43.21277" lon="5.35968">
        <ele>117.59999847412</ele>
        <time>2019-05-23T07:30:18.000Z</time>
      </trkpt>
      <trkpt lat="43.21277" lon="5.35974">
        <ele>118.40000152588</ele>
        <time>2019-05-23T07:30:21.000Z</time>
      </trkpt>
      <trkpt lat="43.21278" lon="5.35984">
        <ele>119.40000152588</ele>
        <time>2019-05-23T07:30:25.000Z</time>
      </trkpt>
      <trkpt lat="43.21279" lon="5.35991">
        <ele>120.80000305176</ele>
        <time>2019-05-23T07:30:28.000Z</time>
      </trkpt>
      <trkpt lat="43.2128" lon="5.35993">
        <ele>121.40000152588</ele>
        <time>2019-05-23T07:30:29.000Z</time>
      </trkpt>
      <trkpt lat="43.21282" lon="5.35998">
        <ele>122.19999694824</ele>
        <time>2019-05-23T07:30:31.000Z</time>
      </trkpt>
      <trkpt lat="43.21284" lon="5.36007">
        <ele>122.59999847412</ele>
        <time>2019-05-23T07:30:35.000Z</time>
      </trkpt>
      <trkpt lat="43.21285" lon="5.36013">
        <ele>122.40000152588</ele>
        <time>2019-05-23T07:30:38.000Z</time>
      </trkpt>
      <trkpt lat="43.21286" lon="5.36016">
        <ele>122</ele>
        <time>2019-05-23T07:30:40.000Z</time>
      </trkpt>
      <trkpt lat="43.21289" lon="5.36018">
        <ele>122</ele>
        <time>2019-05-23T07:30:42.000Z</time>
      </trkpt>
      <trkpt lat="43.2129" lon="5.36026">
        <ele>123.40000152588</ele>
        <time>2019-05-23T07:30:46.000Z</time>
      </trkpt>
      <trkpt lat="43.2129" lon="5.36031">
        <ele>124.59999847412</ele>
        <time>2019-05-23T07:30:49.000Z</time>
      </trkpt>
      <trkpt lat="43.21288" lon="5.36037">
        <ele>125.59999847412</ele>
        <time>2019-05-23T07:30:52.000Z</time>
      </trkpt>
      <trkpt lat="43.21287" lon="5.36039">
        <ele>125.80000305176</ele>
        <time>2019-05-23T07:30:53.000Z</time>
      </trkpt>
      <trkpt lat="43.21282" lon="5.36051">
        <ele>126.80000305176</ele>
        <time>2019-05-23T07:31:00.000Z</time>
      </trkpt>
      <trkpt lat="43.21281" lon="5.36052">
        <ele>127</ele>
        <time>2019-05-23T07:31:02.000Z</time>
      </trkpt>
      <trkpt lat="43.2128" lon="5.36055">
        <ele>127.19999694824</ele>
        <time>2019-05-23T07:31:04.000Z</time>
      </trkpt>
      <trkpt lat="43.21279" lon="5.36057">
        <ele>127.59999847412</ele>
        <time>2019-05-23T07:31:06.000Z</time>
      </trkpt>
      <trkpt lat="43.21279" lon="5.36057">
        <ele>128</ele>
        <time>2019-05-23T07:31:07.000Z</time>
      </trkpt>
      <trkpt lat="43.21279" lon="5.36058">
        <ele>128.19999694824</ele>
        <time>2019-05-23T07:31:08.000Z</time>
      </trkpt>
      <trkpt lat="43.21277" lon="5.36061">
        <ele>129.19999694824</ele>
        <time>2019-05-23T07:31:11.000Z</time>
      </trkpt>
      <trkpt lat="43.21277" lon="5.36062">
        <ele>129.60000610352</ele>
        <time>2019-05-23T07:31:12.000Z</time>
      </trkpt>
      <trkpt lat="43.21276" lon="5.36066">
        <ele>130.19999694824</ele>
        <time>2019-05-23T07:31:14.000Z</time>
      </trkpt>
      <trkpt lat="43.21276" lon="5.36072">
        <ele>131.19999694824</ele>
        <time>2019-05-23T07:31:18.000Z</time>
      </trkpt>
      <trkpt lat="43.21274" lon="5.36079">
        <ele>132.39999389648</ele>
        <time>2019-05-23T07:31:22.000Z</time>
      </trkpt>
      <trkpt lat="43.21274" lon="5.36084">
        <ele>132.80000305176</ele>
        <time>2019-05-23T07:31:25.000Z</time>
      </trkpt>
      <trkpt lat="43.21274" lon="5.36088">
        <ele>133.19999694824</ele>
        <time>2019-05-23T07:31:28.000Z</time>
      </trkpt>
      <trkpt lat="43.21275" lon="5.36089">
        <ele>133.60000610352</ele>
        <time>2019-05-23T07:31:29.000Z</time>
      </trkpt>
      <trkpt lat="43.21275" lon="5.3609">
        <ele>133.80000305176</ele>
        <time>2019-05-23T07:31:30.000Z</time>
      </trkpt>
      <trkpt lat="43.21281" lon="5.36094">
        <ele>134.19999694824</ele>
        <time>2019-05-23T07:31:34.000Z</time>
      </trkpt>
      <trkpt lat="43.21283" lon="5.36095">
        <ele>134.19999694824</ele>
        <time>2019-05-23T07:31:36.000Z</time>
      </trkpt>
      <trkpt lat="43.21286" lon="5.36099">
        <ele>134.19999694824</ele>
        <time>2019-05-23T07:31:38.000Z</time>
      </trkpt>
      <trkpt lat="43.21289" lon="5.36103">
        <ele>133.60000610352</ele>
        <time>2019-05-23T07:31:40.000Z</time>
      </trkpt>
      <trkpt lat="43.2129" lon="5.36105">
        <ele>133.39999389648</ele>
        <time>2019-05-23T07:31:41.000Z</time>
      </trkpt>
      <trkpt lat="43.21293" lon="5.3611">
        <ele>132.80000305176</ele>
        <time>2019-05-23T07:31:43.000Z</time>
      </trkpt>
      <trkpt lat="43.21297" lon="5.36115">
        <ele>132.39999389648</ele>
        <time>2019-05-23T07:31:46.000Z</time>
      </trkpt>
      <trkpt lat="43.21299" lon="5.36118">
        <ele>132.39999389648</ele>
        <time>2019-05-23T07:31:47.000Z</time>
      </trkpt>
      <trkpt lat="43.21304" lon="5.36126">
        <ele>132.39999389648</ele>
        <time>2019-05-23T07:31:50.000Z</time>
      </trkpt>
      <trkpt lat="43.21308" lon="5.36128">
        <ele>132.19999694824</ele>
        <time>2019-05-23T07:31:52.000Z</time>
      </trkpt>
      <trkpt lat="43.21311" lon="5.3613">
        <ele>132.19999694824</ele>
        <time>2019-05-23T07:31:54.000Z</time>
      </trkpt>
      <trkpt lat="43.21315" lon="5.36134">
        <ele>132.60000610352</ele>
        <time>2019-05-23T07:31:57.000Z</time>
      </trkpt>
      <trkpt lat="43.21317" lon="5.3614">
        <ele>133.19999694824</ele>
        <time>2019-05-23T07:32:00.000Z</time>
      </trkpt>
      <trkpt lat="43.21317" lon="5.36143">
        <ele>133.60000610352</ele>
        <time>2019-05-23T07:32:01.000Z</time>
      </trkpt>
      <trkpt lat="43.21316" lon="5.36149">
        <ele>134.19999694824</ele>
        <time>2019-05-23T07:32:03.000Z</time>
      </trkpt>
      <trkpt lat="43.21315" lon="5.3615">
        <ele>134.39999389648</ele>
        <time>2019-05-23T07:32:04.000Z</time>
      </trkpt>
      <trkpt lat="43.21314" lon="5.36152">
        <ele>134.80000305176</ele>
        <time>2019-05-23T07:32:05.000Z</time>
      </trkpt>
      <trkpt lat="43.21313" lon="5.36154">
        <ele>135</ele>
        <time>2019-05-23T07:32:06.000Z</time>
      </trkpt>
      <trkpt lat="43.21313" lon="5.36158">
        <ele>135.39999389648</ele>
        <time>2019-05-23T07:32:08.000Z</time>
      </trkpt>
      <trkpt lat="43.21313" lon="5.36159">
        <ele>136</ele>
        <time>2019-05-23T07:32:09.000Z</time>
      </trkpt>
      <trkpt lat="43.21314" lon="5.36161">
        <ele>136.60000610352</ele>
        <time>2019-05-23T07:32:11.000Z</time>
      </trkpt>
      <trkpt lat="43.21315" lon="5.36163">
        <ele>137.19999694824</ele>
        <time>2019-05-23T07:32:13.000Z</time>
      </trkpt>
      <trkpt lat="43.21319" lon="5.36168">
        <ele>138</ele>
        <time>2019-05-23T07:32:18.000Z</time>
      </trkpt>
      <trkpt lat="43.2132" lon="5.3617">
        <ele>138.19999694824</ele>
        <time>2019-05-23T07:32:19.000Z</time>
      </trkpt>
      <trkpt lat="43.21322" lon="5.36174">
        <ele>137.80000305176</ele>
        <time>2019-05-23T07:32:21.000Z</time>
      </trkpt>
      <trkpt lat="43.21323" lon="5.36179">
        <ele>137.39999389648</ele>
        <time>2019-05-23T07:32:23.000Z</time>
      </trkpt>
      <trkpt lat="43.21324" lon="5.36181">
        <ele>137.39999389648</ele>
        <time>2019-05-23T07:32:24.000Z</time>
      </trkpt>
      <trkpt lat="43.21328" lon="5.36191">
        <ele>137.39999389648</ele>
        <time>2019-05-23T07:32:30.000Z</time>
      </trkpt>
      <trkpt lat="43.21327" lon="5.36193">
        <ele>138.39999389648</ele>
        <time>2019-05-23T07:32:33.000Z</time>
      </trkpt>
      <trkpt lat="43.21327" lon="5.36196">
        <ele>139.19999694824</ele>
        <time>2019-05-23T07:32:35.000Z</time>
      </trkpt>
      <trkpt lat="43.21327" lon="5.36198">
        <ele>139.60000610352</ele>
        <time>2019-05-23T07:32:37.000Z</time>
      </trkpt>
      <trkpt lat="43.21326" lon="5.362">
        <ele>139.80000305176</ele>
        <time>2019-05-23T07:32:39.000Z</time>
      </trkpt>
      <trkpt lat="43.21326" lon="5.36201">
        <ele>140.19999694824</ele>
        <time>2019-05-23T07:32:41.000Z</time>
      </trkpt>
      <trkpt lat="43.21325" lon="5.36203">
        <ele>140.60000610352</ele>
        <time>2019-05-23T07:32:43.000Z</time>
      </trkpt>
      <trkpt lat="43.21324" lon="5.36204">
        <ele>140.80000305176</ele>
        <time>2019-05-23T07:32:44.000Z</time>
      </trkpt>
      <trkpt lat="43.21324" lon="5.36205">
        <ele>141.19999694824</ele>
        <time>2019-05-23T07:32:45.000Z</time>
      </trkpt>
      <trkpt lat="43.21323" lon="5.36206">
        <ele>141.60000610352</ele>
        <time>2019-05-23T07:32:46.000Z</time>
      </trkpt>
      <trkpt lat="43.21323" lon="5.36209">
        <ele>142.19999694824</ele>
        <time>2019-05-23T07:32:48.000Z</time>
      </trkpt>
      <trkpt lat="43.21322" lon="5.36211">
        <ele>142.60000610352</ele>
        <time>2019-05-23T07:32:50.000Z</time>
      </trkpt>
      <trkpt lat="43.21322" lon="5.36212">
        <ele>142.60000610352</ele>
        <time>2019-05-23T07:32:51.000Z</time>
      </trkpt>
      <trkpt lat="43.21321" lon="5.36215">
        <ele>142.80000305176</ele>
        <time>2019-05-23T07:32:53.000Z</time>
      </trkpt>
      <trkpt lat="43.21319" lon="5.3622">
        <ele>143.39999389648</ele>
        <time>2019-05-23T07:32:56.000Z</time>
      </trkpt>
      <trkpt lat="43.21318" lon="5.36221">
        <ele>143.60000610352</ele>
        <time>2019-05-23T07:32:58.000Z</time>
      </trkpt>
      <trkpt lat="43.21317" lon="5.36224">
        <ele>144</ele>
        <time>2019-05-23T07:33:00.000Z</time>
      </trkpt>
      <trkpt lat="43.21316" lon="5.36227">
        <ele>144.60000610352</ele>
        <time>2019-05-23T07:33:02.000Z</time>
      </trkpt>
      <trkpt lat="43.21316" lon="5.3623">
        <ele>145.19999694824</ele>
        <time>2019-05-23T07:33:04.000Z</time>
      </trkpt>
      <trkpt lat="43.21315" lon="5.36234">
        <ele>145.60000610352</ele>
        <time>2019-05-23T07:33:07.000Z</time>
      </trkpt>
      <trkpt lat="43.21314" lon="5.36237">
        <ele>145.80000305176</ele>
        <time>2019-05-23T07:33:09.000Z</time>
      </trkpt>
      <trkpt lat="43.21314" lon="5.3624">
        <ele>146.19999694824</ele>
        <time>2019-05-23T07:33:11.000Z</time>
      </trkpt>
      <trkpt lat="43.21314" lon="5.36243">
        <ele>146.80000305176</ele>
        <time>2019-05-23T07:33:13.000Z</time>
      </trkpt>
      <trkpt lat="43.21314" lon="5.36245">
        <ele>147</ele>
        <time>2019-05-23T07:33:14.000Z</time>
      </trkpt>
      <trkpt lat="43.21314" lon="5.36251">
        <ele>148</ele>
        <time>2019-05-23T07:33:17.000Z</time>
      </trkpt>
      <trkpt lat="43.21314" lon="5.36255">
        <ele>148.39999389648</ele>
        <time>2019-05-23T07:33:20.000Z</time>
      </trkpt>
      <trkpt lat="43.21315" lon="5.36257">
        <ele>148.39999389648</ele>
        <time>2019-05-23T07:33:21.000Z</time>
      </trkpt>
      <trkpt lat="43.21318" lon="5.3626">
        <ele>148</ele>
        <time>2019-05-23T07:33:23.000Z</time>
      </trkpt>
      <trkpt lat="43.21319" lon="5.3626">
        <ele>147.39999389648</ele>
        <time>2019-05-23T07:33:24.000Z</time>
      </trkpt>
      <trkpt lat="43.21321" lon="5.36262">
        <ele>147</ele>
        <time>2019-05-23T07:33:25.000Z</time>
      </trkpt>
      <trkpt lat="43.21323" lon="5.36262">
        <ele>146.80000305176</ele>
        <time>2019-05-23T07:33:26.000Z</time>
      </trkpt>
      <trkpt lat="43.21325" lon="5.36263">
        <ele>146.60000610352</ele>
        <time>2019-05-23T07:33:27.000Z</time>
      </trkpt>
      <trkpt lat="43.21327" lon="5.36263">
        <ele>146.60000610352</ele>
        <time>2019-05-23T07:33:28.000Z</time>
      </trkpt>
      <trkpt lat="43.21331" lon="5.36264">
        <ele>146.39999389648</ele>
        <time>2019-05-23T07:33:30.000Z</time>
      </trkpt>
      <trkpt lat="43.21333" lon="5.36264">
        <ele>146.39999389648</ele>
        <time>2019-05-23T07:33:31.000Z</time>
      </trkpt>
      <trkpt lat="43.21336" lon="5.36264">
        <ele>146.19999694824</ele>
        <time>2019-05-23T07:33:32.000Z</time>
      </trkpt>
      <trkpt lat="43.21337" lon="5.36265">
        <ele>146</ele>
        <time>2019-05-23T07:33:33.000Z</time>
      </trkpt>
      <trkpt lat="43.21342" lon="5.36267">
        <ele>145.60000610352</ele>
        <time>2019-05-23T07:33:35.000Z</time>
      </trkpt>
      <trkpt lat="43.21347" lon="5.36271">
        <ele>145.19999694824</ele>
        <time>2019-05-23T07:33:38.000Z</time>
      </trkpt>
      <trkpt lat="43.2135" lon="5.36274">
        <ele>145.19999694824</ele>
        <time>2019-05-23T07:33:40.000Z</time>
      </trkpt>
      <trkpt lat="43.21351" lon="5.36278">
        <ele>145.19999694824</ele>
        <time>2019-05-23T07:33:42.000Z</time>
      </trkpt>
      <trkpt lat="43.21353" lon="5.36284">
        <ele>145.80000305176</ele>
        <time>2019-05-23T07:33:44.000Z</time>
      </trkpt>
      <trkpt lat="43.21356" lon="5.36287">
        <ele>146.39999389648</ele>
        <time>2019-05-23T07:33:46.000Z</time>
      </trkpt>
      <trkpt lat="43.21357" lon="5.36289">
        <ele>146.60000610352</ele>
        <time>2019-05-23T07:33:47.000Z</time>
      </trkpt>
      <trkpt lat="43.21358" lon="5.3629">
        <ele>146.80000305176</ele>
        <time>2019-05-23T07:33:48.000Z</time>
      </trkpt>
      <trkpt lat="43.21359" lon="5.36293">
        <ele>146.80000305176</ele>
        <time>2019-05-23T07:33:50.000Z</time>
      </trkpt>
      <trkpt lat="43.2136" lon="5.36295">
        <ele>146.80000305176</ele>
        <time>2019-05-23T07:33:51.000Z</time>
      </trkpt>
      <trkpt lat="43.2136" lon="5.36297">
        <ele>146.80000305176</ele>
        <time>2019-05-23T07:33:52.000Z</time>
      </trkpt>
      <trkpt lat="43.21361" lon="5.36302">
        <ele>146.80000305176</ele>
        <time>2019-05-23T07:33:54.000Z</time>
      </trkpt>
      <trkpt lat="43.21362" lon="5.36305">
        <ele>146.60000610352</ele>
        <time>2019-05-23T07:33:55.000Z</time>
      </trkpt>
      <trkpt lat="43.21362" lon="5.36307">
        <ele>146.39999389648</ele>
        <time>2019-05-23T07:33:56.000Z</time>
      </trkpt>
      <trkpt lat="43.21363" lon="5.36311">
        <ele>146.19999694824</ele>
        <time>2019-05-23T07:33:58.000Z</time>
      </trkpt>
      <trkpt lat="43.21362" lon="5.36315">
        <ele>146.19999694824</ele>
        <time>2019-05-23T07:34:00.000Z</time>
      </trkpt>
      <trkpt lat="43.21361" lon="5.3632">
        <ele>146.19999694824</ele>
        <time>2019-05-23T07:34:02.000Z</time>
      </trkpt>
      <trkpt lat="43.21358" lon="5.36327">
        <ele>145.80000305176</ele>
        <time>2019-05-23T07:34:05.000Z</time>
      </trkpt>
      <trkpt lat="43.21356" lon="5.36329">
        <ele>145.80000305176</ele>
        <time>2019-05-23T07:34:06.000Z</time>
      </trkpt>
      <trkpt lat="43.21355" lon="5.3633">
        <ele>146</ele>
        <time>2019-05-23T07:34:07.000Z</time>
      </trkpt>
      <trkpt lat="43.21349" lon="5.36332">
        <ele>147</ele>
        <time>2019-05-23T07:34:11.000Z</time>
      </trkpt>
      <trkpt lat="43.21347" lon="5.36333">
        <ele>147</ele>
        <time>2019-05-23T07:34:12.000Z</time>
      </trkpt>
      <trkpt lat="43.21338" lon="5.36335">
        <ele>147</ele>
        <time>2019-05-23T07:34:16.000Z</time>
      </trkpt>
      <trkpt lat="43.21332" lon="5.36346">
        <ele>147.80000305176</ele>
        <time>2019-05-23T07:34:22.000Z</time>
      </trkpt>
      <trkpt lat="43.21329" lon="5.36352">
        <ele>149</ele>
        <time>2019-05-23T07:34:25.000Z</time>
      </trkpt>
      <trkpt lat="43.21326" lon="5.36355">
        <ele>149.19999694824</ele>
        <time>2019-05-23T07:34:27.000Z</time>
      </trkpt>
      <trkpt lat="43.21325" lon="5.36359">
        <ele>149.39999389648</ele>
        <time>2019-05-23T07:34:29.000Z</time>
      </trkpt>
      <trkpt lat="43.21323" lon="5.36367">
        <ele>150</ele>
        <time>2019-05-23T07:34:32.000Z</time>
      </trkpt>
      <trkpt lat="43.21323" lon="5.36381">
        <ele>151</ele>
        <time>2019-05-23T07:34:37.000Z</time>
      </trkpt>
      <trkpt lat="43.21323" lon="5.36383">
        <ele>151.19999694824</ele>
        <time>2019-05-23T07:34:38.000Z</time>
      </trkpt>
      <trkpt lat="43.21323" lon="5.36393">
        <ele>152.60000610352</ele>
        <time>2019-05-23T07:34:43.000Z</time>
      </trkpt>
      <trkpt lat="43.21325" lon="5.36395">
        <ele>153.19999694824</ele>
        <time>2019-05-23T07:34:45.000Z</time>
      </trkpt>
      <trkpt lat="43.21326" lon="5.36396">
        <ele>153.60000610352</ele>
        <time>2019-05-23T07:34:46.000Z</time>
      </trkpt>
      <trkpt lat="43.21328" lon="5.36399">
        <ele>154.19999694824</ele>
        <time>2019-05-23T07:34:48.000Z</time>
      </trkpt>
      <trkpt lat="43.21328" lon="5.36401">
        <ele>154.19999694824</ele>
        <time>2019-05-23T07:34:49.000Z</time>
      </trkpt>
      <trkpt lat="43.21331" lon="5.36406">
        <ele>154.19999694824</ele>
        <time>2019-05-23T07:34:52.000Z</time>
      </trkpt>
      <trkpt lat="43.21337" lon="5.36413">
        <ele>153</ele>
        <time>2019-05-23T07:34:56.000Z</time>
      </trkpt>
      <trkpt lat="43.21339" lon="5.36414">
        <ele>152.60000610352</ele>
        <time>2019-05-23T07:34:57.000Z</time>
      </trkpt>
      <trkpt lat="43.21341" lon="5.36415">
        <ele>152.19999694824</ele>
        <time>2019-05-23T07:34:58.000Z</time>
      </trkpt>
      <trkpt lat="43.21344" lon="5.36418">
        <ele>151.80000305176</ele>
        <time>2019-05-23T07:35:00.000Z</time>
      </trkpt>
      <trkpt lat="43.21346" lon="5.36419">
        <ele>151.80000305176</ele>
        <time>2019-05-23T07:35:01.000Z</time>
      </trkpt>
      <trkpt lat="43.21351" lon="5.36424">
        <ele>151.80000305176</ele>
        <time>2019-05-23T07:35:04.000Z</time>
      </trkpt>
      <trkpt lat="43.21355" lon="5.36427">
        <ele>151.60000610352</ele>
        <time>2019-05-23T07:35:06.000Z</time>
      </trkpt>
      <trkpt lat="43.21356" lon="5.36427">
        <ele>151.19999694824</ele>
        <time>2019-05-23T07:35:07.000Z</time>
      </trkpt>
      <trkpt lat="43.21359" lon="5.36428">
        <ele>150</ele>
        <time>2019-05-23T07:35:10.000Z</time>
      </trkpt>
      <trkpt lat="43.21361" lon="5.36429">
        <ele>149.60000610352</ele>
        <time>2019-05-23T07:35:11.000Z</time>
      </trkpt>
      <trkpt lat="43.21362" lon="5.3643">
        <ele>148.60000610352</ele>
        <time>2019-05-23T07:35:12.000Z</time>
      </trkpt>
      <trkpt lat="43.21367" lon="5.36431">
        <ele>147.60000610352</ele>
        <time>2019-05-23T07:35:14.000Z</time>
      </trkpt>
      <trkpt lat="43.21369" lon="5.36431">
        <ele>147.39999389648</ele>
        <time>2019-05-23T07:35:15.000Z</time>
      </trkpt>
      <trkpt lat="43.21373" lon="5.36429">
        <ele>146.60000610352</ele>
        <time>2019-05-23T07:35:18.000Z</time>
      </trkpt>
      <trkpt lat="43.21375" lon="5.36428">
        <ele>146.39999389648</ele>
        <time>2019-05-23T07:35:19.000Z</time>
      </trkpt>
      <trkpt lat="43.21377" lon="5.36428">
        <ele>146.19999694824</ele>
        <time>2019-05-23T07:35:20.000Z</time>
      </trkpt>
      <trkpt lat="43.21382" lon="5.36428">
        <ele>146</ele>
        <time>2019-05-23T07:35:22.000Z</time>
      </trkpt>
      <trkpt lat="43.21384" lon="5.36429">
        <ele>145.80000305176</ele>
        <time>2019-05-23T07:35:23.000Z</time>
      </trkpt>
      <trkpt lat="43.21385" lon="5.36428">
        <ele>145.39999389648</ele>
        <time>2019-05-23T07:35:24.000Z</time>
      </trkpt>
      <trkpt lat="43.21388" lon="5.36429">
        <ele>144.60000610352</ele>
        <time>2019-05-23T07:35:26.000Z</time>
      </trkpt>
      <trkpt lat="43.2139" lon="5.36429">
        <ele>144.19999694824</ele>
        <time>2019-05-23T07:35:27.000Z</time>
      </trkpt>
      <trkpt lat="43.21393" lon="5.36429">
        <ele>143.80000305176</ele>
        <time>2019-05-23T07:35:28.000Z</time>
      </trkpt>
      <trkpt lat="43.214" lon="5.36432">
        <ele>142.80000305176</ele>
        <time>2019-05-23T07:35:31.000Z</time>
      </trkpt>
      <trkpt lat="43.21404" lon="5.36437">
        <ele>141.60000610352</ele>
        <time>2019-05-23T07:35:33.000Z</time>
      </trkpt>
      <trkpt lat="43.21414" lon="5.36443">
        <ele>140.60000610352</ele>
        <time>2019-05-23T07:35:38.000Z</time>
      </trkpt>
      <trkpt lat="43.21418" lon="5.36445">
        <ele>141.19999694824</ele>
        <time>2019-05-23T07:35:41.000Z</time>
      </trkpt>
      <trkpt lat="43.2142" lon="5.3645">
        <ele>141.39999389648</ele>
        <time>2019-05-23T07:35:43.000Z</time>
      </trkpt>
      <trkpt lat="43.21421" lon="5.36452">
        <ele>141.80000305176</ele>
        <time>2019-05-23T07:35:44.000Z</time>
      </trkpt>
      <trkpt lat="43.21425" lon="5.36457">
        <ele>142.39999389648</ele>
        <time>2019-05-23T07:35:48.000Z</time>
      </trkpt>
      <trkpt lat="43.21429" lon="5.36468">
        <ele>142</ele>
        <time>2019-05-23T07:35:53.000Z</time>
      </trkpt>
      <trkpt lat="43.21434" lon="5.36486">
        <ele>142.80000305176</ele>
        <time>2019-05-23T07:35:58.000Z</time>
      </trkpt>
      <trkpt lat="43.21434" lon="5.36488">
        <ele>143</ele>
        <time>2019-05-23T07:35:59.000Z</time>
      </trkpt>
      <trkpt lat="43.21435" lon="5.36495">
        <ele>143.80000305176</ele>
        <time>2019-05-23T07:36:02.000Z</time>
      </trkpt>
      <trkpt lat="43.21435" lon="5.36501">
        <ele>144.19999694824</ele>
        <time>2019-05-23T07:36:04.000Z</time>
      </trkpt>
      <trkpt lat="43.21436" lon="5.36504">
        <ele>144</ele>
        <time>2019-05-23T07:36:05.000Z</time>
      </trkpt>
      <trkpt lat="43.21438" lon="5.36512">
        <ele>144.60000610352</ele>
        <time>2019-05-23T07:36:08.000Z</time>
      </trkpt>
      <trkpt lat="43.2144" lon="5.36517">
        <ele>145</ele>
        <time>2019-05-23T07:36:10.000Z</time>
      </trkpt>
      <trkpt lat="43.21445" lon="5.36528">
        <ele>144.60000610352</ele>
        <time>2019-05-23T07:36:16.000Z</time>
      </trkpt>
      <trkpt lat="43.21449" lon="5.36535">
        <ele>143.80000305176</ele>
        <time>2019-05-23T07:36:20.000Z</time>
      </trkpt>
      <trkpt lat="43.2145" lon="5.36537">
        <ele>143.80000305176</ele>
        <time>2019-05-23T07:36:21.000Z</time>
      </trkpt>
      <trkpt lat="43.21455" lon="5.36545">
        <ele>144</ele>
        <time>2019-05-23T07:36:25.000Z</time>
      </trkpt>
      <trkpt lat="43.21462" lon="5.3655">
        <ele>143.80000305176</ele>
        <time>2019-05-23T07:36:30.000Z</time>
      </trkpt>
      <trkpt lat="43.21467" lon="5.36554">
        <ele>143.39999389648</ele>
        <time>2019-05-23T07:36:33.000Z</time>
      </trkpt>
      <trkpt lat="43.21469" lon="5.36556">
        <ele>143.19999694824</ele>
        <time>2019-05-23T07:36:34.000Z</time>
      </trkpt>
      <trkpt lat="43.21474" lon="5.36567">
        <ele>143.19999694824</ele>
        <time>2019-05-23T07:36:38.000Z</time>
      </trkpt>
      <trkpt lat="43.21476" lon="5.36569">
        <ele>143.19999694824</ele>
        <time>2019-05-23T07:36:39.000Z</time>
      </trkpt>
      <trkpt lat="43.21479" lon="5.36572">
        <ele>143.19999694824</ele>
        <time>2019-05-23T07:36:41.000Z</time>
      </trkpt>
      <trkpt lat="43.21483" lon="5.36579">
        <ele>142.80000305176</ele>
        <time>2019-05-23T07:36:44.000Z</time>
      </trkpt>
      <trkpt lat="43.21487" lon="5.36593">
        <ele>143.39999389648</ele>
        <time>2019-05-23T07:36:49.000Z</time>
      </trkpt>
      <trkpt lat="43.21488" lon="5.36598">
        <ele>144</ele>
        <time>2019-05-23T07:36:51.000Z</time>
      </trkpt>
      <trkpt lat="43.21488" lon="5.36602">
        <ele>143.80000305176</ele>
        <time>2019-05-23T07:36:53.000Z</time>
      </trkpt>
      <trkpt lat="43.21487" lon="5.36615">
        <ele>143.39999389648</ele>
        <time>2019-05-23T07:36:58.000Z</time>
      </trkpt>
      <trkpt lat="43.21486" lon="5.36629">
        <ele>144.80000305176</ele>
        <time>2019-05-23T07:37:04.000Z</time>
      </trkpt>
      <trkpt lat="43.21486" lon="5.36631">
        <ele>144.80000305176</ele>
        <time>2019-05-23T07:37:05.000Z</time>
      </trkpt>
      <trkpt lat="43.21486" lon="5.3664">
        <ele>145.39999389648</ele>
        <time>2019-05-23T07:37:10.000Z</time>
      </trkpt>
      <trkpt lat="43.21486" lon="5.36644">
        <ele>146</ele>
        <time>2019-05-23T07:37:12.000Z</time>
      </trkpt>
      <trkpt lat="43.21486" lon="5.36652">
        <ele>147</ele>
        <time>2019-05-23T07:37:16.000Z</time>
      </trkpt>
      <trkpt lat="43.21486" lon="5.36655">
        <ele>147.19999694824</ele>
        <time>2019-05-23T07:37:17.000Z</time>
      </trkpt>
      <trkpt lat="43.21486" lon="5.3666">
        <ele>147.80000305176</ele>
        <time>2019-05-23T07:37:19.000Z</time>
      </trkpt>
      <trkpt lat="43.21489" lon="5.36665">
        <ele>148</ele>
        <time>2019-05-23T07:37:21.000Z</time>
      </trkpt>
      <trkpt lat="43.21496" lon="5.36668">
        <ele>148</ele>
        <time>2019-05-23T07:37:26.000Z</time>
      </trkpt>
      <trkpt lat="43.21505" lon="5.36668">
        <ele>147.39999389648</ele>
        <time>2019-05-23T07:37:31.000Z</time>
      </trkpt>
      <trkpt lat="43.21508" lon="5.36667">
        <ele>146.80000305176</ele>
        <time>2019-05-23T07:37:33.000Z</time>
      </trkpt>
      <trkpt lat="43.21512" lon="5.36668">
        <ele>146</ele>
        <time>2019-05-23T07:37:35.000Z</time>
      </trkpt>
      <trkpt lat="43.21514" lon="5.36669">
        <ele>145.60000610352</ele>
        <time>2019-05-23T07:37:36.000Z</time>
      </trkpt>
      <trkpt lat="43.21523" lon="5.36671">
        <ele>144.80000305176</ele>
        <time>2019-05-23T07:37:40.000Z</time>
      </trkpt>
      <trkpt lat="43.21524" lon="5.36672">
        <ele>144.60000610352</ele>
        <time>2019-05-23T07:37:41.000Z</time>
      </trkpt>
      <trkpt lat="43.2153" lon="5.36675">
        <ele>143.60000610352</ele>
        <time>2019-05-23T07:37:44.000Z</time>
      </trkpt>
      <trkpt lat="43.21533" lon="5.36679">
        <ele>143.60000610352</ele>
        <time>2019-05-23T07:37:46.000Z</time>
      </trkpt>
      <trkpt lat="43.21535" lon="5.36681">
        <ele>143.39999389648</ele>
        <time>2019-05-23T07:37:47.000Z</time>
      </trkpt>
      <trkpt lat="43.21536" lon="5.36685">
        <ele>143.39999389648</ele>
        <time>2019-05-23T07:37:48.000Z</time>
      </trkpt>
      <trkpt lat="43.21537" lon="5.36687">
        <ele>143.19999694824</ele>
        <time>2019-05-23T07:37:49.000Z</time>
      </trkpt>
      <trkpt lat="43.21538" lon="5.36693">
        <ele>142.39999389648</ele>
        <time>2019-05-23T07:37:51.000Z</time>
      </trkpt>
      <trkpt lat="43.21538" lon="5.36695">
        <ele>142.19999694824</ele>
        <time>2019-05-23T07:37:52.000Z</time>
      </trkpt>
      <trkpt lat="43.21542" lon="5.36708">
        <ele>142.60000610352</ele>
        <time>2019-05-23T07:37:57.000Z</time>
      </trkpt>
      <trkpt lat="43.21545" lon="5.36712">
        <ele>142.80000305176</ele>
        <time>2019-05-23T07:37:59.000Z</time>
      </trkpt>
      <trkpt lat="43.21549" lon="5.36717">
        <ele>143.60000610352</ele>
        <time>2019-05-23T07:38:02.000Z</time>
      </trkpt>
      <trkpt lat="43.21551" lon="5.36717">
        <ele>143.60000610352</ele>
        <time>2019-05-23T07:38:03.000Z</time>
      </trkpt>
      <trkpt lat="43.21553" lon="5.36716">
        <ele>143.80000305176</ele>
        <time>2019-05-23T07:38:04.000Z</time>
      </trkpt>
      <trkpt lat="43.21559" lon="5.3671">
        <ele>142.60000610352</ele>
        <time>2019-05-23T07:38:09.000Z</time>
      </trkpt>
      <trkpt lat="43.21561" lon="5.36708">
        <ele>142.19999694824</ele>
        <time>2019-05-23T07:38:10.000Z</time>
      </trkpt>
      <trkpt lat="43.21565" lon="5.36707">
        <ele>141.60000610352</ele>
        <time>2019-05-23T07:38:12.000Z</time>
      </trkpt>
      <trkpt lat="43.21567" lon="5.36707">
        <ele>141.39999389648</ele>
        <time>2019-05-23T07:38:13.000Z</time>
      </trkpt>
      <trkpt lat="43.21569" lon="5.36707">
        <ele>141.19999694824</ele>
        <time>2019-05-23T07:38:14.000Z</time>
      </trkpt>
      <trkpt lat="43.21576" lon="5.3671">
        <ele>140.19999694824</ele>
        <time>2019-05-23T07:38:18.000Z</time>
      </trkpt>
      <trkpt lat="43.21578" lon="5.36712">
        <ele>139.80000305176</ele>
        <time>2019-05-23T07:38:19.000Z</time>
      </trkpt>
      <trkpt lat="43.2158" lon="5.36714">
        <ele>139.39999389648</ele>
        <time>2019-05-23T07:38:20.000Z</time>
      </trkpt>
      <trkpt lat="43.21582" lon="5.36719">
        <ele>138.80000305176</ele>
        <time>2019-05-23T07:38:22.000Z</time>
      </trkpt>
      <trkpt lat="43.21584" lon="5.36728">
        <ele>139</ele>
        <time>2019-05-23T07:38:25.000Z</time>
      </trkpt>
      <trkpt lat="43.21586" lon="5.36731">
        <ele>139.19999694824</ele>
        <time>2019-05-23T07:38:27.000Z</time>
      </trkpt>
      <trkpt lat="43.21587" lon="5.36733">
        <ele>139.39999389648</ele>
        <time>2019-05-23T07:38:28.000Z</time>
      </trkpt>
      <trkpt lat="43.21593" lon="5.36742">
        <ele>140.19999694824</ele>
        <time>2019-05-23T07:38:33.000Z</time>
      </trkpt>
      <trkpt lat="43.21596" lon="5.36744">
        <ele>140.80000305176</ele>
        <time>2019-05-23T07:38:35.000Z</time>
      </trkpt>
      <trkpt lat="43.21598" lon="5.36746">
        <ele>141.19999694824</ele>
        <time>2019-05-23T07:38:36.000Z</time>
      </trkpt>
      <trkpt lat="43.21599" lon="5.36747">
        <ele>141.39999389648</ele>
        <time>2019-05-23T07:38:37.000Z</time>
      </trkpt>
      <trkpt lat="43.21603" lon="5.36749">
        <ele>142</ele>
        <time>2019-05-23T07:38:39.000Z</time>
      </trkpt>
      <trkpt lat="43.21606" lon="5.36751">
        <ele>142.39999389648</ele>
        <time>2019-05-23T07:38:42.000Z</time>
      </trkpt>
      <trkpt lat="43.21609" lon="5.36754">
        <ele>142</ele>
        <time>2019-05-23T07:38:45.000Z</time>
      </trkpt>
      <trkpt lat="43.2161" lon="5.36756">
        <ele>141.39999389648</ele>
        <time>2019-05-23T07:38:47.000Z</time>
      </trkpt>
      <trkpt lat="43.2161" lon="5.36757">
        <ele>141</ele>
        <time>2019-05-23T07:38:48.000Z</time>
      </trkpt>
      <trkpt lat="43.21611" lon="5.36758">
        <ele>140.80000305176</ele>
        <time>2019-05-23T07:38:49.000Z</time>
      </trkpt>
      <trkpt lat="43.21613" lon="5.36759">
        <ele>140.60000610352</ele>
        <time>2019-05-23T07:38:50.000Z</time>
      </trkpt>
      <trkpt lat="43.21615" lon="5.3676">
        <ele>139.60000610352</ele>
        <time>2019-05-23T07:38:52.000Z</time>
      </trkpt>
      <trkpt lat="43.21616" lon="5.3676">
        <ele>139</ele>
        <time>2019-05-23T07:38:53.000Z</time>
      </trkpt>
      <trkpt lat="43.21616" lon="5.36761">
        <ele>138.39999389648</ele>
        <time>2019-05-23T07:38:54.000Z</time>
      </trkpt>
      <trkpt lat="43.21618" lon="5.36763">
        <ele>137</ele>
        <time>2019-05-23T07:38:56.000Z</time>
      </trkpt>
      <trkpt lat="43.21621" lon="5.36767">
        <ele>135.80000305176</ele>
        <time>2019-05-23T07:38:58.000Z</time>
      </trkpt>
      <trkpt lat="43.21625" lon="5.36771">
        <ele>134.39999389648</ele>
        <time>2019-05-23T07:39:01.000Z</time>
      </trkpt>
      <trkpt lat="43.21628" lon="5.36773">
        <ele>133.60000610352</ele>
        <time>2019-05-23T07:39:03.000Z</time>
      </trkpt>
      <trkpt lat="43.21629" lon="5.36774">
        <ele>133</ele>
        <time>2019-05-23T07:39:04.000Z</time>
      </trkpt>
      <trkpt lat="43.21631" lon="5.36776">
        <ele>132.19999694824</ele>
        <time>2019-05-23T07:39:06.000Z</time>
      </trkpt>
      <trkpt lat="43.21633" lon="5.36777">
        <ele>132</ele>
        <time>2019-05-23T07:39:07.000Z</time>
      </trkpt>
      <trkpt lat="43.21637" lon="5.36779">
        <ele>131.19999694824</ele>
        <time>2019-05-23T07:39:10.000Z</time>
      </trkpt>
      <trkpt lat="43.21639" lon="5.36781">
        <ele>131.19999694824</ele>
        <time>2019-05-23T07:39:11.000Z</time>
      </trkpt>
      <trkpt lat="43.21643" lon="5.36785">
        <ele>131.19999694824</ele>
        <time>2019-05-23T07:39:13.000Z</time>
      </trkpt>
      <trkpt lat="43.21645" lon="5.36786">
        <ele>131</ele>
        <time>2019-05-23T07:39:14.000Z</time>
      </trkpt>
      <trkpt lat="43.21647" lon="5.36788">
        <ele>130.80000305176</ele>
        <time>2019-05-23T07:39:15.000Z</time>
      </trkpt>
      <trkpt lat="43.21649" lon="5.36793">
        <ele>130.19999694824</ele>
        <time>2019-05-23T07:39:17.000Z</time>
      </trkpt>
      <trkpt lat="43.21652" lon="5.36798">
        <ele>130</ele>
        <time>2019-05-23T07:39:19.000Z</time>
      </trkpt>
      <trkpt lat="43.21653" lon="5.36801">
        <ele>129.80000305176</ele>
        <time>2019-05-23T07:39:20.000Z</time>
      </trkpt>
      <trkpt lat="43.21654" lon="5.36802">
        <ele>129.80000305176</ele>
        <time>2019-05-23T07:39:21.000Z</time>
      </trkpt>
      <trkpt lat="43.21656" lon="5.36805">
        <ele>130</ele>
        <time>2019-05-23T07:39:23.000Z</time>
      </trkpt>
      <trkpt lat="43.21663" lon="5.36808">
        <ele>129.19999694824</ele>
        <time>2019-05-23T07:39:28.000Z</time>
      </trkpt>
      <trkpt lat="43.21667" lon="5.36808">
        <ele>128.60000610352</ele>
        <time>2019-05-23T07:39:30.000Z</time>
      </trkpt>
      <trkpt lat="43.2167" lon="5.3681">
        <ele>128</ele>
        <time>2019-05-23T07:39:32.000Z</time>
      </trkpt>
      <trkpt lat="43.21671" lon="5.36811">
        <ele>127.40000152588</ele>
        <time>2019-05-23T07:39:33.000Z</time>
      </trkpt>
      <trkpt lat="43.21672" lon="5.36816">
        <ele>126</ele>
        <time>2019-05-23T07:39:35.000Z</time>
      </trkpt>
      <trkpt lat="43.21673" lon="5.36819">
        <ele>125.59999847412</ele>
        <time>2019-05-23T07:39:36.000Z</time>
      </trkpt>
      <trkpt lat="43.21672" lon="5.36823">
        <ele>125</ele>
        <time>2019-05-23T07:39:39.000Z</time>
      </trkpt>
      <trkpt lat="43.2167" lon="5.36824">
        <ele>125</ele>
        <time>2019-05-23T07:39:40.000Z</time>
      </trkpt>
      <trkpt lat="43.21668" lon="5.36824">
        <ele>124.80000305176</ele>
        <time>2019-05-23T07:39:41.000Z</time>
      </trkpt>
      <trkpt lat="43.21666" lon="5.36825">
        <ele>124.59999847412</ele>
        <time>2019-05-23T07:39:42.000Z</time>
      </trkpt>
      <trkpt lat="43.21661" lon="5.36826">
        <ele>123.80000305176</ele>
        <time>2019-05-23T07:39:44.000Z</time>
      </trkpt>
      <trkpt lat="43.21654" lon="5.3683">
        <ele>122.80000305176</ele>
        <time>2019-05-23T07:39:48.000Z</time>
      </trkpt>
      <trkpt lat="43.21653" lon="5.36831">
        <ele>122.59999847412</ele>
        <time>2019-05-23T07:39:49.000Z</time>
      </trkpt>
      <trkpt lat="43.21649" lon="5.36835">
        <ele>123</ele>
        <time>2019-05-23T07:39:52.000Z</time>
      </trkpt>
      <trkpt lat="43.21648" lon="5.36837">
        <ele>123.59999847412</ele>
        <time>2019-05-23T07:39:54.000Z</time>
      </trkpt>
      <trkpt lat="43.21648" lon="5.36838">
        <ele>123.59999847412</ele>
        <time>2019-05-23T07:39:55.000Z</time>
      </trkpt>
      <trkpt lat="43.21649" lon="5.36843">
        <ele>124.40000152588</ele>
        <time>2019-05-23T07:39:57.000Z</time>
      </trkpt>
      <trkpt lat="43.21649" lon="5.36845">
        <ele>124.80000305176</ele>
        <time>2019-05-23T07:39:58.000Z</time>
      </trkpt>
      <trkpt lat="43.21649" lon="5.36846">
        <ele>125</ele>
        <time>2019-05-23T07:39:59.000Z</time>
      </trkpt>
      <trkpt lat="43.21649" lon="5.36848">
        <ele>125.19999694824</ele>
        <time>2019-05-23T07:40:00.000Z</time>
      </trkpt>
      <trkpt lat="43.21648" lon="5.36851">
        <ele>125.80000305176</ele>
        <time>2019-05-23T07:40:02.000Z</time>
      </trkpt>
      <trkpt lat="43.21643" lon="5.36855">
        <ele>126.19999694824</ele>
        <time>2019-05-23T07:40:06.000Z</time>
      </trkpt>
      <trkpt lat="43.2164" lon="5.36856">
        <ele>126.59999847412</ele>
        <time>2019-05-23T07:40:08.000Z</time>
      </trkpt>
      <trkpt lat="43.21638" lon="5.36857">
        <ele>126.80000305176</ele>
        <time>2019-05-23T07:40:10.000Z</time>
      </trkpt>
      <trkpt lat="43.21636" lon="5.36857">
        <ele>127</ele>
        <time>2019-05-23T07:40:11.000Z</time>
      </trkpt>
      <trkpt lat="43.21633" lon="5.36858">
        <ele>127.40000152588</ele>
        <time>2019-05-23T07:40:13.000Z</time>
      </trkpt>
      <trkpt lat="43.21632" lon="5.36859">
        <ele>127.59999847412</ele>
        <time>2019-05-23T07:40:14.000Z</time>
      </trkpt>
      <trkpt lat="43.2163" lon="5.36862">
        <ele>128</ele>
        <time>2019-05-23T07:40:16.000Z</time>
      </trkpt>
      <trkpt lat="43.2163" lon="5.36862">
        <ele>128.19999694824</ele>
        <time>2019-05-23T07:40:17.000Z</time>
      </trkpt>
      <trkpt lat="43.21631" lon="5.36865">
        <ele>128.60000610352</ele>
        <time>2019-05-23T07:40:19.000Z</time>
      </trkpt>
      <trkpt lat="43.21631" lon="5.36866">
        <ele>129</ele>
        <time>2019-05-23T07:40:20.000Z</time>
      </trkpt>
      <trkpt lat="43.21631" lon="5.36867">
        <ele>129.19999694824</ele>
        <time>2019-05-23T07:40:21.000Z</time>
      </trkpt>
      <trkpt lat="43.21631" lon="5.36868">
        <ele>129.39999389648</ele>
        <time>2019-05-23T07:40:22.000Z</time>
      </trkpt>
      <trkpt lat="43.21631" lon="5.3687">
        <ele>130</ele>
        <time>2019-05-23T07:40:24.000Z</time>
      </trkpt>
      <trkpt lat="43.21631" lon="5.36871">
        <ele>130.19999694824</ele>
        <time>2019-05-23T07:40:25.000Z</time>
      </trkpt>
      <trkpt lat="43.2163" lon="5.36873">
        <ele>131</ele>
        <time>2019-05-23T07:40:28.000Z</time>
      </trkpt>
      <trkpt lat="43.21631" lon="5.36874">
        <ele>131.19999694824</ele>
        <time>2019-05-23T07:40:29.000Z</time>
      </trkpt>
      <trkpt lat="43.21636" lon="5.36877">
        <ele>132.39999389648</ele>
        <time>2019-05-23T07:40:33.000Z</time>
      </trkpt>
      <trkpt lat="43.21637" lon="5.36878">
        <ele>132.60000610352</ele>
        <time>2019-05-23T07:40:34.000Z</time>
      </trkpt>
      <trkpt lat="43.21643" lon="5.3688">
        <ele>133</ele>
        <time>2019-05-23T07:40:37.000Z</time>
      </trkpt>
      <trkpt lat="43.21643" lon="5.36881">
        <ele>133.19999694824</ele>
        <time>2019-05-23T07:40:38.000Z</time>
      </trkpt>
      <trkpt lat="43.21643" lon="5.36882">
        <ele>133.39999389648</ele>
        <time>2019-05-23T07:40:39.000Z</time>
      </trkpt>
      <trkpt lat="43.21638" lon="5.36885">
        <ele>133.80000305176</ele>
        <time>2019-05-23T07:40:41.000Z</time>
      </trkpt>
      <trkpt lat="43.21636" lon="5.36886">
        <ele>134.19999694824</ele>
        <time>2019-05-23T07:40:42.000Z</time>
      </trkpt>
      <trkpt lat="43.21636" lon="5.36887">
        <ele>134.60000610352</ele>
        <time>2019-05-23T07:40:43.000Z</time>
      </trkpt>
      <trkpt lat="43.21635" lon="5.36888">
        <ele>134.80000305176</ele>
        <time>2019-05-23T07:40:44.000Z</time>
      </trkpt>
      <trkpt lat="43.21631" lon="5.36891">
        <ele>135.60000610352</ele>
        <time>2019-05-23T07:40:47.000Z</time>
      </trkpt>
      <trkpt lat="43.2163" lon="5.36891">
        <ele>135.80000305176</ele>
        <time>2019-05-23T07:40:48.000Z</time>
      </trkpt>
      <trkpt lat="43.21628" lon="5.36896">
        <ele>136.80000305176</ele>
        <time>2019-05-23T07:40:51.000Z</time>
      </trkpt>
      <trkpt lat="43.21628" lon="5.36898">
        <ele>137</ele>
        <time>2019-05-23T07:40:52.000Z</time>
      </trkpt>
      <trkpt lat="43.21627" lon="5.36902">
        <ele>137.39999389648</ele>
        <time>2019-05-23T07:40:54.000Z</time>
      </trkpt>
      <trkpt lat="43.21624" lon="5.36908">
        <ele>137.60000610352</ele>
        <time>2019-05-23T07:40:57.000Z</time>
      </trkpt>
      <trkpt lat="43.21623" lon="5.3691">
        <ele>137.60000610352</ele>
        <time>2019-05-23T07:40:58.000Z</time>
      </trkpt>
      <trkpt lat="43.21621" lon="5.36913">
        <ele>137.80000305176</ele>
        <time>2019-05-23T07:41:00.000Z</time>
      </trkpt>
      <trkpt lat="43.21619" lon="5.36915">
        <ele>138.19999694824</ele>
        <time>2019-05-23T07:41:01.000Z</time>
      </trkpt>
      <trkpt lat="43.21618" lon="5.36917">
        <ele>138.60000610352</ele>
        <time>2019-05-23T07:41:02.000Z</time>
      </trkpt>
      <trkpt lat="43.21617" lon="5.36921">
        <ele>138.80000305176</ele>
        <time>2019-05-23T07:41:04.000Z</time>
      </trkpt>
      <trkpt lat="43.21615" lon="5.36925">
        <ele>139.19999694824</ele>
        <time>2019-05-23T07:41:06.000Z</time>
      </trkpt>
      <trkpt lat="43.21612" lon="5.36928">
        <ele>140</ele>
        <time>2019-05-23T07:41:09.000Z</time>
      </trkpt>
      <trkpt lat="43.21612" lon="5.36928">
        <ele>140.19999694824</ele>
        <time>2019-05-23T07:41:10.000Z</time>
      </trkpt>
      <trkpt lat="43.21611" lon="5.36929">
        <ele>140.39999389648</ele>
        <time>2019-05-23T07:41:11.000Z</time>
      </trkpt>
      <trkpt lat="43.2161" lon="5.36931">
        <ele>141.60000610352</ele>
        <time>2019-05-23T07:41:14.000Z</time>
      </trkpt>
      <trkpt lat="43.21609" lon="5.36931">
        <ele>141.80000305176</ele>
        <time>2019-05-23T07:41:15.000Z</time>
      </trkpt>
      <trkpt lat="43.21606" lon="5.36933">
        <ele>142.80000305176</ele>
        <time>2019-05-23T07:41:18.000Z</time>
      </trkpt>
      <trkpt lat="43.21605" lon="5.36934">
        <ele>143.19999694824</ele>
        <time>2019-05-23T07:41:19.000Z</time>
      </trkpt>
      <trkpt lat="43.21603" lon="5.36935">
        <ele>143.80000305176</ele>
        <time>2019-05-23T07:41:21.000Z</time>
      </trkpt>
      <trkpt lat="43.21602" lon="5.36935">
        <ele>144</ele>
        <time>2019-05-23T07:41:22.000Z</time>
      </trkpt>
      <trkpt lat="43.216" lon="5.36938">
        <ele>144.60000610352</ele>
        <time>2019-05-23T07:41:25.000Z</time>
      </trkpt>
      <trkpt lat="43.21599" lon="5.3694">
        <ele>144.80000305176</ele>
        <time>2019-05-23T07:41:26.000Z</time>
      </trkpt>
      <trkpt lat="43.21599" lon="5.36941">
        <ele>145.19999694824</ele>
        <time>2019-05-23T07:41:27.000Z</time>
      </trkpt>
      <trkpt lat="43.216" lon="5.36948">
        <ele>145.80000305176</ele>
        <time>2019-05-23T07:41:30.000Z</time>
      </trkpt>
      <trkpt lat="43.21594" lon="5.36949">
        <ele>144.60000610352</ele>
        <time>2019-05-23T07:44:00.000Z</time>
      </trkpt>
      <trkpt lat="43.21594" lon="5.36949">
        <ele>144.60000610352</ele>
        <time>2019-05-23T07:44:01.000Z</time>
      </trkpt>
      <trkpt lat="43.21592" lon="5.36953">
        <ele>143.60000610352</ele>
        <time>2019-05-23T07:44:05.000Z</time>
      </trkpt>
      <trkpt lat="43.21593" lon="5.36956">
        <ele>143.80000305176</ele>
        <time>2019-05-23T07:44:07.000Z</time>
      </trkpt>
      <trkpt lat="43.21593" lon="5.36957">
        <ele>143.80000305176</ele>
        <time>2019-05-23T07:44:08.000Z</time>
      </trkpt>
      <trkpt lat="43.21592" lon="5.36957">
        <ele>143.39999389648</ele>
        <time>2019-05-23T07:44:10.000Z</time>
      </trkpt>
      <trkpt lat="43.21589" lon="5.36957">
        <ele>142.80000305176</ele>
        <time>2019-05-23T07:44:12.000Z</time>
      </trkpt>
      <trkpt lat="43.21589" lon="5.36958">
        <ele>142.39999389648</ele>
        <time>2019-05-23T07:44:13.000Z</time>
      </trkpt>
      <trkpt lat="43.21592" lon="5.3696">
        <ele>141.39999389648</ele>
        <time>2019-05-23T07:44:16.000Z</time>
      </trkpt>
      <trkpt lat="43.21593" lon="5.36962">
        <ele>141.19999694824</ele>
        <time>2019-05-23T07:44:17.000Z</time>
      </trkpt>
      <trkpt lat="43.21595" lon="5.36964">
        <ele>141.19999694824</ele>
        <time>2019-05-23T07:44:18.000Z</time>
      </trkpt>
      <trkpt lat="43.21596" lon="5.36966">
        <ele>141</ele>
        <time>2019-05-23T07:44:19.000Z</time>
      </trkpt>
      <trkpt lat="43.21598" lon="5.36967">
        <ele>140.60000610352</ele>
        <time>2019-05-23T07:44:20.000Z</time>
      </trkpt>
      <trkpt lat="43.216" lon="5.36969">
        <ele>140.19999694824</ele>
        <time>2019-05-23T07:44:21.000Z</time>
      </trkpt>
      <trkpt lat="43.21602" lon="5.36971">
        <ele>139.80000305176</ele>
        <time>2019-05-23T07:44:22.000Z</time>
      </trkpt>
      <trkpt lat="43.21603" lon="5.36972">
        <ele>139.60000610352</ele>
        <time>2019-05-23T07:44:23.000Z</time>
      </trkpt>
      <trkpt lat="43.21606" lon="5.36975">
        <ele>139</ele>
        <time>2019-05-23T07:44:25.000Z</time>
      </trkpt>
      <trkpt lat="43.21607" lon="5.36977">
        <ele>138.80000305176</ele>
        <time>2019-05-23T07:44:26.000Z</time>
      </trkpt>
      <trkpt lat="43.21609" lon="5.36978">
        <ele>138.60000610352</ele>
        <time>2019-05-23T07:44:27.000Z</time>
      </trkpt>
      <trkpt lat="43.21615" lon="5.36986">
        <ele>138.19999694824</ele>
        <time>2019-05-23T07:44:31.000Z</time>
      </trkpt>
      <trkpt lat="43.21616" lon="5.36988">
        <ele>138.19999694824</ele>
        <time>2019-05-23T07:44:32.000Z</time>
      </trkpt>
      <trkpt lat="43.21621" lon="5.36994">
        <ele>138.19999694824</ele>
        <time>2019-05-23T07:44:35.000Z</time>
      </trkpt>
      <trkpt lat="43.21627" lon="5.37005">
        <ele>138</ele>
        <time>2019-05-23T07:44:39.000Z</time>
      </trkpt>
      <trkpt lat="43.21628" lon="5.37007">
        <ele>138.19999694824</ele>
        <time>2019-05-23T07:44:40.000Z</time>
      </trkpt>
      <trkpt lat="43.21632" lon="5.37014">
        <ele>138.60000610352</ele>
        <time>2019-05-23T07:44:43.000Z</time>
      </trkpt>
      <trkpt lat="43.21635" lon="5.37021">
        <ele>139.39999389648</ele>
        <time>2019-05-23T07:44:46.000Z</time>
      </trkpt>
      <trkpt lat="43.21638" lon="5.37024">
        <ele>140.19999694824</ele>
        <time>2019-05-23T07:44:49.000Z</time>
      </trkpt>
      <trkpt lat="43.2164" lon="5.37024">
        <ele>140.60000610352</ele>
        <time>2019-05-23T07:44:51.000Z</time>
      </trkpt>
      <trkpt lat="43.21643" lon="5.37023">
        <ele>141.19999694824</ele>
        <time>2019-05-23T07:44:53.000Z</time>
      </trkpt>
      <trkpt lat="43.21648" lon="5.37024">
        <ele>142.60000610352</ele>
        <time>2019-05-23T07:44:56.000Z</time>
      </trkpt>
      <trkpt lat="43.2165" lon="5.37025">
        <ele>143</ele>
        <time>2019-05-23T07:44:58.000Z</time>
      </trkpt>
      <trkpt lat="43.21652" lon="5.37026">
        <ele>143.19999694824</ele>
        <time>2019-05-23T07:45:00.000Z</time>
      </trkpt>
      <trkpt lat="43.2166" lon="5.37025">
        <ele>143</ele>
        <time>2019-05-23T07:45:05.000Z</time>
      </trkpt>
      <trkpt lat="43.21662" lon="5.37024">
        <ele>142.80000305176</ele>
        <time>2019-05-23T07:45:06.000Z</time>
      </trkpt>
      <trkpt lat="43.21667" lon="5.37026">
        <ele>142</ele>
        <time>2019-05-23T07:45:08.000Z</time>
      </trkpt>
      <trkpt lat="43.21671" lon="5.3703">
        <ele>141.39999389648</ele>
        <time>2019-05-23T07:45:10.000Z</time>
      </trkpt>
      <trkpt lat="43.21673" lon="5.37031">
        <ele>141.19999694824</ele>
        <time>2019-05-23T07:45:11.000Z</time>
      </trkpt>
      <trkpt lat="43.21676" lon="5.37033">
        <ele>140.60000610352</ele>
        <time>2019-05-23T07:45:13.000Z</time>
      </trkpt>
      <trkpt lat="43.21679" lon="5.3704">
        <ele>140.60000610352</ele>
        <time>2019-05-23T07:45:16.000Z</time>
      </trkpt>
      <trkpt lat="43.21681" lon="5.37047">
        <ele>140.80000305176</ele>
        <time>2019-05-23T07:45:18.000Z</time>
      </trkpt>
      <trkpt lat="43.21686" lon="5.37056">
        <ele>141.80000305176</ele>
        <time>2019-05-23T07:45:21.000Z</time>
      </trkpt>
      <trkpt lat="43.21689" lon="5.37061">
        <ele>142.39999389648</ele>
        <time>2019-05-23T07:45:23.000Z</time>
      </trkpt>
      <trkpt lat="43.21694" lon="5.37065">
        <ele>143.19999694824</ele>
        <time>2019-05-23T07:45:26.000Z</time>
      </trkpt>
      <trkpt lat="43.21697" lon="5.37068">
        <ele>143</ele>
        <time>2019-05-23T07:45:29.000Z</time>
      </trkpt>
      <trkpt lat="43.21698" lon="5.3707">
        <ele>143</ele>
        <time>2019-05-23T07:45:30.000Z</time>
      </trkpt>
      <trkpt lat="43.21699" lon="5.37073">
        <ele>142.80000305176</ele>
        <time>2019-05-23T07:45:31.000Z</time>
      </trkpt>
      <trkpt lat="43.21699" lon="5.37076">
        <ele>142.60000610352</ele>
        <time>2019-05-23T07:45:32.000Z</time>
      </trkpt>
      <trkpt lat="43.21701" lon="5.37085">
        <ele>142.19999694824</ele>
        <time>2019-05-23T07:45:35.000Z</time>
      </trkpt>
      <trkpt lat="43.21703" lon="5.37093">
        <ele>141.39999389648</ele>
        <time>2019-05-23T07:45:38.000Z</time>
      </trkpt>
      <trkpt lat="43.21706" lon="5.371">
        <ele>140.80000305176</ele>
        <time>2019-05-23T07:45:41.000Z</time>
      </trkpt>
      <trkpt lat="43.21706" lon="5.37107">
        <ele>140.39999389648</ele>
        <time>2019-05-23T07:45:44.000Z</time>
      </trkpt>
      <trkpt lat="43.21706" lon="5.3711">
        <ele>140.39999389648</ele>
        <time>2019-05-23T07:45:45.000Z</time>
      </trkpt>
      <trkpt lat="43.21707" lon="5.37123">
        <ele>140</ele>
        <time>2019-05-23T07:45:49.000Z</time>
      </trkpt>
      <trkpt lat="43.21706" lon="5.37136">
        <ele>139.39999389648</ele>
        <time>2019-05-23T07:45:53.000Z</time>
      </trkpt>
      <trkpt lat="43.21706" lon="5.37147">
        <ele>139.80000305176</ele>
        <time>2019-05-23T07:45:58.000Z</time>
      </trkpt>
      <trkpt lat="43.21706" lon="5.37149">
        <ele>139.60000610352</ele>
        <time>2019-05-23T07:45:59.000Z</time>
      </trkpt>
      <trkpt lat="43.21708" lon="5.37166">
        <ele>140.80000305176</ele>
        <time>2019-05-23T07:46:04.000Z</time>
      </trkpt>
      <trkpt lat="43.21713" lon="5.37181">
        <ele>140.60000610352</ele>
        <time>2019-05-23T07:46:09.000Z</time>
      </trkpt>
      <trkpt lat="43.21713" lon="5.37187">
        <ele>140.60000610352</ele>
        <time>2019-05-23T07:46:13.000Z</time>
      </trkpt>
      <trkpt lat="43.21714" lon="5.37188">
        <ele>140.60000610352</ele>
        <time>2019-05-23T07:46:14.000Z</time>
      </trkpt>
      <trkpt lat="43.21714" lon="5.37191">
        <ele>140.80000305176</ele>
        <time>2019-05-23T07:46:16.000Z</time>
      </trkpt>
      <trkpt lat="43.21715" lon="5.37196">
        <ele>141.39999389648</ele>
        <time>2019-05-23T07:46:20.000Z</time>
      </trkpt>
      <trkpt lat="43.21715" lon="5.37198">
        <ele>141.39999389648</ele>
        <time>2019-05-23T07:46:21.000Z</time>
      </trkpt>
      <trkpt lat="43.21715" lon="5.37206">
        <ele>142.60000610352</ele>
        <time>2019-05-23T07:46:27.000Z</time>
      </trkpt>
      <trkpt lat="43.21714" lon="5.37207">
        <ele>142.80000305176</ele>
        <time>2019-05-23T07:46:28.000Z</time>
      </trkpt>
      <trkpt lat="43.21714" lon="5.37208">
        <ele>143.19999694824</ele>
        <time>2019-05-23T07:46:29.000Z</time>
      </trkpt>
      <trkpt lat="43.21713" lon="5.37208">
        <ele>143.39999389648</ele>
        <time>2019-05-23T07:46:30.000Z</time>
      </trkpt>
      <trkpt lat="43.21713" lon="5.3721">
        <ele>143.80000305176</ele>
        <time>2019-05-23T07:46:32.000Z</time>
      </trkpt>
      <trkpt lat="43.21713" lon="5.37213">
        <ele>144.19999694824</ele>
        <time>2019-05-23T07:46:35.000Z</time>
      </trkpt>
      <trkpt lat="43.21712" lon="5.37216">
        <ele>144.80000305176</ele>
        <time>2019-05-23T07:46:38.000Z</time>
      </trkpt>
      <trkpt lat="43.21711" lon="5.37218">
        <ele>145.39999389648</ele>
        <time>2019-05-23T07:46:41.000Z</time>
      </trkpt>
      <trkpt lat="43.21709" lon="5.3722">
        <ele>146.19999694824</ele>
        <time>2019-05-23T07:46:44.000Z</time>
      </trkpt>
      <trkpt lat="43.21704" lon="5.37229">
        <ele>147.39999389648</ele>
        <time>2019-05-23T07:46:49.000Z</time>
      </trkpt>
      <trkpt lat="43.21703" lon="5.37237">
        <ele>148.60000610352</ele>
        <time>2019-05-23T07:46:53.000Z</time>
      </trkpt>
      <trkpt lat="43.21703" lon="5.37238">
        <ele>148.80000305176</ele>
        <time>2019-05-23T07:46:54.000Z</time>
      </trkpt>
      <trkpt lat="43.21702" lon="5.37241">
        <ele>149.39999389648</ele>
        <time>2019-05-23T07:46:57.000Z</time>
      </trkpt>
      <trkpt lat="43.21702" lon="5.37243">
        <ele>149.60000610352</ele>
        <time>2019-05-23T07:46:59.000Z</time>
      </trkpt>
      <trkpt lat="43.21701" lon="5.37245">
        <ele>150.39999389648</ele>
        <time>2019-05-23T07:47:02.000Z</time>
      </trkpt>
      <trkpt lat="43.21701" lon="5.37246">
        <ele>150.80000305176</ele>
        <time>2019-05-23T07:47:04.000Z</time>
      </trkpt>
      <trkpt lat="43.217" lon="5.37249">
        <ele>151.39999389648</ele>
        <time>2019-05-23T07:47:06.000Z</time>
      </trkpt>
      <trkpt lat="43.217" lon="5.3725">
        <ele>151.80000305176</ele>
        <time>2019-05-23T07:47:07.000Z</time>
      </trkpt>
      <trkpt lat="43.21699" lon="5.37252">
        <ele>152</ele>
        <time>2019-05-23T07:47:09.000Z</time>
      </trkpt>
      <trkpt lat="43.21699" lon="5.37258">
        <ele>152.80000305176</ele>
        <time>2019-05-23T07:47:13.000Z</time>
      </trkpt>
      <trkpt lat="43.21699" lon="5.3726">
        <ele>153</ele>
        <time>2019-05-23T07:47:14.000Z</time>
      </trkpt>
      <trkpt lat="43.21698" lon="5.37261">
        <ele>153.39999389648</ele>
        <time>2019-05-23T07:47:15.000Z</time>
      </trkpt>
      <trkpt lat="43.21697" lon="5.37265">
        <ele>154</ele>
        <time>2019-05-23T07:47:18.000Z</time>
      </trkpt>
      <trkpt lat="43.21697" lon="5.37266">
        <ele>154.19999694824</ele>
        <time>2019-05-23T07:47:19.000Z</time>
      </trkpt>
      <trkpt lat="43.21696" lon="5.37268">
        <ele>154.39999389648</ele>
        <time>2019-05-23T07:47:21.000Z</time>
      </trkpt>
      <trkpt lat="43.21696" lon="5.37269">
        <ele>154.60000610352</ele>
        <time>2019-05-23T07:47:22.000Z</time>
      </trkpt>
      <trkpt lat="43.21696" lon="5.37271">
        <ele>155</ele>
        <time>2019-05-23T07:47:24.000Z</time>
      </trkpt>
      <trkpt lat="43.21694" lon="5.37274">
        <ele>155.39999389648</ele>
        <time>2019-05-23T07:47:26.000Z</time>
      </trkpt>
      <trkpt lat="43.21693" lon="5.37276">
        <ele>155.60000610352</ele>
        <time>2019-05-23T07:47:27.000Z</time>
      </trkpt>
      <trkpt lat="43.21692" lon="5.37285">
        <ele>156.39999389648</ele>
        <time>2019-05-23T07:47:31.000Z</time>
      </trkpt>
      <trkpt lat="43.21693" lon="5.37287">
        <ele>156.60000610352</ele>
        <time>2019-05-23T07:47:32.000Z</time>
      </trkpt>
      <trkpt lat="43.21697" lon="5.37291">
        <ele>157</ele>
        <time>2019-05-23T07:47:35.000Z</time>
      </trkpt>
      <trkpt lat="43.21699" lon="5.37291">
        <ele>157.19999694824</ele>
        <time>2019-05-23T07:47:36.000Z</time>
      </trkpt>
      <trkpt lat="43.21701" lon="5.37291">
        <ele>157.39999389648</ele>
        <time>2019-05-23T07:47:37.000Z</time>
      </trkpt>
      <trkpt lat="43.21705" lon="5.37291">
        <ele>157.60000610352</ele>
        <time>2019-05-23T07:47:39.000Z</time>
      </trkpt>
      <trkpt lat="43.21706" lon="5.37291">
        <ele>157.60000610352</ele>
        <time>2019-05-23T07:47:40.000Z</time>
      </trkpt>
      <trkpt lat="43.21708" lon="5.37292">
        <ele>157.60000610352</ele>
        <time>2019-05-23T07:47:41.000Z</time>
      </trkpt>
      <trkpt lat="43.2171" lon="5.37294">
        <ele>157.60000610352</ele>
        <time>2019-05-23T07:47:42.000Z</time>
      </trkpt>
      <trkpt lat="43.21716" lon="5.37299">
        <ele>158</ele>
        <time>2019-05-23T07:47:45.000Z</time>
      </trkpt>
      <trkpt lat="43.21717" lon="5.373">
        <ele>158.19999694824</ele>
        <time>2019-05-23T07:47:46.000Z</time>
      </trkpt>
      <trkpt lat="43.21718" lon="5.373">
        <ele>158.39999389648</ele>
        <time>2019-05-23T07:47:47.000Z</time>
      </trkpt>
      <trkpt lat="43.21722" lon="5.37299">
        <ele>158.60000610352</ele>
        <time>2019-05-23T07:47:49.000Z</time>
      </trkpt>
      <trkpt lat="43.21725" lon="5.37299">
        <ele>158.60000610352</ele>
        <time>2019-05-23T07:47:51.000Z</time>
      </trkpt>
      <trkpt lat="43.21727" lon="5.373">
        <ele>158.60000610352</ele>
        <time>2019-05-23T07:47:52.000Z</time>
      </trkpt>
      <trkpt lat="43.2173" lon="5.37304">
        <ele>158.60000610352</ele>
        <time>2019-05-23T07:47:54.000Z</time>
      </trkpt>
      <trkpt lat="43.21733" lon="5.37311">
        <ele>158.39999389648</ele>
        <time>2019-05-23T07:47:57.000Z</time>
      </trkpt>
      <trkpt lat="43.21737" lon="5.37315">
        <ele>158.60000610352</ele>
        <time>2019-05-23T07:48:00.000Z</time>
      </trkpt>
      <trkpt lat="43.21739" lon="5.37318">
        <ele>158.60000610352</ele>
        <time>2019-05-23T07:48:02.000Z</time>
      </trkpt>
      <trkpt lat="43.21743" lon="5.37327">
        <ele>159.19999694824</ele>
        <time>2019-05-23T07:48:06.000Z</time>
      </trkpt>
      <trkpt lat="43.21747" lon="5.37331">
        <ele>159.39999389648</ele>
        <time>2019-05-23T07:48:09.000Z</time>
      </trkpt>
      <trkpt lat="43.21749" lon="5.37332">
        <ele>159.60000610352</ele>
        <time>2019-05-23T07:48:11.000Z</time>
      </trkpt>
      <trkpt lat="43.2175" lon="5.37333">
        <ele>159.60000610352</ele>
        <time>2019-05-23T07:48:12.000Z</time>
      </trkpt>
      <trkpt lat="43.21755" lon="5.37336">
        <ele>160</ele>
        <time>2019-05-23T07:48:16.000Z</time>
      </trkpt>
      <trkpt lat="43.21756" lon="5.37338">
        <ele>160.39999389648</ele>
        <time>2019-05-23T07:48:18.000Z</time>
      </trkpt>
      <trkpt lat="43.21756" lon="5.37339">
        <ele>160.60000610352</ele>
        <time>2019-05-23T07:48:19.000Z</time>
      </trkpt>
      <trkpt lat="43.21756" lon="5.3734">
        <ele>161</ele>
        <time>2019-05-23T07:48:20.000Z</time>
      </trkpt>
      <trkpt lat="43.21757" lon="5.3734">
        <ele>161.19999694824</ele>
        <time>2019-05-23T07:48:21.000Z</time>
      </trkpt>
      <trkpt lat="43.2176" lon="5.37344">
        <ele>162</ele>
        <time>2019-05-23T07:48:24.000Z</time>
      </trkpt>
      <trkpt lat="43.21761" lon="5.37345">
        <ele>162.19999694824</ele>
        <time>2019-05-23T07:48:25.000Z</time>
      </trkpt>
      <trkpt lat="43.21766" lon="5.3735">
        <ele>162.80000305176</ele>
        <time>2019-05-23T07:48:29.000Z</time>
      </trkpt>
      <trkpt lat="43.21767" lon="5.37352">
        <ele>163</ele>
        <time>2019-05-23T07:48:30.000Z</time>
      </trkpt>
      <trkpt lat="43.21769" lon="5.37355">
        <ele>163.39999389648</ele>
        <time>2019-05-23T07:48:32.000Z</time>
      </trkpt>
      <trkpt lat="43.21772" lon="5.37359">
        <ele>164.19999694824</ele>
        <time>2019-05-23T07:48:36.000Z</time>
      </trkpt>
      <trkpt lat="43.21774" lon="5.37362">
        <ele>164.39999389648</ele>
        <time>2019-05-23T07:48:39.000Z</time>
      </trkpt>
      <trkpt lat="43.21777" lon="5.37366">
        <ele>165</ele>
        <time>2019-05-23T07:48:42.000Z</time>
      </trkpt>
      <trkpt lat="43.21777" lon="5.37367">
        <ele>165.19999694824</ele>
        <time>2019-05-23T07:48:43.000Z</time>
      </trkpt>
      <trkpt lat="43.21779" lon="5.3737">
        <ele>165.60000610352</ele>
        <time>2019-05-23T07:48:45.000Z</time>
      </trkpt>
      <trkpt lat="43.21782" lon="5.37373">
        <ele>166</ele>
        <time>2019-05-23T07:48:47.000Z</time>
      </trkpt>
      <trkpt lat="43.21783" lon="5.37375">
        <ele>166</ele>
        <time>2019-05-23T07:48:48.000Z</time>
      </trkpt>
      <trkpt lat="43.21786" lon="5.37379">
        <ele>166.19999694824</ele>
        <time>2019-05-23T07:48:50.000Z</time>
      </trkpt>
      <trkpt lat="43.21788" lon="5.37381">
        <ele>166.19999694824</ele>
        <time>2019-05-23T07:48:51.000Z</time>
      </trkpt>
      <trkpt lat="43.21794" lon="5.37382">
        <ele>165.80000305176</ele>
        <time>2019-05-23T07:48:55.000Z</time>
      </trkpt>
      <trkpt lat="43.218" lon="5.37378">
        <ele>165.60000610352</ele>
        <time>2019-05-23T07:48:59.000Z</time>
      </trkpt>
      <trkpt lat="43.21802" lon="5.37378">
        <ele>165.80000305176</ele>
        <time>2019-05-23T07:49:00.000Z</time>
      </trkpt>
      <trkpt lat="43.21806" lon="5.37379">
        <ele>165.80000305176</ele>
        <time>2019-05-23T07:49:02.000Z</time>
      </trkpt>
      <trkpt lat="43.21808" lon="5.37381">
        <ele>166</ele>
        <time>2019-05-23T07:49:03.000Z</time>
      </trkpt>
      <trkpt lat="43.2181" lon="5.37382">
        <ele>166</ele>
        <time>2019-05-23T07:49:04.000Z</time>
      </trkpt>
      <trkpt lat="43.21814" lon="5.37389">
        <ele>166</ele>
        <time>2019-05-23T07:49:07.000Z</time>
      </trkpt>
      <trkpt lat="43.21817" lon="5.37394">
        <ele>166.80000305176</ele>
        <time>2019-05-23T07:49:10.000Z</time>
      </trkpt>
      <trkpt lat="43.2182" lon="5.37398">
        <ele>167.19999694824</ele>
        <time>2019-05-23T07:49:12.000Z</time>
      </trkpt>
      <trkpt lat="43.21821" lon="5.37401">
        <ele>167.60000610352</ele>
        <time>2019-05-23T07:49:13.000Z</time>
      </trkpt>
      <trkpt lat="43.21823" lon="5.37406">
        <ele>168</ele>
        <time>2019-05-23T07:49:15.000Z</time>
      </trkpt>
      <trkpt lat="43.21824" lon="5.37408">
        <ele>168.39999389648</ele>
        <time>2019-05-23T07:49:16.000Z</time>
      </trkpt>
      <trkpt lat="43.21826" lon="5.3741">
        <ele>168.60000610352</ele>
        <time>2019-05-23T07:49:17.000Z</time>
      </trkpt>
      <trkpt lat="43.21827" lon="5.37413">
        <ele>169.19999694824</ele>
        <time>2019-05-23T07:49:18.000Z</time>
      </trkpt>
      <trkpt lat="43.21828" lon="5.37415">
        <ele>169.39999389648</ele>
        <time>2019-05-23T07:49:19.000Z</time>
      </trkpt>
      <trkpt lat="43.2183" lon="5.37418">
        <ele>169.60000610352</ele>
        <time>2019-05-23T07:49:20.000Z</time>
      </trkpt>
      <trkpt lat="43.21831" lon="5.3742">
        <ele>169.80000305176</ele>
        <time>2019-05-23T07:49:21.000Z</time>
      </trkpt>
      <trkpt lat="43.21834" lon="5.37427">
        <ele>170</ele>
        <time>2019-05-23T07:49:24.000Z</time>
      </trkpt>
      <trkpt lat="43.21835" lon="5.37429">
        <ele>170.19999694824</ele>
        <time>2019-05-23T07:49:25.000Z</time>
      </trkpt>
      <trkpt lat="43.21837" lon="5.37433">
        <ele>170.60000610352</ele>
        <time>2019-05-23T07:49:27.000Z</time>
      </trkpt>
      <trkpt lat="43.21839" lon="5.37438">
        <ele>171</ele>
        <time>2019-05-23T07:49:29.000Z</time>
      </trkpt>
      <trkpt lat="43.2184" lon="5.37441">
        <ele>171.19999694824</ele>
        <time>2019-05-23T07:49:30.000Z</time>
      </trkpt>
      <trkpt lat="43.21841" lon="5.37445">
        <ele>171.80000305176</ele>
        <time>2019-05-23T07:49:32.000Z</time>
      </trkpt>
      <trkpt lat="43.21842" lon="5.37447">
        <ele>172.19999694824</ele>
        <time>2019-05-23T07:49:33.000Z</time>
      </trkpt>
      <trkpt lat="43.21849" lon="5.37457">
        <ele>172.80000305176</ele>
        <time>2019-05-23T07:49:38.000Z</time>
      </trkpt>
      <trkpt lat="43.21852" lon="5.37459">
        <ele>173</ele>
        <time>2019-05-23T07:49:40.000Z</time>
      </trkpt>
      <trkpt lat="43.21854" lon="5.3746">
        <ele>173</ele>
        <time>2019-05-23T07:49:41.000Z</time>
      </trkpt>
      <trkpt lat="43.21857" lon="5.37462">
        <ele>173.39999389648</ele>
        <time>2019-05-23T07:49:43.000Z</time>
      </trkpt>
      <trkpt lat="43.21859" lon="5.37465">
        <ele>174</ele>
        <time>2019-05-23T07:49:45.000Z</time>
      </trkpt>
      <trkpt lat="43.21861" lon="5.37467">
        <ele>174.39999389648</ele>
        <time>2019-05-23T07:49:46.000Z</time>
      </trkpt>
      <trkpt lat="43.21864" lon="5.3747">
        <ele>175.39999389648</ele>
        <time>2019-05-23T07:49:48.000Z</time>
      </trkpt>
      <trkpt lat="43.21871" lon="5.37471">
        <ele>176.19999694824</ele>
        <time>2019-05-23T07:49:52.000Z</time>
      </trkpt>
      <trkpt lat="43.21874" lon="5.37469">
        <ele>176.39999389648</ele>
        <time>2019-05-23T07:49:54.000Z</time>
      </trkpt>
      <trkpt lat="43.21882" lon="5.37465">
        <ele>176.80000305176</ele>
        <time>2019-05-23T07:49:58.000Z</time>
      </trkpt>
      <trkpt lat="43.21884" lon="5.37464">
        <ele>176.80000305176</ele>
        <time>2019-05-23T07:49:59.000Z</time>
      </trkpt>
      <trkpt lat="43.21894" lon="5.37457">
        <ele>176.60000610352</ele>
        <time>2019-05-23T07:50:04.000Z</time>
      </trkpt>
      <trkpt lat="43.21904" lon="5.37455">
        <ele>176</ele>
        <time>2019-05-23T07:50:10.000Z</time>
      </trkpt>
      <trkpt lat="43.21908" lon="5.37454">
        <ele>175.39999389648</ele>
        <time>2019-05-23T07:50:12.000Z</time>
      </trkpt>
      <trkpt lat="43.21914" lon="5.37455">
        <ele>174.39999389648</ele>
        <time>2019-05-23T07:50:15.000Z</time>
      </trkpt>
      <trkpt lat="43.21915" lon="5.37457">
        <ele>174.19999694824</ele>
        <time>2019-05-23T07:50:16.000Z</time>
      </trkpt>
      <trkpt lat="43.21919" lon="5.37459">
        <ele>173.80000305176</ele>
        <time>2019-05-23T07:50:18.000Z</time>
      </trkpt>
      <trkpt lat="43.21923" lon="5.37461">
        <ele>174.19999694824</ele>
        <time>2019-05-23T07:50:20.000Z</time>
      </trkpt>
      <trkpt lat="43.21933" lon="5.37463">
        <ele>175.19999694824</ele>
        <time>2019-05-23T07:50:25.000Z</time>
      </trkpt>
      <trkpt lat="43.21936" lon="5.37463">
        <ele>175.39999389648</ele>
        <time>2019-05-23T07:50:26.000Z</time>
      </trkpt>
      <trkpt lat="43.2194" lon="5.37462">
        <ele>175.60000610352</ele>
        <time>2019-05-23T07:50:28.000Z</time>
      </trkpt>
      <trkpt lat="43.21947" lon="5.37458">
        <ele>175.39999389648</ele>
        <time>2019-05-23T07:50:31.000Z</time>
      </trkpt>
      <trkpt lat="43.21958" lon="5.3745">
        <ele>174.39999389648</ele>
        <time>2019-05-23T07:50:35.000Z</time>
      </trkpt>
      <trkpt lat="43.21959" lon="5.3745">
        <ele>174.19999694824</ele>
        <time>2019-05-23T07:50:36.000Z</time>
      </trkpt>
      <trkpt lat="43.21965" lon="5.37449">
        <ele>174.39999389648</ele>
        <time>2019-05-23T07:50:40.000Z</time>
      </trkpt>
      <trkpt lat="43.21966" lon="5.37449">
        <ele>174.80000305176</ele>
        <time>2019-05-23T07:50:42.000Z</time>
      </trkpt>
      <trkpt lat="43.21967" lon="5.37448">
        <ele>175.19999694824</ele>
        <time>2019-05-23T07:50:43.000Z</time>
      </trkpt>
      <trkpt lat="43.21968" lon="5.37448">
        <ele>175.39999389648</ele>
        <time>2019-05-23T07:50:44.000Z</time>
      </trkpt>
      <trkpt lat="43.21969" lon="5.37448">
        <ele>175.60000610352</ele>
        <time>2019-05-23T07:50:45.000Z</time>
      </trkpt>
      <trkpt lat="43.2197" lon="5.37447">
        <ele>175.80000305176</ele>
        <time>2019-05-23T07:50:47.000Z</time>
      </trkpt>
      <trkpt lat="43.21971" lon="5.37444">
        <ele>175.80000305176</ele>
        <time>2019-05-23T07:50:49.000Z</time>
      </trkpt>
      <trkpt lat="43.21971" lon="5.37442">
        <ele>176.19999694824</ele>
        <time>2019-05-23T07:50:51.000Z</time>
      </trkpt>
      <trkpt lat="43.21971" lon="5.37441">
        <ele>176.60000610352</ele>
        <time>2019-05-23T07:50:53.000Z</time>
      </trkpt>
      <trkpt lat="43.21972" lon="5.37442">
        <ele>177</ele>
        <time>2019-05-23T07:50:55.000Z</time>
      </trkpt>
      <trkpt lat="43.21973" lon="5.37442">
        <ele>177.39999389648</ele>
        <time>2019-05-23T07:50:58.000Z</time>
      </trkpt>
      <trkpt lat="43.21974" lon="5.37442">
        <ele>177.60000610352</ele>
        <time>2019-05-23T07:50:59.000Z</time>
      </trkpt>
      <trkpt lat="43.21976" lon="5.37442">
        <ele>178</ele>
        <time>2019-05-23T07:51:00.000Z</time>
      </trkpt>
      <trkpt lat="43.21977" lon="5.37441">
        <ele>178.19999694824</ele>
        <time>2019-05-23T07:51:01.000Z</time>
      </trkpt>
      <trkpt lat="43.21979" lon="5.3744">
        <ele>178.80000305176</ele>
        <time>2019-05-23T07:51:03.000Z</time>
      </trkpt>
      <trkpt lat="43.2198" lon="5.3744">
        <ele>179.19999694824</ele>
        <time>2019-05-23T07:51:04.000Z</time>
      </trkpt>
      <trkpt lat="43.2198" lon="5.37439">
        <ele>179.39999389648</ele>
        <time>2019-05-23T07:51:06.000Z</time>
      </trkpt>
      <trkpt lat="43.21981" lon="5.37439">
        <ele>180</ele>
        <time>2019-05-23T07:51:08.000Z</time>
      </trkpt>
      <trkpt lat="43.21983" lon="5.37443">
        <ele>180.39999389648</ele>
        <time>2019-05-23T07:51:10.000Z</time>
      </trkpt>
      <trkpt lat="43.21987" lon="5.3745">
        <ele>181.19999694824</ele>
        <time>2019-05-23T07:51:13.000Z</time>
      </trkpt>
      <trkpt lat="43.21988" lon="5.37452">
        <ele>181.39999389648</ele>
        <time>2019-05-23T07:51:14.000Z</time>
      </trkpt>
      <trkpt lat="43.2199" lon="5.37455">
        <ele>181.60000610352</ele>
        <time>2019-05-23T07:51:15.000Z</time>
      </trkpt>
      <trkpt lat="43.21991" lon="5.37458">
        <ele>181.80000305176</ele>
        <time>2019-05-23T07:51:17.000Z</time>
      </trkpt>
      <trkpt lat="43.21991" lon="5.3746">
        <ele>182.19999694824</ele>
        <time>2019-05-23T07:51:19.000Z</time>
      </trkpt>
      <trkpt lat="43.21993" lon="5.37464">
        <ele>183</ele>
        <time>2019-05-23T07:51:22.000Z</time>
      </trkpt>
      <trkpt lat="43.21994" lon="5.37465">
        <ele>183.19999694824</ele>
        <time>2019-05-23T07:51:23.000Z</time>
      </trkpt>
      <trkpt lat="43.21994" lon="5.37467">
        <ele>183.60000610352</ele>
        <time>2019-05-23T07:51:25.000Z</time>
      </trkpt>
      <trkpt lat="43.21995" lon="5.3747">
        <ele>184</ele>
        <time>2019-05-23T07:51:27.000Z</time>
      </trkpt>
      <trkpt lat="43.21995" lon="5.37471">
        <ele>184.39999389648</ele>
        <time>2019-05-23T07:51:28.000Z</time>
      </trkpt>
      <trkpt lat="43.21996" lon="5.37473">
        <ele>184.80000305176</ele>
        <time>2019-05-23T07:51:30.000Z</time>
      </trkpt>
      <trkpt lat="43.21996" lon="5.37473">
        <ele>185.19999694824</ele>
        <time>2019-05-23T07:51:31.000Z</time>
      </trkpt>
      <trkpt lat="43.21996" lon="5.37473">
        <ele>185.39999389648</ele>
        <time>2019-05-23T07:51:32.000Z</time>
      </trkpt>
      <trkpt lat="43.21997" lon="5.37472">
        <ele>185.60000610352</ele>
        <time>2019-05-23T07:51:33.000Z</time>
      </trkpt>
      <trkpt lat="43.21998" lon="5.37472">
        <ele>186</ele>
        <time>2019-05-23T07:51:36.000Z</time>
      </trkpt>
      <trkpt lat="43.21999" lon="5.37472">
        <ele>186</ele>
        <time>2019-05-23T07:51:37.000Z</time>
      </trkpt>
      <trkpt lat="43.21999" lon="5.37473">
        <ele>186.60000610352</ele>
        <time>2019-05-23T07:51:39.000Z</time>
      </trkpt>
      <trkpt lat="43.22" lon="5.37474">
        <ele>187.19999694824</ele>
        <time>2019-05-23T07:51:40.000Z</time>
      </trkpt>
      <trkpt lat="43.22" lon="5.37475">
        <ele>187.80000305176</ele>
        <time>2019-05-23T07:51:41.000Z</time>
      </trkpt>
      <trkpt lat="43.22001" lon="5.37476">
        <ele>188.19999694824</ele>
        <time>2019-05-23T07:51:42.000Z</time>
      </trkpt>
      <trkpt lat="43.22001" lon="5.37477">
        <ele>188.39999389648</ele>
        <time>2019-05-23T07:51:43.000Z</time>
      </trkpt>
      <trkpt lat="43.22002" lon="5.37478">
        <ele>188.80000305176</ele>
        <time>2019-05-23T07:51:45.000Z</time>
      </trkpt>
      <trkpt lat="43.22002" lon="5.3748">
        <ele>189.60000610352</ele>
        <time>2019-05-23T07:51:48.000Z</time>
      </trkpt>
      <trkpt lat="43.22003" lon="5.3748">
        <ele>189.80000305176</ele>
        <time>2019-05-23T07:51:49.000Z</time>
      </trkpt>
      <trkpt lat="43.22003" lon="5.3748">
        <ele>190</ele>
        <time>2019-05-23T07:51:50.000Z</time>
      </trkpt>
      <trkpt lat="43.22005" lon="5.37479">
        <ele>190.80000305176</ele>
        <time>2019-05-23T07:51:53.000Z</time>
      </trkpt>
      <trkpt lat="43.22005" lon="5.37479">
        <ele>191</ele>
        <time>2019-05-23T07:51:54.000Z</time>
      </trkpt>
      <trkpt lat="43.22006" lon="5.37479">
        <ele>191.19999694824</ele>
        <time>2019-05-23T07:51:55.000Z</time>
      </trkpt>
      <trkpt lat="43.22006" lon="5.37479">
        <ele>191.60000610352</ele>
        <time>2019-05-23T07:51:57.000Z</time>
      </trkpt>
      <trkpt lat="43.22007" lon="5.3748">
        <ele>192</ele>
        <time>2019-05-23T07:51:59.000Z</time>
      </trkpt>
      <trkpt lat="43.22009" lon="5.37484">
        <ele>192.80000305176</ele>
        <time>2019-05-23T07:52:02.000Z</time>
      </trkpt>
      <trkpt lat="43.22009" lon="5.37485">
        <ele>193</ele>
        <time>2019-05-23T07:52:03.000Z</time>
      </trkpt>
      <trkpt lat="43.22009" lon="5.37487">
        <ele>193.39999389648</ele>
        <time>2019-05-23T07:52:04.000Z</time>
      </trkpt>
      <trkpt lat="43.2201" lon="5.37489">
        <ele>193.80000305176</ele>
        <time>2019-05-23T07:52:05.000Z</time>
      </trkpt>
      <trkpt lat="43.2201" lon="5.37491">
        <ele>194.19999694824</ele>
        <time>2019-05-23T07:52:06.000Z</time>
      </trkpt>
      <trkpt lat="43.2201" lon="5.37495">
        <ele>195.39999389648</ele>
        <time>2019-05-23T07:52:09.000Z</time>
      </trkpt>
      <trkpt lat="43.22011" lon="5.37497">
        <ele>195.39999389648</ele>
        <time>2019-05-23T07:52:10.000Z</time>
      </trkpt>
      <trkpt lat="43.22008" lon="5.37507">
        <ele>196.19999694824</ele>
        <time>2019-05-23T07:52:16.000Z</time>
      </trkpt>
      <trkpt lat="43.22008" lon="5.37508">
        <ele>196.39999389648</ele>
        <time>2019-05-23T07:52:17.000Z</time>
      </trkpt>
      <trkpt lat="43.2201" lon="5.37514">
        <ele>197.19999694824</ele>
        <time>2019-05-23T07:52:23.000Z</time>
      </trkpt>
      <trkpt lat="43.2201" lon="5.37515">
        <ele>197.39999389648</ele>
        <time>2019-05-23T07:52:24.000Z</time>
      </trkpt>
      <trkpt lat="43.2201" lon="5.37517">
        <ele>197.60000610352</ele>
        <time>2019-05-23T07:52:26.000Z</time>
      </trkpt>
      <trkpt lat="43.22012" lon="5.3752">
        <ele>198.39999389648</ele>
        <time>2019-05-23T07:52:30.000Z</time>
      </trkpt>
      <trkpt lat="43.22012" lon="5.37521">
        <ele>198.60000610352</ele>
        <time>2019-05-23T07:52:31.000Z</time>
      </trkpt>
      <trkpt lat="43.22012" lon="5.37522">
        <ele>199</ele>
        <time>2019-05-23T07:52:32.000Z</time>
      </trkpt>
      <trkpt lat="43.22013" lon="5.37528">
        <ele>200</ele>
        <time>2019-05-23T07:52:36.000Z</time>
      </trkpt>
      <trkpt lat="43.22014" lon="5.3753">
        <ele>200.39999389648</ele>
        <time>2019-05-23T07:52:37.000Z</time>
      </trkpt>
      <trkpt lat="43.22014" lon="5.37531">
        <ele>200.60000610352</ele>
        <time>2019-05-23T07:52:38.000Z</time>
      </trkpt>
      <trkpt lat="43.22014" lon="5.37536">
        <ele>201.19999694824</ele>
        <time>2019-05-23T07:52:41.000Z</time>
      </trkpt>
      <trkpt lat="43.22013" lon="5.37537">
        <ele>201.60000610352</ele>
        <time>2019-05-23T07:52:42.000Z</time>
      </trkpt>
      <trkpt lat="43.22013" lon="5.37538">
        <ele>201.80000305176</ele>
        <time>2019-05-23T07:52:43.000Z</time>
      </trkpt>
      <trkpt lat="43.22013" lon="5.37539">
        <ele>202</ele>
        <time>2019-05-23T07:52:44.000Z</time>
      </trkpt>
      <trkpt lat="43.22012" lon="5.37542">
        <ele>202.60000610352</ele>
        <time>2019-05-23T07:52:46.000Z</time>
      </trkpt>
      <trkpt lat="43.22012" lon="5.37544">
        <ele>203</ele>
        <time>2019-05-23T07:52:47.000Z</time>
      </trkpt>
      <trkpt lat="43.22012" lon="5.37546">
        <ele>203.60000610352</ele>
        <time>2019-05-23T07:52:49.000Z</time>
      </trkpt>
      <trkpt lat="43.22011" lon="5.37548">
        <ele>203.80000305176</ele>
        <time>2019-05-23T07:52:50.000Z</time>
      </trkpt>
      <trkpt lat="43.22011" lon="5.37548">
        <ele>203.80000305176</ele>
        <time>2019-05-23T07:52:51.000Z</time>
      </trkpt>
      <trkpt lat="43.22012" lon="5.37548">
        <ele>204.60000610352</ele>
        <time>2019-05-23T07:52:54.000Z</time>
      </trkpt>
      <trkpt lat="43.22012" lon="5.37548">
        <ele>204.80000305176</ele>
        <time>2019-05-23T07:52:55.000Z</time>
      </trkpt>
      <trkpt lat="43.22013" lon="5.37548">
        <ele>205</ele>
        <time>2019-05-23T07:52:56.000Z</time>
      </trkpt>
      <trkpt lat="43.22014" lon="5.37548">
        <ele>205.19999694824</ele>
        <time>2019-05-23T07:52:57.000Z</time>
      </trkpt>
      <trkpt lat="43.22015" lon="5.37552">
        <ele>205.80000305176</ele>
        <time>2019-05-23T07:53:00.000Z</time>
      </trkpt>
      <trkpt lat="43.22016" lon="5.37553">
        <ele>206</ele>
        <time>2019-05-23T07:53:01.000Z</time>
      </trkpt>
      <trkpt lat="43.22016" lon="5.37556">
        <ele>206.80000305176</ele>
        <time>2019-05-23T07:53:04.000Z</time>
      </trkpt>
      <trkpt lat="43.22016" lon="5.37559">
        <ele>207.60000610352</ele>
        <time>2019-05-23T07:53:07.000Z</time>
      </trkpt>
      <trkpt lat="43.22016" lon="5.37561">
        <ele>208</ele>
        <time>2019-05-23T07:53:09.000Z</time>
      </trkpt>
      <trkpt lat="43.22017" lon="5.37565">
        <ele>208.80000305176</ele>
        <time>2019-05-23T07:53:13.000Z</time>
      </trkpt>
      <trkpt lat="43.22017" lon="5.37566">
        <ele>209.19999694824</ele>
        <time>2019-05-23T07:53:14.000Z</time>
      </trkpt>
      <trkpt lat="43.22019" lon="5.37573">
        <ele>210.39999389648</ele>
        <time>2019-05-23T07:53:18.000Z</time>
      </trkpt>
      <trkpt lat="43.2202" lon="5.37574">
        <ele>210.60000610352</ele>
        <time>2019-05-23T07:53:19.000Z</time>
      </trkpt>
      <trkpt lat="43.22022" lon="5.37576">
        <ele>211.39999389648</ele>
        <time>2019-05-23T07:53:23.000Z</time>
      </trkpt>
      <trkpt lat="43.22023" lon="5.37576">
        <ele>211.60000610352</ele>
        <time>2019-05-23T07:53:24.000Z</time>
      </trkpt>
      <trkpt lat="43.22024" lon="5.37577">
        <ele>212</ele>
        <time>2019-05-23T07:53:26.000Z</time>
      </trkpt>
      <trkpt lat="43.22025" lon="5.37578">
        <ele>212</ele>
        <time>2019-05-23T07:53:27.000Z</time>
      </trkpt>
      <trkpt lat="43.22026" lon="5.37578">
        <ele>212.60000610352</ele>
        <time>2019-05-23T07:53:29.000Z</time>
      </trkpt>
      <trkpt lat="43.22027" lon="5.37578">
        <ele>212.80000305176</ele>
        <time>2019-05-23T07:53:30.000Z</time>
      </trkpt>
      <trkpt lat="43.22029" lon="5.37577">
        <ele>213.19999694824</ele>
        <time>2019-05-23T07:53:33.000Z</time>
      </trkpt>
      <trkpt lat="43.2203" lon="5.37577">
        <ele>213.39999389648</ele>
        <time>2019-05-23T07:53:35.000Z</time>
      </trkpt>
      <trkpt lat="43.2203" lon="5.37577">
        <ele>213.80000305176</ele>
        <time>2019-05-23T07:53:36.000Z</time>
      </trkpt>
      <trkpt lat="43.22033" lon="5.37579">
        <ele>214.80000305176</ele>
        <time>2019-05-23T07:53:40.000Z</time>
      </trkpt>
      <trkpt lat="43.22033" lon="5.3758">
        <ele>215</ele>
        <time>2019-05-23T07:53:41.000Z</time>
      </trkpt>
      <trkpt lat="43.22036" lon="5.3758">
        <ele>215.80000305176</ele>
        <time>2019-05-23T07:53:45.000Z</time>
      </trkpt>
      <trkpt lat="43.22037" lon="5.37581">
        <ele>216.39999389648</ele>
        <time>2019-05-23T07:53:47.000Z</time>
      </trkpt>
      <trkpt lat="43.22039" lon="5.37584">
        <ele>217</ele>
        <time>2019-05-23T07:53:50.000Z</time>
      </trkpt>
      <trkpt lat="43.22042" lon="5.37586">
        <ele>217.80000305176</ele>
        <time>2019-05-23T07:53:53.000Z</time>
      </trkpt>
      <trkpt lat="43.22043" lon="5.37588">
        <ele>218.19999694824</ele>
        <time>2019-05-23T07:53:55.000Z</time>
      </trkpt>
      <trkpt lat="43.22046" lon="5.37588">
        <ele>218.80000305176</ele>
        <time>2019-05-23T07:53:57.000Z</time>
      </trkpt>
      <trkpt lat="43.22047" lon="5.37589">
        <ele>219.19999694824</ele>
        <time>2019-05-23T07:53:59.000Z</time>
      </trkpt>
      <trkpt lat="43.22048" lon="5.3759">
        <ele>219.39999389648</ele>
        <time>2019-05-23T07:54:00.000Z</time>
      </trkpt>
      <trkpt lat="43.22049" lon="5.37592">
        <ele>220</ele>
        <time>2019-05-23T07:54:02.000Z</time>
      </trkpt>
      <trkpt lat="43.2205" lon="5.37593">
        <ele>220.39999389648</ele>
        <time>2019-05-23T07:54:03.000Z</time>
      </trkpt>
      <trkpt lat="43.22052" lon="5.37596">
        <ele>220.80000305176</ele>
        <time>2019-05-23T07:54:06.000Z</time>
      </trkpt>
      <trkpt lat="43.22052" lon="5.37596">
        <ele>221</ele>
        <time>2019-05-23T07:54:07.000Z</time>
      </trkpt>
      <trkpt lat="43.22053" lon="5.37599">
        <ele>221.39999389648</ele>
        <time>2019-05-23T07:54:10.000Z</time>
      </trkpt>
      <trkpt lat="43.22054" lon="5.37601">
        <ele>222</ele>
        <time>2019-05-23T07:54:12.000Z</time>
      </trkpt>
      <trkpt lat="43.22055" lon="5.37602">
        <ele>222.19999694824</ele>
        <time>2019-05-23T07:54:13.000Z</time>
      </trkpt>
      <trkpt lat="43.22055" lon="5.37603">
        <ele>222.39999389648</ele>
        <time>2019-05-23T07:54:14.000Z</time>
      </trkpt>
      <trkpt lat="43.22055" lon="5.37603">
        <ele>222.60000610352</ele>
        <time>2019-05-23T07:54:15.000Z</time>
      </trkpt>
      <trkpt lat="43.22056" lon="5.37603">
        <ele>222.60000610352</ele>
        <time>2019-05-23T07:54:16.000Z</time>
      </trkpt>
      <trkpt lat="43.22056" lon="5.37605">
        <ele>223.19999694824</ele>
        <time>2019-05-23T07:54:18.000Z</time>
      </trkpt>
      <trkpt lat="43.22057" lon="5.37606">
        <ele>223.60000610352</ele>
        <time>2019-05-23T07:54:20.000Z</time>
      </trkpt>
      <trkpt lat="43.2206" lon="5.37606">
        <ele>224.19999694824</ele>
        <time>2019-05-23T07:54:23.000Z</time>
      </trkpt>
      <trkpt lat="43.22061" lon="5.37607">
        <ele>225</ele>
        <time>2019-05-23T07:54:25.000Z</time>
      </trkpt>
      <trkpt lat="43.22063" lon="5.37607">
        <ele>225.80000305176</ele>
        <time>2019-05-23T07:54:28.000Z</time>
      </trkpt>
      <trkpt lat="43.22063" lon="5.37607">
        <ele>226</ele>
        <time>2019-05-23T07:54:29.000Z</time>
      </trkpt>
      <trkpt lat="43.22065" lon="5.37607">
        <ele>226.60000610352</ele>
        <time>2019-05-23T07:54:31.000Z</time>
      </trkpt>
      <trkpt lat="43.22066" lon="5.3761">
        <ele>227.19999694824</ele>
        <time>2019-05-23T07:54:33.000Z</time>
      </trkpt>
      <trkpt lat="43.22067" lon="5.37614">
        <ele>228</ele>
        <time>2019-05-23T07:54:36.000Z</time>
      </trkpt>
      <trkpt lat="43.22066" lon="5.37617">
        <ele>228.39999389648</ele>
        <time>2019-05-23T07:54:37.000Z</time>
      </trkpt>
      <trkpt lat="43.22067" lon="5.37621">
        <ele>229</ele>
        <time>2019-05-23T07:54:39.000Z</time>
      </trkpt>
      <trkpt lat="43.22067" lon="5.37624">
        <ele>229.60000610352</ele>
        <time>2019-05-23T07:54:41.000Z</time>
      </trkpt>
      <trkpt lat="43.22067" lon="5.37625">
        <ele>230</ele>
        <time>2019-05-23T07:54:42.000Z</time>
      </trkpt>
      <trkpt lat="43.22067" lon="5.37627">
        <ele>230.80000305176</ele>
        <time>2019-05-23T07:54:45.000Z</time>
      </trkpt>
      <trkpt lat="43.22064" lon="5.37633">
        <ele>232</ele>
        <time>2019-05-23T07:54:49.000Z</time>
      </trkpt>
      <trkpt lat="43.22063" lon="5.37638">
        <ele>232.60000610352</ele>
        <time>2019-05-23T07:54:52.000Z</time>
      </trkpt>
      <trkpt lat="43.22063" lon="5.37642">
        <ele>233</ele>
        <time>2019-05-23T07:54:54.000Z</time>
      </trkpt>
      <trkpt lat="43.22062" lon="5.37648">
        <ele>234</ele>
        <time>2019-05-23T07:54:57.000Z</time>
      </trkpt>
      <trkpt lat="43.22061" lon="5.37649">
        <ele>234.19999694824</ele>
        <time>2019-05-23T07:54:58.000Z</time>
      </trkpt>
      <trkpt lat="43.22061" lon="5.37654">
        <ele>235.39999389648</ele>
        <time>2019-05-23T07:55:03.000Z</time>
      </trkpt>
      <trkpt lat="43.22061" lon="5.37656">
        <ele>235.80000305176</ele>
        <time>2019-05-23T07:55:05.000Z</time>
      </trkpt>
      <trkpt lat="43.2206" lon="5.37658">
        <ele>236.19999694824</ele>
        <time>2019-05-23T07:55:07.000Z</time>
      </trkpt>
      <trkpt lat="43.2206" lon="5.3766">
        <ele>236.39999389648</ele>
        <time>2019-05-23T07:55:08.000Z</time>
      </trkpt>
      <trkpt lat="43.2206" lon="5.37661">
        <ele>236.80000305176</ele>
        <time>2019-05-23T07:55:09.000Z</time>
      </trkpt>
      <trkpt lat="43.2206" lon="5.37663">
        <ele>237.39999389648</ele>
        <time>2019-05-23T07:55:11.000Z</time>
      </trkpt>
      <trkpt lat="43.2206" lon="5.37664">
        <ele>237.80000305176</ele>
        <time>2019-05-23T07:55:12.000Z</time>
      </trkpt>
      <trkpt lat="43.2206" lon="5.37665">
        <ele>238</ele>
        <time>2019-05-23T07:55:13.000Z</time>
      </trkpt>
      <trkpt lat="43.22062" lon="5.37671">
        <ele>238.60000610352</ele>
        <time>2019-05-23T07:55:16.000Z</time>
      </trkpt>
      <trkpt lat="43.22061" lon="5.37677">
        <ele>239.19999694824</ele>
        <time>2019-05-23T07:55:19.000Z</time>
      </trkpt>
      <trkpt lat="43.22059" lon="5.37678">
        <ele>239.39999389648</ele>
        <time>2019-05-23T07:55:20.000Z</time>
      </trkpt>
      <trkpt lat="43.22059" lon="5.37679">
        <ele>239.80000305176</ele>
        <time>2019-05-23T07:55:21.000Z</time>
      </trkpt>
      <trkpt lat="43.22057" lon="5.37685">
        <ele>240.19999694824</ele>
        <time>2019-05-23T07:55:24.000Z</time>
      </trkpt>
      <trkpt lat="43.22057" lon="5.37689">
        <ele>240.80000305176</ele>
        <time>2019-05-23T07:55:26.000Z</time>
      </trkpt>
      <trkpt lat="43.22058" lon="5.37691">
        <ele>241</ele>
        <time>2019-05-23T07:55:28.000Z</time>
      </trkpt>
      <trkpt lat="43.22058" lon="5.37693">
        <ele>241.39999389648</ele>
        <time>2019-05-23T07:55:30.000Z</time>
      </trkpt>
      <trkpt lat="43.22059" lon="5.37695">
        <ele>241.80000305176</ele>
        <time>2019-05-23T07:55:32.000Z</time>
      </trkpt>
      <trkpt lat="43.22062" lon="5.37698">
        <ele>242.19999694824</ele>
        <time>2019-05-23T07:55:34.000Z</time>
      </trkpt>
      <trkpt lat="43.22064" lon="5.37703">
        <ele>242.80000305176</ele>
        <time>2019-05-23T07:55:37.000Z</time>
      </trkpt>
      <trkpt lat="43.22065" lon="5.37705">
        <ele>243.19999694824</ele>
        <time>2019-05-23T07:55:39.000Z</time>
      </trkpt>
      <trkpt lat="43.22065" lon="5.37712">
        <ele>247.80000305176</ele>
        <time>2019-05-23T07:55:45.000Z</time>
      </trkpt>
      <trkpt lat="43.22071" lon="5.37722">
        <ele>244.19999694824</ele>
        <time>2019-05-23T07:56:50.000Z</time>
      </trkpt>
      <trkpt lat="43.22073" lon="5.3772">
        <ele>244.19999694824</ele>
        <time>2019-05-23T07:56:51.000Z</time>
      </trkpt>
      <trkpt lat="43.22081" lon="5.37715">
        <ele>244.19999694824</ele>
        <time>2019-05-23T07:56:54.000Z</time>
      </trkpt>
      <trkpt lat="43.22092" lon="5.37714">
        <ele>244.60000610352</ele>
        <time>2019-05-23T07:56:59.000Z</time>
      </trkpt>
      <trkpt lat="43.22094" lon="5.37714">
        <ele>244.80000305176</ele>
        <time>2019-05-23T07:57:00.000Z</time>
      </trkpt>
      <trkpt lat="43.22098" lon="5.37713">
        <ele>244.80000305176</ele>
        <time>2019-05-23T07:57:02.000Z</time>
      </trkpt>
      <trkpt lat="43.221" lon="5.37712">
        <ele>244.80000305176</ele>
        <time>2019-05-23T07:57:03.000Z</time>
      </trkpt>
      <trkpt lat="43.22102" lon="5.37712">
        <ele>244.60000610352</ele>
        <time>2019-05-23T07:57:04.000Z</time>
      </trkpt>
      <trkpt lat="43.22104" lon="5.37711">
        <ele>244.60000610352</ele>
        <time>2019-05-23T07:57:05.000Z</time>
      </trkpt>
      <trkpt lat="43.2211" lon="5.37708">
        <ele>244.19999694824</ele>
        <time>2019-05-23T07:57:08.000Z</time>
      </trkpt>
      <trkpt lat="43.22121" lon="5.377">
        <ele>244.19999694824</ele>
        <time>2019-05-23T07:57:13.000Z</time>
      </trkpt>
      <trkpt lat="43.2213" lon="5.37691">
        <ele>244.60000610352</ele>
        <time>2019-05-23T07:57:18.000Z</time>
      </trkpt>
      <trkpt lat="43.22132" lon="5.3769">
        <ele>245.39999389648</ele>
        <time>2019-05-23T07:57:19.000Z</time>
      </trkpt>
      <trkpt lat="43.22138" lon="5.3769">
        <ele>246.19999694824</ele>
        <time>2019-05-23T07:57:22.000Z</time>
      </trkpt>
      <trkpt lat="43.2214" lon="5.3769">
        <ele>246.39999389648</ele>
        <time>2019-05-23T07:57:23.000Z</time>
      </trkpt>
      <trkpt lat="43.22141" lon="5.3769">
        <ele>246.19999694824</ele>
        <time>2019-05-23T07:57:24.000Z</time>
      </trkpt>
      <trkpt lat="43.22145" lon="5.37689">
        <ele>246.19999694824</ele>
        <time>2019-05-23T07:57:26.000Z</time>
      </trkpt>
      <trkpt lat="43.22155" lon="5.37681">
        <ele>245.80000305176</ele>
        <time>2019-05-23T07:57:32.000Z</time>
      </trkpt>
      <trkpt lat="43.22157" lon="5.37676">
        <ele>245.39999389648</ele>
        <time>2019-05-23T07:57:34.000Z</time>
      </trkpt>
      <trkpt lat="43.22158" lon="5.37673">
        <ele>245.19999694824</ele>
        <time>2019-05-23T07:57:35.000Z</time>
      </trkpt>
      <trkpt lat="43.2216" lon="5.37669">
        <ele>245</ele>
        <time>2019-05-23T07:57:37.000Z</time>
      </trkpt>
      <trkpt lat="43.22163" lon="5.37653">
        <ele>244.60000610352</ele>
        <time>2019-05-23T07:57:43.000Z</time>
      </trkpt>
      <trkpt lat="43.22163" lon="5.37651">
        <ele>244.60000610352</ele>
        <time>2019-05-23T07:57:44.000Z</time>
      </trkpt>
      <trkpt lat="43.22166" lon="5.37641">
        <ele>245.39999389648</ele>
        <time>2019-05-23T07:57:48.000Z</time>
      </trkpt>
      <trkpt lat="43.22168" lon="5.37639">
        <ele>245.60000610352</ele>
        <time>2019-05-23T07:57:50.000Z</time>
      </trkpt>
      <trkpt lat="43.22169" lon="5.37637">
        <ele>245.60000610352</ele>
        <time>2019-05-23T07:57:52.000Z</time>
      </trkpt>
      <trkpt lat="43.22171" lon="5.37634">
        <ele>245.39999389648</ele>
        <time>2019-05-23T07:57:54.000Z</time>
      </trkpt>
      <trkpt lat="43.22172" lon="5.3763">
        <ele>244.80000305176</ele>
        <time>2019-05-23T07:57:56.000Z</time>
      </trkpt>
      <trkpt lat="43.22173" lon="5.37625">
        <ele>244</ele>
        <time>2019-05-23T07:57:59.000Z</time>
      </trkpt>
      <trkpt lat="43.22173" lon="5.37623">
        <ele>243.60000610352</ele>
        <time>2019-05-23T07:58:00.000Z</time>
      </trkpt>
      <trkpt lat="43.22174" lon="5.37622">
        <ele>243</ele>
        <time>2019-05-23T07:58:01.000Z</time>
      </trkpt>
      <trkpt lat="43.22174" lon="5.37621">
        <ele>242.39999389648</ele>
        <time>2019-05-23T07:58:02.000Z</time>
      </trkpt>
      <trkpt lat="43.22175" lon="5.3762">
        <ele>242</ele>
        <time>2019-05-23T07:58:03.000Z</time>
      </trkpt>
      <trkpt lat="43.22175" lon="5.37618">
        <ele>241.60000610352</ele>
        <time>2019-05-23T07:58:04.000Z</time>
      </trkpt>
      <trkpt lat="43.22176" lon="5.37617">
        <ele>241.19999694824</ele>
        <time>2019-05-23T07:58:05.000Z</time>
      </trkpt>
      <trkpt lat="43.22178" lon="5.37613">
        <ele>240.39999389648</ele>
        <time>2019-05-23T07:58:07.000Z</time>
      </trkpt>
      <trkpt lat="43.22179" lon="5.37611">
        <ele>239.80000305176</ele>
        <time>2019-05-23T07:58:08.000Z</time>
      </trkpt>
      <trkpt lat="43.22183" lon="5.37606">
        <ele>239</ele>
        <time>2019-05-23T07:58:10.000Z</time>
      </trkpt>
      <trkpt lat="43.22185" lon="5.37603">
        <ele>238.60000610352</ele>
        <time>2019-05-23T07:58:11.000Z</time>
      </trkpt>
      <trkpt lat="43.22188" lon="5.37601">
        <ele>238</ele>
        <time>2019-05-23T07:58:13.000Z</time>
      </trkpt>
      <trkpt lat="43.22189" lon="5.37599">
        <ele>237.60000610352</ele>
        <time>2019-05-23T07:58:14.000Z</time>
      </trkpt>
      <trkpt lat="43.22193" lon="5.37592">
        <ele>236.80000305176</ele>
        <time>2019-05-23T07:58:18.000Z</time>
      </trkpt>
      <trkpt lat="43.22194" lon="5.37591">
        <ele>236.80000305176</ele>
        <time>2019-05-23T07:58:19.000Z</time>
      </trkpt>
      <trkpt lat="43.22195" lon="5.3759">
        <ele>236.80000305176</ele>
        <time>2019-05-23T07:58:20.000Z</time>
      </trkpt>
      <trkpt lat="43.22199" lon="5.37589">
        <ele>236.80000305176</ele>
        <time>2019-05-23T07:58:22.000Z</time>
      </trkpt>
      <trkpt lat="43.22201" lon="5.37589">
        <ele>236.80000305176</ele>
        <time>2019-05-23T07:58:23.000Z</time>
      </trkpt>
      <trkpt lat="43.22204" lon="5.37588">
        <ele>236.80000305176</ele>
        <time>2019-05-23T07:58:24.000Z</time>
      </trkpt>
      <trkpt lat="43.22212" lon="5.37588">
        <ele>236.80000305176</ele>
        <time>2019-05-23T07:58:26.000Z</time>
      </trkpt>
      <trkpt lat="43.22216" lon="5.37591">
        <ele>236.60000610352</ele>
        <time>2019-05-23T07:58:29.000Z</time>
      </trkpt>
      <trkpt lat="43.22219" lon="5.37593">
        <ele>236.60000610352</ele>
        <time>2019-05-23T07:58:30.000Z</time>
      </trkpt>
      <trkpt lat="43.22221" lon="5.37595">
        <ele>236.39999389648</ele>
        <time>2019-05-23T07:58:31.000Z</time>
      </trkpt>
      <trkpt lat="43.22223" lon="5.37597">
        <ele>236</ele>
        <time>2019-05-23T07:58:33.000Z</time>
      </trkpt>
      <trkpt lat="43.22224" lon="5.37599">
        <ele>235.39999389648</ele>
        <time>2019-05-23T07:58:34.000Z</time>
      </trkpt>
      <trkpt lat="43.22225" lon="5.376">
        <ele>235</ele>
        <time>2019-05-23T07:58:35.000Z</time>
      </trkpt>
      <trkpt lat="43.22226" lon="5.37603">
        <ele>234.60000610352</ele>
        <time>2019-05-23T07:58:37.000Z</time>
      </trkpt>
      <trkpt lat="43.22227" lon="5.37617">
        <ele>232</ele>
        <time>2019-05-23T07:59:12.000Z</time>
      </trkpt>
      <trkpt lat="43.22227" lon="5.37618">
        <ele>231.80000305176</ele>
        <time>2019-05-23T07:59:13.000Z</time>
      </trkpt>
      <trkpt lat="43.22227" lon="5.37621">
        <ele>231.60000610352</ele>
        <time>2019-05-23T07:59:15.000Z</time>
      </trkpt>
      <trkpt lat="43.22228" lon="5.37625">
        <ele>231.60000610352</ele>
        <time>2019-05-23T07:59:17.000Z</time>
      </trkpt>
      <trkpt lat="43.22234" lon="5.37639">
        <ele>231.19999694824</ele>
        <time>2019-05-23T07:59:22.000Z</time>
      </trkpt>
      <trkpt lat="43.22237" lon="5.37637">
        <ele>232.19999694824</ele>
        <time>2019-05-23T07:59:26.000Z</time>
      </trkpt>
      <trkpt lat="43.22239" lon="5.37635">
        <ele>232.60000610352</ele>
        <time>2019-05-23T07:59:27.000Z</time>
      </trkpt>
      <trkpt lat="43.2224" lon="5.37633">
        <ele>233</ele>
        <time>2019-05-23T07:59:28.000Z</time>
      </trkpt>
      <trkpt lat="43.22245" lon="5.37628">
        <ele>234.39999389648</ele>
        <time>2019-05-23T07:59:31.000Z</time>
      </trkpt>
      <trkpt lat="43.22248" lon="5.37624">
        <ele>235.39999389648</ele>
        <time>2019-05-23T07:59:33.000Z</time>
      </trkpt>
      <trkpt lat="43.2225" lon="5.37622">
        <ele>235.80000305176</ele>
        <time>2019-05-23T07:59:34.000Z</time>
      </trkpt>
      <trkpt lat="43.22255" lon="5.37618">
        <ele>237</ele>
        <time>2019-05-23T07:59:37.000Z</time>
      </trkpt>
      <trkpt lat="43.22256" lon="5.37617">
        <ele>237.19999694824</ele>
        <time>2019-05-23T07:59:38.000Z</time>
      </trkpt>
      <trkpt lat="43.22258" lon="5.37617">
        <ele>237.60000610352</ele>
        <time>2019-05-23T07:59:39.000Z</time>
      </trkpt>
      <trkpt lat="43.22259" lon="5.37617">
        <ele>238</ele>
        <time>2019-05-23T07:59:40.000Z</time>
      </trkpt>
      <trkpt lat="43.2226" lon="5.37616">
        <ele>238.60000610352</ele>
        <time>2019-05-23T07:59:41.000Z</time>
      </trkpt>
      <trkpt lat="43.2226" lon="5.37616">
        <ele>238.60000610352</ele>
        <time>2019-05-23T07:59:42.000Z</time>
      </trkpt>
      <trkpt lat="43.22261" lon="5.37616">
        <ele>239</ele>
        <time>2019-05-23T07:59:43.000Z</time>
      </trkpt>
      <trkpt lat="43.22262" lon="5.37616">
        <ele>239.39999389648</ele>
        <time>2019-05-23T07:59:44.000Z</time>
      </trkpt>
      <trkpt lat="43.22264" lon="5.37617">
        <ele>239.60000610352</ele>
        <time>2019-05-23T07:59:46.000Z</time>
      </trkpt>
      <trkpt lat="43.22271" lon="5.37626">
        <ele>240.19999694824</ele>
        <time>2019-05-23T07:59:50.000Z</time>
      </trkpt>
      <trkpt lat="43.22272" lon="5.37628">
        <ele>240.19999694824</ele>
        <time>2019-05-23T07:59:51.000Z</time>
      </trkpt>
      <trkpt lat="43.22273" lon="5.37631">
        <ele>240.19999694824</ele>
        <time>2019-05-23T07:59:52.000Z</time>
      </trkpt>
      <trkpt lat="43.22275" lon="5.37636">
        <ele>240.39999389648</ele>
        <time>2019-05-23T07:59:54.000Z</time>
      </trkpt>
      <trkpt lat="43.22275" lon="5.37643">
        <ele>240.80000305176</ele>
        <time>2019-05-23T07:59:58.000Z</time>
      </trkpt>
      <trkpt lat="43.22275" lon="5.37645">
        <ele>241</ele>
        <time>2019-05-23T07:59:59.000Z</time>
      </trkpt>
      <trkpt lat="43.22275" lon="5.37654">
        <ele>241.60000610352</ele>
        <time>2019-05-23T08:00:02.000Z</time>
      </trkpt>
      <trkpt lat="43.22275" lon="5.37658">
        <ele>242</ele>
        <time>2019-05-23T08:00:04.000Z</time>
      </trkpt>
      <trkpt lat="43.22276" lon="5.37663">
        <ele>242.60000610352</ele>
        <time>2019-05-23T08:00:07.000Z</time>
      </trkpt>
      <trkpt lat="43.22276" lon="5.37666">
        <ele>242.80000305176</ele>
        <time>2019-05-23T08:00:08.000Z</time>
      </trkpt>
      <trkpt lat="43.22277" lon="5.37673">
        <ele>243</ele>
        <time>2019-05-23T08:00:11.000Z</time>
      </trkpt>
      <trkpt lat="43.22277" lon="5.37678">
        <ele>244</ele>
        <time>2019-05-23T08:00:15.000Z</time>
      </trkpt>
      <trkpt lat="43.22279" lon="5.37684">
        <ele>244.60000610352</ele>
        <time>2019-05-23T08:00:21.000Z</time>
      </trkpt>
      <trkpt lat="43.22279" lon="5.37687">
        <ele>244.80000305176</ele>
        <time>2019-05-23T08:00:23.000Z</time>
      </trkpt>
      <trkpt lat="43.22278" lon="5.37689">
        <ele>245</ele>
        <time>2019-05-23T08:00:25.000Z</time>
      </trkpt>
      <trkpt lat="43.22278" lon="5.37691">
        <ele>245.39999389648</ele>
        <time>2019-05-23T08:00:27.000Z</time>
      </trkpt>
      <trkpt lat="43.22278" lon="5.37693">
        <ele>246</ele>
        <time>2019-05-23T08:00:29.000Z</time>
      </trkpt>
      <trkpt lat="43.22278" lon="5.37694">
        <ele>246.19999694824</ele>
        <time>2019-05-23T08:00:30.000Z</time>
      </trkpt>
      <trkpt lat="43.22278" lon="5.37694">
        <ele>246.19999694824</ele>
        <time>2019-05-23T08:00:31.000Z</time>
      </trkpt>
      <trkpt lat="43.22278" lon="5.37696">
        <ele>246.80000305176</ele>
        <time>2019-05-23T08:00:33.000Z</time>
      </trkpt>
      <trkpt lat="43.22278" lon="5.37697">
        <ele>247</ele>
        <time>2019-05-23T08:00:34.000Z</time>
      </trkpt>
      <trkpt lat="43.22279" lon="5.37697">
        <ele>247.19999694824</ele>
        <time>2019-05-23T08:00:35.000Z</time>
      </trkpt>
      <trkpt lat="43.22282" lon="5.37698">
        <ele>248</ele>
        <time>2019-05-23T08:00:39.000Z</time>
      </trkpt>
      <trkpt lat="43.22282" lon="5.37698">
        <ele>248.19999694824</ele>
        <time>2019-05-23T08:00:40.000Z</time>
      </trkpt>
      <trkpt lat="43.22283" lon="5.37699">
        <ele>248.60000610352</ele>
        <time>2019-05-23T08:00:42.000Z</time>
      </trkpt>
      <trkpt lat="43.22283" lon="5.37701">
        <ele>249.39999389648</ele>
        <time>2019-05-23T08:00:45.000Z</time>
      </trkpt>
      <trkpt lat="43.22284" lon="5.37705">
        <ele>250.60000610352</ele>
        <time>2019-05-23T08:00:50.000Z</time>
      </trkpt>
      <trkpt lat="43.22284" lon="5.37707">
        <ele>251.19999694824</ele>
        <time>2019-05-23T08:00:53.000Z</time>
      </trkpt>
      <trkpt lat="43.22289" lon="5.37717">
        <ele>251.60000610352</ele>
        <time>2019-05-23T08:00:58.000Z</time>
      </trkpt>
      <trkpt lat="43.22293" lon="5.37725">
        <ele>251.60000610352</ele>
        <time>2019-05-23T08:01:02.000Z</time>
      </trkpt>
      <trkpt lat="43.22295" lon="5.37728">
        <ele>251.80000305176</ele>
        <time>2019-05-23T08:01:03.000Z</time>
      </trkpt>
      <trkpt lat="43.22303" lon="5.3774">
        <ele>252.60000610352</ele>
        <time>2019-05-23T08:01:10.000Z</time>
      </trkpt>
      <trkpt lat="43.22306" lon="5.37743">
        <ele>252.60000610352</ele>
        <time>2019-05-23T08:01:12.000Z</time>
      </trkpt>
      <trkpt lat="43.22307" lon="5.37744">
        <ele>252.80000305176</ele>
        <time>2019-05-23T08:01:13.000Z</time>
      </trkpt>
      <trkpt lat="43.22308" lon="5.37746">
        <ele>253</ele>
        <time>2019-05-23T08:01:14.000Z</time>
      </trkpt>
      <trkpt lat="43.2231" lon="5.37749">
        <ele>253.39999389648</ele>
        <time>2019-05-23T08:01:15.000Z</time>
      </trkpt>
      <trkpt lat="43.22312" lon="5.37754">
        <ele>254</ele>
        <time>2019-05-23T08:01:17.000Z</time>
      </trkpt>
      <trkpt lat="43.22313" lon="5.37756">
        <ele>254.39999389648</ele>
        <time>2019-05-23T08:01:18.000Z</time>
      </trkpt>
      <trkpt lat="43.22314" lon="5.37759">
        <ele>255</ele>
        <time>2019-05-23T08:01:20.000Z</time>
      </trkpt>
      <trkpt lat="43.22315" lon="5.3776">
        <ele>255.39999389648</ele>
        <time>2019-05-23T08:01:21.000Z</time>
      </trkpt>
      <trkpt lat="43.22317" lon="5.37763">
        <ele>256</ele>
        <time>2019-05-23T08:01:23.000Z</time>
      </trkpt>
      <trkpt lat="43.22318" lon="5.37766">
        <ele>256.20001220703</ele>
        <time>2019-05-23T08:01:24.000Z</time>
      </trkpt>
      <trkpt lat="43.22321" lon="5.37771">
        <ele>256.60000610352</ele>
        <time>2019-05-23T08:01:26.000Z</time>
      </trkpt>
      <trkpt lat="43.22322" lon="5.37774">
        <ele>257.20001220703</ele>
        <time>2019-05-23T08:01:29.000Z</time>
      </trkpt>
      <trkpt lat="43.22323" lon="5.37774">
        <ele>257.79998779297</ele>
        <time>2019-05-23T08:01:30.000Z</time>
      </trkpt>
      <trkpt lat="43.22324" lon="5.37775">
        <ele>258.60000610352</ele>
        <time>2019-05-23T08:01:32.000Z</time>
      </trkpt>
      <trkpt lat="43.22325" lon="5.37776">
        <ele>259</ele>
        <time>2019-05-23T08:01:33.000Z</time>
      </trkpt>
      <trkpt lat="43.22329" lon="5.37779">
        <ele>259.79998779297</ele>
        <time>2019-05-23T08:01:37.000Z</time>
      </trkpt>
      <trkpt lat="43.22331" lon="5.37782">
        <ele>259.79998779297</ele>
        <time>2019-05-23T08:01:39.000Z</time>
      </trkpt>
      <trkpt lat="43.22331" lon="5.37783">
        <ele>260</ele>
        <time>2019-05-23T08:01:40.000Z</time>
      </trkpt>
      <trkpt lat="43.22334" lon="5.37788">
        <ele>260.20001220703</ele>
        <time>2019-05-23T08:01:44.000Z</time>
      </trkpt>
      <trkpt lat="43.22334" lon="5.37789">
        <ele>260.39999389648</ele>
        <time>2019-05-23T08:01:45.000Z</time>
      </trkpt>
      <trkpt lat="43.22335" lon="5.37789">
        <ele>260.60000610352</ele>
        <time>2019-05-23T08:01:46.000Z</time>
      </trkpt>
      <trkpt lat="43.22335" lon="5.3779">
        <ele>260.79998779297</ele>
        <time>2019-05-23T08:01:47.000Z</time>
      </trkpt>
      <trkpt lat="43.22335" lon="5.37791">
        <ele>261</ele>
        <time>2019-05-23T08:01:48.000Z</time>
      </trkpt>
      <trkpt lat="43.22335" lon="5.37796">
        <ele>261.39999389648</ele>
        <time>2019-05-23T08:01:51.000Z</time>
      </trkpt>
      <trkpt lat="43.22335" lon="5.37798">
        <ele>261.60000610352</ele>
        <time>2019-05-23T08:01:52.000Z</time>
      </trkpt>
      <trkpt lat="43.22334" lon="5.37805">
        <ele>261.79998779297</ele>
        <time>2019-05-23T08:01:55.000Z</time>
      </trkpt>
      <trkpt lat="43.22334" lon="5.3781">
        <ele>262.60000610352</ele>
        <time>2019-05-23T08:01:58.000Z</time>
      </trkpt>
      <trkpt lat="43.22333" lon="5.37811">
        <ele>262.79998779297</ele>
        <time>2019-05-23T08:01:59.000Z</time>
      </trkpt>
      <trkpt lat="43.22333" lon="5.37812">
        <ele>263</ele>
        <time>2019-05-23T08:02:00.000Z</time>
      </trkpt>
      <trkpt lat="43.2233" lon="5.37814">
        <ele>263.79998779297</ele>
        <time>2019-05-23T08:02:06.000Z</time>
      </trkpt>
      <trkpt lat="43.22329" lon="5.37814">
        <ele>264</ele>
        <time>2019-05-23T08:02:07.000Z</time>
      </trkpt>
      <trkpt lat="43.22328" lon="5.37817">
        <ele>264.20001220703</ele>
        <time>2019-05-23T08:02:09.000Z</time>
      </trkpt>
      <trkpt lat="43.22326" lon="5.37821">
        <ele>264.60000610352</ele>
        <time>2019-05-23T08:02:12.000Z</time>
      </trkpt>
      <trkpt lat="43.22326" lon="5.37822">
        <ele>264.60000610352</ele>
        <time>2019-05-23T08:02:13.000Z</time>
      </trkpt>
      <trkpt lat="43.22325" lon="5.37825">
        <ele>265.20001220703</ele>
        <time>2019-05-23T08:02:16.000Z</time>
      </trkpt>
      <trkpt lat="43.22327" lon="5.37827">
        <ele>266</ele>
        <time>2019-05-23T08:02:19.000Z</time>
      </trkpt>
      <trkpt lat="43.22327" lon="5.37827">
        <ele>266.20001220703</ele>
        <time>2019-05-23T08:02:20.000Z</time>
      </trkpt>
      <trkpt lat="43.2233" lon="5.37823">
        <ele>267.39999389648</ele>
        <time>2019-05-23T08:02:25.000Z</time>
      </trkpt>
      <trkpt lat="43.2233" lon="5.37818">
        <ele>268</ele>
        <time>2019-05-23T08:02:28.000Z</time>
      </trkpt>
      <trkpt lat="43.22331" lon="5.37816">
        <ele>268.39999389648</ele>
        <time>2019-05-23T08:02:29.000Z</time>
      </trkpt>
      <trkpt lat="43.22334" lon="5.37815">
        <ele>269</ele>
        <time>2019-05-23T08:02:32.000Z</time>
      </trkpt>
      <trkpt lat="43.22339" lon="5.37823">
        <ele>269.39999389648</ele>
        <time>2019-05-23T08:02:37.000Z</time>
      </trkpt>
      <trkpt lat="43.2234" lon="5.37825">
        <ele>269.39999389648</ele>
        <time>2019-05-23T08:02:38.000Z</time>
      </trkpt>
      <trkpt lat="43.22341" lon="5.37828">
        <ele>269.60000610352</ele>
        <time>2019-05-23T08:02:39.000Z</time>
      </trkpt>
      <trkpt lat="43.22344" lon="5.37822">
        <ele>269.60000610352</ele>
        <time>2019-05-23T08:02:42.000Z</time>
      </trkpt>
      <trkpt lat="43.22342" lon="5.37845">
        <ele>268.39999389648</ele>
        <time>2019-05-23T08:03:47.000Z</time>
      </trkpt>
      <trkpt lat="43.22342" lon="5.37848">
        <ele>268.39999389648</ele>
        <time>2019-05-23T08:03:48.000Z</time>
      </trkpt>
      <trkpt lat="43.22342" lon="5.37851">
        <ele>268.39999389648</ele>
        <time>2019-05-23T08:03:49.000Z</time>
      </trkpt>
      <trkpt lat="43.2234" lon="5.37867">
        <ele>268.79998779297</ele>
        <time>2019-05-23T08:03:55.000Z</time>
      </trkpt>
      <trkpt lat="43.2234" lon="5.37874">
        <ele>269.60000610352</ele>
        <time>2019-05-23T08:03:58.000Z</time>
      </trkpt>
      <trkpt lat="43.22339" lon="5.37878">
        <ele>269.79998779297</ele>
        <time>2019-05-23T08:04:01.000Z</time>
      </trkpt>
      <trkpt lat="43.22339" lon="5.37879">
        <ele>270</ele>
        <time>2019-05-23T08:04:02.000Z</time>
      </trkpt>
      <trkpt lat="43.2234" lon="5.3788">
        <ele>270</ele>
        <time>2019-05-23T08:04:03.000Z</time>
      </trkpt>
      <trkpt lat="43.2234" lon="5.37882">
        <ele>270.20001220703</ele>
        <time>2019-05-23T08:04:04.000Z</time>
      </trkpt>
      <trkpt lat="43.22341" lon="5.37885">
        <ele>270.39999389648</ele>
        <time>2019-05-23T08:04:05.000Z</time>
      </trkpt>
      <trkpt lat="43.22341" lon="5.37891">
        <ele>270.39999389648</ele>
        <time>2019-05-23T08:04:07.000Z</time>
      </trkpt>
      <trkpt lat="43.22341" lon="5.37898">
        <ele>270.79998779297</ele>
        <time>2019-05-23T08:04:10.000Z</time>
      </trkpt>
      <trkpt lat="43.22338" lon="5.37901">
        <ele>271.20001220703</ele>
        <time>2019-05-23T08:04:13.000Z</time>
      </trkpt>
      <trkpt lat="43.22338" lon="5.37902">
        <ele>271.39999389648</ele>
        <time>2019-05-23T08:04:14.000Z</time>
      </trkpt>
      <trkpt lat="43.22337" lon="5.37904">
        <ele>271.39999389648</ele>
        <time>2019-05-23T08:04:15.000Z</time>
      </trkpt>
      <trkpt lat="43.22334" lon="5.37911">
        <ele>272</ele>
        <time>2019-05-23T08:04:19.000Z</time>
      </trkpt>
      <trkpt lat="43.22333" lon="5.37916">
        <ele>272</ele>
        <time>2019-05-23T08:04:21.000Z</time>
      </trkpt>
      <trkpt lat="43.22331" lon="5.37922">
        <ele>272.20001220703</ele>
        <time>2019-05-23T08:04:24.000Z</time>
      </trkpt>
      <trkpt lat="43.22328" lon="5.37933">
        <ele>273.60000610352</ele>
        <time>2019-05-23T08:04:28.000Z</time>
      </trkpt>
      <trkpt lat="43.22322" lon="5.37952">
        <ele>274.60000610352</ele>
        <time>2019-05-23T08:04:34.000Z</time>
      </trkpt>
      <trkpt lat="43.22321" lon="5.37961">
        <ele>275.79998779297</ele>
        <time>2019-05-23T08:04:38.000Z</time>
      </trkpt>
      <trkpt lat="43.22321" lon="5.37965">
        <ele>276</ele>
        <time>2019-05-23T08:04:40.000Z</time>
      </trkpt>
      <trkpt lat="43.22319" lon="5.37981">
        <ele>275.79998779297</ele>
        <time>2019-05-23T08:04:46.000Z</time>
      </trkpt>
      <trkpt lat="43.22318" lon="5.37989">
        <ele>275.60000610352</ele>
        <time>2019-05-23T08:04:49.000Z</time>
      </trkpt>
      <trkpt lat="43.22319" lon="5.37993">
        <ele>275.60000610352</ele>
        <time>2019-05-23T08:04:51.000Z</time>
      </trkpt>
      <trkpt lat="43.22324" lon="5.38005">
        <ele>276.60000610352</ele>
        <time>2019-05-23T08:04:56.000Z</time>
      </trkpt>
      <trkpt lat="43.22326" lon="5.38006">
        <ele>276.79998779297</ele>
        <time>2019-05-23T08:04:57.000Z</time>
      </trkpt>
      <trkpt lat="43.22326" lon="5.38008">
        <ele>277</ele>
        <time>2019-05-23T08:04:58.000Z</time>
      </trkpt>
      <trkpt lat="43.22327" lon="5.38013">
        <ele>277.39999389648</ele>
        <time>2019-05-23T08:05:00.000Z</time>
      </trkpt>
      <trkpt lat="43.22327" lon="5.38015">
        <ele>277.79998779297</ele>
        <time>2019-05-23T08:05:01.000Z</time>
      </trkpt>
      <trkpt lat="43.22328" lon="5.38017">
        <ele>278</ele>
        <time>2019-05-23T08:05:02.000Z</time>
      </trkpt>
      <trkpt lat="43.22327" lon="5.38022">
        <ele>278.60000610352</ele>
        <time>2019-05-23T08:05:04.000Z</time>
      </trkpt>
      <trkpt lat="43.22327" lon="5.38027">
        <ele>279</ele>
        <time>2019-05-23T08:05:06.000Z</time>
      </trkpt>
      <trkpt lat="43.22326" lon="5.38036">
        <ele>279.79998779297</ele>
        <time>2019-05-23T08:05:10.000Z</time>
      </trkpt>
      <trkpt lat="43.22326" lon="5.3804">
        <ele>280</ele>
        <time>2019-05-23T08:05:12.000Z</time>
      </trkpt>
      <trkpt lat="43.22326" lon="5.38043">
        <ele>280</ele>
        <time>2019-05-23T08:05:13.000Z</time>
      </trkpt>
      <trkpt lat="43.22326" lon="5.38045">
        <ele>280.20001220703</ele>
        <time>2019-05-23T08:05:14.000Z</time>
      </trkpt>
      <trkpt lat="43.22326" lon="5.38047">
        <ele>280.39999389648</ele>
        <time>2019-05-23T08:05:15.000Z</time>
      </trkpt>
      <trkpt lat="43.22326" lon="5.38048">
        <ele>280.60000610352</ele>
        <time>2019-05-23T08:05:16.000Z</time>
      </trkpt>
      <trkpt lat="43.22326" lon="5.38052">
        <ele>280.79998779297</ele>
        <time>2019-05-23T08:05:18.000Z</time>
      </trkpt>
      <trkpt lat="43.22325" lon="5.38056">
        <ele>280.79998779297</ele>
        <time>2019-05-23T08:05:20.000Z</time>
      </trkpt>
      <trkpt lat="43.22323" lon="5.38066">
        <ele>280.79998779297</ele>
        <time>2019-05-23T08:05:25.000Z</time>
      </trkpt>
      <trkpt lat="43.22323" lon="5.38072">
        <ele>281</ele>
        <time>2019-05-23T08:05:27.000Z</time>
      </trkpt>
      <trkpt lat="43.22322" lon="5.38075">
        <ele>281.39999389648</ele>
        <time>2019-05-23T08:05:28.000Z</time>
      </trkpt>
      <trkpt lat="43.2232" lon="5.3808">
        <ele>281.79998779297</ele>
        <time>2019-05-23T08:05:30.000Z</time>
      </trkpt>
      <trkpt lat="43.22319" lon="5.38086">
        <ele>282</ele>
        <time>2019-05-23T08:05:33.000Z</time>
      </trkpt>
      <trkpt lat="43.22319" lon="5.38089">
        <ele>281.79998779297</ele>
        <time>2019-05-23T08:05:35.000Z</time>
      </trkpt>
      <trkpt lat="43.2232" lon="5.38095">
        <ele>282.39999389648</ele>
        <time>2019-05-23T08:05:39.000Z</time>
      </trkpt>
      <trkpt lat="43.22321" lon="5.38097">
        <ele>282.79998779297</ele>
        <time>2019-05-23T08:05:40.000Z</time>
      </trkpt>
      <trkpt lat="43.22321" lon="5.381">
        <ele>283.60000610352</ele>
        <time>2019-05-23T08:05:42.000Z</time>
      </trkpt>
      <trkpt lat="43.2232" lon="5.38104">
        <ele>284.60000610352</ele>
        <time>2019-05-23T08:05:45.000Z</time>
      </trkpt>
      <trkpt lat="43.22319" lon="5.38105">
        <ele>284.79998779297</ele>
        <time>2019-05-23T08:05:46.000Z</time>
      </trkpt>
      <trkpt lat="43.22315" lon="5.38107">
        <ele>285.60000610352</ele>
        <time>2019-05-23T08:05:52.000Z</time>
      </trkpt>
      <trkpt lat="43.22314" lon="5.38107">
        <ele>285.79998779297</ele>
        <time>2019-05-23T08:05:53.000Z</time>
      </trkpt>
      <trkpt lat="43.22314" lon="5.38107">
        <ele>286</ele>
        <time>2019-05-23T08:05:54.000Z</time>
      </trkpt>
      <trkpt lat="43.2231" lon="5.38114">
        <ele>286.60000610352</ele>
        <time>2019-05-23T08:05:58.000Z</time>
      </trkpt>
      <trkpt lat="43.22308" lon="5.38116">
        <ele>287</ele>
        <time>2019-05-23T08:05:59.000Z</time>
      </trkpt>
      <trkpt lat="43.22303" lon="5.38124">
        <ele>287.79998779297</ele>
        <time>2019-05-23T08:06:03.000Z</time>
      </trkpt>
      <trkpt lat="43.22302" lon="5.38126">
        <ele>288.20001220703</ele>
        <time>2019-05-23T08:06:05.000Z</time>
      </trkpt>
      <trkpt lat="43.22299" lon="5.38132">
        <ele>289.39999389648</ele>
        <time>2019-05-23T08:06:09.000Z</time>
      </trkpt>
      <trkpt lat="43.22298" lon="5.38135">
        <ele>289.60000610352</ele>
        <time>2019-05-23T08:06:11.000Z</time>
      </trkpt>
      <trkpt lat="43.22298" lon="5.38136">
        <ele>289.79998779297</ele>
        <time>2019-05-23T08:06:12.000Z</time>
      </trkpt>
      <trkpt lat="43.22295" lon="5.38142">
        <ele>290.60000610352</ele>
        <time>2019-05-23T08:06:15.000Z</time>
      </trkpt>
      <trkpt lat="43.22293" lon="5.38147">
        <ele>291.20001220703</ele>
        <time>2019-05-23T08:06:19.000Z</time>
      </trkpt>
      <trkpt lat="43.22292" lon="5.38148">
        <ele>291.60000610352</ele>
        <time>2019-05-23T08:06:20.000Z</time>
      </trkpt>
      <trkpt lat="43.22291" lon="5.38151">
        <ele>292</ele>
        <time>2019-05-23T08:06:22.000Z</time>
      </trkpt>
      <trkpt lat="43.2229" lon="5.38154">
        <ele>292.60000610352</ele>
        <time>2019-05-23T08:06:25.000Z</time>
      </trkpt>
      <trkpt lat="43.2229" lon="5.38155">
        <ele>293</ele>
        <time>2019-05-23T08:06:27.000Z</time>
      </trkpt>
      <trkpt lat="43.22292" lon="5.38159">
        <ele>293.79998779297</ele>
        <time>2019-05-23T08:06:31.000Z</time>
      </trkpt>
      <trkpt lat="43.22293" lon="5.38159">
        <ele>294</ele>
        <time>2019-05-23T08:06:33.000Z</time>
      </trkpt>
      <trkpt lat="43.22294" lon="5.38165">
        <ele>294.79998779297</ele>
        <time>2019-05-23T08:06:37.000Z</time>
      </trkpt>
      <trkpt lat="43.22294" lon="5.38168">
        <ele>295</ele>
        <time>2019-05-23T08:06:38.000Z</time>
      </trkpt>
      <trkpt lat="43.22294" lon="5.38171">
        <ele>295.60000610352</ele>
        <time>2019-05-23T08:06:40.000Z</time>
      </trkpt>
      <trkpt lat="43.22294" lon="5.38174">
        <ele>296</ele>
        <time>2019-05-23T08:06:42.000Z</time>
      </trkpt>
      <trkpt lat="43.22295" lon="5.38177">
        <ele>297</ele>
        <time>2019-05-23T08:06:45.000Z</time>
      </trkpt>
      <trkpt lat="43.22295" lon="5.38178">
        <ele>297.39999389648</ele>
        <time>2019-05-23T08:06:47.000Z</time>
      </trkpt>
      <trkpt lat="43.22295" lon="5.3818">
        <ele>298</ele>
        <time>2019-05-23T08:06:50.000Z</time>
      </trkpt>
      <trkpt lat="43.22297" lon="5.3818">
        <ele>298.60000610352</ele>
        <time>2019-05-23T08:06:52.000Z</time>
      </trkpt>
      <trkpt lat="43.22299" lon="5.38181">
        <ele>298.79998779297</ele>
        <time>2019-05-23T08:06:54.000Z</time>
      </trkpt>
      <trkpt lat="43.22299" lon="5.38182">
        <ele>299</ele>
        <time>2019-05-23T08:06:55.000Z</time>
      </trkpt>
      <trkpt lat="43.22302" lon="5.38186">
        <ele>299.39999389648</ele>
        <time>2019-05-23T08:06:58.000Z</time>
      </trkpt>
      <trkpt lat="43.22303" lon="5.38188">
        <ele>300</ele>
        <time>2019-05-23T08:07:01.000Z</time>
      </trkpt>
      <trkpt lat="43.22304" lon="5.38188">
        <ele>300.20001220703</ele>
        <time>2019-05-23T08:07:02.000Z</time>
      </trkpt>
      <trkpt lat="43.22303" lon="5.3819">
        <ele>301.20001220703</ele>
        <time>2019-05-23T08:07:06.000Z</time>
      </trkpt>
      <trkpt lat="43.22302" lon="5.38192">
        <ele>302</ele>
        <time>2019-05-23T08:07:08.000Z</time>
      </trkpt>
      <trkpt lat="43.22302" lon="5.38194">
        <ele>302.39999389648</ele>
        <time>2019-05-23T08:07:09.000Z</time>
      </trkpt>
      <trkpt lat="43.22301" lon="5.38196">
        <ele>303.60000610352</ele>
        <time>2019-05-23T08:07:13.000Z</time>
      </trkpt>
      <trkpt lat="43.22303" lon="5.38197">
        <ele>303.79998779297</ele>
        <time>2019-05-23T08:07:15.000Z</time>
      </trkpt>
      <trkpt lat="43.22303" lon="5.38196">
        <ele>304.60000610352</ele>
        <time>2019-05-23T08:07:17.000Z</time>
      </trkpt>
      <trkpt lat="43.22306" lon="5.38199">
        <ele>305.60000610352</ele>
        <time>2019-05-23T08:07:20.000Z</time>
      </trkpt>
      <trkpt lat="43.22306" lon="5.382">
        <ele>305.79998779297</ele>
        <time>2019-05-23T08:07:21.000Z</time>
      </trkpt>
      <trkpt lat="43.22308" lon="5.38204">
        <ele>307</ele>
        <time>2019-05-23T08:07:27.000Z</time>
      </trkpt>
      <trkpt lat="43.22308" lon="5.38204">
        <ele>308.20001220703</ele>
        <time>2019-05-23T08:07:30.000Z</time>
      </trkpt>
      <trkpt lat="43.22309" lon="5.38206">
        <ele>309.60000610352</ele>
        <time>2019-05-23T08:07:33.000Z</time>
      </trkpt>
      <trkpt lat="43.22309" lon="5.38206">
        <ele>310</ele>
        <time>2019-05-23T08:07:34.000Z</time>
      </trkpt>
      <trkpt lat="43.22311" lon="5.38206">
        <ele>311</ele>
        <time>2019-05-23T08:07:36.000Z</time>
      </trkpt>
      <trkpt lat="43.22313" lon="5.38206">
        <ele>311.60000610352</ele>
        <time>2019-05-23T08:07:39.000Z</time>
      </trkpt>
      <trkpt lat="43.22316" lon="5.38204">
        <ele>311.79998779297</ele>
        <time>2019-05-23T08:07:42.000Z</time>
      </trkpt>
      <trkpt lat="43.22317" lon="5.38204">
        <ele>312</ele>
        <time>2019-05-23T08:07:44.000Z</time>
      </trkpt>
      <trkpt lat="43.22318" lon="5.38202">
        <ele>313</ele>
        <time>2019-05-23T08:07:49.000Z</time>
      </trkpt>
      <trkpt lat="43.22319" lon="5.38202">
        <ele>313</ele>
        <time>2019-05-23T08:07:50.000Z</time>
      </trkpt>
      <trkpt lat="43.2232" lon="5.38202">
        <ele>313.79998779297</ele>
        <time>2019-05-23T08:07:53.000Z</time>
      </trkpt>
      <trkpt lat="43.22321" lon="5.38203">
        <ele>314.39999389648</ele>
        <time>2019-05-23T08:07:55.000Z</time>
      </trkpt>
      <trkpt lat="43.22324" lon="5.38201">
        <ele>315.39999389648</ele>
        <time>2019-05-23T08:07:59.000Z</time>
      </trkpt>
      <trkpt lat="43.22326" lon="5.38203">
        <ele>315.60000610352</ele>
        <time>2019-05-23T08:08:00.000Z</time>
      </trkpt>
      <trkpt lat="43.22327" lon="5.38205">
        <ele>315.60000610352</ele>
        <time>2019-05-23T08:08:01.000Z</time>
      </trkpt>
      <trkpt lat="43.22327" lon="5.38207">
        <ele>316</ele>
        <time>2019-05-23T08:08:03.000Z</time>
      </trkpt>
      <trkpt lat="43.22327" lon="5.38207">
        <ele>316.60000610352</ele>
        <time>2019-05-23T08:08:05.000Z</time>
      </trkpt>
      <trkpt lat="43.22327" lon="5.38208">
        <ele>316.79998779297</ele>
        <time>2019-05-23T08:08:06.000Z</time>
      </trkpt>
      <trkpt lat="43.22327" lon="5.38209">
        <ele>317.20001220703</ele>
        <time>2019-05-23T08:08:08.000Z</time>
      </trkpt>
      <trkpt lat="43.22326" lon="5.38211">
        <ele>317.79998779297</ele>
        <time>2019-05-23T08:08:10.000Z</time>
      </trkpt>
      <trkpt lat="43.22327" lon="5.38211">
        <ele>318.20001220703</ele>
        <time>2019-05-23T08:08:14.000Z</time>
      </trkpt>
      <trkpt lat="43.22329" lon="5.38212">
        <ele>319</ele>
        <time>2019-05-23T08:08:18.000Z</time>
      </trkpt>
      <trkpt lat="43.22329" lon="5.38213">
        <ele>319.39999389648</ele>
        <time>2019-05-23T08:08:19.000Z</time>
      </trkpt>
      <trkpt lat="43.2233" lon="5.38215">
        <ele>320</ele>
        <time>2019-05-23T08:08:22.000Z</time>
      </trkpt>
      <trkpt lat="43.2233" lon="5.38215">
        <ele>320.20001220703</ele>
        <time>2019-05-23T08:08:23.000Z</time>
      </trkpt>
      <trkpt lat="43.22329" lon="5.38217">
        <ele>320.39999389648</ele>
        <time>2019-05-23T08:08:25.000Z</time>
      </trkpt>
      <trkpt lat="43.22326" lon="5.38221">
        <ele>321.20001220703</ele>
        <time>2019-05-23T08:08:30.000Z</time>
      </trkpt>
      <trkpt lat="43.22324" lon="5.38225">
        <ele>322.20001220703</ele>
        <time>2019-05-23T08:08:35.000Z</time>
      </trkpt>
      <trkpt lat="43.22324" lon="5.38226">
        <ele>322.60000610352</ele>
        <time>2019-05-23T08:08:36.000Z</time>
      </trkpt>
      <trkpt lat="43.22325" lon="5.38229">
        <ele>323.20001220703</ele>
        <time>2019-05-23T08:08:39.000Z</time>
      </trkpt>
      <trkpt lat="43.22326" lon="5.38232">
        <ele>323.79998779297</ele>
        <time>2019-05-23T08:08:42.000Z</time>
      </trkpt>
      <trkpt lat="43.22325" lon="5.38234">
        <ele>324.60000610352</ele>
        <time>2019-05-23T08:08:44.000Z</time>
      </trkpt>
      <trkpt lat="43.22325" lon="5.38235">
        <ele>325.20001220703</ele>
        <time>2019-05-23T08:08:47.000Z</time>
      </trkpt>
      <trkpt lat="43.22326" lon="5.38235">
        <ele>325.60000610352</ele>
        <time>2019-05-23T08:08:48.000Z</time>
      </trkpt>
      <trkpt lat="43.22328" lon="5.38238">
        <ele>326.60000610352</ele>
        <time>2019-05-23T08:08:52.000Z</time>
      </trkpt>
      <trkpt lat="43.22329" lon="5.38238">
        <ele>326.79998779297</ele>
        <time>2019-05-23T08:08:53.000Z</time>
      </trkpt>
      <trkpt lat="43.2233" lon="5.38239">
        <ele>327.20001220703</ele>
        <time>2019-05-23T08:08:55.000Z</time>
      </trkpt>
      <trkpt lat="43.22331" lon="5.38241">
        <ele>327.79998779297</ele>
        <time>2019-05-23T08:08:57.000Z</time>
      </trkpt>
      <trkpt lat="43.22329" lon="5.38244">
        <ele>328.39999389648</ele>
        <time>2019-05-23T08:09:01.000Z</time>
      </trkpt>
      <trkpt lat="43.22327" lon="5.38246">
        <ele>328.79998779297</ele>
        <time>2019-05-23T08:09:03.000Z</time>
      </trkpt>
      <trkpt lat="43.22327" lon="5.38248">
        <ele>329.20001220703</ele>
        <time>2019-05-23T08:09:06.000Z</time>
      </trkpt>
      <trkpt lat="43.22327" lon="5.38249">
        <ele>329.39999389648</ele>
        <time>2019-05-23T08:09:07.000Z</time>
      </trkpt>
      <trkpt lat="43.22327" lon="5.38248">
        <ele>329.79998779297</ele>
        <time>2019-05-23T08:09:09.000Z</time>
      </trkpt>
      <trkpt lat="43.22328" lon="5.38251">
        <ele>331.20001220703</ele>
        <time>2019-05-23T08:09:13.000Z</time>
      </trkpt>
      <trkpt lat="43.22328" lon="5.38252">
        <ele>331.39999389648</ele>
        <time>2019-05-23T08:09:14.000Z</time>
      </trkpt>
      <trkpt lat="43.22329" lon="5.38255">
        <ele>332.20001220703</ele>
        <time>2019-05-23T08:09:20.000Z</time>
      </trkpt>
      <trkpt lat="43.22331" lon="5.38257">
        <ele>333.39999389648</ele>
        <time>2019-05-23T08:09:23.000Z</time>
      </trkpt>
      <trkpt lat="43.22332" lon="5.3826">
        <ele>334</ele>
        <time>2019-05-23T08:09:25.000Z</time>
      </trkpt>
      <trkpt lat="43.22332" lon="5.38263">
        <ele>334.60000610352</ele>
        <time>2019-05-23T08:09:27.000Z</time>
      </trkpt>
      <trkpt lat="43.22334" lon="5.38267">
        <ele>335.39999389648</ele>
        <time>2019-05-23T08:09:31.000Z</time>
      </trkpt>
      <trkpt lat="43.22335" lon="5.38268">
        <ele>335.60000610352</ele>
        <time>2019-05-23T08:09:33.000Z</time>
      </trkpt>
      <trkpt lat="43.22336" lon="5.38271">
        <ele>335.79998779297</ele>
        <time>2019-05-23T08:09:36.000Z</time>
      </trkpt>
      <trkpt lat="43.22336" lon="5.38272">
        <ele>336</ele>
        <time>2019-05-23T08:09:37.000Z</time>
      </trkpt>
      <trkpt lat="43.22336" lon="5.38274">
        <ele>336.39999389648</ele>
        <time>2019-05-23T08:09:39.000Z</time>
      </trkpt>
      <trkpt lat="43.22336" lon="5.38275">
        <ele>336.79998779297</ele>
        <time>2019-05-23T08:09:41.000Z</time>
      </trkpt>
      <trkpt lat="43.22336" lon="5.38276">
        <ele>337</ele>
        <time>2019-05-23T08:09:42.000Z</time>
      </trkpt>
      <trkpt lat="43.22336" lon="5.3828">
        <ele>338</ele>
        <time>2019-05-23T08:09:45.000Z</time>
      </trkpt>
      <trkpt lat="43.22337" lon="5.38283">
        <ele>338.79998779297</ele>
        <time>2019-05-23T08:09:49.000Z</time>
      </trkpt>
      <trkpt lat="43.22336" lon="5.38285">
        <ele>339.20001220703</ele>
        <time>2019-05-23T08:09:51.000Z</time>
      </trkpt>
      <trkpt lat="43.22335" lon="5.38289">
        <ele>340.39999389648</ele>
        <time>2019-05-23T08:09:54.000Z</time>
      </trkpt>
      <trkpt lat="43.22335" lon="5.3829">
        <ele>340.79998779297</ele>
        <time>2019-05-23T08:09:55.000Z</time>
      </trkpt>
      <trkpt lat="43.22334" lon="5.3829">
        <ele>341.60000610352</ele>
        <time>2019-05-23T08:09:58.000Z</time>
      </trkpt>
      <trkpt lat="43.22334" lon="5.3829">
        <ele>342</ele>
        <time>2019-05-23T08:10:01.000Z</time>
      </trkpt>
      <trkpt lat="43.22334" lon="5.38293">
        <ele>342.39999389648</ele>
        <time>2019-05-23T08:10:07.000Z</time>
      </trkpt>
      <trkpt lat="43.22335" lon="5.38294">
        <ele>342.60000610352</ele>
        <time>2019-05-23T08:10:09.000Z</time>
      </trkpt>
      <trkpt lat="43.22338" lon="5.38296">
        <ele>343.79998779297</ele>
        <time>2019-05-23T08:10:13.000Z</time>
      </trkpt>
      <trkpt lat="43.22338" lon="5.38299">
        <ele>345</ele>
        <time>2019-05-23T08:10:18.000Z</time>
      </trkpt>
      <trkpt lat="43.22338" lon="5.383">
        <ele>345.39999389648</ele>
        <time>2019-05-23T08:10:19.000Z</time>
      </trkpt>
      <trkpt lat="43.22339" lon="5.38302">
        <ele>346.20001220703</ele>
        <time>2019-05-23T08:10:22.000Z</time>
      </trkpt>
      <trkpt lat="43.22337" lon="5.38306">
        <ele>347</ele>
        <time>2019-05-23T08:10:26.000Z</time>
      </trkpt>
      <trkpt lat="43.22337" lon="5.38306">
        <ele>347.60000610352</ele>
        <time>2019-05-23T08:10:28.000Z</time>
      </trkpt>
      <trkpt lat="43.22337" lon="5.38309">
        <ele>348.39999389648</ele>
        <time>2019-05-23T08:10:31.000Z</time>
      </trkpt>
      <trkpt lat="43.22337" lon="5.3831">
        <ele>348.60000610352</ele>
        <time>2019-05-23T08:10:32.000Z</time>
      </trkpt>
      <trkpt lat="43.22337" lon="5.38313">
        <ele>349.60000610352</ele>
        <time>2019-05-23T08:10:36.000Z</time>
      </trkpt>
      <trkpt lat="43.22337" lon="5.38314">
        <ele>349.79998779297</ele>
        <time>2019-05-23T08:10:37.000Z</time>
      </trkpt>
      <trkpt lat="43.22337" lon="5.38315">
        <ele>350.39999389648</ele>
        <time>2019-05-23T08:10:40.000Z</time>
      </trkpt>
      <trkpt lat="43.22337" lon="5.38315">
        <ele>350.79998779297</ele>
        <time>2019-05-23T08:10:41.000Z</time>
      </trkpt>
      <trkpt lat="43.22336" lon="5.3832">
        <ele>352</ele>
        <time>2019-05-23T08:10:44.000Z</time>
      </trkpt>
      <trkpt lat="43.22336" lon="5.38321">
        <ele>352.20001220703</ele>
        <time>2019-05-23T08:10:45.000Z</time>
      </trkpt>
      <trkpt lat="43.22336" lon="5.38324">
        <ele>353</ele>
        <time>2019-05-23T08:10:49.000Z</time>
      </trkpt>
      <trkpt lat="43.22336" lon="5.38324">
        <ele>353.79998779297</ele>
        <time>2019-05-23T08:10:51.000Z</time>
      </trkpt>
      <trkpt lat="43.22335" lon="5.38325">
        <ele>354.20001220703</ele>
        <time>2019-05-23T08:10:53.000Z</time>
      </trkpt>
      <trkpt lat="43.22336" lon="5.38325">
        <ele>355</ele>
        <time>2019-05-23T08:10:57.000Z</time>
      </trkpt>
      <trkpt lat="43.22339" lon="5.38325">
        <ele>355.20001220703</ele>
        <time>2019-05-23T08:10:59.000Z</time>
      </trkpt>
      <trkpt lat="43.22341" lon="5.38328">
        <ele>356</ele>
        <time>2019-05-23T08:11:02.000Z</time>
      </trkpt>
      <trkpt lat="43.22342" lon="5.38329">
        <ele>356.39999389648</ele>
        <time>2019-05-23T08:11:04.000Z</time>
      </trkpt>
      <trkpt lat="43.22345" lon="5.38331">
        <ele>357.39999389648</ele>
        <time>2019-05-23T08:11:08.000Z</time>
      </trkpt>
      <trkpt lat="43.22346" lon="5.38332">
        <ele>357.60000610352</ele>
        <time>2019-05-23T08:11:09.000Z</time>
      </trkpt>
      <trkpt lat="43.22347" lon="5.38334">
        <ele>358</ele>
        <time>2019-05-23T08:11:11.000Z</time>
      </trkpt>
      <trkpt lat="43.22349" lon="5.38335">
        <ele>358.39999389648</ele>
        <time>2019-05-23T08:11:13.000Z</time>
      </trkpt>
      <trkpt lat="43.2235" lon="5.38338">
        <ele>358.60000610352</ele>
        <time>2019-05-23T08:11:16.000Z</time>
      </trkpt>
      <trkpt lat="43.22349" lon="5.38341">
        <ele>359.60000610352</ele>
        <time>2019-05-23T08:11:19.000Z</time>
      </trkpt>
      <trkpt lat="43.22349" lon="5.38342">
        <ele>359.79998779297</ele>
        <time>2019-05-23T08:11:20.000Z</time>
      </trkpt>
      <trkpt lat="43.2235" lon="5.38346">
        <ele>360.79998779297</ele>
        <time>2019-05-23T08:11:24.000Z</time>
      </trkpt>
      <trkpt lat="43.22349" lon="5.38347">
        <ele>361.60000610352</ele>
        <time>2019-05-23T08:11:27.000Z</time>
      </trkpt>
      <trkpt lat="43.22346" lon="5.3835">
        <ele>360.79998779297</ele>
        <time>2019-05-23T08:12:03.000Z</time>
      </trkpt>
      <trkpt lat="43.22346" lon="5.38352">
        <ele>360.79998779297</ele>
        <time>2019-05-23T08:12:04.000Z</time>
      </trkpt>
      <trkpt lat="43.22342" lon="5.38365">
        <ele>361</ele>
        <time>2019-05-23T08:12:09.000Z</time>
      </trkpt>
      <trkpt lat="43.22341" lon="5.38367">
        <ele>361.20001220703</ele>
        <time>2019-05-23T08:12:10.000Z</time>
      </trkpt>
      <trkpt lat="43.22334" lon="5.38376">
        <ele>361.79998779297</ele>
        <time>2019-05-23T08:12:15.000Z</time>
      </trkpt>
      <trkpt lat="43.22333" lon="5.38378">
        <ele>362</ele>
        <time>2019-05-23T08:12:16.000Z</time>
      </trkpt>
      <trkpt lat="43.22333" lon="5.3838">
        <ele>362</ele>
        <time>2019-05-23T08:12:17.000Z</time>
      </trkpt>
      <trkpt lat="43.22332" lon="5.38383">
        <ele>362.20001220703</ele>
        <time>2019-05-23T08:12:18.000Z</time>
      </trkpt>
      <trkpt lat="43.22332" lon="5.38386">
        <ele>362.39999389648</ele>
        <time>2019-05-23T08:12:19.000Z</time>
      </trkpt>
      <trkpt lat="43.22333" lon="5.38389">
        <ele>362.20001220703</ele>
        <time>2019-05-23T08:12:20.000Z</time>
      </trkpt>
      <trkpt lat="43.22333" lon="5.38391">
        <ele>362.20001220703</ele>
        <time>2019-05-23T08:12:21.000Z</time>
      </trkpt>
      <trkpt lat="43.22334" lon="5.38396">
        <ele>362</ele>
        <time>2019-05-23T08:12:23.000Z</time>
      </trkpt>
      <trkpt lat="43.22334" lon="5.38401">
        <ele>362</ele>
        <time>2019-05-23T08:12:25.000Z</time>
      </trkpt>
      <trkpt lat="43.22334" lon="5.38416">
        <ele>361.39999389648</ele>
        <time>2019-05-23T08:12:30.000Z</time>
      </trkpt>
      <trkpt lat="43.22333" lon="5.38419">
        <ele>361.39999389648</ele>
        <time>2019-05-23T08:12:31.000Z</time>
      </trkpt>
      <trkpt lat="43.22331" lon="5.38427">
        <ele>361</ele>
        <time>2019-05-23T08:12:34.000Z</time>
      </trkpt>
      <trkpt lat="43.22329" lon="5.38429">
        <ele>360.79998779297</ele>
        <time>2019-05-23T08:12:35.000Z</time>
      </trkpt>
      <trkpt lat="43.22328" lon="5.38431">
        <ele>360.79998779297</ele>
        <time>2019-05-23T08:12:36.000Z</time>
      </trkpt>
      <trkpt lat="43.22323" lon="5.38441">
        <ele>360.20001220703</ele>
        <time>2019-05-23T08:12:40.000Z</time>
      </trkpt>
      <trkpt lat="43.22322" lon="5.38447">
        <ele>360.20001220703</ele>
        <time>2019-05-23T08:12:42.000Z</time>
      </trkpt>
      <trkpt lat="43.22319" lon="5.38453">
        <ele>359.79998779297</ele>
        <time>2019-05-23T08:12:45.000Z</time>
      </trkpt>
      <trkpt lat="43.22315" lon="5.3846">
        <ele>359.39999389648</ele>
        <time>2019-05-23T08:12:48.000Z</time>
      </trkpt>
      <trkpt lat="43.2231" lon="5.38471">
        <ele>358.79998779297</ele>
        <time>2019-05-23T08:12:53.000Z</time>
      </trkpt>
      <trkpt lat="43.22309" lon="5.38473">
        <ele>358.60000610352</ele>
        <time>2019-05-23T08:12:54.000Z</time>
      </trkpt>
      <trkpt lat="43.22308" lon="5.38478">
        <ele>358.20001220703</ele>
        <time>2019-05-23T08:12:56.000Z</time>
      </trkpt>
      <trkpt lat="43.22306" lon="5.38485">
        <ele>358</ele>
        <time>2019-05-23T08:12:59.000Z</time>
      </trkpt>
      <trkpt lat="43.22303" lon="5.38491">
        <ele>357.79998779297</ele>
        <time>2019-05-23T08:13:02.000Z</time>
      </trkpt>
      <trkpt lat="43.223" lon="5.38497">
        <ele>357.60000610352</ele>
        <time>2019-05-23T08:13:04.000Z</time>
      </trkpt>
      <trkpt lat="43.22299" lon="5.385">
        <ele>357.79998779297</ele>
        <time>2019-05-23T08:13:05.000Z</time>
      </trkpt>
      <trkpt lat="43.22297" lon="5.38505">
        <ele>357.20001220703</ele>
        <time>2019-05-23T08:13:07.000Z</time>
      </trkpt>
      <trkpt lat="43.22296" lon="5.38506">
        <ele>356.79998779297</ele>
        <time>2019-05-23T08:13:08.000Z</time>
      </trkpt>
      <trkpt lat="43.22293" lon="5.38509">
        <ele>356.39999389648</ele>
        <time>2019-05-23T08:13:10.000Z</time>
      </trkpt>
      <trkpt lat="43.22291" lon="5.3851">
        <ele>356.20001220703</ele>
        <time>2019-05-23T08:13:11.000Z</time>
      </trkpt>
      <trkpt lat="43.22289" lon="5.38518">
        <ele>355.79998779297</ele>
        <time>2019-05-23T08:13:14.000Z</time>
      </trkpt>
      <trkpt lat="43.22289" lon="5.38521">
        <ele>355.60000610352</ele>
        <time>2019-05-23T08:13:15.000Z</time>
      </trkpt>
      <trkpt lat="43.22288" lon="5.38522">
        <ele>355.60000610352</ele>
        <time>2019-05-23T08:13:16.000Z</time>
      </trkpt>
      <trkpt lat="43.22284" lon="5.38527">
        <ele>355.39999389648</ele>
        <time>2019-05-23T08:13:19.000Z</time>
      </trkpt>
      <trkpt lat="43.22277" lon="5.3853">
        <ele>355.60000610352</ele>
        <time>2019-05-23T08:13:24.000Z</time>
      </trkpt>
      <trkpt lat="43.22275" lon="5.38531">
        <ele>355.60000610352</ele>
        <time>2019-05-23T08:13:25.000Z</time>
      </trkpt>
      <trkpt lat="43.22274" lon="5.38533">
        <ele>355.20001220703</ele>
        <time>2019-05-23T08:13:26.000Z</time>
      </trkpt>
      <trkpt lat="43.22271" lon="5.3854">
        <ele>354.60000610352</ele>
        <time>2019-05-23T08:13:29.000Z</time>
      </trkpt>
      <trkpt lat="43.2227" lon="5.38543">
        <ele>354.39999389648</ele>
        <time>2019-05-23T08:13:30.000Z</time>
      </trkpt>
      <trkpt lat="43.2227" lon="5.38546">
        <ele>354.20001220703</ele>
        <time>2019-05-23T08:13:31.000Z</time>
      </trkpt>
      <trkpt lat="43.22265" lon="5.3855">
        <ele>353.20001220703</ele>
        <time>2019-05-23T08:13:34.000Z</time>
      </trkpt>
      <trkpt lat="43.22264" lon="5.38551">
        <ele>353</ele>
        <time>2019-05-23T08:13:35.000Z</time>
      </trkpt>
      <trkpt lat="43.22264" lon="5.38554">
        <ele>353</ele>
        <time>2019-05-23T08:13:36.000Z</time>
      </trkpt>
      <trkpt lat="43.22262" lon="5.38564">
        <ele>352.79998779297</ele>
        <time>2019-05-23T08:13:39.000Z</time>
      </trkpt>
      <trkpt lat="43.22256" lon="5.38574">
        <ele>352.39999389648</ele>
        <time>2019-05-23T08:13:44.000Z</time>
      </trkpt>
      <trkpt lat="43.22252" lon="5.38589">
        <ele>352.20001220703</ele>
        <time>2019-05-23T08:13:49.000Z</time>
      </trkpt>
      <trkpt lat="43.22248" lon="5.38595">
        <ele>351.79998779297</ele>
        <time>2019-05-23T08:13:53.000Z</time>
      </trkpt>
      <trkpt lat="43.22246" lon="5.38596">
        <ele>351.79998779297</ele>
        <time>2019-05-23T08:13:54.000Z</time>
      </trkpt>
      <trkpt lat="43.22244" lon="5.38602">
        <ele>351</ele>
        <time>2019-05-23T08:13:56.000Z</time>
      </trkpt>
      <trkpt lat="43.22242" lon="5.38607">
        <ele>350.79998779297</ele>
        <time>2019-05-23T08:13:58.000Z</time>
      </trkpt>
      <trkpt lat="43.22241" lon="5.38608">
        <ele>350.60000610352</ele>
        <time>2019-05-23T08:13:59.000Z</time>
      </trkpt>
      <trkpt lat="43.22237" lon="5.38618">
        <ele>350.39999389648</ele>
        <time>2019-05-23T08:14:03.000Z</time>
      </trkpt>
      <trkpt lat="43.22231" lon="5.3863">
        <ele>350.20001220703</ele>
        <time>2019-05-23T08:14:09.000Z</time>
      </trkpt>
      <trkpt lat="43.22227" lon="5.38637">
        <ele>349.60000610352</ele>
        <time>2019-05-23T08:14:13.000Z</time>
      </trkpt>
      <trkpt lat="43.22225" lon="5.38639">
        <ele>349.20001220703</ele>
        <time>2019-05-23T08:14:14.000Z</time>
      </trkpt>
      <trkpt lat="43.22218" lon="5.38646">
        <ele>348.79998779297</ele>
        <time>2019-05-23T08:14:18.000Z</time>
      </trkpt>
      <trkpt lat="43.22217" lon="5.38647">
        <ele>348.60000610352</ele>
        <time>2019-05-23T08:14:19.000Z</time>
      </trkpt>
      <trkpt lat="43.22213" lon="5.38649">
        <ele>348.39999389648</ele>
        <time>2019-05-23T08:14:21.000Z</time>
      </trkpt>
      <trkpt lat="43.22211" lon="5.38652">
        <ele>348.39999389648</ele>
        <time>2019-05-23T08:14:22.000Z</time>
      </trkpt>
      <trkpt lat="43.2221" lon="5.38654">
        <ele>348.20001220703</ele>
        <time>2019-05-23T08:14:23.000Z</time>
      </trkpt>
      <trkpt lat="43.22206" lon="5.38656">
        <ele>347.60000610352</ele>
        <time>2019-05-23T08:14:25.000Z</time>
      </trkpt>
      <trkpt lat="43.22204" lon="5.38658">
        <ele>347.39999389648</ele>
        <time>2019-05-23T08:14:26.000Z</time>
      </trkpt>
      <trkpt lat="43.22193" lon="5.38662">
        <ele>346.20001220703</ele>
        <time>2019-05-23T08:14:32.000Z</time>
      </trkpt>
      <trkpt lat="43.22187" lon="5.38667">
        <ele>345</ele>
        <time>2019-05-23T08:14:36.000Z</time>
      </trkpt>
      <trkpt lat="43.22186" lon="5.38668">
        <ele>345</ele>
        <time>2019-05-23T08:14:37.000Z</time>
      </trkpt>
      <trkpt lat="43.22183" lon="5.38675">
        <ele>344.79998779297</ele>
        <time>2019-05-23T08:14:39.000Z</time>
      </trkpt>
      <trkpt lat="43.2218" lon="5.38681">
        <ele>344.60000610352</ele>
        <time>2019-05-23T08:14:41.000Z</time>
      </trkpt>
      <trkpt lat="43.22178" lon="5.38686">
        <ele>344.39999389648</ele>
        <time>2019-05-23T08:14:43.000Z</time>
      </trkpt>
      <trkpt lat="43.22176" lon="5.3869">
        <ele>344</ele>
        <time>2019-05-23T08:14:45.000Z</time>
      </trkpt>
      <trkpt lat="43.22176" lon="5.38691">
        <ele>343.39999389648</ele>
        <time>2019-05-23T08:14:48.000Z</time>
      </trkpt>
      <trkpt lat="43.22172" lon="5.38693">
        <ele>336.39999389648</ele>
        <time>2019-05-23T08:16:45.000Z</time>
      </trkpt>
      <trkpt lat="43.22171" lon="5.38695">
        <ele>336.39999389648</ele>
        <time>2019-05-23T08:16:46.000Z</time>
      </trkpt>
      <trkpt lat="43.22169" lon="5.38698">
        <ele>336.39999389648</ele>
        <time>2019-05-23T08:16:48.000Z</time>
      </trkpt>
      <trkpt lat="43.22162" lon="5.38703">
        <ele>336.39999389648</ele>
        <time>2019-05-23T08:16:52.000Z</time>
      </trkpt>
      <trkpt lat="43.22161" lon="5.38703">
        <ele>336.60000610352</ele>
        <time>2019-05-23T08:16:53.000Z</time>
      </trkpt>
      <trkpt lat="43.22159" lon="5.38704">
        <ele>336.60000610352</ele>
        <time>2019-05-23T08:16:54.000Z</time>
      </trkpt>
      <trkpt lat="43.22154" lon="5.38704">
        <ele>336.79998779297</ele>
        <time>2019-05-23T08:16:56.000Z</time>
      </trkpt>
      <trkpt lat="43.22153" lon="5.38705">
        <ele>337</ele>
        <time>2019-05-23T08:16:57.000Z</time>
      </trkpt>
      <trkpt lat="43.22151" lon="5.38707">
        <ele>337.39999389648</ele>
        <time>2019-05-23T08:16:58.000Z</time>
      </trkpt>
      <trkpt lat="43.22149" lon="5.38708">
        <ele>337.60000610352</ele>
        <time>2019-05-23T08:16:59.000Z</time>
      </trkpt>
      <trkpt lat="43.22146" lon="5.38715">
        <ele>338.39999389648</ele>
        <time>2019-05-23T08:17:02.000Z</time>
      </trkpt>
      <trkpt lat="43.22144" lon="5.38717">
        <ele>339</ele>
        <time>2019-05-23T08:17:04.000Z</time>
      </trkpt>
      <trkpt lat="43.2214" lon="5.38721">
        <ele>339.39999389648</ele>
        <time>2019-05-23T08:17:07.000Z</time>
      </trkpt>
      <trkpt lat="43.22137" lon="5.38722">
        <ele>339.79998779297</ele>
        <time>2019-05-23T08:17:09.000Z</time>
      </trkpt>
      <trkpt lat="43.22135" lon="5.38722">
        <ele>340.20001220703</ele>
        <time>2019-05-23T08:17:10.000Z</time>
      </trkpt>
      <trkpt lat="43.22133" lon="5.38722">
        <ele>340.60000610352</ele>
        <time>2019-05-23T08:17:11.000Z</time>
      </trkpt>
      <trkpt lat="43.2213" lon="5.38724">
        <ele>340.79998779297</ele>
        <time>2019-05-23T08:17:13.000Z</time>
      </trkpt>
      <trkpt lat="43.22127" lon="5.38727">
        <ele>341.79998779297</ele>
        <time>2019-05-23T08:17:16.000Z</time>
      </trkpt>
      <trkpt lat="43.22125" lon="5.38731">
        <ele>342.60000610352</ele>
        <time>2019-05-23T08:17:19.000Z</time>
      </trkpt>
      <trkpt lat="43.22121" lon="5.38734">
        <ele>343</ele>
        <time>2019-05-23T08:17:22.000Z</time>
      </trkpt>
      <trkpt lat="43.2212" lon="5.38735">
        <ele>343</ele>
        <time>2019-05-23T08:17:23.000Z</time>
      </trkpt>
      <trkpt lat="43.22119" lon="5.38736">
        <ele>343.20001220703</ele>
        <time>2019-05-23T08:17:24.000Z</time>
      </trkpt>
      <trkpt lat="43.22117" lon="5.38738">
        <ele>343.39999389648</ele>
        <time>2019-05-23T08:17:25.000Z</time>
      </trkpt>
      <trkpt lat="43.22115" lon="5.3874">
        <ele>344</ele>
        <time>2019-05-23T08:17:27.000Z</time>
      </trkpt>
      <trkpt lat="43.22113" lon="5.38741">
        <ele>344.79998779297</ele>
        <time>2019-05-23T08:17:28.000Z</time>
      </trkpt>
      <trkpt lat="43.22108" lon="5.38745">
        <ele>345.20001220703</ele>
        <time>2019-05-23T08:17:32.000Z</time>
      </trkpt>
      <trkpt lat="43.22105" lon="5.38747">
        <ele>345.60000610352</ele>
        <time>2019-05-23T08:17:35.000Z</time>
      </trkpt>
      <trkpt lat="43.22104" lon="5.38749">
        <ele>345.79998779297</ele>
        <time>2019-05-23T08:17:36.000Z</time>
      </trkpt>
      <trkpt lat="43.221" lon="5.38752">
        <ele>346</ele>
        <time>2019-05-23T08:17:38.000Z</time>
      </trkpt>
      <trkpt lat="43.22099" lon="5.38753">
        <ele>346</ele>
        <time>2019-05-23T08:17:39.000Z</time>
      </trkpt>
      <trkpt lat="43.22092" lon="5.38757">
        <ele>345.79998779297</ele>
        <time>2019-05-23T08:17:44.000Z</time>
      </trkpt>
      <trkpt lat="43.22087" lon="5.38762">
        <ele>345.60000610352</ele>
        <time>2019-05-23T08:17:47.000Z</time>
      </trkpt>
      <trkpt lat="43.22083" lon="5.38763">
        <ele>345.60000610352</ele>
        <time>2019-05-23T08:17:49.000Z</time>
      </trkpt>
      <trkpt lat="43.22072" lon="5.38767">
        <ele>345.79998779297</ele>
        <time>2019-05-23T08:17:54.000Z</time>
      </trkpt>
      <trkpt lat="43.22066" lon="5.38767">
        <ele>345.79998779297</ele>
        <time>2019-05-23T08:17:58.000Z</time>
      </trkpt>
      <trkpt lat="43.22063" lon="5.38768">
        <ele>346</ele>
        <time>2019-05-23T08:18:00.000Z</time>
      </trkpt>
      <trkpt lat="43.22056" lon="5.38768">
        <ele>346.20001220703</ele>
        <time>2019-05-23T08:18:04.000Z</time>
      </trkpt>
      <trkpt lat="43.22053" lon="5.38768">
        <ele>346.20001220703</ele>
        <time>2019-05-23T08:18:06.000Z</time>
      </trkpt>
      <trkpt lat="43.22045" lon="5.38767">
        <ele>346.39999389648</ele>
        <time>2019-05-23T08:18:11.000Z</time>
      </trkpt>
      <trkpt lat="43.22041" lon="5.38769">
        <ele>347.20001220703</ele>
        <time>2019-05-23T08:18:14.000Z</time>
      </trkpt>
      <trkpt lat="43.2204" lon="5.38769">
        <ele>347.20001220703</ele>
        <time>2019-05-23T08:18:15.000Z</time>
      </trkpt>
      <trkpt lat="43.22036" lon="5.38769">
        <ele>347.60000610352</ele>
        <time>2019-05-23T08:18:17.000Z</time>
      </trkpt>
      <trkpt lat="43.22026" lon="5.38771">
        <ele>348.39999389648</ele>
        <time>2019-05-23T08:18:23.000Z</time>
      </trkpt>
      <trkpt lat="43.22023" lon="5.38772">
        <ele>348.39999389648</ele>
        <time>2019-05-23T08:18:25.000Z</time>
      </trkpt>
      <trkpt lat="43.22017" lon="5.38772">
        <ele>348.79998779297</ele>
        <time>2019-05-23T08:18:29.000Z</time>
      </trkpt>
      <trkpt lat="43.22012" lon="5.38772">
        <ele>349.20001220703</ele>
        <time>2019-05-23T08:18:32.000Z</time>
      </trkpt>
      <trkpt lat="43.22011" lon="5.38772">
        <ele>349.39999389648</ele>
        <time>2019-05-23T08:18:33.000Z</time>
      </trkpt>
      <trkpt lat="43.2201" lon="5.38771">
        <ele>349.60000610352</ele>
        <time>2019-05-23T08:18:34.000Z</time>
      </trkpt>
      <trkpt lat="43.22008" lon="5.38772">
        <ele>350</ele>
        <time>2019-05-23T08:18:37.000Z</time>
      </trkpt>
      <trkpt lat="43.22004" lon="5.3877">
        <ele>350.60000610352</ele>
        <time>2019-05-23T08:18:40.000Z</time>
      </trkpt>
      <trkpt lat="43.22003" lon="5.38771">
        <ele>350.79998779297</ele>
        <time>2019-05-23T08:18:41.000Z</time>
      </trkpt>
      <trkpt lat="43.22001" lon="5.38771">
        <ele>351.20001220703</ele>
        <time>2019-05-23T08:18:43.000Z</time>
      </trkpt>
      <trkpt lat="43.22" lon="5.38771">
        <ele>351.60000610352</ele>
        <time>2019-05-23T08:18:45.000Z</time>
      </trkpt>
      <trkpt lat="43.21998" lon="5.38772">
        <ele>352</ele>
        <time>2019-05-23T08:18:47.000Z</time>
      </trkpt>
      <trkpt lat="43.21997" lon="5.38772">
        <ele>352.20001220703</ele>
        <time>2019-05-23T08:18:48.000Z</time>
      </trkpt>
      <trkpt lat="43.21995" lon="5.38774">
        <ele>352.79998779297</ele>
        <time>2019-05-23T08:18:52.000Z</time>
      </trkpt>
      <trkpt lat="43.21995" lon="5.38775">
        <ele>352.79998779297</ele>
        <time>2019-05-23T08:18:53.000Z</time>
      </trkpt>
      <trkpt lat="43.21993" lon="5.38778">
        <ele>353.20001220703</ele>
        <time>2019-05-23T08:18:57.000Z</time>
      </trkpt>
      <trkpt lat="43.21992" lon="5.3878">
        <ele>353.20001220703</ele>
        <time>2019-05-23T08:18:59.000Z</time>
      </trkpt>
      <trkpt lat="43.21992" lon="5.38782">
        <ele>353.39999389648</ele>
        <time>2019-05-23T08:19:00.000Z</time>
      </trkpt>
      <trkpt lat="43.21991" lon="5.38785">
        <ele>353.39999389648</ele>
        <time>2019-05-23T08:19:02.000Z</time>
      </trkpt>
      <trkpt lat="43.2199" lon="5.38786">
        <ele>353.39999389648</ele>
        <time>2019-05-23T08:19:03.000Z</time>
      </trkpt>
      <trkpt lat="43.2199" lon="5.38787">
        <ele>353.20001220703</ele>
        <time>2019-05-23T08:19:04.000Z</time>
      </trkpt>
      <trkpt lat="43.21989" lon="5.3879">
        <ele>353</ele>
        <time>2019-05-23T08:19:06.000Z</time>
      </trkpt>
      <trkpt lat="43.21988" lon="5.38792">
        <ele>353</ele>
        <time>2019-05-23T08:19:07.000Z</time>
      </trkpt>
      <trkpt lat="43.21986" lon="5.38793">
        <ele>353</ele>
        <time>2019-05-23T08:19:09.000Z</time>
      </trkpt>
      <trkpt lat="43.21981" lon="5.38798">
        <ele>352.79998779297</ele>
        <time>2019-05-23T08:19:14.000Z</time>
      </trkpt>
      <trkpt lat="43.21973" lon="5.38799">
        <ele>353.39999389648</ele>
        <time>2019-05-23T08:19:20.000Z</time>
      </trkpt>
      <trkpt lat="43.21971" lon="5.38802">
        <ele>353.39999389648</ele>
        <time>2019-05-23T08:19:22.000Z</time>
      </trkpt>
      <trkpt lat="43.2197" lon="5.38804">
        <ele>353.60000610352</ele>
        <time>2019-05-23T08:19:23.000Z</time>
      </trkpt>
      <trkpt lat="43.21968" lon="5.38808">
        <ele>353.79998779297</ele>
        <time>2019-05-23T08:19:25.000Z</time>
      </trkpt>
      <trkpt lat="43.21967" lon="5.3881">
        <ele>353.79998779297</ele>
        <time>2019-05-23T08:19:26.000Z</time>
      </trkpt>
      <trkpt lat="43.21963" lon="5.38812">
        <ele>354.60000610352</ele>
        <time>2019-05-23T08:19:29.000Z</time>
      </trkpt>
      <trkpt lat="43.21961" lon="5.38812">
        <ele>355</ele>
        <time>2019-05-23T08:19:30.000Z</time>
      </trkpt>
      <trkpt lat="43.2196" lon="5.38813">
        <ele>355.39999389648</ele>
        <time>2019-05-23T08:19:31.000Z</time>
      </trkpt>
      <trkpt lat="43.21959" lon="5.38813">
        <ele>355.60000610352</ele>
        <time>2019-05-23T08:19:32.000Z</time>
      </trkpt>
      <trkpt lat="43.21956" lon="5.38814">
        <ele>356.20001220703</ele>
        <time>2019-05-23T08:19:35.000Z</time>
      </trkpt>
      <trkpt lat="43.21955" lon="5.38814">
        <ele>356.60000610352</ele>
        <time>2019-05-23T08:19:36.000Z</time>
      </trkpt>
      <trkpt lat="43.21954" lon="5.38814">
        <ele>356.79998779297</ele>
        <time>2019-05-23T08:19:37.000Z</time>
      </trkpt>
      <trkpt lat="43.21952" lon="5.38814">
        <ele>357.39999389648</ele>
        <time>2019-05-23T08:19:39.000Z</time>
      </trkpt>
      <trkpt lat="43.21949" lon="5.38814">
        <ele>358.79998779297</ele>
        <time>2019-05-23T08:19:42.000Z</time>
      </trkpt>
      <trkpt lat="43.21948" lon="5.38814">
        <ele>359.60000610352</ele>
        <time>2019-05-23T08:19:44.000Z</time>
      </trkpt>
      <trkpt lat="43.21948" lon="5.38815">
        <ele>360</ele>
        <time>2019-05-23T08:19:45.000Z</time>
      </trkpt>
      <trkpt lat="43.21947" lon="5.38816">
        <ele>360</ele>
        <time>2019-05-23T08:19:46.000Z</time>
      </trkpt>
      <trkpt lat="43.21944" lon="5.38818">
        <ele>360.60000610352</ele>
        <time>2019-05-23T08:19:50.000Z</time>
      </trkpt>
      <trkpt lat="43.21942" lon="5.38818">
        <ele>361.20001220703</ele>
        <time>2019-05-23T08:19:52.000Z</time>
      </trkpt>
      <trkpt lat="43.21939" lon="5.38817">
        <ele>361.60000610352</ele>
        <time>2019-05-23T08:19:55.000Z</time>
      </trkpt>
      <trkpt lat="43.21937" lon="5.38815">
        <ele>362.20001220703</ele>
        <time>2019-05-23T08:19:58.000Z</time>
      </trkpt>
      <trkpt lat="43.21937" lon="5.38815">
        <ele>362.39999389648</ele>
        <time>2019-05-23T08:19:59.000Z</time>
      </trkpt>
      <trkpt lat="43.21935" lon="5.38819">
        <ele>363.39999389648</ele>
        <time>2019-05-23T08:20:03.000Z</time>
      </trkpt>
      <trkpt lat="43.21933" lon="5.38825">
        <ele>363.79998779297</ele>
        <time>2019-05-23T08:20:07.000Z</time>
      </trkpt>
      <trkpt lat="43.21933" lon="5.38827">
        <ele>363.79998779297</ele>
        <time>2019-05-23T08:20:08.000Z</time>
      </trkpt>
      <trkpt lat="43.21932" lon="5.38828">
        <ele>364</ele>
        <time>2019-05-23T08:20:09.000Z</time>
      </trkpt>
      <trkpt lat="43.21928" lon="5.38842">
        <ele>364.39999389648</ele>
        <time>2019-05-23T08:20:15.000Z</time>
      </trkpt>
      <trkpt lat="43.21928" lon="5.38848">
        <ele>365</ele>
        <time>2019-05-23T08:20:18.000Z</time>
      </trkpt>
      <trkpt lat="43.21927" lon="5.38849">
        <ele>365.20001220703</ele>
        <time>2019-05-23T08:20:19.000Z</time>
      </trkpt>
      <trkpt lat="43.21925" lon="5.38853">
        <ele>365.60000610352</ele>
        <time>2019-05-23T08:20:22.000Z</time>
      </trkpt>
      <trkpt lat="43.21924" lon="5.38854">
        <ele>365.79998779297</ele>
        <time>2019-05-23T08:20:23.000Z</time>
      </trkpt>
      <trkpt lat="43.21923" lon="5.38854">
        <ele>366</ele>
        <time>2019-05-23T08:20:24.000Z</time>
      </trkpt>
      <trkpt lat="43.21922" lon="5.38856">
        <ele>366.79998779297</ele>
        <time>2019-05-23T08:20:26.000Z</time>
      </trkpt>
      <trkpt lat="43.21922" lon="5.38858">
        <ele>367</ele>
        <time>2019-05-23T08:20:27.000Z</time>
      </trkpt>
      <trkpt lat="43.2192" lon="5.3886">
        <ele>367.39999389648</ele>
        <time>2019-05-23T08:20:29.000Z</time>
      </trkpt>
      <trkpt lat="43.2192" lon="5.38861">
        <ele>367.60000610352</ele>
        <time>2019-05-23T08:20:30.000Z</time>
      </trkpt>
      <trkpt lat="43.21919" lon="5.3886">
        <ele>367.79998779297</ele>
        <time>2019-05-23T08:20:32.000Z</time>
      </trkpt>
      <trkpt lat="43.21918" lon="5.38861">
        <ele>367.79998779297</ele>
        <time>2019-05-23T08:20:33.000Z</time>
      </trkpt>
      <trkpt lat="43.21915" lon="5.38862">
        <ele>368.20001220703</ele>
        <time>2019-05-23T08:20:35.000Z</time>
      </trkpt>
      <trkpt lat="43.21915" lon="5.38864">
        <ele>368.20001220703</ele>
        <time>2019-05-23T08:20:36.000Z</time>
      </trkpt>
      <trkpt lat="43.21914" lon="5.38867">
        <ele>368.20001220703</ele>
        <time>2019-05-23T08:20:37.000Z</time>
      </trkpt>
      <trkpt lat="43.21913" lon="5.38875">
        <ele>368.20001220703</ele>
        <time>2019-05-23T08:20:40.000Z</time>
      </trkpt>
      <trkpt lat="43.21912" lon="5.38879">
        <ele>368.60000610352</ele>
        <time>2019-05-23T08:20:44.000Z</time>
      </trkpt>
      <trkpt lat="43.21912" lon="5.38879">
        <ele>368.60000610352</ele>
        <time>2019-05-23T08:20:45.000Z</time>
      </trkpt>
      <trkpt lat="43.21911" lon="5.3888">
        <ele>369.20001220703</ele>
        <time>2019-05-23T08:20:47.000Z</time>
      </trkpt>
      <trkpt lat="43.21906" lon="5.38883">
        <ele>370</ele>
        <time>2019-05-23T08:20:51.000Z</time>
      </trkpt>
      <trkpt lat="43.21905" lon="5.38884">
        <ele>370.20001220703</ele>
        <time>2019-05-23T08:20:52.000Z</time>
      </trkpt>
      <trkpt lat="43.21904" lon="5.38885">
        <ele>370.20001220703</ele>
        <time>2019-05-23T08:20:53.000Z</time>
      </trkpt>
      <trkpt lat="43.21901" lon="5.38888">
        <ele>370.60000610352</ele>
        <time>2019-05-23T08:20:56.000Z</time>
      </trkpt>
      <trkpt lat="43.21898" lon="5.3889">
        <ele>371.39999389648</ele>
        <time>2019-05-23T08:20:59.000Z</time>
      </trkpt>
      <trkpt lat="43.21897" lon="5.38891">
        <ele>371.39999389648</ele>
        <time>2019-05-23T08:21:00.000Z</time>
      </trkpt>
      <trkpt lat="43.21896" lon="5.38892">
        <ele>371.79998779297</ele>
        <time>2019-05-23T08:21:02.000Z</time>
      </trkpt>
      <trkpt lat="43.21894" lon="5.38899">
        <ele>372.39999389648</ele>
        <time>2019-05-23T08:21:07.000Z</time>
      </trkpt>
      <trkpt lat="43.21893" lon="5.38904">
        <ele>372.60000610352</ele>
        <time>2019-05-23T08:21:09.000Z</time>
      </trkpt>
      <trkpt lat="43.21892" lon="5.38907">
        <ele>372.79998779297</ele>
        <time>2019-05-23T08:21:11.000Z</time>
      </trkpt>
      <trkpt lat="43.21891" lon="5.38908">
        <ele>373</ele>
        <time>2019-05-23T08:21:13.000Z</time>
      </trkpt>
      <trkpt lat="43.21889" lon="5.3891">
        <ele>373.20001220703</ele>
        <time>2019-05-23T08:21:15.000Z</time>
      </trkpt>
      <trkpt lat="43.21889" lon="5.38912">
        <ele>373.39999389648</ele>
        <time>2019-05-23T08:21:16.000Z</time>
      </trkpt>
      <trkpt lat="43.21889" lon="5.38914">
        <ele>373.60000610352</ele>
        <time>2019-05-23T08:21:17.000Z</time>
      </trkpt>
      <trkpt lat="43.21887" lon="5.38918">
        <ele>374.20001220703</ele>
        <time>2019-05-23T08:21:20.000Z</time>
      </trkpt>
      <trkpt lat="43.21885" lon="5.3892">
        <ele>374.39999389648</ele>
        <time>2019-05-23T08:21:22.000Z</time>
      </trkpt>
      <trkpt lat="43.21883" lon="5.38922">
        <ele>374.60000610352</ele>
        <time>2019-05-23T08:21:24.000Z</time>
      </trkpt>
      <trkpt lat="43.21881" lon="5.38927">
        <ele>374.60000610352</ele>
        <time>2019-05-23T08:21:27.000Z</time>
      </trkpt>
      <trkpt lat="43.21879" lon="5.38932">
        <ele>374.60000610352</ele>
        <time>2019-05-23T08:21:29.000Z</time>
      </trkpt>
      <trkpt lat="43.21876" lon="5.38936">
        <ele>374.79998779297</ele>
        <time>2019-05-23T08:21:32.000Z</time>
      </trkpt>
      <trkpt lat="43.21873" lon="5.38942">
        <ele>375.79998779297</ele>
        <time>2019-05-23T08:21:35.000Z</time>
      </trkpt>
      <trkpt lat="43.2187" lon="5.38945">
        <ele>376.79998779297</ele>
        <time>2019-05-23T08:21:37.000Z</time>
      </trkpt>
      <trkpt lat="43.21865" lon="5.38954">
        <ele>377.79998779297</ele>
        <time>2019-05-23T08:21:41.000Z</time>
      </trkpt>
      <trkpt lat="43.21862" lon="5.38956">
        <ele>378.20001220703</ele>
        <time>2019-05-23T08:21:43.000Z</time>
      </trkpt>
      <trkpt lat="43.21858" lon="5.38956">
        <ele>378.39999389648</ele>
        <time>2019-05-23T08:21:45.000Z</time>
      </trkpt>
      <trkpt lat="43.21854" lon="5.38957">
        <ele>378.79998779297</ele>
        <time>2019-05-23T08:21:47.000Z</time>
      </trkpt>
      <trkpt lat="43.21853" lon="5.38958">
        <ele>379</ele>
        <time>2019-05-23T08:21:48.000Z</time>
      </trkpt>
      <trkpt lat="43.21852" lon="5.3896">
        <ele>379.60000610352</ele>
        <time>2019-05-23T08:21:50.000Z</time>
      </trkpt>
      <trkpt lat="43.21852" lon="5.38961">
        <ele>379.79998779297</ele>
        <time>2019-05-23T08:21:51.000Z</time>
      </trkpt>
      <trkpt lat="43.21852" lon="5.38964">
        <ele>380.20001220703</ele>
        <time>2019-05-23T08:21:52.000Z</time>
      </trkpt>
      <trkpt lat="43.21852" lon="5.38968">
        <ele>380.20001220703</ele>
        <time>2019-05-23T08:21:53.000Z</time>
      </trkpt>
      <trkpt lat="43.21852" lon="5.3897">
        <ele>380.39999389648</ele>
        <time>2019-05-23T08:21:54.000Z</time>
      </trkpt>
      <trkpt lat="43.21852" lon="5.38979">
        <ele>380.79998779297</ele>
        <time>2019-05-23T08:21:57.000Z</time>
      </trkpt>
      <trkpt lat="43.21852" lon="5.38982">
        <ele>380.79998779297</ele>
        <time>2019-05-23T08:21:58.000Z</time>
      </trkpt>
      <trkpt lat="43.2185" lon="5.38994">
        <ele>380.20001220703</ele>
        <time>2019-05-23T08:22:03.000Z</time>
      </trkpt>
      <trkpt lat="43.21849" lon="5.38997">
        <ele>380</ele>
        <time>2019-05-23T08:22:04.000Z</time>
      </trkpt>
      <trkpt lat="43.21849" lon="5.38999">
        <ele>380</ele>
        <time>2019-05-23T08:22:05.000Z</time>
      </trkpt>
      <trkpt lat="43.21848" lon="5.39011">
        <ele>379.79998779297</ele>
        <time>2019-05-23T08:22:09.000Z</time>
      </trkpt>
      <trkpt lat="43.21845" lon="5.39023">
        <ele>379</ele>
        <time>2019-05-23T08:22:14.000Z</time>
      </trkpt>
      <trkpt lat="43.21845" lon="5.39028">
        <ele>378.60000610352</ele>
        <time>2019-05-23T08:22:16.000Z</time>
      </trkpt>
      <trkpt lat="43.21844" lon="5.39034">
        <ele>378.60000610352</ele>
        <time>2019-05-23T08:22:18.000Z</time>
      </trkpt>
      <trkpt lat="43.21844" lon="5.39036">
        <ele>378.60000610352</ele>
        <time>2019-05-23T08:22:19.000Z</time>
      </trkpt>
      <trkpt lat="43.21839" lon="5.39049">
        <ele>378.39999389648</ele>
        <time>2019-05-23T08:22:24.000Z</time>
      </trkpt>
      <trkpt lat="43.21838" lon="5.39056">
        <ele>378.39999389648</ele>
        <time>2019-05-23T08:22:28.000Z</time>
      </trkpt>
      <trkpt lat="43.21837" lon="5.39058">
        <ele>378.39999389648</ele>
        <time>2019-05-23T08:22:29.000Z</time>
      </trkpt>
      <trkpt lat="43.21835" lon="5.3906">
        <ele>378.20001220703</ele>
        <time>2019-05-23T08:22:30.000Z</time>
      </trkpt>
      <trkpt lat="43.21834" lon="5.39069">
        <ele>378</ele>
        <time>2019-05-23T08:22:33.000Z</time>
      </trkpt>
      <trkpt lat="43.21833" lon="5.39077">
        <ele>377.79998779297</ele>
        <time>2019-05-23T08:22:35.000Z</time>
      </trkpt>
      <trkpt lat="43.21833" lon="5.39082">
        <ele>377.39999389648</ele>
        <time>2019-05-23T08:22:37.000Z</time>
      </trkpt>
      <trkpt lat="43.21832" lon="5.39084">
        <ele>377.39999389648</ele>
        <time>2019-05-23T08:22:38.000Z</time>
      </trkpt>
      <trkpt lat="43.21831" lon="5.39094">
        <ele>377</ele>
        <time>2019-05-23T08:22:41.000Z</time>
      </trkpt>
      <trkpt lat="43.21831" lon="5.39098">
        <ele>376.79998779297</ele>
        <time>2019-05-23T08:22:42.000Z</time>
      </trkpt>
      <trkpt lat="43.21828" lon="5.39108">
        <ele>376</ele>
        <time>2019-05-23T08:22:46.000Z</time>
      </trkpt>
      <trkpt lat="43.21826" lon="5.39113">
        <ele>375.79998779297</ele>
        <time>2019-05-23T08:22:48.000Z</time>
      </trkpt>
      <trkpt lat="43.21823" lon="5.39125">
        <ele>375.20001220703</ele>
        <time>2019-05-23T08:22:52.000Z</time>
      </trkpt>
      <trkpt lat="43.21821" lon="5.39136">
        <ele>374.60000610352</ele>
        <time>2019-05-23T08:22:55.000Z</time>
      </trkpt>
      <trkpt lat="43.21821" lon="5.39141">
        <ele>373.79998779297</ele>
        <time>2019-05-23T08:22:57.000Z</time>
      </trkpt>
      <trkpt lat="43.2182" lon="5.39143">
        <ele>373.39999389648</ele>
        <time>2019-05-23T08:22:58.000Z</time>
      </trkpt>
      <trkpt lat="43.2182" lon="5.39149">
        <ele>372.79998779297</ele>
        <time>2019-05-23T08:23:00.000Z</time>
      </trkpt>
      <trkpt lat="43.21819" lon="5.39156">
        <ele>372.39999389648</ele>
        <time>2019-05-23T08:23:02.000Z</time>
      </trkpt>
      <trkpt lat="43.2182" lon="5.3916">
        <ele>372.20001220703</ele>
        <time>2019-05-23T08:23:03.000Z</time>
      </trkpt>
      <trkpt lat="43.21821" lon="5.39163">
        <ele>372</ele>
        <time>2019-05-23T08:23:04.000Z</time>
      </trkpt>
      <trkpt lat="43.21821" lon="5.39166">
        <ele>371.79998779297</ele>
        <time>2019-05-23T08:23:05.000Z</time>
      </trkpt>
      <trkpt lat="43.21821" lon="5.39169">
        <ele>371.60000610352</ele>
        <time>2019-05-23T08:23:06.000Z</time>
      </trkpt>
      <trkpt lat="43.21821" lon="5.39176">
        <ele>371.39999389648</ele>
        <time>2019-05-23T08:23:08.000Z</time>
      </trkpt>
      <trkpt lat="43.21821" lon="5.39178">
        <ele>371</ele>
        <time>2019-05-23T08:23:09.000Z</time>
      </trkpt>
      <trkpt lat="43.21829" lon="5.39189">
        <ele>370</ele>
        <time>2019-05-23T08:23:13.000Z</time>
      </trkpt>
      <trkpt lat="43.21837" lon="5.39206">
        <ele>369.20001220703</ele>
        <time>2019-05-23T08:23:19.000Z</time>
      </trkpt>
      <trkpt lat="43.21839" lon="5.3921">
        <ele>368.79998779297</ele>
        <time>2019-05-23T08:23:21.000Z</time>
      </trkpt>
      <trkpt lat="43.21841" lon="5.3922">
        <ele>368.20001220703</ele>
        <time>2019-05-23T08:23:24.000Z</time>
      </trkpt>
      <trkpt lat="43.2184" lon="5.39237">
        <ele>367.79998779297</ele>
        <time>2019-05-23T08:23:29.000Z</time>
      </trkpt>
      <trkpt lat="43.21841" lon="5.3924">
        <ele>367.60000610352</ele>
        <time>2019-05-23T08:23:30.000Z</time>
      </trkpt>
      <trkpt lat="43.21843" lon="5.39258">
        <ele>367.79998779297</ele>
        <time>2019-05-23T08:23:36.000Z</time>
      </trkpt>
      <trkpt lat="43.21844" lon="5.3926">
        <ele>367.79998779297</ele>
        <time>2019-05-23T08:23:37.000Z</time>
      </trkpt>
      <trkpt lat="43.21847" lon="5.3927">
        <ele>368.20001220703</ele>
        <time>2019-05-23T08:23:41.000Z</time>
      </trkpt>
      <trkpt lat="43.21848" lon="5.39279">
        <ele>368.79998779297</ele>
        <time>2019-05-23T08:23:44.000Z</time>
      </trkpt>
      <trkpt lat="43.21849" lon="5.39281">
        <ele>369</ele>
        <time>2019-05-23T08:23:45.000Z</time>
      </trkpt>
      <trkpt lat="43.2185" lon="5.39287">
        <ele>369.20001220703</ele>
        <time>2019-05-23T08:23:47.000Z</time>
      </trkpt>
      <trkpt lat="43.21851" lon="5.39299">
        <ele>369.79998779297</ele>
        <time>2019-05-23T08:23:52.000Z</time>
      </trkpt>
      <trkpt lat="43.21851" lon="5.39301">
        <ele>369.79998779297</ele>
        <time>2019-05-23T08:23:53.000Z</time>
      </trkpt>
      <trkpt lat="43.21852" lon="5.39305">
        <ele>370.20001220703</ele>
        <time>2019-05-23T08:23:55.000Z</time>
      </trkpt>
      <trkpt lat="43.21853" lon="5.39307">
        <ele>370.20001220703</ele>
        <time>2019-05-23T08:23:56.000Z</time>
      </trkpt>
      <trkpt lat="43.21857" lon="5.39312">
        <ele>371.39999389648</ele>
        <time>2019-05-23T08:23:59.000Z</time>
      </trkpt>
      <trkpt lat="43.21858" lon="5.39316">
        <ele>372.20001220703</ele>
        <time>2019-05-23T08:24:01.000Z</time>
      </trkpt>
      <trkpt lat="43.2186" lon="5.3932">
        <ele>372.39999389648</ele>
        <time>2019-05-23T08:24:03.000Z</time>
      </trkpt>
      <trkpt lat="43.21861" lon="5.39325">
        <ele>373</ele>
        <time>2019-05-23T08:24:06.000Z</time>
      </trkpt>
      <trkpt lat="43.21862" lon="5.39328">
        <ele>373.20001220703</ele>
        <time>2019-05-23T08:24:07.000Z</time>
      </trkpt>
      <trkpt lat="43.21864" lon="5.39331">
        <ele>373.60000610352</ele>
        <time>2019-05-23T08:24:09.000Z</time>
      </trkpt>
      <trkpt lat="43.21865" lon="5.39338">
        <ele>374.60000610352</ele>
        <time>2019-05-23T08:24:12.000Z</time>
      </trkpt>
      <trkpt lat="43.21865" lon="5.39342">
        <ele>375.39999389648</ele>
        <time>2019-05-23T08:24:14.000Z</time>
      </trkpt>
      <trkpt lat="43.21866" lon="5.39343">
        <ele>375.60000610352</ele>
        <time>2019-05-23T08:24:15.000Z</time>
      </trkpt>
      <trkpt lat="43.21866" lon="5.39347">
        <ele>376.20001220703</ele>
        <time>2019-05-23T08:24:17.000Z</time>
      </trkpt>
      <trkpt lat="43.2187" lon="5.39357">
        <ele>376.79998779297</ele>
        <time>2019-05-23T08:24:22.000Z</time>
      </trkpt>
      <trkpt lat="43.21871" lon="5.39359">
        <ele>377.39999389648</ele>
        <time>2019-05-23T08:24:24.000Z</time>
      </trkpt>
      <trkpt lat="43.21872" lon="5.39361">
        <ele>377.79998779297</ele>
        <time>2019-05-23T08:24:25.000Z</time>
      </trkpt>
      <trkpt lat="43.21872" lon="5.39362">
        <ele>378</ele>
        <time>2019-05-23T08:24:26.000Z</time>
      </trkpt>
      <trkpt lat="43.21872" lon="5.39366">
        <ele>378.60000610352</ele>
        <time>2019-05-23T08:24:28.000Z</time>
      </trkpt>
      <trkpt lat="43.21872" lon="5.39371">
        <ele>379.20001220703</ele>
        <time>2019-05-23T08:24:30.000Z</time>
      </trkpt>
      <trkpt lat="43.21871" lon="5.39377">
        <ele>379.60000610352</ele>
        <time>2019-05-23T08:24:34.000Z</time>
      </trkpt>
      <trkpt lat="43.21871" lon="5.39383">
        <ele>380.39999389648</ele>
        <time>2019-05-23T08:24:37.000Z</time>
      </trkpt>
      <trkpt lat="43.21869" lon="5.39389">
        <ele>381</ele>
        <time>2019-05-23T08:24:40.000Z</time>
      </trkpt>
      <trkpt lat="43.21866" lon="5.39395">
        <ele>381.60000610352</ele>
        <time>2019-05-23T08:24:43.000Z</time>
      </trkpt>
      <trkpt lat="43.21866" lon="5.394">
        <ele>382.20001220703</ele>
        <time>2019-05-23T08:24:45.000Z</time>
      </trkpt>
      <trkpt lat="43.21865" lon="5.39403">
        <ele>382.79998779297</ele>
        <time>2019-05-23T08:24:47.000Z</time>
      </trkpt>
      <trkpt lat="43.21864" lon="5.39409">
        <ele>383.20001220703</ele>
        <time>2019-05-23T08:24:50.000Z</time>
      </trkpt>
      <trkpt lat="43.21864" lon="5.39417">
        <ele>383.60000610352</ele>
        <time>2019-05-23T08:24:53.000Z</time>
      </trkpt>
      <trkpt lat="43.21867" lon="5.39421">
        <ele>383.79998779297</ele>
        <time>2019-05-23T08:24:55.000Z</time>
      </trkpt>
      <trkpt lat="43.21869" lon="5.39427">
        <ele>384.39999389648</ele>
        <time>2019-05-23T08:24:58.000Z</time>
      </trkpt>
      <trkpt lat="43.2187" lon="5.39433">
        <ele>384.79998779297</ele>
        <time>2019-05-23T08:25:00.000Z</time>
      </trkpt>
      <trkpt lat="43.2187" lon="5.39435">
        <ele>385</ele>
        <time>2019-05-23T08:25:01.000Z</time>
      </trkpt>
      <trkpt lat="43.21871" lon="5.3944">
        <ele>385.60000610352</ele>
        <time>2019-05-23T08:25:03.000Z</time>
      </trkpt>
      <trkpt lat="43.21871" lon="5.39445">
        <ele>386</ele>
        <time>2019-05-23T08:25:06.000Z</time>
      </trkpt>
      <trkpt lat="43.21871" lon="5.39448">
        <ele>383.60000610352</ele>
        <time>2019-05-23T08:25:32.000Z</time>
      </trkpt>
      <trkpt lat="43.21872" lon="5.39452">
        <ele>383.39999389648</ele>
        <time>2019-05-23T08:25:33.000Z</time>
      </trkpt>
      <trkpt lat="43.21873" lon="5.39455">
        <ele>383.39999389648</ele>
        <time>2019-05-23T08:25:34.000Z</time>
      </trkpt>
      <trkpt lat="43.21876" lon="5.39467">
        <ele>383</ele>
        <time>2019-05-23T08:25:38.000Z</time>
      </trkpt>
      <trkpt lat="43.21877" lon="5.39477">
        <ele>383</ele>
        <time>2019-05-23T08:25:41.000Z</time>
      </trkpt>
      <trkpt lat="43.21877" lon="5.3948">
        <ele>383</ele>
        <time>2019-05-23T08:25:42.000Z</time>
      </trkpt>
      <trkpt lat="43.21877" lon="5.3949">
        <ele>382.79998779297</ele>
        <time>2019-05-23T08:25:46.000Z</time>
      </trkpt>
      <trkpt lat="43.21876" lon="5.39496">
        <ele>383.39999389648</ele>
        <time>2019-05-23T08:25:48.000Z</time>
      </trkpt>
      <trkpt lat="43.21878" lon="5.3951">
        <ele>384.79998779297</ele>
        <time>2019-05-23T08:25:53.000Z</time>
      </trkpt>
      <trkpt lat="43.21878" lon="5.39514">
        <ele>385</ele>
        <time>2019-05-23T08:25:54.000Z</time>
      </trkpt>
      <trkpt lat="43.21878" lon="5.39527">
        <ele>385.79998779297</ele>
        <time>2019-05-23T08:25:58.000Z</time>
      </trkpt>
      <trkpt lat="43.21877" lon="5.3953">
        <ele>385.79998779297</ele>
        <time>2019-05-23T08:25:59.000Z</time>
      </trkpt>
      <trkpt lat="43.21877" lon="5.39533">
        <ele>385.79998779297</ele>
        <time>2019-05-23T08:26:00.000Z</time>
      </trkpt>
      <trkpt lat="43.21877" lon="5.3954">
        <ele>386</ele>
        <time>2019-05-23T08:26:03.000Z</time>
      </trkpt>
      <trkpt lat="43.21878" lon="5.39554">
        <ele>386.60000610352</ele>
        <time>2019-05-23T08:26:08.000Z</time>
      </trkpt>
      <trkpt lat="43.21879" lon="5.39564">
        <ele>387</ele>
        <time>2019-05-23T08:26:12.000Z</time>
      </trkpt>
      <trkpt lat="43.21878" lon="5.39566">
        <ele>387</ele>
        <time>2019-05-23T08:26:13.000Z</time>
      </trkpt>
      <trkpt lat="43.21876" lon="5.39576">
        <ele>388</ele>
        <time>2019-05-23T08:26:17.000Z</time>
      </trkpt>
      <trkpt lat="43.21876" lon="5.39581">
        <ele>389</ele>
        <time>2019-05-23T08:26:19.000Z</time>
      </trkpt>
      <trkpt lat="43.21877" lon="5.39591">
        <ele>390.20001220703</ele>
        <time>2019-05-23T08:26:24.000Z</time>
      </trkpt>
      <trkpt lat="43.21877" lon="5.39594">
        <ele>390.39999389648</ele>
        <time>2019-05-23T08:26:25.000Z</time>
      </trkpt>
      <trkpt lat="43.21878" lon="5.39607">
        <ele>390.60000610352</ele>
        <time>2019-05-23T08:26:30.000Z</time>
      </trkpt>
      <trkpt lat="43.21876" lon="5.39619">
        <ele>391</ele>
        <time>2019-05-23T08:26:35.000Z</time>
      </trkpt>
      <trkpt lat="43.21876" lon="5.39622">
        <ele>391.20001220703</ele>
        <time>2019-05-23T08:26:36.000Z</time>
      </trkpt>
      <trkpt lat="43.21874" lon="5.3963">
        <ele>392</ele>
        <time>2019-05-23T08:26:40.000Z</time>
      </trkpt>
      <trkpt lat="43.21871" lon="5.39636">
        <ele>391.60000610352</ele>
        <time>2019-05-23T08:26:43.000Z</time>
      </trkpt>
      <trkpt lat="43.2187" lon="5.39636">
        <ele>391.60000610352</ele>
        <time>2019-05-23T08:26:44.000Z</time>
      </trkpt>
      <trkpt lat="43.2187" lon="5.39637">
        <ele>391.60000610352</ele>
        <time>2019-05-23T08:26:45.000Z</time>
      </trkpt>
      <trkpt lat="43.21866" lon="5.39644">
        <ele>391.39999389648</ele>
        <time>2019-05-23T08:26:48.000Z</time>
      </trkpt>
      <trkpt lat="43.21868" lon="5.39642">
        <ele>385.39999389648</ele>
        <time>2019-05-23T08:29:44.000Z</time>
      </trkpt>
      <trkpt lat="43.21871" lon="5.39646">
        <ele>385.39999389648</ele>
        <time>2019-05-23T08:29:47.000Z</time>
      </trkpt>
      <trkpt lat="43.21872" lon="5.39646">
        <ele>385.39999389648</ele>
        <time>2019-05-23T08:29:49.000Z</time>
      </trkpt>
      <trkpt lat="43.21872" lon="5.39647">
        <ele>384.79998779297</ele>
        <time>2019-05-23T08:29:53.000Z</time>
      </trkpt>
      <trkpt lat="43.21873" lon="5.39647">
        <ele>384.39999389648</ele>
        <time>2019-05-23T08:29:54.000Z</time>
      </trkpt>
      <trkpt lat="43.21873" lon="5.39648">
        <ele>383</ele>
        <time>2019-05-23T08:29:57.000Z</time>
      </trkpt>
      <trkpt lat="43.21873" lon="5.3965">
        <ele>382.60000610352</ele>
        <time>2019-05-23T08:29:59.000Z</time>
      </trkpt>
      <trkpt lat="43.21874" lon="5.39651">
        <ele>382</ele>
        <time>2019-05-23T08:30:01.000Z</time>
      </trkpt>
      <trkpt lat="43.21874" lon="5.39654">
        <ele>381.20001220703</ele>
        <time>2019-05-23T08:30:05.000Z</time>
      </trkpt>
      <trkpt lat="43.21874" lon="5.39655">
        <ele>381</ele>
        <time>2019-05-23T08:30:06.000Z</time>
      </trkpt>
      <trkpt lat="43.21874" lon="5.39656">
        <ele>380.60000610352</ele>
        <time>2019-05-23T08:30:08.000Z</time>
      </trkpt>
      <trkpt lat="43.21873" lon="5.39656">
        <ele>380.39999389648</ele>
        <time>2019-05-23T08:30:09.000Z</time>
      </trkpt>
      <trkpt lat="43.21873" lon="5.39657">
        <ele>380.20001220703</ele>
        <time>2019-05-23T08:30:10.000Z</time>
      </trkpt>
      <trkpt lat="43.21872" lon="5.3966">
        <ele>379.79998779297</ele>
        <time>2019-05-23T08:30:12.000Z</time>
      </trkpt>
      <trkpt lat="43.2187" lon="5.39662">
        <ele>379.60000610352</ele>
        <time>2019-05-23T08:30:14.000Z</time>
      </trkpt>
      <trkpt lat="43.21868" lon="5.39663">
        <ele>379.39999389648</ele>
        <time>2019-05-23T08:30:15.000Z</time>
      </trkpt>
      <trkpt lat="43.21866" lon="5.39664">
        <ele>379</ele>
        <time>2019-05-23T08:30:16.000Z</time>
      </trkpt>
      <trkpt lat="43.21864" lon="5.39664">
        <ele>378.39999389648</ele>
        <time>2019-05-23T08:30:17.000Z</time>
      </trkpt>
      <trkpt lat="43.21861" lon="5.39664">
        <ele>377.60000610352</ele>
        <time>2019-05-23T08:30:18.000Z</time>
      </trkpt>
      <trkpt lat="43.2186" lon="5.39665">
        <ele>377.20001220703</ele>
        <time>2019-05-23T08:30:19.000Z</time>
      </trkpt>
      <trkpt lat="43.21859" lon="5.39665">
        <ele>377</ele>
        <time>2019-05-23T08:30:20.000Z</time>
      </trkpt>
      <trkpt lat="43.21857" lon="5.39666">
        <ele>377</ele>
        <time>2019-05-23T08:30:21.000Z</time>
      </trkpt>
      <trkpt lat="43.21856" lon="5.39666">
        <ele>376.79998779297</ele>
        <time>2019-05-23T08:30:24.000Z</time>
      </trkpt>
      <trkpt lat="43.21857" lon="5.39669">
        <ele>376.20001220703</ele>
        <time>2019-05-23T08:30:26.000Z</time>
      </trkpt>
      <trkpt lat="43.21859" lon="5.39671">
        <ele>375.39999389648</ele>
        <time>2019-05-23T08:30:28.000Z</time>
      </trkpt>
      <trkpt lat="43.21859" lon="5.39672">
        <ele>375.20001220703</ele>
        <time>2019-05-23T08:30:29.000Z</time>
      </trkpt>
      <trkpt lat="43.21859" lon="5.39672">
        <ele>374.79998779297</ele>
        <time>2019-05-23T08:30:30.000Z</time>
      </trkpt>
      <trkpt lat="43.21859" lon="5.39675">
        <ele>374</ele>
        <time>2019-05-23T08:30:33.000Z</time>
      </trkpt>
      <trkpt lat="43.2186" lon="5.39676">
        <ele>373.39999389648</ele>
        <time>2019-05-23T08:30:35.000Z</time>
      </trkpt>
      <trkpt lat="43.21858" lon="5.39676">
        <ele>373</ele>
        <time>2019-05-23T08:30:37.000Z</time>
      </trkpt>
      <trkpt lat="43.21856" lon="5.39676">
        <ele>372.60000610352</ele>
        <time>2019-05-23T08:30:38.000Z</time>
      </trkpt>
      <trkpt lat="43.21855" lon="5.39677">
        <ele>372.39999389648</ele>
        <time>2019-05-23T08:30:39.000Z</time>
      </trkpt>
      <trkpt lat="43.21855" lon="5.3968">
        <ele>371.60000610352</ele>
        <time>2019-05-23T08:30:41.000Z</time>
      </trkpt>
      <trkpt lat="43.21855" lon="5.39682">
        <ele>371</ele>
        <time>2019-05-23T08:30:43.000Z</time>
      </trkpt>
      <trkpt lat="43.21854" lon="5.39684">
        <ele>370.60000610352</ele>
        <time>2019-05-23T08:30:44.000Z</time>
      </trkpt>
      <trkpt lat="43.21849" lon="5.39686">
        <ele>369.20001220703</ele>
        <time>2019-05-23T08:30:47.000Z</time>
      </trkpt>
      <trkpt lat="43.21847" lon="5.39687">
        <ele>368.79998779297</ele>
        <time>2019-05-23T08:30:48.000Z</time>
      </trkpt>
      <trkpt lat="43.21845" lon="5.39689">
        <ele>368.20001220703</ele>
        <time>2019-05-23T08:30:50.000Z</time>
      </trkpt>
      <trkpt lat="43.21842" lon="5.39692">
        <ele>367</ele>
        <time>2019-05-23T08:30:52.000Z</time>
      </trkpt>
      <trkpt lat="43.2184" lon="5.39694">
        <ele>365.79998779297</ele>
        <time>2019-05-23T08:30:54.000Z</time>
      </trkpt>
      <trkpt lat="43.21839" lon="5.39694">
        <ele>365.60000610352</ele>
        <time>2019-05-23T08:30:55.000Z</time>
      </trkpt>
      <trkpt lat="43.21839" lon="5.39697">
        <ele>364.79998779297</ele>
        <time>2019-05-23T08:30:57.000Z</time>
      </trkpt>
      <trkpt lat="43.21835" lon="5.39701">
        <ele>364</ele>
        <time>2019-05-23T08:31:00.000Z</time>
      </trkpt>
      <trkpt lat="43.21833" lon="5.39702">
        <ele>363.60000610352</ele>
        <time>2019-05-23T08:31:01.000Z</time>
      </trkpt>
      <trkpt lat="43.21829" lon="5.39703">
        <ele>362.60000610352</ele>
        <time>2019-05-23T08:31:03.000Z</time>
      </trkpt>
      <trkpt lat="43.21826" lon="5.39707">
        <ele>362.20001220703</ele>
        <time>2019-05-23T08:31:05.000Z</time>
      </trkpt>
      <trkpt lat="43.21824" lon="5.3971">
        <ele>362</ele>
        <time>2019-05-23T08:31:06.000Z</time>
      </trkpt>
      <trkpt lat="43.21818" lon="5.39725">
        <ele>361.79998779297</ele>
        <time>2019-05-23T08:31:11.000Z</time>
      </trkpt>
      <trkpt lat="43.21812" lon="5.39737">
        <ele>361.60000610352</ele>
        <time>2019-05-23T08:31:16.000Z</time>
      </trkpt>
      <trkpt lat="43.21809" lon="5.39739">
        <ele>361.60000610352</ele>
        <time>2019-05-23T08:31:18.000Z</time>
      </trkpt>
      <trkpt lat="43.21809" lon="5.39741">
        <ele>361.39999389648</ele>
        <time>2019-05-23T08:31:20.000Z</time>
      </trkpt>
      <trkpt lat="43.2181" lon="5.39741">
        <ele>361</ele>
        <time>2019-05-23T08:31:21.000Z</time>
      </trkpt>
      <trkpt lat="43.21812" lon="5.39741">
        <ele>360.39999389648</ele>
        <time>2019-05-23T08:31:23.000Z</time>
      </trkpt>
      <trkpt lat="43.21813" lon="5.39742">
        <ele>360.20001220703</ele>
        <time>2019-05-23T08:31:24.000Z</time>
      </trkpt>
      <trkpt lat="43.21814" lon="5.39744">
        <ele>359.20001220703</ele>
        <time>2019-05-23T08:31:26.000Z</time>
      </trkpt>
      <trkpt lat="43.21816" lon="5.39745">
        <ele>358.39999389648</ele>
        <time>2019-05-23T08:31:28.000Z</time>
      </trkpt>
      <trkpt lat="43.21816" lon="5.39746">
        <ele>358.20001220703</ele>
        <time>2019-05-23T08:31:29.000Z</time>
      </trkpt>
      <trkpt lat="43.21816" lon="5.39747">
        <ele>357.20001220703</ele>
        <time>2019-05-23T08:31:33.000Z</time>
      </trkpt>
      <trkpt lat="43.21817" lon="5.39748">
        <ele>356</ele>
        <time>2019-05-23T08:31:36.000Z</time>
      </trkpt>
      <trkpt lat="43.21818" lon="5.3975">
        <ele>354.79998779297</ele>
        <time>2019-05-23T08:31:38.000Z</time>
      </trkpt>
      <trkpt lat="43.21819" lon="5.3975">
        <ele>353.60000610352</ele>
        <time>2019-05-23T08:31:41.000Z</time>
      </trkpt>
      <trkpt lat="43.21821" lon="5.39751">
        <ele>352.39999389648</ele>
        <time>2019-05-23T08:31:44.000Z</time>
      </trkpt>
      <trkpt lat="43.21821" lon="5.39755">
        <ele>351</ele>
        <time>2019-05-23T08:31:47.000Z</time>
      </trkpt>
      <trkpt lat="43.21822" lon="5.39754">
        <ele>349.39999389648</ele>
        <time>2019-05-23T08:31:49.000Z</time>
      </trkpt>
      <trkpt lat="43.21823" lon="5.39756">
        <ele>348.20001220703</ele>
        <time>2019-05-23T08:31:52.000Z</time>
      </trkpt>
      <trkpt lat="43.21823" lon="5.39758">
        <ele>346.79998779297</ele>
        <time>2019-05-23T08:31:55.000Z</time>
      </trkpt>
      <trkpt lat="43.21824" lon="5.39759">
        <ele>345.60000610352</ele>
        <time>2019-05-23T08:31:58.000Z</time>
      </trkpt>
      <trkpt lat="43.21825" lon="5.39758">
        <ele>345.39999389648</ele>
        <time>2019-05-23T08:31:59.000Z</time>
      </trkpt>
      <trkpt lat="43.21827" lon="5.39758">
        <ele>344.60000610352</ele>
        <time>2019-05-23T08:32:02.000Z</time>
      </trkpt>
      <trkpt lat="43.21826" lon="5.3976">
        <ele>344</ele>
        <time>2019-05-23T08:32:05.000Z</time>
      </trkpt>
      <trkpt lat="43.21826" lon="5.3976">
        <ele>343.60000610352</ele>
        <time>2019-05-23T08:32:06.000Z</time>
      </trkpt>
      <trkpt lat="43.21827" lon="5.39761">
        <ele>343.20001220703</ele>
        <time>2019-05-23T08:32:08.000Z</time>
      </trkpt>
      <trkpt lat="43.21828" lon="5.39762">
        <ele>342.39999389648</ele>
        <time>2019-05-23T08:32:11.000Z</time>
      </trkpt>
      <trkpt lat="43.21828" lon="5.39763">
        <ele>342</ele>
        <time>2019-05-23T08:32:13.000Z</time>
      </trkpt>
      <trkpt lat="43.21828" lon="5.39764">
        <ele>341.20001220703</ele>
        <time>2019-05-23T08:32:18.000Z</time>
      </trkpt>
      <trkpt lat="43.21828" lon="5.39765">
        <ele>341</ele>
        <time>2019-05-23T08:32:19.000Z</time>
      </trkpt>
      <trkpt lat="43.21828" lon="5.39768">
        <ele>340.20001220703</ele>
        <time>2019-05-23T08:32:21.000Z</time>
      </trkpt>
      <trkpt lat="43.21827" lon="5.39774">
        <ele>339</ele>
        <time>2019-05-23T08:32:23.000Z</time>
      </trkpt>
      <trkpt lat="43.21827" lon="5.39779">
        <ele>338.60000610352</ele>
        <time>2019-05-23T08:32:25.000Z</time>
      </trkpt>
      <trkpt lat="43.21827" lon="5.39783">
        <ele>337.60000610352</ele>
        <time>2019-05-23T08:32:27.000Z</time>
      </trkpt>
      <trkpt lat="43.21825" lon="5.39788">
        <ele>336.60000610352</ele>
        <time>2019-05-23T08:32:29.000Z</time>
      </trkpt>
      <trkpt lat="43.21824" lon="5.39789">
        <ele>336.20001220703</ele>
        <time>2019-05-23T08:32:30.000Z</time>
      </trkpt>
      <trkpt lat="43.21823" lon="5.3979">
        <ele>336</ele>
        <time>2019-05-23T08:32:31.000Z</time>
      </trkpt>
      <trkpt lat="43.21821" lon="5.39791">
        <ele>335.20001220703</ele>
        <time>2019-05-23T08:32:33.000Z</time>
      </trkpt>
      <trkpt lat="43.21819" lon="5.39792">
        <ele>334.60000610352</ele>
        <time>2019-05-23T08:32:35.000Z</time>
      </trkpt>
      <trkpt lat="43.21819" lon="5.39792">
        <ele>334.39999389648</ele>
        <time>2019-05-23T08:32:36.000Z</time>
      </trkpt>
      <trkpt lat="43.21819" lon="5.39793">
        <ele>334.20001220703</ele>
        <time>2019-05-23T08:32:37.000Z</time>
      </trkpt>
      <trkpt lat="43.21819" lon="5.39794">
        <ele>333.39999389648</ele>
        <time>2019-05-23T08:32:39.000Z</time>
      </trkpt>
      <trkpt lat="43.21819" lon="5.39794">
        <ele>333</ele>
        <time>2019-05-23T08:32:40.000Z</time>
      </trkpt>
      <trkpt lat="43.21819" lon="5.39795">
        <ele>332.79998779297</ele>
        <time>2019-05-23T08:32:41.000Z</time>
      </trkpt>
      <trkpt lat="43.21819" lon="5.39797">
        <ele>332</ele>
        <time>2019-05-23T08:32:43.000Z</time>
      </trkpt>
      <trkpt lat="43.21819" lon="5.39799">
        <ele>331.79998779297</ele>
        <time>2019-05-23T08:32:44.000Z</time>
      </trkpt>
      <trkpt lat="43.21819" lon="5.39802">
        <ele>330.60000610352</ele>
        <time>2019-05-23T08:32:46.000Z</time>
      </trkpt>
      <trkpt lat="43.21816" lon="5.39807">
        <ele>329.60000610352</ele>
        <time>2019-05-23T08:32:48.000Z</time>
      </trkpt>
      <trkpt lat="43.21815" lon="5.39809">
        <ele>329.20001220703</ele>
        <time>2019-05-23T08:32:49.000Z</time>
      </trkpt>
      <trkpt lat="43.21808" lon="5.39812">
        <ele>328.39999389648</ele>
        <time>2019-05-23T08:32:52.000Z</time>
      </trkpt>
      <trkpt lat="43.218" lon="5.39816">
        <ele>327.79998779297</ele>
        <time>2019-05-23T08:32:54.000Z</time>
      </trkpt>
      <trkpt lat="43.21798" lon="5.39818">
        <ele>327.60000610352</ele>
        <time>2019-05-23T08:32:55.000Z</time>
      </trkpt>
      <trkpt lat="43.21797" lon="5.39821">
        <ele>327.39999389648</ele>
        <time>2019-05-23T08:32:56.000Z</time>
      </trkpt>
      <trkpt lat="43.21795" lon="5.39828">
        <ele>327.20001220703</ele>
        <time>2019-05-23T08:32:58.000Z</time>
      </trkpt>
      <trkpt lat="43.21791" lon="5.3984">
        <ele>326.20001220703</ele>
        <time>2019-05-23T08:33:04.000Z</time>
      </trkpt>
      <trkpt lat="43.21786" lon="5.39847">
        <ele>326</ele>
        <time>2019-05-23T08:33:07.000Z</time>
      </trkpt>
      <trkpt lat="43.21785" lon="5.3985">
        <ele>326</ele>
        <time>2019-05-23T08:33:09.000Z</time>
      </trkpt>
      <trkpt lat="43.21786" lon="5.39852">
        <ele>325.79998779297</ele>
        <time>2019-05-23T08:33:10.000Z</time>
      </trkpt>
      <trkpt lat="43.21788" lon="5.39859">
        <ele>326.20001220703</ele>
        <time>2019-05-23T08:33:13.000Z</time>
      </trkpt>
      <trkpt lat="43.21787" lon="5.39862">
        <ele>326</ele>
        <time>2019-05-23T08:33:15.000Z</time>
      </trkpt>
      <trkpt lat="43.21785" lon="5.39862">
        <ele>325.60000610352</ele>
        <time>2019-05-23T08:33:16.000Z</time>
      </trkpt>
      <trkpt lat="43.21777" lon="5.3987">
        <ele>326.79998779297</ele>
        <time>2019-05-23T08:33:27.000Z</time>
      </trkpt>
      <trkpt lat="43.21784" lon="5.39869">
        <ele>326.79998779297</ele>
        <time>2019-05-23T08:33:31.000Z</time>
      </trkpt>
      <trkpt lat="43.21784" lon="5.3987">
        <ele>326.60000610352</ele>
        <time>2019-05-23T08:33:32.000Z</time>
      </trkpt>
      <trkpt lat="43.21785" lon="5.39873">
        <ele>326.20001220703</ele>
        <time>2019-05-23T08:33:33.000Z</time>
      </trkpt>
      <trkpt lat="43.21785" lon="5.39881">
        <ele>325</ele>
        <time>2019-05-23T08:33:35.000Z</time>
      </trkpt>
      <trkpt lat="43.21786" lon="5.39888">
        <ele>324</ele>
        <time>2019-05-23T08:33:37.000Z</time>
      </trkpt>
      <trkpt lat="43.21787" lon="5.39896">
        <ele>322.79998779297</ele>
        <time>2019-05-23T08:33:40.000Z</time>
      </trkpt>
      <trkpt lat="43.21787" lon="5.39899">
        <ele>322.60000610352</ele>
        <time>2019-05-23T08:33:41.000Z</time>
      </trkpt>
      <trkpt lat="43.21788" lon="5.39903">
        <ele>322.39999389648</ele>
        <time>2019-05-23T08:33:43.000Z</time>
      </trkpt>
      <trkpt lat="43.21788" lon="5.39906">
        <ele>321.79998779297</ele>
        <time>2019-05-23T08:33:45.000Z</time>
      </trkpt>
      <trkpt lat="43.21788" lon="5.39909">
        <ele>321.39999389648</ele>
        <time>2019-05-23T08:33:46.000Z</time>
      </trkpt>
      <trkpt lat="43.21787" lon="5.39915">
        <ele>320.79998779297</ele>
        <time>2019-05-23T08:33:48.000Z</time>
      </trkpt>
      <trkpt lat="43.21787" lon="5.39917">
        <ele>320.60000610352</ele>
        <time>2019-05-23T08:33:49.000Z</time>
      </trkpt>
      <trkpt lat="43.21784" lon="5.39921">
        <ele>320.20001220703</ele>
        <time>2019-05-23T08:33:51.000Z</time>
      </trkpt>
      <trkpt lat="43.21784" lon="5.39921">
        <ele>319.79998779297</ele>
        <time>2019-05-23T08:33:52.000Z</time>
      </trkpt>
      <trkpt lat="43.21783" lon="5.39921">
        <ele>319.20001220703</ele>
        <time>2019-05-23T08:33:53.000Z</time>
      </trkpt>
      <trkpt lat="43.21783" lon="5.39921">
        <ele>318.79998779297</ele>
        <time>2019-05-23T08:33:54.000Z</time>
      </trkpt>
      <trkpt lat="43.21783" lon="5.39922">
        <ele>318.39999389648</ele>
        <time>2019-05-23T08:33:55.000Z</time>
      </trkpt>
      <trkpt lat="43.21782" lon="5.39922">
        <ele>318</ele>
        <time>2019-05-23T08:33:56.000Z</time>
      </trkpt>
      <trkpt lat="43.21783" lon="5.39931">
        <ele>317</ele>
        <time>2019-05-23T08:34:00.000Z</time>
      </trkpt>
      <trkpt lat="43.21785" lon="5.39937">
        <ele>315.60000610352</ele>
        <time>2019-05-23T08:34:02.000Z</time>
      </trkpt>
      <trkpt lat="43.21787" lon="5.39944">
        <ele>314.20001220703</ele>
        <time>2019-05-23T08:34:05.000Z</time>
      </trkpt>
      <trkpt lat="43.21787" lon="5.39947">
        <ele>313.60000610352</ele>
        <time>2019-05-23T08:34:06.000Z</time>
      </trkpt>
      <trkpt lat="43.21788" lon="5.39949">
        <ele>313.20001220703</ele>
        <time>2019-05-23T08:34:07.000Z</time>
      </trkpt>
      <trkpt lat="43.2179" lon="5.39958">
        <ele>311.79998779297</ele>
        <time>2019-05-23T08:34:10.000Z</time>
      </trkpt>
      <trkpt lat="43.2179" lon="5.39962">
        <ele>311.39999389648</ele>
        <time>2019-05-23T08:34:11.000Z</time>
      </trkpt>
      <trkpt lat="43.21791" lon="5.39969">
        <ele>310.60000610352</ele>
        <time>2019-05-23T08:34:13.000Z</time>
      </trkpt>
      <trkpt lat="43.21793" lon="5.39978">
        <ele>310</ele>
        <time>2019-05-23T08:34:16.000Z</time>
      </trkpt>
      <trkpt lat="43.21798" lon="5.39992">
        <ele>310</ele>
        <time>2019-05-23T08:34:21.000Z</time>
      </trkpt>
      <trkpt lat="43.21799" lon="5.39995">
        <ele>310</ele>
        <time>2019-05-23T08:34:22.000Z</time>
      </trkpt>
      <trkpt lat="43.218" lon="5.40008">
        <ele>310</ele>
        <time>2019-05-23T08:34:26.000Z</time>
      </trkpt>
      <trkpt lat="43.218" lon="5.40011">
        <ele>310</ele>
        <time>2019-05-23T08:34:27.000Z</time>
      </trkpt>
      <trkpt lat="43.21799" lon="5.40017">
        <ele>309.79998779297</ele>
        <time>2019-05-23T08:34:29.000Z</time>
      </trkpt>
      <trkpt lat="43.21796" lon="5.40027">
        <ele>309.39999389648</ele>
        <time>2019-05-23T08:34:32.000Z</time>
      </trkpt>
      <trkpt lat="43.21795" lon="5.40029">
        <ele>309.20001220703</ele>
        <time>2019-05-23T08:34:33.000Z</time>
      </trkpt>
      <trkpt lat="43.2179" lon="5.40037">
        <ele>309</ele>
        <time>2019-05-23T08:34:36.000Z</time>
      </trkpt>
      <trkpt lat="43.21787" lon="5.40042">
        <ele>308.79998779297</ele>
        <time>2019-05-23T08:34:38.000Z</time>
      </trkpt>
      <trkpt lat="43.21784" lon="5.40046">
        <ele>308.39999389648</ele>
        <time>2019-05-23T08:34:40.000Z</time>
      </trkpt>
      <trkpt lat="43.21779" lon="5.4005">
        <ele>307</ele>
        <time>2019-05-23T08:34:43.000Z</time>
      </trkpt>
      <trkpt lat="43.21773" lon="5.40054">
        <ele>306</ele>
        <time>2019-05-23T08:34:46.000Z</time>
      </trkpt>
      <trkpt lat="43.21769" lon="5.40056">
        <ele>305.60000610352</ele>
        <time>2019-05-23T08:34:48.000Z</time>
      </trkpt>
      <trkpt lat="43.21767" lon="5.40061">
        <ele>305.20001220703</ele>
        <time>2019-05-23T08:34:50.000Z</time>
      </trkpt>
      <trkpt lat="43.21766" lon="5.40063">
        <ele>305</ele>
        <time>2019-05-23T08:34:51.000Z</time>
      </trkpt>
      <trkpt lat="43.21766" lon="5.40065">
        <ele>305</ele>
        <time>2019-05-23T08:34:52.000Z</time>
      </trkpt>
      <trkpt lat="43.21763" lon="5.40077">
        <ele>304</ele>
        <time>2019-05-23T08:34:56.000Z</time>
      </trkpt>
      <trkpt lat="43.21763" lon="5.4008">
        <ele>303.39999389648</ele>
        <time>2019-05-23T08:34:57.000Z</time>
      </trkpt>
      <trkpt lat="43.21761" lon="5.40082">
        <ele>303.20001220703</ele>
        <time>2019-05-23T08:34:58.000Z</time>
      </trkpt>
      <trkpt lat="43.21761" lon="5.40084">
        <ele>302.60000610352</ele>
        <time>2019-05-23T08:34:59.000Z</time>
      </trkpt>
      <trkpt lat="43.21761" lon="5.40086">
        <ele>302</ele>
        <time>2019-05-23T08:35:00.000Z</time>
      </trkpt>
      <trkpt lat="43.21761" lon="5.40087">
        <ele>301.39999389648</ele>
        <time>2019-05-23T08:35:01.000Z</time>
      </trkpt>
      <trkpt lat="43.21761" lon="5.40088">
        <ele>301.20001220703</ele>
        <time>2019-05-23T08:35:02.000Z</time>
      </trkpt>
      <trkpt lat="43.21761" lon="5.40093">
        <ele>300.39999389648</ele>
        <time>2019-05-23T08:35:05.000Z</time>
      </trkpt>
      <trkpt lat="43.2176" lon="5.40095">
        <ele>300.20001220703</ele>
        <time>2019-05-23T08:35:06.000Z</time>
      </trkpt>
      <trkpt lat="43.2176" lon="5.40098">
        <ele>300.20001220703</ele>
        <time>2019-05-23T08:35:07.000Z</time>
      </trkpt>
      <trkpt lat="43.21758" lon="5.40111">
        <ele>299.20001220703</ele>
        <time>2019-05-23T08:35:11.000Z</time>
      </trkpt>
      <trkpt lat="43.21759" lon="5.40115">
        <ele>299.20001220703</ele>
        <time>2019-05-23T08:35:12.000Z</time>
      </trkpt>
      <trkpt lat="43.21764" lon="5.4013">
        <ele>298.79998779297</ele>
        <time>2019-05-23T08:35:17.000Z</time>
      </trkpt>
      <trkpt lat="43.21766" lon="5.40134">
        <ele>298.20001220703</ele>
        <time>2019-05-23T08:35:19.000Z</time>
      </trkpt>
      <trkpt lat="43.21766" lon="5.4014">
        <ele>297.60000610352</ele>
        <time>2019-05-23T08:35:21.000Z</time>
      </trkpt>
      <trkpt lat="43.21765" lon="5.40154">
        <ele>297.39999389648</ele>
        <time>2019-05-23T08:35:26.000Z</time>
      </trkpt>
      <trkpt lat="43.21761" lon="5.40166">
        <ele>297.39999389648</ele>
        <time>2019-05-23T08:35:30.000Z</time>
      </trkpt>
      <trkpt lat="43.2176" lon="5.40174">
        <ele>297</ele>
        <time>2019-05-23T08:35:32.000Z</time>
      </trkpt>
      <trkpt lat="43.21758" lon="5.40182">
        <ele>296.39999389648</ele>
        <time>2019-05-23T08:35:35.000Z</time>
      </trkpt>
      <trkpt lat="43.21751" lon="5.40193">
        <ele>296</ele>
        <time>2019-05-23T08:35:40.000Z</time>
      </trkpt>
      <trkpt lat="43.2175" lon="5.40196">
        <ele>295.60000610352</ele>
        <time>2019-05-23T08:35:41.000Z</time>
      </trkpt>
      <trkpt lat="43.2175" lon="5.40209">
        <ele>294.60000610352</ele>
        <time>2019-05-23T08:35:45.000Z</time>
      </trkpt>
      <trkpt lat="43.21752" lon="5.40217">
        <ele>294.20001220703</ele>
        <time>2019-05-23T08:35:47.000Z</time>
      </trkpt>
      <trkpt lat="43.21753" lon="5.40227">
        <ele>293.60000610352</ele>
        <time>2019-05-23T08:35:51.000Z</time>
      </trkpt>
      <trkpt lat="43.21754" lon="5.40233">
        <ele>293.39999389648</ele>
        <time>2019-05-23T08:35:53.000Z</time>
      </trkpt>
      <trkpt lat="43.21755" lon="5.40242">
        <ele>293.39999389648</ele>
        <time>2019-05-23T08:35:56.000Z</time>
      </trkpt>
      <trkpt lat="43.21757" lon="5.40255">
        <ele>293.39999389648</ele>
        <time>2019-05-23T08:36:00.000Z</time>
      </trkpt>
      <trkpt lat="43.21757" lon="5.40267">
        <ele>293</ele>
        <time>2019-05-23T08:36:05.000Z</time>
      </trkpt>
      <trkpt lat="43.21755" lon="5.40268">
        <ele>292.79998779297</ele>
        <time>2019-05-23T08:36:06.000Z</time>
      </trkpt>
      <trkpt lat="43.21754" lon="5.40273">
        <ele>292.60000610352</ele>
        <time>2019-05-23T08:36:08.000Z</time>
      </trkpt>
      <trkpt lat="43.21754" lon="5.40275">
        <ele>292.60000610352</ele>
        <time>2019-05-23T08:36:09.000Z</time>
      </trkpt>
      <trkpt lat="43.21754" lon="5.40281">
        <ele>291.60000610352</ele>
        <time>2019-05-23T08:36:12.000Z</time>
      </trkpt>
      <trkpt lat="43.21754" lon="5.40284">
        <ele>290.20001220703</ele>
        <time>2019-05-23T08:36:15.000Z</time>
      </trkpt>
      <trkpt lat="43.21753" lon="5.40285">
        <ele>289.79998779297</ele>
        <time>2019-05-23T08:36:16.000Z</time>
      </trkpt>
      <trkpt lat="43.21753" lon="5.40285">
        <ele>289.39999389648</ele>
        <time>2019-05-23T08:36:17.000Z</time>
      </trkpt>
      <trkpt lat="43.21752" lon="5.40286">
        <ele>289</ele>
        <time>2019-05-23T08:36:18.000Z</time>
      </trkpt>
      <trkpt lat="43.21752" lon="5.40293">
        <ele>287.79998779297</ele>
        <time>2019-05-23T08:36:22.000Z</time>
      </trkpt>
      <trkpt lat="43.21752" lon="5.40294">
        <ele>287.39999389648</ele>
        <time>2019-05-23T08:36:23.000Z</time>
      </trkpt>
      <trkpt lat="43.21751" lon="5.40296">
        <ele>286.39999389648</ele>
        <time>2019-05-23T08:36:25.000Z</time>
      </trkpt>
      <trkpt lat="43.21752" lon="5.40299">
        <ele>286</ele>
        <time>2019-05-23T08:36:26.000Z</time>
      </trkpt>
      <trkpt lat="43.21753" lon="5.40302">
        <ele>285.39999389648</ele>
        <time>2019-05-23T08:36:27.000Z</time>
      </trkpt>
      <trkpt lat="43.21754" lon="5.40309">
        <ele>284.20001220703</ele>
        <time>2019-05-23T08:36:30.000Z</time>
      </trkpt>
      <trkpt lat="43.21753" lon="5.40312">
        <ele>283.60000610352</ele>
        <time>2019-05-23T08:36:31.000Z</time>
      </trkpt>
      <trkpt lat="43.21752" lon="5.40314">
        <ele>283.20001220703</ele>
        <time>2019-05-23T08:36:32.000Z</time>
      </trkpt>
      <trkpt lat="43.21749" lon="5.40321">
        <ele>282.39999389648</ele>
        <time>2019-05-23T08:36:34.000Z</time>
      </trkpt>
      <trkpt lat="43.21748" lon="5.40323">
        <ele>282.20001220703</ele>
        <time>2019-05-23T08:36:35.000Z</time>
      </trkpt>
      <trkpt lat="43.21747" lon="5.40327">
        <ele>282</ele>
        <time>2019-05-23T08:36:36.000Z</time>
      </trkpt>
      <trkpt lat="43.21743" lon="5.40334">
        <ele>281.60000610352</ele>
        <time>2019-05-23T08:36:39.000Z</time>
      </trkpt>
      <trkpt lat="43.21742" lon="5.40336">
        <ele>281.60000610352</ele>
        <time>2019-05-23T08:36:40.000Z</time>
      </trkpt>
      <trkpt lat="43.2174" lon="5.40343">
        <ele>281</ele>
        <time>2019-05-23T08:36:43.000Z</time>
      </trkpt>
      <trkpt lat="43.21737" lon="5.40345">
        <ele>280.60000610352</ele>
        <time>2019-05-23T08:36:45.000Z</time>
      </trkpt>
      <trkpt lat="43.21736" lon="5.40346">
        <ele>280.20001220703</ele>
        <time>2019-05-23T08:36:46.000Z</time>
      </trkpt>
      <trkpt lat="43.21736" lon="5.40346">
        <ele>279.79998779297</ele>
        <time>2019-05-23T08:36:47.000Z</time>
      </trkpt>
      <trkpt lat="43.21735" lon="5.40347">
        <ele>279.20001220703</ele>
        <time>2019-05-23T08:36:48.000Z</time>
      </trkpt>
      <trkpt lat="43.21734" lon="5.40349">
        <ele>278.60000610352</ele>
        <time>2019-05-23T08:36:49.000Z</time>
      </trkpt>
      <trkpt lat="43.21733" lon="5.40352">
        <ele>278.39999389648</ele>
        <time>2019-05-23T08:36:50.000Z</time>
      </trkpt>
      <trkpt lat="43.21733" lon="5.40356">
        <ele>278.20001220703</ele>
        <time>2019-05-23T08:36:51.000Z</time>
      </trkpt>
      <trkpt lat="43.21734" lon="5.40363">
        <ele>277.39999389648</ele>
        <time>2019-05-23T08:36:53.000Z</time>
      </trkpt>
      <trkpt lat="43.21734" lon="5.40369">
        <ele>276.60000610352</ele>
        <time>2019-05-23T08:36:55.000Z</time>
      </trkpt>
      <trkpt lat="43.21733" lon="5.40372">
        <ele>276.20001220703</ele>
        <time>2019-05-23T08:36:56.000Z</time>
      </trkpt>
      <trkpt lat="43.21732" lon="5.40378">
        <ele>275.60000610352</ele>
        <time>2019-05-23T08:36:59.000Z</time>
      </trkpt>
      <trkpt lat="43.21728" lon="5.40382">
        <ele>274.79998779297</ele>
        <time>2019-05-23T08:37:01.000Z</time>
      </trkpt>
      <trkpt lat="43.21725" lon="5.40386">
        <ele>273.79998779297</ele>
        <time>2019-05-23T08:37:03.000Z</time>
      </trkpt>
      <trkpt lat="43.2172" lon="5.4039">
        <ele>272.79998779297</ele>
        <time>2019-05-23T08:37:06.000Z</time>
      </trkpt>
      <trkpt lat="43.21718" lon="5.4039">
        <ele>272.60000610352</ele>
        <time>2019-05-23T08:37:07.000Z</time>
      </trkpt>
      <trkpt lat="43.21716" lon="5.40392">
        <ele>271.60000610352</ele>
        <time>2019-05-23T08:37:10.000Z</time>
      </trkpt>
      <trkpt lat="43.21714" lon="5.40401">
        <ele>270.20001220703</ele>
        <time>2019-05-23T08:37:13.000Z</time>
      </trkpt>
      <trkpt lat="43.21713" lon="5.40403">
        <ele>270</ele>
        <time>2019-05-23T08:37:14.000Z</time>
      </trkpt>
      <trkpt lat="43.21709" lon="5.40405">
        <ele>269</ele>
        <time>2019-05-23T08:37:16.000Z</time>
      </trkpt>
      <trkpt lat="43.21706" lon="5.40405">
        <ele>267.79998779297</ele>
        <time>2019-05-23T08:37:18.000Z</time>
      </trkpt>
      <trkpt lat="43.21705" lon="5.40405">
        <ele>267.39999389648</ele>
        <time>2019-05-23T08:37:19.000Z</time>
      </trkpt>
      <trkpt lat="43.21704" lon="5.40405">
        <ele>267</ele>
        <time>2019-05-23T08:37:20.000Z</time>
      </trkpt>
      <trkpt lat="43.21704" lon="5.40406">
        <ele>266.60000610352</ele>
        <time>2019-05-23T08:37:21.000Z</time>
      </trkpt>
      <trkpt lat="43.21704" lon="5.40406">
        <ele>266.39999389648</ele>
        <time>2019-05-23T08:37:24.000Z</time>
      </trkpt>
      <trkpt lat="43.21705" lon="5.4041">
        <ele>266</ele>
        <time>2019-05-23T08:37:29.000Z</time>
      </trkpt>
      <trkpt lat="43.21705" lon="5.40411">
        <ele>265.60000610352</ele>
        <time>2019-05-23T08:37:30.000Z</time>
      </trkpt>
      <trkpt lat="43.21705" lon="5.4041">
        <ele>265.20001220703</ele>
        <time>2019-05-23T08:37:31.000Z</time>
      </trkpt>
      <trkpt lat="43.21704" lon="5.4041">
        <ele>264.20001220703</ele>
        <time>2019-05-23T08:37:33.000Z</time>
      </trkpt>
      <trkpt lat="43.21704" lon="5.40411">
        <ele>263.60000610352</ele>
        <time>2019-05-23T08:37:35.000Z</time>
      </trkpt>
      <trkpt lat="43.21703" lon="5.40413">
        <ele>262.79998779297</ele>
        <time>2019-05-23T08:37:37.000Z</time>
      </trkpt>
      <trkpt lat="43.21701" lon="5.40414">
        <ele>261.79998779297</ele>
        <time>2019-05-23T08:37:40.000Z</time>
      </trkpt>
      <trkpt lat="43.217" lon="5.40414">
        <ele>261.20001220703</ele>
        <time>2019-05-23T08:37:42.000Z</time>
      </trkpt>
      <trkpt lat="43.21699" lon="5.40414">
        <ele>260.79998779297</ele>
        <time>2019-05-23T08:37:43.000Z</time>
      </trkpt>
      <trkpt lat="43.21699" lon="5.40417">
        <ele>259.39999389648</ele>
        <time>2019-05-23T08:37:46.000Z</time>
      </trkpt>
      <trkpt lat="43.21699" lon="5.40417">
        <ele>259</ele>
        <time>2019-05-23T08:37:47.000Z</time>
      </trkpt>
      <trkpt lat="43.21698" lon="5.40416">
        <ele>258</ele>
        <time>2019-05-23T08:37:49.000Z</time>
      </trkpt>
      <trkpt lat="43.217" lon="5.40419">
        <ele>257</ele>
        <time>2019-05-23T08:37:51.000Z</time>
      </trkpt>
      <trkpt lat="43.21699" lon="5.40421">
        <ele>256.60000610352</ele>
        <time>2019-05-23T08:37:52.000Z</time>
      </trkpt>
      <trkpt lat="43.21697" lon="5.40422">
        <ele>255.19999694824</ele>
        <time>2019-05-23T08:37:55.000Z</time>
      </trkpt>
      <trkpt lat="43.21697" lon="5.40423">
        <ele>255</ele>
        <time>2019-05-23T08:37:56.000Z</time>
      </trkpt>
      <trkpt lat="43.21694" lon="5.40426">
        <ele>254.19999694824</ele>
        <time>2019-05-23T08:38:00.000Z</time>
      </trkpt>
      <trkpt lat="43.21694" lon="5.40426">
        <ele>253.80000305176</ele>
        <time>2019-05-23T08:38:01.000Z</time>
      </trkpt>
      <trkpt lat="43.21695" lon="5.40428">
        <ele>253.39999389648</ele>
        <time>2019-05-23T08:38:02.000Z</time>
      </trkpt>
      <trkpt lat="43.21695" lon="5.40428">
        <ele>253</ele>
        <time>2019-05-23T08:38:03.000Z</time>
      </trkpt>
      <trkpt lat="43.21692" lon="5.4043">
        <ele>251.60000610352</ele>
        <time>2019-05-23T08:38:06.000Z</time>
      </trkpt>
      <trkpt lat="43.21691" lon="5.40431">
        <ele>250.80000305176</ele>
        <time>2019-05-23T08:38:07.000Z</time>
      </trkpt>
      <trkpt lat="43.2169" lon="5.40431">
        <ele>250.39999389648</ele>
        <time>2019-05-23T08:38:08.000Z</time>
      </trkpt>
      <trkpt lat="43.2169" lon="5.40432">
        <ele>250</ele>
        <time>2019-05-23T08:38:09.000Z</time>
      </trkpt>
      <trkpt lat="43.21687" lon="5.40436">
        <ele>249.19999694824</ele>
        <time>2019-05-23T08:38:12.000Z</time>
      </trkpt>
      <trkpt lat="43.21685" lon="5.40436">
        <ele>249</ele>
        <time>2019-05-23T08:38:13.000Z</time>
      </trkpt>
      <trkpt lat="43.21684" lon="5.40437">
        <ele>248.80000305176</ele>
        <time>2019-05-23T08:38:14.000Z</time>
      </trkpt>
      <trkpt lat="43.21684" lon="5.40438">
        <ele>248.60000610352</ele>
        <time>2019-05-23T08:38:15.000Z</time>
      </trkpt>
      <trkpt lat="43.21684" lon="5.40439">
        <ele>247.80000305176</ele>
        <time>2019-05-23T08:38:17.000Z</time>
      </trkpt>
      <trkpt lat="43.21681" lon="5.40446">
        <ele>246.80000305176</ele>
        <time>2019-05-23T08:47:24.000Z</time>
      </trkpt>
      <trkpt lat="43.2168" lon="5.40445">
        <ele>247.19999694824</ele>
        <time>2019-05-23T08:47:25.000Z</time>
      </trkpt>
      <trkpt lat="43.21679" lon="5.40444">
        <ele>247.80000305176</ele>
        <time>2019-05-23T08:47:26.000Z</time>
      </trkpt>
      <trkpt lat="43.21671" lon="5.40439">
        <ele>247.80000305176</ele>
        <time>2019-05-23T08:47:31.000Z</time>
      </trkpt>
      <trkpt lat="43.2167" lon="5.40438">
        <ele>247.80000305176</ele>
        <time>2019-05-23T08:47:32.000Z</time>
      </trkpt>
      <trkpt lat="43.21669" lon="5.40437">
        <ele>247.60000610352</ele>
        <time>2019-05-23T08:47:33.000Z</time>
      </trkpt>
      <trkpt lat="43.21669" lon="5.40433">
        <ele>247.19999694824</ele>
        <time>2019-05-23T08:47:35.000Z</time>
      </trkpt>
      <trkpt lat="43.2167" lon="5.40427">
        <ele>246.60000610352</ele>
        <time>2019-05-23T08:47:37.000Z</time>
      </trkpt>
      <trkpt lat="43.21666" lon="5.40417">
        <ele>245.39999389648</ele>
        <time>2019-05-23T08:47:40.000Z</time>
      </trkpt>
      <trkpt lat="43.21671" lon="5.40417">
        <ele>244.60000610352</ele>
        <time>2019-05-23T08:47:42.000Z</time>
      </trkpt>
      <trkpt lat="43.21669" lon="5.40416">
        <ele>244.39999389648</ele>
        <time>2019-05-23T08:47:43.000Z</time>
      </trkpt>
      <trkpt lat="43.21668" lon="5.40413">
        <ele>243.80000305176</ele>
        <time>2019-05-23T08:47:45.000Z</time>
      </trkpt>
      <trkpt lat="43.21668" lon="5.4041">
        <ele>243.60000610352</ele>
        <time>2019-05-23T08:47:46.000Z</time>
      </trkpt>
      <trkpt lat="43.21669" lon="5.40408">
        <ele>243.19999694824</ele>
        <time>2019-05-23T08:47:47.000Z</time>
      </trkpt>
      <trkpt lat="43.2167" lon="5.40406">
        <ele>243</ele>
        <time>2019-05-23T08:47:48.000Z</time>
      </trkpt>
      <trkpt lat="43.21672" lon="5.40403">
        <ele>242.39999389648</ele>
        <time>2019-05-23T08:47:50.000Z</time>
      </trkpt>
      <trkpt lat="43.21673" lon="5.40402">
        <ele>242</ele>
        <time>2019-05-23T08:47:51.000Z</time>
      </trkpt>
      <trkpt lat="43.21677" lon="5.40402">
        <ele>241.19999694824</ele>
        <time>2019-05-23T08:47:53.000Z</time>
      </trkpt>
      <trkpt lat="43.21678" lon="5.40403">
        <ele>240.80000305176</ele>
        <time>2019-05-23T08:47:54.000Z</time>
      </trkpt>
      <trkpt lat="43.21681" lon="5.40405">
        <ele>240.39999389648</ele>
        <time>2019-05-23T08:47:56.000Z</time>
      </trkpt>
      <trkpt lat="43.21681" lon="5.40405">
        <ele>240.19999694824</ele>
        <time>2019-05-23T08:47:57.000Z</time>
      </trkpt>
      <trkpt lat="43.21682" lon="5.40403">
        <ele>240.19999694824</ele>
        <time>2019-05-23T08:47:59.000Z</time>
      </trkpt>
      <trkpt lat="43.21684" lon="5.40402">
        <ele>239.80000305176</ele>
        <time>2019-05-23T08:48:01.000Z</time>
      </trkpt>
      <trkpt lat="43.21683" lon="5.40401">
        <ele>239.60000610352</ele>
        <time>2019-05-23T08:48:02.000Z</time>
      </trkpt>
      <trkpt lat="43.21683" lon="5.40401">
        <ele>239.19999694824</ele>
        <time>2019-05-23T08:48:03.000Z</time>
      </trkpt>
      <trkpt lat="43.21684" lon="5.404">
        <ele>238.60000610352</ele>
        <time>2019-05-23T08:48:05.000Z</time>
      </trkpt>
      <trkpt lat="43.21685" lon="5.40401">
        <ele>238.39999389648</ele>
        <time>2019-05-23T08:48:06.000Z</time>
      </trkpt>
      <trkpt lat="43.21684" lon="5.404">
        <ele>238.19999694824</ele>
        <time>2019-05-23T08:48:07.000Z</time>
      </trkpt>
      <trkpt lat="43.21681" lon="5.40396">
        <ele>237.19999694824</ele>
        <time>2019-05-23T08:48:10.000Z</time>
      </trkpt>
      <trkpt lat="43.21681" lon="5.40393">
        <ele>236.39999389648</ele>
        <time>2019-05-23T08:48:12.000Z</time>
      </trkpt>
      <trkpt lat="43.21678" lon="5.40391">
        <ele>235.80000305176</ele>
        <time>2019-05-23T08:48:14.000Z</time>
      </trkpt>
      <trkpt lat="43.21675" lon="5.40386">
        <ele>234.39999389648</ele>
        <time>2019-05-23T08:48:17.000Z</time>
      </trkpt>
      <trkpt lat="43.21675" lon="5.40379">
        <ele>233.39999389648</ele>
        <time>2019-05-23T08:48:19.000Z</time>
      </trkpt>
      <trkpt lat="43.21674" lon="5.40377">
        <ele>233.19999694824</ele>
        <time>2019-05-23T08:48:20.000Z</time>
      </trkpt>
      <trkpt lat="43.21671" lon="5.40358">
        <ele>231.80000305176</ele>
        <time>2019-05-23T08:48:25.000Z</time>
      </trkpt>
      <trkpt lat="43.2167" lon="5.40352">
        <ele>231.80000305176</ele>
        <time>2019-05-23T08:48:27.000Z</time>
      </trkpt>
      <trkpt lat="43.21671" lon="5.40345">
        <ele>232</ele>
        <time>2019-05-23T08:48:30.000Z</time>
      </trkpt>
      <trkpt lat="43.21669" lon="5.40343">
        <ele>232.19999694824</ele>
        <time>2019-05-23T08:48:32.000Z</time>
      </trkpt>
      <trkpt lat="43.21666" lon="5.40339">
        <ele>232.39999389648</ele>
        <time>2019-05-23T08:48:35.000Z</time>
      </trkpt>
      <trkpt lat="43.21663" lon="5.40333">
        <ele>232</ele>
        <time>2019-05-23T08:48:37.000Z</time>
      </trkpt>
      <trkpt lat="43.21664" lon="5.40326">
        <ele>231.39999389648</ele>
        <time>2019-05-23T08:48:40.000Z</time>
      </trkpt>
      <trkpt lat="43.21665" lon="5.40324">
        <ele>230.80000305176</ele>
        <time>2019-05-23T08:48:41.000Z</time>
      </trkpt>
      <trkpt lat="43.21666" lon="5.40319">
        <ele>229.80000305176</ele>
        <time>2019-05-23T08:48:44.000Z</time>
      </trkpt>
      <trkpt lat="43.21668" lon="5.40315">
        <ele>229</ele>
        <time>2019-05-23T08:48:46.000Z</time>
      </trkpt>
      <trkpt lat="43.21668" lon="5.40314">
        <ele>228.60000610352</ele>
        <time>2019-05-23T08:48:47.000Z</time>
      </trkpt>
      <trkpt lat="43.21667" lon="5.40312">
        <ele>228</ele>
        <time>2019-05-23T08:48:49.000Z</time>
      </trkpt>
      <trkpt lat="43.21666" lon="5.40311">
        <ele>227.80000305176</ele>
        <time>2019-05-23T08:48:50.000Z</time>
      </trkpt>
      <trkpt lat="43.21664" lon="5.40309">
        <ele>227.19999694824</ele>
        <time>2019-05-23T08:48:51.000Z</time>
      </trkpt>
      <trkpt lat="43.21663" lon="5.40307">
        <ele>226.60000610352</ele>
        <time>2019-05-23T08:48:53.000Z</time>
      </trkpt>
      <trkpt lat="43.21662" lon="5.40304">
        <ele>226</ele>
        <time>2019-05-23T08:48:55.000Z</time>
      </trkpt>
      <trkpt lat="43.21662" lon="5.403">
        <ele>225</ele>
        <time>2019-05-23T08:48:57.000Z</time>
      </trkpt>
      <trkpt lat="43.21661" lon="5.40298">
        <ele>224.60000610352</ele>
        <time>2019-05-23T08:48:58.000Z</time>
      </trkpt>
      <trkpt lat="43.21659" lon="5.40294">
        <ele>223.60000610352</ele>
        <time>2019-05-23T08:49:00.000Z</time>
      </trkpt>
      <trkpt lat="43.21658" lon="5.4029">
        <ele>222.60000610352</ele>
        <time>2019-05-23T08:49:02.000Z</time>
      </trkpt>
      <trkpt lat="43.21659" lon="5.40288">
        <ele>222</ele>
        <time>2019-05-23T08:49:03.000Z</time>
      </trkpt>
      <trkpt lat="43.21659" lon="5.40287">
        <ele>221.60000610352</ele>
        <time>2019-05-23T08:49:04.000Z</time>
      </trkpt>
      <trkpt lat="43.2166" lon="5.40286">
        <ele>221.19999694824</ele>
        <time>2019-05-23T08:49:05.000Z</time>
      </trkpt>
      <trkpt lat="43.21661" lon="5.40284">
        <ele>220.80000305176</ele>
        <time>2019-05-23T08:49:06.000Z</time>
      </trkpt>
      <trkpt lat="43.21661" lon="5.40283">
        <ele>220.39999389648</ele>
        <time>2019-05-23T08:49:07.000Z</time>
      </trkpt>
      <trkpt lat="43.21663" lon="5.40279">
        <ele>219.80000305176</ele>
        <time>2019-05-23T08:49:09.000Z</time>
      </trkpt>
      <trkpt lat="43.21664" lon="5.40273">
        <ele>219.19999694824</ele>
        <time>2019-05-23T08:49:11.000Z</time>
      </trkpt>
      <trkpt lat="43.21665" lon="5.40266">
        <ele>217.80000305176</ele>
        <time>2019-05-23T08:49:14.000Z</time>
      </trkpt>
      <trkpt lat="43.21665" lon="5.40263">
        <ele>217.19999694824</ele>
        <time>2019-05-23T08:49:16.000Z</time>
      </trkpt>
      <trkpt lat="43.21665" lon="5.40262">
        <ele>217</ele>
        <time>2019-05-23T08:49:17.000Z</time>
      </trkpt>
      <trkpt lat="43.21665" lon="5.4026">
        <ele>216.60000610352</ele>
        <time>2019-05-23T08:49:18.000Z</time>
      </trkpt>
      <trkpt lat="43.21666" lon="5.40256">
        <ele>216.19999694824</ele>
        <time>2019-05-23T08:49:20.000Z</time>
      </trkpt>
      <trkpt lat="43.21667" lon="5.40251">
        <ele>215.80000305176</ele>
        <time>2019-05-23T08:49:22.000Z</time>
      </trkpt>
      <trkpt lat="43.21667" lon="5.40246">
        <ele>215.60000610352</ele>
        <time>2019-05-23T08:49:24.000Z</time>
      </trkpt>
      <trkpt lat="43.21667" lon="5.40242">
        <ele>215.39999389648</ele>
        <time>2019-05-23T08:49:26.000Z</time>
      </trkpt>
      <trkpt lat="43.21664" lon="5.40234">
        <ele>215.60000610352</ele>
        <time>2019-05-23T08:49:28.000Z</time>
      </trkpt>
      <trkpt lat="43.21657" lon="5.40218">
        <ele>216</ele>
        <time>2019-05-23T08:49:32.000Z</time>
      </trkpt>
      <trkpt lat="43.21653" lon="5.4021">
        <ele>216</ele>
        <time>2019-05-23T08:49:34.000Z</time>
      </trkpt>
      <trkpt lat="43.21651" lon="5.40206">
        <ele>216</ele>
        <time>2019-05-23T08:49:36.000Z</time>
      </trkpt>
      <trkpt lat="43.21652" lon="5.40203">
        <ele>215.80000305176</ele>
        <time>2019-05-23T08:49:37.000Z</time>
      </trkpt>
      <trkpt lat="43.21653" lon="5.40193">
        <ele>215.39999389648</ele>
        <time>2019-05-23T08:49:42.000Z</time>
      </trkpt>
      <trkpt lat="43.21652" lon="5.40187">
        <ele>214.39999389648</ele>
        <time>2019-05-23T08:49:46.000Z</time>
      </trkpt>
      <trkpt lat="43.2165" lon="5.40184">
        <ele>214.19999694824</ele>
        <time>2019-05-23T08:49:47.000Z</time>
      </trkpt>
      <trkpt lat="43.21646" lon="5.40179">
        <ele>213.39999389648</ele>
        <time>2019-05-23T08:49:49.000Z</time>
      </trkpt>
      <trkpt lat="43.21637" lon="5.40168">
        <ele>212.60000610352</ele>
        <time>2019-05-23T08:49:53.000Z</time>
      </trkpt>
      <trkpt lat="43.21634" lon="5.40166">
        <ele>212.19999694824</ele>
        <time>2019-05-23T08:49:54.000Z</time>
      </trkpt>
      <trkpt lat="43.21633" lon="5.4016">
        <ele>212.39999389648</ele>
        <time>2019-05-23T08:49:57.000Z</time>
      </trkpt>
      <trkpt lat="43.21635" lon="5.40157">
        <ele>212.39999389648</ele>
        <time>2019-05-23T08:49:58.000Z</time>
      </trkpt>
      <trkpt lat="43.21634" lon="5.40151">
        <ele>213.39999389648</ele>
        <time>2019-05-23T08:50:02.000Z</time>
      </trkpt>
      <trkpt lat="43.21631" lon="5.40145">
        <ele>214.39999389648</ele>
        <time>2019-05-23T08:50:04.000Z</time>
      </trkpt>
      <trkpt lat="43.21629" lon="5.40143">
        <ele>214.60000610352</ele>
        <time>2019-05-23T08:50:05.000Z</time>
      </trkpt>
      <trkpt lat="43.21626" lon="5.40134">
        <ele>214.80000305176</ele>
        <time>2019-05-23T08:50:09.000Z</time>
      </trkpt>
      <trkpt lat="43.21626" lon="5.40131">
        <ele>214.39999389648</ele>
        <time>2019-05-23T08:50:10.000Z</time>
      </trkpt>
      <trkpt lat="43.21627" lon="5.40123">
        <ele>213.39999389648</ele>
        <time>2019-05-23T08:50:12.000Z</time>
      </trkpt>
      <trkpt lat="43.21628" lon="5.40113">
        <ele>212.60000610352</ele>
        <time>2019-05-23T08:50:16.000Z</time>
      </trkpt>
      <trkpt lat="43.21629" lon="5.4011">
        <ele>212.60000610352</ele>
        <time>2019-05-23T08:50:17.000Z</time>
      </trkpt>
      <trkpt lat="43.21629" lon="5.40107">
        <ele>212.39999389648</ele>
        <time>2019-05-23T08:50:19.000Z</time>
      </trkpt>
      <trkpt lat="43.21627" lon="5.40105">
        <ele>212.39999389648</ele>
        <time>2019-05-23T08:50:21.000Z</time>
      </trkpt>
      <trkpt lat="43.21627" lon="5.40103">
        <ele>212.39999389648</ele>
        <time>2019-05-23T08:50:22.000Z</time>
      </trkpt>
      <trkpt lat="43.21626" lon="5.40099">
        <ele>212.39999389648</ele>
        <time>2019-05-23T08:50:23.000Z</time>
      </trkpt>
      <trkpt lat="43.21625" lon="5.4009">
        <ele>212.39999389648</ele>
        <time>2019-05-23T08:50:26.000Z</time>
      </trkpt>
      <trkpt lat="43.21624" lon="5.40083">
        <ele>212</ele>
        <time>2019-05-23T08:50:29.000Z</time>
      </trkpt>
      <trkpt lat="43.2162" lon="5.4008">
        <ele>212.39999389648</ele>
        <time>2019-05-23T08:50:31.000Z</time>
      </trkpt>
      <trkpt lat="43.21618" lon="5.40077">
        <ele>212.39999389648</ele>
        <time>2019-05-23T08:50:32.000Z</time>
      </trkpt>
      <trkpt lat="43.21608" lon="5.40067">
        <ele>213.39999389648</ele>
        <time>2019-05-23T08:50:36.000Z</time>
      </trkpt>
      <trkpt lat="43.21605" lon="5.40063">
        <ele>213.60000610352</ele>
        <time>2019-05-23T08:50:37.000Z</time>
      </trkpt>
      <trkpt lat="43.21606" lon="5.40057">
        <ele>213.60000610352</ele>
        <time>2019-05-23T08:50:41.000Z</time>
      </trkpt>
      <trkpt lat="43.21609" lon="5.40055">
        <ele>214</ele>
        <time>2019-05-23T08:50:44.000Z</time>
      </trkpt>
      <trkpt lat="43.21611" lon="5.4005">
        <ele>214.19999694824</ele>
        <time>2019-05-23T08:50:46.000Z</time>
      </trkpt>
      <trkpt lat="43.21619" lon="5.40037">
        <ele>213.39999389648</ele>
        <time>2019-05-23T08:50:51.000Z</time>
      </trkpt>
      <trkpt lat="43.21614" lon="5.40027">
        <ele>212.19999694824</ele>
        <time>2019-05-23T08:50:55.000Z</time>
      </trkpt>
      <trkpt lat="43.21613" lon="5.40022">
        <ele>211.60000610352</ele>
        <time>2019-05-23T08:50:57.000Z</time>
      </trkpt>
      <trkpt lat="43.21613" lon="5.40016">
        <ele>211.19999694824</ele>
        <time>2019-05-23T08:50:59.000Z</time>
      </trkpt>
      <trkpt lat="43.21616" lon="5.40007">
        <ele>210.60000610352</ele>
        <time>2019-05-23T08:51:02.000Z</time>
      </trkpt>
      <trkpt lat="43.21618" lon="5.40005">
        <ele>210.39999389648</ele>
        <time>2019-05-23T08:51:03.000Z</time>
      </trkpt>
      <trkpt lat="43.21622" lon="5.40003">
        <ele>210.19999694824</ele>
        <time>2019-05-23T08:51:04.000Z</time>
      </trkpt>
      <trkpt lat="43.21617" lon="5.40002">
        <ele>209.80000305176</ele>
        <time>2019-05-23T08:51:05.000Z</time>
      </trkpt>
      <trkpt lat="43.21618" lon="5.39998">
        <ele>209.39999389648</ele>
        <time>2019-05-23T08:51:07.000Z</time>
      </trkpt>
      <trkpt lat="43.21615" lon="5.39995">
        <ele>209</ele>
        <time>2019-05-23T08:51:09.000Z</time>
      </trkpt>
      <trkpt lat="43.21613" lon="5.39992">
        <ele>208.39999389648</ele>
        <time>2019-05-23T08:51:11.000Z</time>
      </trkpt>
      <trkpt lat="43.21612" lon="5.39989">
        <ele>208</ele>
        <time>2019-05-23T08:51:12.000Z</time>
      </trkpt>
      <trkpt lat="43.21602" lon="5.39981">
        <ele>206.80000305176</ele>
        <time>2019-05-23T08:51:16.000Z</time>
      </trkpt>
      <trkpt lat="43.216" lon="5.39979">
        <ele>206.60000610352</ele>
        <time>2019-05-23T08:51:17.000Z</time>
      </trkpt>
      <trkpt lat="43.21593" lon="5.3997">
        <ele>207.19999694824</ele>
        <time>2019-05-23T08:51:22.000Z</time>
      </trkpt>
      <trkpt lat="43.21592" lon="5.39968">
        <ele>207.60000610352</ele>
        <time>2019-05-23T08:51:23.000Z</time>
      </trkpt>
      <trkpt lat="43.21591" lon="5.39967">
        <ele>208.19999694824</ele>
        <time>2019-05-23T08:51:24.000Z</time>
      </trkpt>
      <trkpt lat="43.21583" lon="5.39955">
        <ele>208.80000305176</ele>
        <time>2019-05-23T08:51:29.000Z</time>
      </trkpt>
      <trkpt lat="43.21579" lon="5.39943">
        <ele>208.19999694824</ele>
        <time>2019-05-23T08:51:34.000Z</time>
      </trkpt>
      <trkpt lat="43.21577" lon="5.39934">
        <ele>209</ele>
        <time>2019-05-23T08:51:38.000Z</time>
      </trkpt>
      <trkpt lat="43.21579" lon="5.3993">
        <ele>209.19999694824</ele>
        <time>2019-05-23T08:51:40.000Z</time>
      </trkpt>
      <trkpt lat="43.21584" lon="5.39919">
        <ele>209.19999694824</ele>
        <time>2019-05-23T08:51:45.000Z</time>
      </trkpt>
      <trkpt lat="43.21586" lon="5.39918">
        <ele>209.19999694824</ele>
        <time>2019-05-23T08:51:46.000Z</time>
      </trkpt>
      <trkpt lat="43.21586" lon="5.39912">
        <ele>208.80000305176</ele>
        <time>2019-05-23T08:51:49.000Z</time>
      </trkpt>
      <trkpt lat="43.21584" lon="5.39907">
        <ele>208.60000610352</ele>
        <time>2019-05-23T08:51:51.000Z</time>
      </trkpt>
      <trkpt lat="43.21576" lon="5.39893">
        <ele>208.39999389648</ele>
        <time>2019-05-23T08:51:57.000Z</time>
      </trkpt>
      <trkpt lat="43.21574" lon="5.39888">
        <ele>208.39999389648</ele>
        <time>2019-05-23T08:51:59.000Z</time>
      </trkpt>
      <trkpt lat="43.21573" lon="5.39886">
        <ele>208.39999389648</ele>
        <time>2019-05-23T08:52:00.000Z</time>
      </trkpt>
      <trkpt lat="43.21569" lon="5.39882">
        <ele>208.39999389648</ele>
        <time>2019-05-23T08:52:03.000Z</time>
      </trkpt>
      <trkpt lat="43.21564" lon="5.3987">
        <ele>209.19999694824</ele>
        <time>2019-05-23T08:52:09.000Z</time>
      </trkpt>
      <trkpt lat="43.21564" lon="5.39867">
        <ele>209.39999389648</ele>
        <time>2019-05-23T08:52:10.000Z</time>
      </trkpt>
      <trkpt lat="43.21564" lon="5.39862">
        <ele>210</ele>
        <time>2019-05-23T08:52:13.000Z</time>
      </trkpt>
      <trkpt lat="43.21565" lon="5.3986">
        <ele>210.19999694824</ele>
        <time>2019-05-23T08:52:14.000Z</time>
      </trkpt>
      <trkpt lat="43.21569" lon="5.3985">
        <ele>211.39999389648</ele>
        <time>2019-05-23T08:52:19.000Z</time>
      </trkpt>
      <trkpt lat="43.21571" lon="5.39849">
        <ele>211.39999389648</ele>
        <time>2019-05-23T08:52:20.000Z</time>
      </trkpt>
      <trkpt lat="43.2158" lon="5.39844">
        <ele>211.80000305176</ele>
        <time>2019-05-23T08:52:25.000Z</time>
      </trkpt>
      <trkpt lat="43.21582" lon="5.39837">
        <ele>211.80000305176</ele>
        <time>2019-05-23T08:52:28.000Z</time>
      </trkpt>
      <trkpt lat="43.21585" lon="5.3983">
        <ele>211.80000305176</ele>
        <time>2019-05-23T08:52:31.000Z</time>
      </trkpt>
      <trkpt lat="43.21587" lon="5.39822">
        <ele>212</ele>
        <time>2019-05-23T08:52:35.000Z</time>
      </trkpt>
      <trkpt lat="43.21588" lon="5.39821">
        <ele>212</ele>
        <time>2019-05-23T08:52:36.000Z</time>
      </trkpt>
      <trkpt lat="43.21589" lon="5.3982">
        <ele>212</ele>
        <time>2019-05-23T08:52:37.000Z</time>
      </trkpt>
      <trkpt lat="43.21599" lon="5.39816">
        <ele>211.39999389648</ele>
        <time>2019-05-23T08:52:42.000Z</time>
      </trkpt>
      <trkpt lat="43.21603" lon="5.39811">
        <ele>211</ele>
        <time>2019-05-23T08:52:45.000Z</time>
      </trkpt>
      <trkpt lat="43.21605" lon="5.39808">
        <ele>211</ele>
        <time>2019-05-23T08:52:47.000Z</time>
      </trkpt>
      <trkpt lat="43.21611" lon="5.39795">
        <ele>212.39999389648</ele>
        <time>2019-05-23T08:52:53.000Z</time>
      </trkpt>
      <trkpt lat="43.21612" lon="5.39793">
        <ele>212.39999389648</ele>
        <time>2019-05-23T08:52:54.000Z</time>
      </trkpt>
      <trkpt lat="43.21619" lon="5.39784">
        <ele>211.39999389648</ele>
        <time>2019-05-23T08:52:59.000Z</time>
      </trkpt>
      <trkpt lat="43.21624" lon="5.3978">
        <ele>212.60000610352</ele>
        <time>2019-05-23T08:53:05.000Z</time>
      </trkpt>
      <trkpt lat="43.21626" lon="5.39775">
        <ele>212.80000305176</ele>
        <time>2019-05-23T08:53:09.000Z</time>
      </trkpt>
      <trkpt lat="43.21628" lon="5.39772">
        <ele>213</ele>
        <time>2019-05-23T08:53:11.000Z</time>
      </trkpt>
      <trkpt lat="43.2163" lon="5.39771">
        <ele>213.19999694824</ele>
        <time>2019-05-23T08:53:12.000Z</time>
      </trkpt>
      <trkpt lat="43.2163" lon="5.3977">
        <ele>213.39999389648</ele>
        <time>2019-05-23T08:53:13.000Z</time>
      </trkpt>
      <trkpt lat="43.21632" lon="5.39768">
        <ele>214.19999694824</ele>
        <time>2019-05-23T08:53:17.000Z</time>
      </trkpt>
      <trkpt lat="43.21633" lon="5.39768">
        <ele>214.39999389648</ele>
        <time>2019-05-23T08:53:18.000Z</time>
      </trkpt>
      <trkpt lat="43.21634" lon="5.39765">
        <ele>215.60000610352</ele>
        <time>2019-05-23T08:53:23.000Z</time>
      </trkpt>
      <trkpt lat="43.21634" lon="5.39764">
        <ele>216</ele>
        <time>2019-05-23T08:53:24.000Z</time>
      </trkpt>
      <trkpt lat="43.21635" lon="5.3976">
        <ele>216.80000305176</ele>
        <time>2019-05-23T08:53:28.000Z</time>
      </trkpt>
      <trkpt lat="43.21636" lon="5.3976">
        <ele>217</ele>
        <time>2019-05-23T08:53:29.000Z</time>
      </trkpt>
      <trkpt lat="43.21637" lon="5.39759">
        <ele>217.39999389648</ele>
        <time>2019-05-23T08:53:30.000Z</time>
      </trkpt>
      <trkpt lat="43.21637" lon="5.39757">
        <ele>217.80000305176</ele>
        <time>2019-05-23T08:53:32.000Z</time>
      </trkpt>
      <trkpt lat="43.21637" lon="5.39755">
        <ele>218.60000610352</ele>
        <time>2019-05-23T08:53:36.000Z</time>
      </trkpt>
      <trkpt lat="43.21638" lon="5.39754">
        <ele>218.80000305176</ele>
        <time>2019-05-23T08:53:37.000Z</time>
      </trkpt>
      <trkpt lat="43.2164" lon="5.39754">
        <ele>219.39999389648</ele>
        <time>2019-05-23T08:53:41.000Z</time>
      </trkpt>
      <trkpt lat="43.2164" lon="5.39752">
        <ele>220.19999694824</ele>
        <time>2019-05-23T08:53:43.000Z</time>
      </trkpt>
      <trkpt lat="43.21639" lon="5.39751">
        <ele>220.39999389648</ele>
        <time>2019-05-23T08:53:44.000Z</time>
      </trkpt>
      <trkpt lat="43.21634" lon="5.39749">
        <ele>221.39999389648</ele>
        <time>2019-05-23T08:53:49.000Z</time>
      </trkpt>
      <trkpt lat="43.2163" lon="5.39745">
        <ele>222.60000610352</ele>
        <time>2019-05-23T08:53:53.000Z</time>
      </trkpt>
      <trkpt lat="43.21629" lon="5.39744">
        <ele>222.60000610352</ele>
        <time>2019-05-23T08:53:54.000Z</time>
      </trkpt>
      <trkpt lat="43.21627" lon="5.39741">
        <ele>223</ele>
        <time>2019-05-23T08:53:56.000Z</time>
      </trkpt>
      <trkpt lat="43.21627" lon="5.39738">
        <ele>223.60000610352</ele>
        <time>2019-05-23T08:53:58.000Z</time>
      </trkpt>
      <trkpt lat="43.21627" lon="5.39733">
        <ele>224</ele>
        <time>2019-05-23T08:54:00.000Z</time>
      </trkpt>
      <trkpt lat="43.21626" lon="5.39729">
        <ele>224.80000305176</ele>
        <time>2019-05-23T08:54:03.000Z</time>
      </trkpt>
      <trkpt lat="43.21625" lon="5.39728">
        <ele>225</ele>
        <time>2019-05-23T08:54:04.000Z</time>
      </trkpt>
      <trkpt lat="43.21626" lon="5.39726">
        <ele>225.39999389648</ele>
        <time>2019-05-23T08:54:06.000Z</time>
      </trkpt>
      <trkpt lat="43.21627" lon="5.39723">
        <ele>226</ele>
        <time>2019-05-23T08:54:10.000Z</time>
      </trkpt>
      <trkpt lat="43.21626" lon="5.39722">
        <ele>226.39999389648</ele>
        <time>2019-05-23T08:54:11.000Z</time>
      </trkpt>
      <trkpt lat="43.21627" lon="5.39721">
        <ele>226.60000610352</ele>
        <time>2019-05-23T08:54:12.000Z</time>
      </trkpt>
      <trkpt lat="43.21627" lon="5.39719">
        <ele>227</ele>
        <time>2019-05-23T08:54:13.000Z</time>
      </trkpt>
      <trkpt lat="43.21627" lon="5.39718">
        <ele>227</ele>
        <time>2019-05-23T08:54:14.000Z</time>
      </trkpt>
      <trkpt lat="43.2163" lon="5.39713">
        <ele>227.80000305176</ele>
        <time>2019-05-23T08:54:18.000Z</time>
      </trkpt>
      <trkpt lat="43.21631" lon="5.39714">
        <ele>228.19999694824</ele>
        <time>2019-05-23T08:54:20.000Z</time>
      </trkpt>
      <trkpt lat="43.21632" lon="5.39716">
        <ele>228.80000305176</ele>
        <time>2019-05-23T08:54:24.000Z</time>
      </trkpt>
      <trkpt lat="43.21633" lon="5.39715">
        <ele>229</ele>
        <time>2019-05-23T08:54:25.000Z</time>
      </trkpt>
      <trkpt lat="43.21634" lon="5.39714">
        <ele>229.39999389648</ele>
        <time>2019-05-23T08:54:26.000Z</time>
      </trkpt>
      <trkpt lat="43.21636" lon="5.39711">
        <ele>229.80000305176</ele>
        <time>2019-05-23T08:54:29.000Z</time>
      </trkpt>
      <trkpt lat="43.21636" lon="5.39707">
        <ele>230.19999694824</ele>
        <time>2019-05-23T08:54:31.000Z</time>
      </trkpt>
      <trkpt lat="43.21638" lon="5.39704">
        <ele>230.39999389648</ele>
        <time>2019-05-23T08:54:33.000Z</time>
      </trkpt>
      <trkpt lat="43.21641" lon="5.39696">
        <ele>231.19999694824</ele>
        <time>2019-05-23T08:54:38.000Z</time>
      </trkpt>
      <trkpt lat="43.21642" lon="5.39695">
        <ele>231.39999389648</ele>
        <time>2019-05-23T08:54:39.000Z</time>
      </trkpt>
      <trkpt lat="43.21646" lon="5.39691">
        <ele>232.39999389648</ele>
        <time>2019-05-23T08:54:44.000Z</time>
      </trkpt>
      <trkpt lat="43.21645" lon="5.3969">
        <ele>232.80000305176</ele>
        <time>2019-05-23T08:54:47.000Z</time>
      </trkpt>
      <trkpt lat="43.21647" lon="5.39686">
        <ele>233.39999389648</ele>
        <time>2019-05-23T08:54:49.000Z</time>
      </trkpt>
      <trkpt lat="43.21648" lon="5.39685">
        <ele>233.60000610352</ele>
        <time>2019-05-23T08:54:50.000Z</time>
      </trkpt>
      <trkpt lat="43.21645" lon="5.39682">
        <ele>234.19999694824</ele>
        <time>2019-05-23T08:54:53.000Z</time>
      </trkpt>
      <trkpt lat="43.21649" lon="5.39679">
        <ele>234.60000610352</ele>
        <time>2019-05-23T08:54:55.000Z</time>
      </trkpt>
      <trkpt lat="43.2165" lon="5.39678">
        <ele>235</ele>
        <time>2019-05-23T08:54:57.000Z</time>
      </trkpt>
      <trkpt lat="43.2165" lon="5.39677">
        <ele>235.39999389648</ele>
        <time>2019-05-23T08:54:58.000Z</time>
      </trkpt>
      <trkpt lat="43.2165" lon="5.39676">
        <ele>235.80000305176</ele>
        <time>2019-05-23T08:54:59.000Z</time>
      </trkpt>
      <trkpt lat="43.21649" lon="5.39668">
        <ele>235.80000305176</ele>
        <time>2019-05-23T08:55:03.000Z</time>
      </trkpt>
      <trkpt lat="43.21648" lon="5.39661">
        <ele>234.80000305176</ele>
        <time>2019-05-23T08:55:06.000Z</time>
      </trkpt>
      <trkpt lat="43.21648" lon="5.39659">
        <ele>234.19999694824</ele>
        <time>2019-05-23T08:55:07.000Z</time>
      </trkpt>
      <trkpt lat="43.21649" lon="5.39657">
        <ele>234</ele>
        <time>2019-05-23T08:55:08.000Z</time>
      </trkpt>
      <trkpt lat="43.21651" lon="5.3965">
        <ele>233.19999694824</ele>
        <time>2019-05-23T08:55:11.000Z</time>
      </trkpt>
      <trkpt lat="43.21651" lon="5.39644">
        <ele>232.80000305176</ele>
        <time>2019-05-23T08:55:13.000Z</time>
      </trkpt>
      <trkpt lat="43.21651" lon="5.39641">
        <ele>232.60000610352</ele>
        <time>2019-05-23T08:55:14.000Z</time>
      </trkpt>
      <trkpt lat="43.21652" lon="5.39631">
        <ele>232</ele>
        <time>2019-05-23T08:55:18.000Z</time>
      </trkpt>
      <trkpt lat="43.21653" lon="5.39628">
        <ele>231.80000305176</ele>
        <time>2019-05-23T08:55:20.000Z</time>
      </trkpt>
      <trkpt lat="43.21654" lon="5.39621">
        <ele>231.19999694824</ele>
        <time>2019-05-23T08:55:23.000Z</time>
      </trkpt>
      <trkpt lat="43.21655" lon="5.39619">
        <ele>231</ele>
        <time>2019-05-23T08:55:24.000Z</time>
      </trkpt>
      <trkpt lat="43.21656" lon="5.39616">
        <ele>230.80000305176</ele>
        <time>2019-05-23T08:55:25.000Z</time>
      </trkpt>
      <trkpt lat="43.21657" lon="5.39613">
        <ele>230.60000610352</ele>
        <time>2019-05-23T08:55:26.000Z</time>
      </trkpt>
      <trkpt lat="43.21659" lon="5.39609">
        <ele>229.60000610352</ele>
        <time>2019-05-23T08:55:28.000Z</time>
      </trkpt>
      <trkpt lat="43.21659" lon="5.39607">
        <ele>229.19999694824</ele>
        <time>2019-05-23T08:55:29.000Z</time>
      </trkpt>
      <trkpt lat="43.21659" lon="5.39601">
        <ele>228.39999389648</ele>
        <time>2019-05-23T08:55:31.000Z</time>
      </trkpt>
      <trkpt lat="43.2166" lon="5.39587">
        <ele>227.80000305176</ele>
        <time>2019-05-23T08:55:35.000Z</time>
      </trkpt>
      <trkpt lat="43.21663" lon="5.39583">
        <ele>227.19999694824</ele>
        <time>2019-05-23T08:55:37.000Z</time>
      </trkpt>
      <trkpt lat="43.21665" lon="5.39579">
        <ele>226.80000305176</ele>
        <time>2019-05-23T08:55:39.000Z</time>
      </trkpt>
      <trkpt lat="43.21666" lon="5.39578">
        <ele>226.60000610352</ele>
        <time>2019-05-23T08:55:40.000Z</time>
      </trkpt>
      <trkpt lat="43.21667" lon="5.39576">
        <ele>225.80000305176</ele>
        <time>2019-05-23T08:55:42.000Z</time>
      </trkpt>
      <trkpt lat="43.21667" lon="5.39575">
        <ele>225.39999389648</ele>
        <time>2019-05-23T08:55:43.000Z</time>
      </trkpt>
      <trkpt lat="43.21668" lon="5.39572">
        <ele>224.60000610352</ele>
        <time>2019-05-23T08:55:45.000Z</time>
      </trkpt>
      <trkpt lat="43.21668" lon="5.39569">
        <ele>223.60000610352</ele>
        <time>2019-05-23T08:55:47.000Z</time>
      </trkpt>
      <trkpt lat="43.21668" lon="5.39567">
        <ele>223.19999694824</ele>
        <time>2019-05-23T08:55:48.000Z</time>
      </trkpt>
      <trkpt lat="43.21667" lon="5.39562">
        <ele>221.60000610352</ele>
        <time>2019-05-23T08:55:51.000Z</time>
      </trkpt>
      <trkpt lat="43.21667" lon="5.39558">
        <ele>220.39999389648</ele>
        <time>2019-05-23T08:55:53.000Z</time>
      </trkpt>
      <trkpt lat="43.21667" lon="5.39553">
        <ele>219.19999694824</ele>
        <time>2019-05-23T08:55:56.000Z</time>
      </trkpt>
      <trkpt lat="43.21667" lon="5.39553">
        <ele>218.60000610352</ele>
        <time>2019-05-23T08:55:58.000Z</time>
      </trkpt>
      <trkpt lat="43.21667" lon="5.39553">
        <ele>218</ele>
        <time>2019-05-23T08:55:59.000Z</time>
      </trkpt>
      <trkpt lat="43.21663" lon="5.39549">
        <ele>216.80000305176</ele>
        <time>2019-05-23T08:56:02.000Z</time>
      </trkpt>
      <trkpt lat="43.21661" lon="5.39547">
        <ele>215.39999389648</ele>
        <time>2019-05-23T08:56:04.000Z</time>
      </trkpt>
      <trkpt lat="43.21662" lon="5.39541">
        <ele>214.39999389648</ele>
        <time>2019-05-23T08:56:07.000Z</time>
      </trkpt>
      <trkpt lat="43.21662" lon="5.39539">
        <ele>214</ele>
        <time>2019-05-23T08:56:08.000Z</time>
      </trkpt>
      <trkpt lat="43.21659" lon="5.39534">
        <ele>213</ele>
        <time>2019-05-23T08:56:10.000Z</time>
      </trkpt>
      <trkpt lat="43.21655" lon="5.39528">
        <ele>211.60000610352</ele>
        <time>2019-05-23T08:56:13.000Z</time>
      </trkpt>
      <trkpt lat="43.21654" lon="5.39527">
        <ele>211.19999694824</ele>
        <time>2019-05-23T08:56:14.000Z</time>
      </trkpt>
      <trkpt lat="43.21651" lon="5.39526">
        <ele>210.39999389648</ele>
        <time>2019-05-23T08:56:16.000Z</time>
      </trkpt>
      <trkpt lat="43.21647" lon="5.39524">
        <ele>209.80000305176</ele>
        <time>2019-05-23T08:56:18.000Z</time>
      </trkpt>
      <trkpt lat="43.21645" lon="5.39523">
        <ele>209.39999389648</ele>
        <time>2019-05-23T08:56:19.000Z</time>
      </trkpt>
      <trkpt lat="43.21643" lon="5.39519">
        <ele>208.19999694824</ele>
        <time>2019-05-23T08:56:21.000Z</time>
      </trkpt>
      <trkpt lat="43.2164" lon="5.39516">
        <ele>207.19999694824</ele>
        <time>2019-05-23T08:56:23.000Z</time>
      </trkpt>
      <trkpt lat="43.21639" lon="5.39514">
        <ele>206.60000610352</ele>
        <time>2019-05-23T08:56:24.000Z</time>
      </trkpt>
      <trkpt lat="43.21638" lon="5.39514">
        <ele>206.19999694824</ele>
        <time>2019-05-23T08:56:25.000Z</time>
      </trkpt>
      <trkpt lat="43.21637" lon="5.3951">
        <ele>204.80000305176</ele>
        <time>2019-05-23T08:56:28.000Z</time>
      </trkpt>
      <trkpt lat="43.21649" lon="5.39516">
        <ele>201.60000610352</ele>
        <time>2019-05-23T08:57:10.000Z</time>
      </trkpt>
      <trkpt lat="43.21646" lon="5.39517">
        <ele>201.39999389648</ele>
        <time>2019-05-23T08:57:11.000Z</time>
      </trkpt>
      <trkpt lat="43.21643" lon="5.39516">
        <ele>201.39999389648</ele>
        <time>2019-05-23T08:57:12.000Z</time>
      </trkpt>
      <trkpt lat="43.21638" lon="5.39518">
        <ele>201.19999694824</ele>
        <time>2019-05-23T08:57:14.000Z</time>
      </trkpt>
      <trkpt lat="43.21626" lon="5.3952">
        <ele>200.39999389648</ele>
        <time>2019-05-23T08:57:19.000Z</time>
      </trkpt>
      <trkpt lat="43.21617" lon="5.39522">
        <ele>199.19999694824</ele>
        <time>2019-05-23T08:57:22.000Z</time>
      </trkpt>
      <trkpt lat="43.21612" lon="5.39525">
        <ele>198.80000305176</ele>
        <time>2019-05-23T08:57:24.000Z</time>
      </trkpt>
      <trkpt lat="43.21607" lon="5.39526">
        <ele>198</ele>
        <time>2019-05-23T08:57:26.000Z</time>
      </trkpt>
      <trkpt lat="43.21602" lon="5.39527">
        <ele>197.60000610352</ele>
        <time>2019-05-23T08:57:28.000Z</time>
      </trkpt>
      <trkpt lat="43.21596" lon="5.39528">
        <ele>197.60000610352</ele>
        <time>2019-05-23T08:57:30.000Z</time>
      </trkpt>
      <trkpt lat="43.21592" lon="5.39526">
        <ele>197.39999389648</ele>
        <time>2019-05-23T08:57:32.000Z</time>
      </trkpt>
      <trkpt lat="43.21589" lon="5.39529">
        <ele>196.80000305176</ele>
        <time>2019-05-23T08:57:35.000Z</time>
      </trkpt>
      <trkpt lat="43.21589" lon="5.39531">
        <ele>196.39999389648</ele>
        <time>2019-05-23T08:57:36.000Z</time>
      </trkpt>
      <trkpt lat="43.21589" lon="5.39534">
        <ele>196.19999694824</ele>
        <time>2019-05-23T08:57:37.000Z</time>
      </trkpt>
      <trkpt lat="43.2159" lon="5.39541">
        <ele>195.80000305176</ele>
        <time>2019-05-23T08:57:39.000Z</time>
      </trkpt>
      <trkpt lat="43.2159" lon="5.39547">
        <ele>195.80000305176</ele>
        <time>2019-05-23T08:57:41.000Z</time>
      </trkpt>
      <trkpt lat="43.21589" lon="5.39553">
        <ele>196</ele>
        <time>2019-05-23T08:57:43.000Z</time>
      </trkpt>
      <trkpt lat="43.21586" lon="5.39561">
        <ele>196.80000305176</ele>
        <time>2019-05-23T08:57:46.000Z</time>
      </trkpt>
      <trkpt lat="43.21582" lon="5.39565">
        <ele>197</ele>
        <time>2019-05-23T08:57:48.000Z</time>
      </trkpt>
      <trkpt lat="43.21577" lon="5.39571">
        <ele>197.19999694824</ele>
        <time>2019-05-23T08:57:51.000Z</time>
      </trkpt>
      <trkpt lat="43.21572" lon="5.39582">
        <ele>197.19999694824</ele>
        <time>2019-05-23T08:57:56.000Z</time>
      </trkpt>
      <trkpt lat="43.21568" lon="5.39586">
        <ele>196.60000610352</ele>
        <time>2019-05-23T08:57:59.000Z</time>
      </trkpt>
      <trkpt lat="43.21566" lon="5.39591">
        <ele>196.19999694824</ele>
        <time>2019-05-23T08:58:01.000Z</time>
      </trkpt>
      <trkpt lat="43.21558" lon="5.39599">
        <ele>195.60000610352</ele>
        <time>2019-05-23T08:58:04.000Z</time>
      </trkpt>
      <trkpt lat="43.21554" lon="5.39601">
        <ele>195.39999389648</ele>
        <time>2019-05-23T08:58:05.000Z</time>
      </trkpt>
      <trkpt lat="43.2155" lon="5.39603">
        <ele>195.19999694824</ele>
        <time>2019-05-23T08:58:06.000Z</time>
      </trkpt>
      <trkpt lat="43.21547" lon="5.39605">
        <ele>195</ele>
        <time>2019-05-23T08:58:08.000Z</time>
      </trkpt>
      <trkpt lat="43.21542" lon="5.39602">
        <ele>194.60000610352</ele>
        <time>2019-05-23T08:58:10.000Z</time>
      </trkpt>
      <trkpt lat="43.21541" lon="5.39601">
        <ele>194.39999389648</ele>
        <time>2019-05-23T08:58:11.000Z</time>
      </trkpt>
      <trkpt lat="43.21537" lon="5.39599">
        <ele>194</ele>
        <time>2019-05-23T08:58:13.000Z</time>
      </trkpt>
      <trkpt lat="43.21536" lon="5.39597">
        <ele>193.80000305176</ele>
        <time>2019-05-23T08:58:14.000Z</time>
      </trkpt>
      <trkpt lat="43.21535" lon="5.39595">
        <ele>193.39999389648</ele>
        <time>2019-05-23T08:58:15.000Z</time>
      </trkpt>
      <trkpt lat="43.21532" lon="5.39589">
        <ele>193</ele>
        <time>2019-05-23T08:58:17.000Z</time>
      </trkpt>
      <trkpt lat="43.21526" lon="5.39584">
        <ele>192</ele>
        <time>2019-05-23T08:58:21.000Z</time>
      </trkpt>
      <trkpt lat="43.21524" lon="5.39583">
        <ele>191.60000610352</ele>
        <time>2019-05-23T08:58:22.000Z</time>
      </trkpt>
      <trkpt lat="43.21522" lon="5.39585">
        <ele>191</ele>
        <time>2019-05-23T08:58:24.000Z</time>
      </trkpt>
      <trkpt lat="43.21521" lon="5.39588">
        <ele>190.19999694824</ele>
        <time>2019-05-23T08:58:26.000Z</time>
      </trkpt>
      <trkpt lat="43.2152" lon="5.39589">
        <ele>190</ele>
        <time>2019-05-23T08:58:27.000Z</time>
      </trkpt>
      <trkpt lat="43.21516" lon="5.39589">
        <ele>189.60000610352</ele>
        <time>2019-05-23T08:58:28.000Z</time>
      </trkpt>
      <trkpt lat="43.21514" lon="5.3959">
        <ele>189</ele>
        <time>2019-05-23T08:58:29.000Z</time>
      </trkpt>
      <trkpt lat="43.21512" lon="5.39591">
        <ele>188.39999389648</ele>
        <time>2019-05-23T08:58:30.000Z</time>
      </trkpt>
      <trkpt lat="43.21509" lon="5.39592">
        <ele>188.19999694824</ele>
        <time>2019-05-23T08:58:31.000Z</time>
      </trkpt>
      <trkpt lat="43.21503" lon="5.39596">
        <ele>187.19999694824</ele>
        <time>2019-05-23T08:58:34.000Z</time>
      </trkpt>
      <trkpt lat="43.21498" lon="5.39597">
        <ele>186.60000610352</ele>
        <time>2019-05-23T08:58:36.000Z</time>
      </trkpt>
      <trkpt lat="43.21494" lon="5.39597">
        <ele>186.19999694824</ele>
        <time>2019-05-23T08:58:38.000Z</time>
      </trkpt>
      <trkpt lat="43.21492" lon="5.39596">
        <ele>186</ele>
        <time>2019-05-23T08:58:39.000Z</time>
      </trkpt>
      <trkpt lat="43.21491" lon="5.39593">
        <ele>185.80000305176</ele>
        <time>2019-05-23T08:58:41.000Z</time>
      </trkpt>
      <trkpt lat="43.21492" lon="5.39589">
        <ele>185</ele>
        <time>2019-05-23T08:58:43.000Z</time>
      </trkpt>
      <trkpt lat="43.21489" lon="5.39587">
        <ele>184.19999694824</ele>
        <time>2019-05-23T08:58:46.000Z</time>
      </trkpt>
      <trkpt lat="43.21487" lon="5.39586">
        <ele>183.80000305176</ele>
        <time>2019-05-23T08:58:47.000Z</time>
      </trkpt>
      <trkpt lat="43.21481" lon="5.39587">
        <ele>182.60000610352</ele>
        <time>2019-05-23T08:58:50.000Z</time>
      </trkpt>
      <trkpt lat="43.2148" lon="5.39588">
        <ele>182.19999694824</ele>
        <time>2019-05-23T08:58:51.000Z</time>
      </trkpt>
      <trkpt lat="43.21476" lon="5.39589">
        <ele>181.19999694824</ele>
        <time>2019-05-23T08:58:53.000Z</time>
      </trkpt>
      <trkpt lat="43.21472" lon="5.3959">
        <ele>180.19999694824</ele>
        <time>2019-05-23T08:58:55.000Z</time>
      </trkpt>
      <trkpt lat="43.21471" lon="5.3959">
        <ele>180</ele>
        <time>2019-05-23T08:58:56.000Z</time>
      </trkpt>
      <trkpt lat="43.21469" lon="5.39591">
        <ele>180</ele>
        <time>2019-05-23T08:58:57.000Z</time>
      </trkpt>
      <trkpt lat="43.21461" lon="5.3959">
        <ele>179.19999694824</ele>
        <time>2019-05-23T08:59:00.000Z</time>
      </trkpt>
      <trkpt lat="43.21457" lon="5.3959">
        <ele>178.80000305176</ele>
        <time>2019-05-23T08:59:01.000Z</time>
      </trkpt>
      <trkpt lat="43.21447" lon="5.39593">
        <ele>178.39999389648</ele>
        <time>2019-05-23T08:59:06.000Z</time>
      </trkpt>
      <trkpt lat="43.2144" lon="5.39594">
        <ele>178.39999389648</ele>
        <time>2019-05-23T08:59:09.000Z</time>
      </trkpt>
      <trkpt lat="43.21438" lon="5.39595">
        <ele>178.39999389648</ele>
        <time>2019-05-23T08:59:10.000Z</time>
      </trkpt>
      <trkpt lat="43.21431" lon="5.39597">
        <ele>177.80000305176</ele>
        <time>2019-05-23T08:59:13.000Z</time>
      </trkpt>
      <trkpt lat="43.21424" lon="5.39598">
        <ele>177.19999694824</ele>
        <time>2019-05-23T08:59:16.000Z</time>
      </trkpt>
      <trkpt lat="43.21422" lon="5.39597">
        <ele>177</ele>
        <time>2019-05-23T08:59:17.000Z</time>
      </trkpt>
      <trkpt lat="43.21418" lon="5.39592">
        <ele>176.60000610352</ele>
        <time>2019-05-23T08:59:20.000Z</time>
      </trkpt>
      <trkpt lat="43.21416" lon="5.39587">
        <ele>176.19999694824</ele>
        <time>2019-05-23T08:59:22.000Z</time>
      </trkpt>
      <trkpt lat="43.21413" lon="5.39582">
        <ele>175.60000610352</ele>
        <time>2019-05-23T08:59:24.000Z</time>
      </trkpt>
      <trkpt lat="43.21411" lon="5.39574">
        <ele>174.60000610352</ele>
        <time>2019-05-23T08:59:27.000Z</time>
      </trkpt>
      <trkpt lat="43.2141" lon="5.39571">
        <ele>174.39999389648</ele>
        <time>2019-05-23T08:59:28.000Z</time>
      </trkpt>
      <trkpt lat="43.2141" lon="5.39561">
        <ele>173.60000610352</ele>
        <time>2019-05-23T08:59:31.000Z</time>
      </trkpt>
      <trkpt lat="43.2141" lon="5.39557">
        <ele>173.39999389648</ele>
        <time>2019-05-23T08:59:32.000Z</time>
      </trkpt>
      <trkpt lat="43.21409" lon="5.39551">
        <ele>173.19999694824</ele>
        <time>2019-05-23T08:59:34.000Z</time>
      </trkpt>
      <trkpt lat="43.21407" lon="5.39541">
        <ele>172.39999389648</ele>
        <time>2019-05-23T08:59:37.000Z</time>
      </trkpt>
      <trkpt lat="43.21405" lon="5.39539">
        <ele>172.19999694824</ele>
        <time>2019-05-23T08:59:38.000Z</time>
      </trkpt>
      <trkpt lat="43.21404" lon="5.39528">
        <ele>171.80000305176</ele>
        <time>2019-05-23T08:59:42.000Z</time>
      </trkpt>
      <trkpt lat="43.214" lon="5.39517">
        <ele>172.39999389648</ele>
        <time>2019-05-23T08:59:47.000Z</time>
      </trkpt>
      <trkpt lat="43.21395" lon="5.39512">
        <ele>173.19999694824</ele>
        <time>2019-05-23T08:59:51.000Z</time>
      </trkpt>
      <trkpt lat="43.21393" lon="5.39503">
        <ele>174.39999389648</ele>
        <time>2019-05-23T08:59:54.000Z</time>
      </trkpt>
      <trkpt lat="43.21391" lon="5.39489">
        <ele>174.80000305176</ele>
        <time>2019-05-23T08:59:58.000Z</time>
      </trkpt>
      <trkpt lat="43.21394" lon="5.39476">
        <ele>173.80000305176</ele>
        <time>2019-05-23T09:00:04.000Z</time>
      </trkpt>
      <trkpt lat="43.21396" lon="5.39474">
        <ele>173.39999389648</ele>
        <time>2019-05-23T09:00:05.000Z</time>
      </trkpt>
      <trkpt lat="43.21399" lon="5.39474">
        <ele>173</ele>
        <time>2019-05-23T09:00:06.000Z</time>
      </trkpt>
      <trkpt lat="43.21396" lon="5.39467">
        <ele>172.39999389648</ele>
        <time>2019-05-23T09:00:08.000Z</time>
      </trkpt>
      <trkpt lat="43.21394" lon="5.39459">
        <ele>172</ele>
        <time>2019-05-23T09:00:10.000Z</time>
      </trkpt>
      <trkpt lat="43.21393" lon="5.3945">
        <ele>172</ele>
        <time>2019-05-23T09:00:13.000Z</time>
      </trkpt>
      <trkpt lat="43.21392" lon="5.39434">
        <ele>173</ele>
        <time>2019-05-23T09:00:19.000Z</time>
      </trkpt>
      <trkpt lat="43.21395" lon="5.39422">
        <ele>173.39999389648</ele>
        <time>2019-05-23T09:00:24.000Z</time>
      </trkpt>
      <trkpt lat="43.21397" lon="5.39418">
        <ele>173.39999389648</ele>
        <time>2019-05-23T09:00:26.000Z</time>
      </trkpt>
      <trkpt lat="43.21402" lon="5.39412">
        <ele>173</ele>
        <time>2019-05-23T09:00:29.000Z</time>
      </trkpt>
      <trkpt lat="43.21402" lon="5.39407">
        <ele>172.19999694824</ele>
        <time>2019-05-23T09:00:32.000Z</time>
      </trkpt>
      <trkpt lat="43.21401" lon="5.39404">
        <ele>172.19999694824</ele>
        <time>2019-05-23T09:00:33.000Z</time>
      </trkpt>
      <trkpt lat="43.21395" lon="5.39393">
        <ele>172.19999694824</ele>
        <time>2019-05-23T09:00:37.000Z</time>
      </trkpt>
      <trkpt lat="43.21388" lon="5.39379">
        <ele>172.19999694824</ele>
        <time>2019-05-23T09:00:43.000Z</time>
      </trkpt>
      <trkpt lat="43.21388" lon="5.39376">
        <ele>172.39999389648</ele>
        <time>2019-05-23T09:00:44.000Z</time>
      </trkpt>
      <trkpt lat="43.21388" lon="5.39365">
        <ele>172.60000610352</ele>
        <time>2019-05-23T09:00:48.000Z</time>
      </trkpt>
      <trkpt lat="43.2139" lon="5.39361">
        <ele>172.60000610352</ele>
        <time>2019-05-23T09:00:50.000Z</time>
      </trkpt>
      <trkpt lat="43.21391" lon="5.39358">
        <ele>172.60000610352</ele>
        <time>2019-05-23T09:00:51.000Z</time>
      </trkpt>
      <trkpt lat="43.21395" lon="5.39353">
        <ele>172.39999389648</ele>
        <time>2019-05-23T09:00:53.000Z</time>
      </trkpt>
      <trkpt lat="43.21397" lon="5.3935">
        <ele>172.39999389648</ele>
        <time>2019-05-23T09:00:54.000Z</time>
      </trkpt>
      <trkpt lat="43.21404" lon="5.39343">
        <ele>171.80000305176</ele>
        <time>2019-05-23T09:00:57.000Z</time>
      </trkpt>
      <trkpt lat="43.21405" lon="5.39341">
        <ele>171.60000610352</ele>
        <time>2019-05-23T09:00:58.000Z</time>
      </trkpt>
      <trkpt lat="43.21409" lon="5.39336">
        <ele>170.80000305176</ele>
        <time>2019-05-23T09:01:01.000Z</time>
      </trkpt>
      <trkpt lat="43.21412" lon="5.39332">
        <ele>170.60000610352</ele>
        <time>2019-05-23T09:01:04.000Z</time>
      </trkpt>
      <trkpt lat="43.21412" lon="5.39328">
        <ele>170.80000305176</ele>
        <time>2019-05-23T09:01:06.000Z</time>
      </trkpt>
      <trkpt lat="43.21411" lon="5.39326">
        <ele>171</ele>
        <time>2019-05-23T09:01:08.000Z</time>
      </trkpt>
      <trkpt lat="43.21405" lon="5.39311">
        <ele>171.80000305176</ele>
        <time>2019-05-23T09:01:13.000Z</time>
      </trkpt>
      <trkpt lat="43.21403" lon="5.39308">
        <ele>171.80000305176</ele>
        <time>2019-05-23T09:01:14.000Z</time>
      </trkpt>
      <trkpt lat="43.21403" lon="5.39297">
        <ele>172.39999389648</ele>
        <time>2019-05-23T09:01:18.000Z</time>
      </trkpt>
      <trkpt lat="43.21402" lon="5.39289">
        <ele>172.60000610352</ele>
        <time>2019-05-23T09:01:21.000Z</time>
      </trkpt>
      <trkpt lat="43.21402" lon="5.39286">
        <ele>172.60000610352</ele>
        <time>2019-05-23T09:01:22.000Z</time>
      </trkpt>
      <trkpt lat="43.21401" lon="5.39274">
        <ele>172.39999389648</ele>
        <time>2019-05-23T09:01:26.000Z</time>
      </trkpt>
      <trkpt lat="43.21406" lon="5.39263">
        <ele>172.39999389648</ele>
        <time>2019-05-23T09:01:31.000Z</time>
      </trkpt>
      <trkpt lat="43.21412" lon="5.39255">
        <ele>172.80000305176</ele>
        <time>2019-05-23T09:01:36.000Z</time>
      </trkpt>
      <trkpt lat="43.21413" lon="5.39253">
        <ele>173.19999694824</ele>
        <time>2019-05-23T09:01:37.000Z</time>
      </trkpt>
      <trkpt lat="43.21412" lon="5.39247">
        <ele>174</ele>
        <time>2019-05-23T09:01:40.000Z</time>
      </trkpt>
      <trkpt lat="43.21411" lon="5.39245">
        <ele>174.39999389648</ele>
        <time>2019-05-23T09:01:41.000Z</time>
      </trkpt>
      <trkpt lat="43.21411" lon="5.39242">
        <ele>174.60000610352</ele>
        <time>2019-05-23T09:01:42.000Z</time>
      </trkpt>
      <trkpt lat="43.2141" lon="5.39241">
        <ele>174.80000305176</ele>
        <time>2019-05-23T09:01:43.000Z</time>
      </trkpt>
      <trkpt lat="43.2141" lon="5.39239">
        <ele>175</ele>
        <time>2019-05-23T09:01:44.000Z</time>
      </trkpt>
      <trkpt lat="43.21407" lon="5.39232">
        <ele>175.60000610352</ele>
        <time>2019-05-23T09:01:47.000Z</time>
      </trkpt>
      <trkpt lat="43.21403" lon="5.39228">
        <ele>176</ele>
        <time>2019-05-23T09:01:49.000Z</time>
      </trkpt>
      <trkpt lat="43.21394" lon="5.39223">
        <ele>177</ele>
        <time>2019-05-23T09:01:53.000Z</time>
      </trkpt>
      <trkpt lat="43.21392" lon="5.39218">
        <ele>177.19999694824</ele>
        <time>2019-05-23T09:01:55.000Z</time>
      </trkpt>
      <trkpt lat="43.21392" lon="5.39206">
        <ele>177.39999389648</ele>
        <time>2019-05-23T09:01:59.000Z</time>
      </trkpt>
      <trkpt lat="43.21393" lon="5.3919">
        <ele>177.80000305176</ele>
        <time>2019-05-23T09:02:04.000Z</time>
      </trkpt>
      <trkpt lat="43.21393" lon="5.39187">
        <ele>177.80000305176</ele>
        <time>2019-05-23T09:02:05.000Z</time>
      </trkpt>
      <trkpt lat="43.21393" lon="5.39174">
        <ele>178</ele>
        <time>2019-05-23T09:02:10.000Z</time>
      </trkpt>
      <trkpt lat="43.2139" lon="5.39165">
        <ele>178.19999694824</ele>
        <time>2019-05-23T09:02:14.000Z</time>
      </trkpt>
      <trkpt lat="43.21389" lon="5.3916">
        <ele>177.80000305176</ele>
        <time>2019-05-23T09:02:16.000Z</time>
      </trkpt>
      <trkpt lat="43.21386" lon="5.39152">
        <ele>177.60000610352</ele>
        <time>2019-05-23T09:02:20.000Z</time>
      </trkpt>
      <trkpt lat="43.21383" lon="5.39143">
        <ele>178</ele>
        <time>2019-05-23T09:02:24.000Z</time>
      </trkpt>
      <trkpt lat="43.21379" lon="5.3914">
        <ele>177.80000305176</ele>
        <time>2019-05-23T09:02:26.000Z</time>
      </trkpt>
      <trkpt lat="43.2137" lon="5.39124">
        <ele>176.19999694824</ele>
        <time>2019-05-23T09:02:31.000Z</time>
      </trkpt>
      <trkpt lat="43.21369" lon="5.39121">
        <ele>175.60000610352</ele>
        <time>2019-05-23T09:02:32.000Z</time>
      </trkpt>
      <trkpt lat="43.21366" lon="5.39113">
        <ele>174.60000610352</ele>
        <time>2019-05-23T09:02:35.000Z</time>
      </trkpt>
      <trkpt lat="43.21367" lon="5.39107">
        <ele>174.19999694824</ele>
        <time>2019-05-23T09:02:37.000Z</time>
      </trkpt>
      <trkpt lat="43.21368" lon="5.39102">
        <ele>173.60000610352</ele>
        <time>2019-05-23T09:02:39.000Z</time>
      </trkpt>
      <trkpt lat="43.2137" lon="5.391">
        <ele>173.39999389648</ele>
        <time>2019-05-23T09:02:40.000Z</time>
      </trkpt>
      <trkpt lat="43.21372" lon="5.39095">
        <ele>172.80000305176</ele>
        <time>2019-05-23T09:02:42.000Z</time>
      </trkpt>
      <trkpt lat="43.21377" lon="5.39088">
        <ele>172.19999694824</ele>
        <time>2019-05-23T09:02:45.000Z</time>
      </trkpt>
      <trkpt lat="43.21381" lon="5.39082">
        <ele>172</ele>
        <time>2019-05-23T09:02:49.000Z</time>
      </trkpt>
      <trkpt lat="43.21381" lon="5.39081">
        <ele>172</ele>
        <time>2019-05-23T09:02:50.000Z</time>
      </trkpt>
      <trkpt lat="43.21386" lon="5.39077">
        <ele>171</ele>
        <time>2019-05-23T09:02:53.000Z</time>
      </trkpt>
      <trkpt lat="43.21388" lon="5.39075">
        <ele>170.60000610352</ele>
        <time>2019-05-23T09:02:54.000Z</time>
      </trkpt>
      <trkpt lat="43.21391" lon="5.3907">
        <ele>169.80000305176</ele>
        <time>2019-05-23T09:02:56.000Z</time>
      </trkpt>
      <trkpt lat="43.21397" lon="5.39062">
        <ele>168.60000610352</ele>
        <time>2019-05-23T09:02:59.000Z</time>
      </trkpt>
      <trkpt lat="43.21402" lon="5.39055">
        <ele>167.39999389648</ele>
        <time>2019-05-23T09:03:02.000Z</time>
      </trkpt>
      <trkpt lat="43.21402" lon="5.39053">
        <ele>167</ele>
        <time>2019-05-23T09:03:03.000Z</time>
      </trkpt>
      <trkpt lat="43.21403" lon="5.39048">
        <ele>166.39999389648</ele>
        <time>2019-05-23T09:03:05.000Z</time>
      </trkpt>
      <trkpt lat="43.21404" lon="5.39045">
        <ele>166.19999694824</ele>
        <time>2019-05-23T09:03:06.000Z</time>
      </trkpt>
      <trkpt lat="43.21405" lon="5.39042">
        <ele>166.19999694824</ele>
        <time>2019-05-23T09:03:07.000Z</time>
      </trkpt>
      <trkpt lat="43.21406" lon="5.39038">
        <ele>165.80000305176</ele>
        <time>2019-05-23T09:03:09.000Z</time>
      </trkpt>
      <trkpt lat="43.21406" lon="5.39034">
        <ele>165</ele>
        <time>2019-05-23T09:03:11.000Z</time>
      </trkpt>
      <trkpt lat="43.21403" lon="5.3903">
        <ele>164.39999389648</ele>
        <time>2019-05-23T09:03:13.000Z</time>
      </trkpt>
      <trkpt lat="43.21402" lon="5.39028">
        <ele>164</ele>
        <time>2019-05-23T09:03:14.000Z</time>
      </trkpt>
      <trkpt lat="43.21401" lon="5.39025">
        <ele>163.80000305176</ele>
        <time>2019-05-23T09:03:15.000Z</time>
      </trkpt>
      <trkpt lat="43.21397" lon="5.39015">
        <ele>162.80000305176</ele>
        <time>2019-05-23T09:03:18.000Z</time>
      </trkpt>
      <trkpt lat="43.21395" lon="5.3901">
        <ele>162.19999694824</ele>
        <time>2019-05-23T09:03:20.000Z</time>
      </trkpt>
      <trkpt lat="43.21392" lon="5.39001">
        <ele>161.80000305176</ele>
        <time>2019-05-23T09:03:23.000Z</time>
      </trkpt>
      <trkpt lat="43.21392" lon="5.38996">
        <ele>161.60000610352</ele>
        <time>2019-05-23T09:03:25.000Z</time>
      </trkpt>
      <trkpt lat="43.21392" lon="5.38993">
        <ele>161.19999694824</ele>
        <time>2019-05-23T09:03:26.000Z</time>
      </trkpt>
      <trkpt lat="43.21389" lon="5.38989">
        <ele>160.39999389648</ele>
        <time>2019-05-23T09:03:28.000Z</time>
      </trkpt>
      <trkpt lat="43.21385" lon="5.38986">
        <ele>159.60000610352</ele>
        <time>2019-05-23T09:03:30.000Z</time>
      </trkpt>
      <trkpt lat="43.21383" lon="5.38984">
        <ele>159.19999694824</ele>
        <time>2019-05-23T09:03:31.000Z</time>
      </trkpt>
      <trkpt lat="43.21376" lon="5.38975">
        <ele>158</ele>
        <time>2019-05-23T09:03:35.000Z</time>
      </trkpt>
      <trkpt lat="43.21374" lon="5.38972">
        <ele>157.80000305176</ele>
        <time>2019-05-23T09:03:36.000Z</time>
      </trkpt>
      <trkpt lat="43.21372" lon="5.38966">
        <ele>156.80000305176</ele>
        <time>2019-05-23T09:03:38.000Z</time>
      </trkpt>
      <trkpt lat="43.21371" lon="5.38959">
        <ele>156.39999389648</ele>
        <time>2019-05-23T09:03:40.000Z</time>
      </trkpt>
      <trkpt lat="43.21371" lon="5.38956">
        <ele>155.80000305176</ele>
        <time>2019-05-23T09:03:41.000Z</time>
      </trkpt>
      <trkpt lat="43.2137" lon="5.38952">
        <ele>155.39999389648</ele>
        <time>2019-05-23T09:03:42.000Z</time>
      </trkpt>
      <trkpt lat="43.21368" lon="5.38943">
        <ele>154</ele>
        <time>2019-05-23T09:03:45.000Z</time>
      </trkpt>
      <trkpt lat="43.21364" lon="5.38937">
        <ele>153.19999694824</ele>
        <time>2019-05-23T09:03:48.000Z</time>
      </trkpt>
      <trkpt lat="43.21362" lon="5.38935">
        <ele>153</ele>
        <time>2019-05-23T09:03:49.000Z</time>
      </trkpt>
      <trkpt lat="43.21358" lon="5.38931">
        <ele>152</ele>
        <time>2019-05-23T09:03:51.000Z</time>
      </trkpt>
      <trkpt lat="43.21354" lon="5.3893">
        <ele>150.60000610352</ele>
        <time>2019-05-23T09:03:53.000Z</time>
      </trkpt>
      <trkpt lat="43.21351" lon="5.38929">
        <ele>150.19999694824</ele>
        <time>2019-05-23T09:03:54.000Z</time>
      </trkpt>
      <trkpt lat="43.21347" lon="5.38926">
        <ele>149.60000610352</ele>
        <time>2019-05-23T09:03:56.000Z</time>
      </trkpt>
      <trkpt lat="43.21343" lon="5.38926">
        <ele>148.60000610352</ele>
        <time>2019-05-23T09:03:59.000Z</time>
      </trkpt>
      <trkpt lat="43.21341" lon="5.38927">
        <ele>147.39999389648</ele>
        <time>2019-05-23T09:04:01.000Z</time>
      </trkpt>
      <trkpt lat="43.21339" lon="5.38928">
        <ele>146.39999389648</ele>
        <time>2019-05-23T09:04:03.000Z</time>
      </trkpt>
      <trkpt lat="43.21337" lon="5.38929">
        <ele>146.19999694824</ele>
        <time>2019-05-23T09:04:04.000Z</time>
      </trkpt>
      <trkpt lat="43.21328" lon="5.38932">
        <ele>145.80000305176</ele>
        <time>2019-05-23T09:04:09.000Z</time>
      </trkpt>
      <trkpt lat="43.21324" lon="5.38935">
        <ele>144.60000610352</ele>
        <time>2019-05-23T09:04:11.000Z</time>
      </trkpt>
      <trkpt lat="43.21322" lon="5.38937">
        <ele>144</ele>
        <time>2019-05-23T09:04:12.000Z</time>
      </trkpt>
      <trkpt lat="43.21321" lon="5.38938">
        <ele>143.39999389648</ele>
        <time>2019-05-23T09:04:13.000Z</time>
      </trkpt>
      <trkpt lat="43.21317" lon="5.3894">
        <ele>142.39999389648</ele>
        <time>2019-05-23T09:04:15.000Z</time>
      </trkpt>
      <trkpt lat="43.21316" lon="5.38939">
        <ele>141.80000305176</ele>
        <time>2019-05-23T09:04:16.000Z</time>
      </trkpt>
      <trkpt lat="43.21315" lon="5.38938">
        <ele>141.39999389648</ele>
        <time>2019-05-23T09:04:17.000Z</time>
      </trkpt>
      <trkpt lat="43.21312" lon="5.38937">
        <ele>140.60000610352</ele>
        <time>2019-05-23T09:04:19.000Z</time>
      </trkpt>
      <trkpt lat="43.21308" lon="5.38938">
        <ele>139.39999389648</ele>
        <time>2019-05-23T09:04:21.000Z</time>
      </trkpt>
      <trkpt lat="43.21302" lon="5.38935">
        <ele>138.39999389648</ele>
        <time>2019-05-23T09:04:24.000Z</time>
      </trkpt>
      <trkpt lat="43.213" lon="5.38935">
        <ele>137.80000305176</ele>
        <time>2019-05-23T09:04:25.000Z</time>
      </trkpt>
      <trkpt lat="43.21293" lon="5.38933">
        <ele>136.60000610352</ele>
        <time>2019-05-23T09:04:28.000Z</time>
      </trkpt>
      <trkpt lat="43.21291" lon="5.38933">
        <ele>136</ele>
        <time>2019-05-23T09:04:29.000Z</time>
      </trkpt>
      <trkpt lat="43.21289" lon="5.38932">
        <ele>135.39999389648</ele>
        <time>2019-05-23T09:04:30.000Z</time>
      </trkpt>
      <trkpt lat="43.21285" lon="5.38933">
        <ele>134.19999694824</ele>
        <time>2019-05-23T09:04:32.000Z</time>
      </trkpt>
      <trkpt lat="43.21278" lon="5.38933">
        <ele>133</ele>
        <time>2019-05-23T09:04:35.000Z</time>
      </trkpt>
      <trkpt lat="43.21274" lon="5.38931">
        <ele>132</ele>
        <time>2019-05-23T09:04:37.000Z</time>
      </trkpt>
      <trkpt lat="43.21269" lon="5.38929">
        <ele>131</ele>
        <time>2019-05-23T09:04:40.000Z</time>
      </trkpt>
      <trkpt lat="43.21267" lon="5.38925">
        <ele>130.60000610352</ele>
        <time>2019-05-23T09:04:41.000Z</time>
      </trkpt>
      <trkpt lat="43.21266" lon="5.38923">
        <ele>130</ele>
        <time>2019-05-23T09:04:42.000Z</time>
      </trkpt>
      <trkpt lat="43.21264" lon="5.38923">
        <ele>129.19999694824</ele>
        <time>2019-05-23T09:04:43.000Z</time>
      </trkpt>
      <trkpt lat="43.21258" lon="5.38929">
        <ele>128.19999694824</ele>
        <time>2019-05-23T09:04:45.000Z</time>
      </trkpt>
      <trkpt lat="43.21253" lon="5.38923">
        <ele>127</ele>
        <time>2019-05-23T09:04:48.000Z</time>
      </trkpt>
      <trkpt lat="43.21251" lon="5.38921">
        <ele>126</ele>
        <time>2019-05-23T09:04:50.000Z</time>
      </trkpt>
      <trkpt lat="43.21252" lon="5.38918">
        <ele>125.40000152588</ele>
        <time>2019-05-23T09:04:51.000Z</time>
      </trkpt>
      <trkpt lat="43.21253" lon="5.38913">
        <ele>124.80000305176</ele>
        <time>2019-05-23T09:04:52.000Z</time>
      </trkpt>
      <trkpt lat="43.21254" lon="5.3891">
        <ele>124.40000152588</ele>
        <time>2019-05-23T09:04:53.000Z</time>
      </trkpt>
      <trkpt lat="43.21255" lon="5.38904">
        <ele>123.59999847412</ele>
        <time>2019-05-23T09:04:55.000Z</time>
      </trkpt>
      <trkpt lat="43.21255" lon="5.38899">
        <ele>123.19999694824</ele>
        <time>2019-05-23T09:04:57.000Z</time>
      </trkpt>
      <trkpt lat="43.21255" lon="5.38891">
        <ele>121.59999847412</ele>
        <time>2019-05-23T09:05:00.000Z</time>
      </trkpt>
      <trkpt lat="43.21256" lon="5.38886">
        <ele>120.40000152588</ele>
        <time>2019-05-23T09:05:02.000Z</time>
      </trkpt>
      <trkpt lat="43.21256" lon="5.38877">
        <ele>119.19999694824</ele>
        <time>2019-05-23T09:05:05.000Z</time>
      </trkpt>
      <trkpt lat="43.21256" lon="5.3887">
        <ele>118.19999694824</ele>
        <time>2019-05-23T09:05:07.000Z</time>
      </trkpt>
      <trkpt lat="43.21256" lon="5.38867">
        <ele>117.59999847412</ele>
        <time>2019-05-23T09:05:08.000Z</time>
      </trkpt>
      <trkpt lat="43.21255" lon="5.38858">
        <ele>116.19999694824</ele>
        <time>2019-05-23T09:05:11.000Z</time>
      </trkpt>
      <trkpt lat="43.21253" lon="5.38852">
        <ele>115.19999694824</ele>
        <time>2019-05-23T09:05:13.000Z</time>
      </trkpt>
      <trkpt lat="43.21247" lon="5.38844">
        <ele>114.19999694824</ele>
        <time>2019-05-23T09:05:16.000Z</time>
      </trkpt>
      <trkpt lat="43.21241" lon="5.38836">
        <ele>113</ele>
        <time>2019-05-23T09:05:20.000Z</time>
      </trkpt>
      <trkpt lat="43.21238" lon="5.38833">
        <ele>112.59999847412</ele>
        <time>2019-05-23T09:05:22.000Z</time>
      </trkpt>
      <trkpt lat="43.21242" lon="5.38825">
        <ele>112</ele>
        <time>2019-05-23T09:05:24.000Z</time>
      </trkpt>
      <trkpt lat="43.21244" lon="5.38822">
        <ele>111.59999847412</ele>
        <time>2019-05-23T09:05:25.000Z</time>
      </trkpt>
      <trkpt lat="43.21246" lon="5.38819">
        <ele>111.40000152588</ele>
        <time>2019-05-23T09:05:26.000Z</time>
      </trkpt>
      <trkpt lat="43.2125" lon="5.38813">
        <ele>110.59999847412</ele>
        <time>2019-05-23T09:05:29.000Z</time>
      </trkpt>
      <trkpt lat="43.21252" lon="5.38809">
        <ele>109.80000305176</ele>
        <time>2019-05-23T09:05:31.000Z</time>
      </trkpt>
      <trkpt lat="43.21252" lon="5.38806">
        <ele>109.40000152588</ele>
        <time>2019-05-23T09:05:32.000Z</time>
      </trkpt>
      <trkpt lat="43.21254" lon="5.38798">
        <ele>108</ele>
        <time>2019-05-23T09:05:35.000Z</time>
      </trkpt>
      <trkpt lat="43.21255" lon="5.38795">
        <ele>107.59999847412</ele>
        <time>2019-05-23T09:05:36.000Z</time>
      </trkpt>
      <trkpt lat="43.21254" lon="5.38793">
        <ele>107</ele>
        <time>2019-05-23T09:05:37.000Z</time>
      </trkpt>
      <trkpt lat="43.21252" lon="5.38789">
        <ele>106.19999694824</ele>
        <time>2019-05-23T09:05:39.000Z</time>
      </trkpt>
      <trkpt lat="43.2125" lon="5.38788">
        <ele>106</ele>
        <time>2019-05-23T09:05:40.000Z</time>
      </trkpt>
      <trkpt lat="43.21248" lon="5.38787">
        <ele>105.80000305176</ele>
        <time>2019-05-23T09:05:41.000Z</time>
      </trkpt>
      <trkpt lat="43.21239" lon="5.38777">
        <ele>105.19999694824</ele>
        <time>2019-05-23T09:05:46.000Z</time>
      </trkpt>
      <trkpt lat="43.21238" lon="5.38774">
        <ele>105</ele>
        <time>2019-05-23T09:05:47.000Z</time>
      </trkpt>
      <trkpt lat="43.21236" lon="5.38771">
        <ele>105</ele>
        <time>2019-05-23T09:05:48.000Z</time>
      </trkpt>
      <trkpt lat="43.21235" lon="5.38768">
        <ele>105</ele>
        <time>2019-05-23T09:05:49.000Z</time>
      </trkpt>
      <trkpt lat="43.21232" lon="5.38761">
        <ele>105.19999694824</ele>
        <time>2019-05-23T09:05:52.000Z</time>
      </trkpt>
      <trkpt lat="43.21233" lon="5.3875">
        <ele>104.59999847412</ele>
        <time>2019-05-23T09:05:57.000Z</time>
      </trkpt>
      <trkpt lat="43.21238" lon="5.38746">
        <ele>103.80000305176</ele>
        <time>2019-05-23T09:06:00.000Z</time>
      </trkpt>
      <trkpt lat="43.21241" lon="5.38744">
        <ele>103.40000152588</ele>
        <time>2019-05-23T09:06:02.000Z</time>
      </trkpt>
      <trkpt lat="43.21243" lon="5.38742">
        <ele>102.59999847412</ele>
        <time>2019-05-23T09:06:04.000Z</time>
      </trkpt>
      <trkpt lat="43.21244" lon="5.38738">
        <ele>101.40000152588</ele>
        <time>2019-05-23T09:06:06.000Z</time>
      </trkpt>
      <trkpt lat="43.21244" lon="5.38736">
        <ele>101</ele>
        <time>2019-05-23T09:06:07.000Z</time>
      </trkpt>
      <trkpt lat="43.21244" lon="5.3873">
        <ele>100.40000152588</ele>
        <time>2019-05-23T09:06:09.000Z</time>
      </trkpt>
      <trkpt lat="43.21247" lon="5.38725">
        <ele>100</ele>
        <time>2019-05-23T09:06:11.000Z</time>
      </trkpt>
      <trkpt lat="43.2125" lon="5.38721">
        <ele>99.199996948242</ele>
        <time>2019-05-23T09:06:13.000Z</time>
      </trkpt>
      <trkpt lat="43.21254" lon="5.38719">
        <ele>98.400001525879</ele>
        <time>2019-05-23T09:06:15.000Z</time>
      </trkpt>
      <trkpt lat="43.21257" lon="5.38718">
        <ele>98</ele>
        <time>2019-05-23T09:06:16.000Z</time>
      </trkpt>
      <trkpt lat="43.21263" lon="5.38719">
        <ele>97.199996948242</ele>
        <time>2019-05-23T09:06:19.000Z</time>
      </trkpt>
      <trkpt lat="43.21264" lon="5.38719">
        <ele>96.599998474121</ele>
        <time>2019-05-23T09:06:20.000Z</time>
      </trkpt>
      <trkpt lat="43.21264" lon="5.38719">
        <ele>96.199996948242</ele>
        <time>2019-05-23T09:06:21.000Z</time>
      </trkpt>
      <trkpt lat="43.21261" lon="5.38716">
        <ele>95.199996948242</ele>
        <time>2019-05-23T09:06:24.000Z</time>
      </trkpt>
      <trkpt lat="43.2126" lon="5.38715">
        <ele>94.599998474121</ele>
        <time>2019-05-23T09:06:25.000Z</time>
      </trkpt>
      <trkpt lat="43.21259" lon="5.38713">
        <ele>94</ele>
        <time>2019-05-23T09:06:27.000Z</time>
      </trkpt>
      <trkpt lat="43.21258" lon="5.38711">
        <ele>93.199996948242</ele>
        <time>2019-05-23T09:06:29.000Z</time>
      </trkpt>
      <trkpt lat="43.21257" lon="5.38709">
        <ele>92.599998474121</ele>
        <time>2019-05-23T09:06:30.000Z</time>
      </trkpt>
      <trkpt lat="43.21255" lon="5.38708">
        <ele>91.400001525879</ele>
        <time>2019-05-23T09:06:33.000Z</time>
      </trkpt>
      <trkpt lat="43.21255" lon="5.38707">
        <ele>91.199996948242</ele>
        <time>2019-05-23T09:06:34.000Z</time>
      </trkpt>
      <trkpt lat="43.21258" lon="5.38704">
        <ele>90.400001525879</ele>
        <time>2019-05-23T09:06:37.000Z</time>
      </trkpt>
      <trkpt lat="43.21257" lon="5.38701">
        <ele>89.199996948242</ele>
        <time>2019-05-23T09:06:40.000Z</time>
      </trkpt>
      <trkpt lat="43.21256" lon="5.38701">
        <ele>88.400001525879</ele>
        <time>2019-05-23T09:06:42.000Z</time>
      </trkpt>
      <trkpt lat="43.21255" lon="5.38702">
        <ele>88</ele>
        <time>2019-05-23T09:06:43.000Z</time>
      </trkpt>
      <trkpt lat="43.21252" lon="5.38704">
        <ele>87.599998474121</ele>
        <time>2019-05-23T09:06:45.000Z</time>
      </trkpt>
      <trkpt lat="43.21251" lon="5.38703">
        <ele>87.400001525879</ele>
        <time>2019-05-23T09:06:46.000Z</time>
      </trkpt>
      <trkpt lat="43.2125" lon="5.38702">
        <ele>87.199996948242</ele>
        <time>2019-05-23T09:06:47.000Z</time>
      </trkpt>
      <trkpt lat="43.21249" lon="5.387">
        <ele>86.800003051758</ele>
        <time>2019-05-23T09:06:49.000Z</time>
      </trkpt>
      <trkpt lat="43.21248" lon="5.38699">
        <ele>86.400001525879</ele>
        <time>2019-05-23T09:06:51.000Z</time>
      </trkpt>
      <trkpt lat="43.21248" lon="5.38697">
        <ele>86</ele>
        <time>2019-05-23T09:06:53.000Z</time>
      </trkpt>
      <trkpt lat="43.21247" lon="5.38695">
        <ele>85.599998474121</ele>
        <time>2019-05-23T09:06:55.000Z</time>
      </trkpt>
      <trkpt lat="43.21247" lon="5.38693">
        <ele>85.400001525879</ele>
        <time>2019-05-23T09:06:56.000Z</time>
      </trkpt>
      <trkpt lat="43.21244" lon="5.38693">
        <ele>84.400001525879</ele>
        <time>2019-05-23T09:06:58.000Z</time>
      </trkpt>
      <trkpt lat="43.21239" lon="5.38694">
        <ele>83</ele>
        <time>2019-05-23T09:07:01.000Z</time>
      </trkpt>
      <trkpt lat="43.21237" lon="5.38694">
        <ele>82.599998474121</ele>
        <time>2019-05-23T09:07:02.000Z</time>
      </trkpt>
      <trkpt lat="43.21236" lon="5.38694">
        <ele>82</ele>
        <time>2019-05-23T09:07:03.000Z</time>
      </trkpt>
      <trkpt lat="43.21235" lon="5.38695">
        <ele>80.800003051758</ele>
        <time>2019-05-23T09:07:05.000Z</time>
      </trkpt>
      <trkpt lat="43.21235" lon="5.38696">
        <ele>80</ele>
        <time>2019-05-23T09:07:07.000Z</time>
      </trkpt>
      <trkpt lat="43.21235" lon="5.38696">
        <ele>79.599998474121</ele>
        <time>2019-05-23T09:07:08.000Z</time>
      </trkpt>
      <trkpt lat="43.21234" lon="5.38696">
        <ele>79.400001525879</ele>
        <time>2019-05-23T09:07:10.000Z</time>
      </trkpt>
      <trkpt lat="43.21232" lon="5.38696">
        <ele>78.599998474121</ele>
        <time>2019-05-23T09:07:12.000Z</time>
      </trkpt>
      <trkpt lat="43.2123" lon="5.38696">
        <ele>78.199996948242</ele>
        <time>2019-05-23T09:07:13.000Z</time>
      </trkpt>
      <trkpt lat="43.21228" lon="5.38696">
        <ele>77.400001525879</ele>
        <time>2019-05-23T09:07:15.000Z</time>
      </trkpt>
      <trkpt lat="43.21226" lon="5.38697">
        <ele>76.800003051758</ele>
        <time>2019-05-23T09:07:16.000Z</time>
      </trkpt>
      <trkpt lat="43.21225" lon="5.38698">
        <ele>76.199996948242</ele>
        <time>2019-05-23T09:07:17.000Z</time>
      </trkpt>
      <trkpt lat="43.21223" lon="5.387">
        <ele>75.400001525879</ele>
        <time>2019-05-23T09:07:19.000Z</time>
      </trkpt>
      <trkpt lat="43.21218" lon="5.38699">
        <ele>74.400001525879</ele>
        <time>2019-05-23T09:07:22.000Z</time>
      </trkpt>
      <trkpt lat="43.21215" lon="5.38699">
        <ele>74</ele>
        <time>2019-05-23T09:07:23.000Z</time>
      </trkpt>
      <trkpt lat="43.21213" lon="5.387">
        <ele>73.599998474121</ele>
        <time>2019-05-23T09:07:24.000Z</time>
      </trkpt>
      <trkpt lat="43.21208" lon="5.38697">
        <ele>73</ele>
        <time>2019-05-23T09:07:27.000Z</time>
      </trkpt>
      <trkpt lat="43.21207" lon="5.38695">
        <ele>72.800003051758</ele>
        <time>2019-05-23T09:07:28.000Z</time>
      </trkpt>
      <trkpt lat="43.21203" lon="5.38691">
        <ele>72</ele>
        <time>2019-05-23T09:07:30.000Z</time>
      </trkpt>
      <trkpt lat="43.21202" lon="5.38689">
        <ele>71.800003051758</ele>
        <time>2019-05-23T09:07:31.000Z</time>
      </trkpt>
      <trkpt lat="43.21198" lon="5.38688">
        <ele>70.599998474121</ele>
        <time>2019-05-23T09:07:33.000Z</time>
      </trkpt>
      <trkpt lat="43.21196" lon="5.38689">
        <ele>70</ele>
        <time>2019-05-23T09:07:34.000Z</time>
      </trkpt>
      <trkpt lat="43.21193" lon="5.3869">
        <ele>69.599998474121</ele>
        <time>2019-05-23T09:07:35.000Z</time>
      </trkpt>
      <trkpt lat="43.21185" lon="5.38689">
        <ele>68.400001525879</ele>
        <time>2019-05-23T09:07:39.000Z</time>
      </trkpt>
      <trkpt lat="43.21181" lon="5.38684">
        <ele>67.199996948242</ele>
        <time>2019-05-23T09:07:42.000Z</time>
      </trkpt>
      <trkpt lat="43.21179" lon="5.38681">
        <ele>66.400001525879</ele>
        <time>2019-05-23T09:07:44.000Z</time>
      </trkpt>
      <trkpt lat="43.21177" lon="5.38681">
        <ele>66</ele>
        <time>2019-05-23T09:07:45.000Z</time>
      </trkpt>
      <trkpt lat="43.21173" lon="5.3868">
        <ele>64.800003051758</ele>
        <time>2019-05-23T09:07:47.000Z</time>
      </trkpt>
      <trkpt lat="43.2117" lon="5.3868">
        <ele>63.200000762939</ele>
        <time>2019-05-23T09:07:49.000Z</time>
      </trkpt>
      <trkpt lat="43.21167" lon="5.38678">
        <ele>62.200000762939</ele>
        <time>2019-05-23T09:07:51.000Z</time>
      </trkpt>
      <trkpt lat="43.21164" lon="5.38677">
        <ele>61.200000762939</ele>
        <time>2019-05-23T09:07:53.000Z</time>
      </trkpt>
      <trkpt lat="43.21161" lon="5.38675">
        <ele>59.799999237061</ele>
        <time>2019-05-23T09:07:56.000Z</time>
      </trkpt>
      <trkpt lat="43.21158" lon="5.38674">
        <ele>58.599998474121</ele>
        <time>2019-05-23T09:07:58.000Z</time>
      </trkpt>
      <trkpt lat="43.21152" lon="5.38671">
        <ele>57.200000762939</ele>
        <time>2019-05-23T09:08:02.000Z</time>
      </trkpt>
      <trkpt lat="43.2115" lon="5.3867">
        <ele>56.799999237061</ele>
        <time>2019-05-23T09:08:03.000Z</time>
      </trkpt>
      <trkpt lat="43.21147" lon="5.38667">
        <ele>56</ele>
        <time>2019-05-23T09:08:05.000Z</time>
      </trkpt>
      <trkpt lat="43.21145" lon="5.38664">
        <ele>55</ele>
        <time>2019-05-23T09:08:07.000Z</time>
      </trkpt>
      <trkpt lat="43.21144" lon="5.38659">
        <ele>53.599998474121</ele>
        <time>2019-05-23T09:08:10.000Z</time>
      </trkpt>
      <trkpt lat="43.21144" lon="5.38657">
        <ele>53.200000762939</ele>
        <time>2019-05-23T09:08:11.000Z</time>
      </trkpt>
      <trkpt lat="43.21146" lon="5.38651">
        <ele>52.599998474121</ele>
        <time>2019-05-23T09:08:13.000Z</time>
      </trkpt>
      <trkpt lat="43.21146" lon="5.38648">
        <ele>52.400001525879</ele>
        <time>2019-05-23T09:08:14.000Z</time>
      </trkpt>
      <trkpt lat="43.21151" lon="5.3864">
        <ele>51.599998474121</ele>
        <time>2019-05-23T09:08:16.000Z</time>
      </trkpt>
      <trkpt lat="43.21153" lon="5.38637">
        <ele>51</ele>
        <time>2019-05-23T09:08:17.000Z</time>
      </trkpt>
      <trkpt lat="43.21155" lon="5.38635">
        <ele>50.400001525879</ele>
        <time>2019-05-23T09:08:18.000Z</time>
      </trkpt>
      <trkpt lat="43.21156" lon="5.38631">
        <ele>49.599998474121</ele>
        <time>2019-05-23T09:08:20.000Z</time>
      </trkpt>
      <trkpt lat="43.21154" lon="5.38627">
        <ele>48.599998474121</ele>
        <time>2019-05-23T09:08:22.000Z</time>
      </trkpt>
      <trkpt lat="43.21152" lon="5.38625">
        <ele>48</ele>
        <time>2019-05-23T09:08:23.000Z</time>
      </trkpt>
      <trkpt lat="43.21147" lon="5.38621">
        <ele>47.200000762939</ele>
        <time>2019-05-23T09:08:25.000Z</time>
      </trkpt>
      <trkpt lat="43.21145" lon="5.38618">
        <ele>47</ele>
        <time>2019-05-23T09:08:26.000Z</time>
      </trkpt>
      <trkpt lat="43.21137" lon="5.38611">
        <ele>46.200000762939</ele>
        <time>2019-05-23T09:08:29.000Z</time>
      </trkpt>
      <trkpt lat="43.21134" lon="5.38607">
        <ele>45.799999237061</ele>
        <time>2019-05-23T09:08:31.000Z</time>
      </trkpt>
      <trkpt lat="43.21129" lon="5.38591">
        <ele>45.400001525879</ele>
        <time>2019-05-23T09:08:36.000Z</time>
      </trkpt>
      <trkpt lat="43.21127" lon="5.38585">
        <ele>45.799999237061</ele>
        <time>2019-05-23T09:08:38.000Z</time>
      </trkpt>
      <trkpt lat="43.21126" lon="5.3858">
        <ele>45.599998474121</ele>
        <time>2019-05-23T09:08:40.000Z</time>
      </trkpt>
      <trkpt lat="43.21124" lon="5.38576">
        <ele>45.200000762939</ele>
        <time>2019-05-23T09:08:42.000Z</time>
      </trkpt>
      <trkpt lat="43.21125" lon="5.38574">
        <ele>45.200000762939</ele>
        <time>2019-05-23T09:08:43.000Z</time>
      </trkpt>
      <trkpt lat="43.21125" lon="5.38567">
        <ele>45</ele>
        <time>2019-05-23T09:08:46.000Z</time>
      </trkpt>
      <trkpt lat="43.21113" lon="5.38556">
        <ele>44.799999237061</ele>
        <time>2019-05-23T09:08:51.000Z</time>
      </trkpt>
      <trkpt lat="43.21112" lon="5.3855">
        <ele>45.400001525879</ele>
        <time>2019-05-23T09:08:53.000Z</time>
      </trkpt>
      <trkpt lat="43.21108" lon="5.38543">
        <ele>46.200000762939</ele>
        <time>2019-05-23T09:08:57.000Z</time>
      </trkpt>
      <trkpt lat="43.21108" lon="5.38541">
        <ele>46.599998474121</ele>
        <time>2019-05-23T09:08:58.000Z</time>
      </trkpt>
      <trkpt lat="43.21104" lon="5.38535">
        <ele>47.200000762939</ele>
        <time>2019-05-23T09:09:02.000Z</time>
      </trkpt>
      <trkpt lat="43.21103" lon="5.38533">
        <ele>47.400001525879</ele>
        <time>2019-05-23T09:09:03.000Z</time>
      </trkpt>
      <trkpt lat="43.21103" lon="5.3852">
        <ele>47.200000762939</ele>
        <time>2019-05-23T09:09:08.000Z</time>
      </trkpt>
      <trkpt lat="43.21103" lon="5.38521">
        <ele>47.200000762939</ele>
        <time>2019-05-23T09:09:10.000Z</time>
      </trkpt>
      <trkpt lat="43.2111" lon="5.38519">
        <ele>45.599998474121</ele>
        <time>2019-05-23T09:09:41.000Z</time>
      </trkpt>
      <trkpt lat="43.21116" lon="5.38521">
        <ele>45.200000762939</ele>
        <time>2019-05-23T09:09:45.000Z</time>
      </trkpt>
      <trkpt lat="43.2112" lon="5.38516">
        <ele>45</ele>
        <time>2019-05-23T09:09:47.000Z</time>
      </trkpt>
      <trkpt lat="43.21125" lon="5.38513">
        <ele>44.799999237061</ele>
        <time>2019-05-23T09:09:49.000Z</time>
      </trkpt>
      <trkpt lat="43.21127" lon="5.38512">
        <ele>44.799999237061</ele>
        <time>2019-05-23T09:09:50.000Z</time>
      </trkpt>
      <trkpt lat="43.2113" lon="5.38511">
        <ele>44.599998474121</ele>
        <time>2019-05-23T09:09:51.000Z</time>
      </trkpt>
      <trkpt lat="43.21139" lon="5.38501">
        <ele>44</ele>
        <time>2019-05-23T09:09:56.000Z</time>
      </trkpt>
      <trkpt lat="43.21143" lon="5.38496">
        <ele>43.599998474121</ele>
        <time>2019-05-23T09:09:58.000Z</time>
      </trkpt>
      <trkpt lat="43.21146" lon="5.38495">
        <ele>43.599998474121</ele>
        <time>2019-05-23T09:09:59.000Z</time>
      </trkpt>
      <trkpt lat="43.21151" lon="5.38496">
        <ele>44</ele>
        <time>2019-05-23T09:10:01.000Z</time>
      </trkpt>
      <trkpt lat="43.21153" lon="5.38496">
        <ele>44.200000762939</ele>
        <time>2019-05-23T09:10:02.000Z</time>
      </trkpt>
      <trkpt lat="43.21163" lon="5.38492">
        <ele>45.200000762939</ele>
        <time>2019-05-23T09:10:07.000Z</time>
      </trkpt>
      <trkpt lat="43.21167" lon="5.38493">
        <ele>46</ele>
        <time>2019-05-23T09:10:09.000Z</time>
      </trkpt>
      <trkpt lat="43.21174" lon="5.38496">
        <ele>47.200000762939</ele>
        <time>2019-05-23T09:10:13.000Z</time>
      </trkpt>
      <trkpt lat="43.2118" lon="5.38498">
        <ele>48.400001525879</ele>
        <time>2019-05-23T09:10:17.000Z</time>
      </trkpt>
      <trkpt lat="43.21184" lon="5.38499">
        <ele>49</ele>
        <time>2019-05-23T09:10:19.000Z</time>
      </trkpt>
      <trkpt lat="43.21188" lon="5.38499">
        <ele>49.599998474121</ele>
        <time>2019-05-23T09:10:21.000Z</time>
      </trkpt>
      <trkpt lat="43.21194" lon="5.38497">
        <ele>50.200000762939</ele>
        <time>2019-05-23T09:10:24.000Z</time>
      </trkpt>
      <trkpt lat="43.21195" lon="5.38495">
        <ele>50.400001525879</ele>
        <time>2019-05-23T09:10:25.000Z</time>
      </trkpt>
      <trkpt lat="43.21198" lon="5.38492">
        <ele>50.599998474121</ele>
        <time>2019-05-23T09:10:27.000Z</time>
      </trkpt>
      <trkpt lat="43.21199" lon="5.3849">
        <ele>50.799999237061</ele>
        <time>2019-05-23T09:10:28.000Z</time>
      </trkpt>
      <trkpt lat="43.212" lon="5.38487">
        <ele>51.200000762939</ele>
        <time>2019-05-23T09:10:29.000Z</time>
      </trkpt>
      <trkpt lat="43.21202" lon="5.38483">
        <ele>51.799999237061</ele>
        <time>2019-05-23T09:10:31.000Z</time>
      </trkpt>
      <trkpt lat="43.21205" lon="5.38477">
        <ele>52.799999237061</ele>
        <time>2019-05-23T09:10:34.000Z</time>
      </trkpt>
      <trkpt lat="43.21205" lon="5.38475">
        <ele>52.799999237061</ele>
        <time>2019-05-23T09:10:35.000Z</time>
      </trkpt>
      <trkpt lat="43.21206" lon="5.38472">
        <ele>53</ele>
        <time>2019-05-23T09:10:36.000Z</time>
      </trkpt>
      <trkpt lat="43.2121" lon="5.38466">
        <ele>53.400001525879</ele>
        <time>2019-05-23T09:10:39.000Z</time>
      </trkpt>
      <trkpt lat="43.21215" lon="5.3846">
        <ele>54</ele>
        <time>2019-05-23T09:10:42.000Z</time>
      </trkpt>
      <trkpt lat="43.21216" lon="5.38454">
        <ele>54.200000762939</ele>
        <time>2019-05-23T09:10:45.000Z</time>
      </trkpt>
      <trkpt lat="43.2122" lon="5.38445">
        <ele>55</ele>
        <time>2019-05-23T09:10:49.000Z</time>
      </trkpt>
      <trkpt lat="43.21223" lon="5.3844">
        <ele>55.400001525879</ele>
        <time>2019-05-23T09:10:51.000Z</time>
      </trkpt>
      <trkpt lat="43.21226" lon="5.38438">
        <ele>56.200000762939</ele>
        <time>2019-05-23T09:10:53.000Z</time>
      </trkpt>
      <trkpt lat="43.2123" lon="5.38434">
        <ele>56.799999237061</ele>
        <time>2019-05-23T09:10:55.000Z</time>
      </trkpt>
      <trkpt lat="43.21232" lon="5.38434">
        <ele>57</ele>
        <time>2019-05-23T09:10:56.000Z</time>
      </trkpt>
      <trkpt lat="43.21245" lon="5.38433">
        <ele>56.599998474121</ele>
        <time>2019-05-23T09:11:02.000Z</time>
      </trkpt>
      <trkpt lat="43.21251" lon="5.38419">
        <ele>56.799999237061</ele>
        <time>2019-05-23T09:11:08.000Z</time>
      </trkpt>
      <trkpt lat="43.2125" lon="5.38411">
        <ele>56.400001525879</ele>
        <time>2019-05-23T09:11:11.000Z</time>
      </trkpt>
      <trkpt lat="43.21248" lon="5.38409">
        <ele>56.400001525879</ele>
        <time>2019-05-23T09:11:12.000Z</time>
      </trkpt>
      <trkpt lat="43.21246" lon="5.38403">
        <ele>56.200000762939</ele>
        <time>2019-05-23T09:11:14.000Z</time>
      </trkpt>
      <trkpt lat="43.21244" lon="5.38399">
        <ele>55.799999237061</ele>
        <time>2019-05-23T09:11:16.000Z</time>
      </trkpt>
      <trkpt lat="43.21242" lon="5.38395">
        <ele>55.400001525879</ele>
        <time>2019-05-23T09:11:18.000Z</time>
      </trkpt>
      <trkpt lat="43.21241" lon="5.38394">
        <ele>55.200000762939</ele>
        <time>2019-05-23T09:11:19.000Z</time>
      </trkpt>
      <trkpt lat="43.21233" lon="5.38393">
        <ele>54.400001525879</ele>
        <time>2019-05-23T09:11:23.000Z</time>
      </trkpt>
      <trkpt lat="43.21231" lon="5.38391">
        <ele>54.200000762939</ele>
        <time>2019-05-23T09:11:24.000Z</time>
      </trkpt>
      <trkpt lat="43.21228" lon="5.38389">
        <ele>54</ele>
        <time>2019-05-23T09:11:25.000Z</time>
      </trkpt>
      <trkpt lat="43.21221" lon="5.38388">
        <ele>53.599998474121</ele>
        <time>2019-05-23T09:11:27.000Z</time>
      </trkpt>
      <trkpt lat="43.21209" lon="5.38382">
        <ele>53.599998474121</ele>
        <time>2019-05-23T09:11:33.000Z</time>
      </trkpt>
      <trkpt lat="43.21204" lon="5.38374">
        <ele>52.799999237061</ele>
        <time>2019-05-23T09:11:38.000Z</time>
      </trkpt>
      <trkpt lat="43.21196" lon="5.3837">
        <ele>51.799999237061</ele>
        <time>2019-05-23T09:11:43.000Z</time>
      </trkpt>
      <trkpt lat="43.21186" lon="5.38365">
        <ele>50.799999237061</ele>
        <time>2019-05-23T09:11:48.000Z</time>
      </trkpt>
      <trkpt lat="43.21184" lon="5.38359">
        <ele>50.599998474121</ele>
        <time>2019-05-23T09:11:50.000Z</time>
      </trkpt>
      <trkpt lat="43.21181" lon="5.38359">
        <ele>50.599998474121</ele>
        <time>2019-05-23T09:11:51.000Z</time>
      </trkpt>
      <trkpt lat="43.2118" lon="5.38356">
        <ele>50.599998474121</ele>
        <time>2019-05-23T09:11:52.000Z</time>
      </trkpt>
      <trkpt lat="43.21179" lon="5.38354">
        <ele>50.400001525879</ele>
        <time>2019-05-23T09:11:53.000Z</time>
      </trkpt>
      <trkpt lat="43.21173" lon="5.38339">
        <ele>49.799999237061</ele>
        <time>2019-05-23T09:11:59.000Z</time>
      </trkpt>
      <trkpt lat="43.21166" lon="5.38336">
        <ele>48.799999237061</ele>
        <time>2019-05-23T09:12:02.000Z</time>
      </trkpt>
      <trkpt lat="43.21162" lon="5.38335">
        <ele>47.599998474121</ele>
        <time>2019-05-23T09:12:04.000Z</time>
      </trkpt>
      <trkpt lat="43.2116" lon="5.38335">
        <ele>47.200000762939</ele>
        <time>2019-05-23T09:12:05.000Z</time>
      </trkpt>
      <trkpt lat="43.21149" lon="5.38339">
        <ele>47.200000762939</ele>
        <time>2019-05-23T09:12:10.000Z</time>
      </trkpt>
      <trkpt lat="43.21138" lon="5.38345">
        <ele>47</ele>
        <time>2019-05-23T09:12:14.000Z</time>
      </trkpt>
      <trkpt lat="43.21133" lon="5.38346">
        <ele>46.599998474121</ele>
        <time>2019-05-23T09:12:16.000Z</time>
      </trkpt>
      <trkpt lat="43.21124" lon="5.38345">
        <ele>46.200000762939</ele>
        <time>2019-05-23T09:12:19.000Z</time>
      </trkpt>
      <trkpt lat="43.21114" lon="5.38344">
        <ele>46.599998474121</ele>
        <time>2019-05-23T09:12:24.000Z</time>
      </trkpt>
      <trkpt lat="43.21108" lon="5.38336">
        <ele>47.799999237061</ele>
        <time>2019-05-23T09:12:28.000Z</time>
      </trkpt>
      <trkpt lat="43.21107" lon="5.38334">
        <ele>47.799999237061</ele>
        <time>2019-05-23T09:12:29.000Z</time>
      </trkpt>
      <trkpt lat="43.211" lon="5.38326">
        <ele>47.400001525879</ele>
        <time>2019-05-23T09:12:33.000Z</time>
      </trkpt>
      <trkpt lat="43.21099" lon="5.38323">
        <ele>47.200000762939</ele>
        <time>2019-05-23T09:12:34.000Z</time>
      </trkpt>
      <trkpt lat="43.21096" lon="5.38319">
        <ele>46.799999237061</ele>
        <time>2019-05-23T09:12:36.000Z</time>
      </trkpt>
      <trkpt lat="43.21092" lon="5.38314">
        <ele>46.200000762939</ele>
        <time>2019-05-23T09:12:40.000Z</time>
      </trkpt>
      <trkpt lat="43.21087" lon="5.38311">
        <ele>45.599998474121</ele>
        <time>2019-05-23T09:12:43.000Z</time>
      </trkpt>
      <trkpt lat="43.21083" lon="5.38309">
        <ele>44.799999237061</ele>
        <time>2019-05-23T09:12:45.000Z</time>
      </trkpt>
      <trkpt lat="43.21082" lon="5.38307">
        <ele>44.200000762939</ele>
        <time>2019-05-23T09:12:46.000Z</time>
      </trkpt>
      <trkpt lat="43.21076" lon="5.38301">
        <ele>43</ele>
        <time>2019-05-23T09:12:49.000Z</time>
      </trkpt>
      <trkpt lat="43.21073" lon="5.38298">
        <ele>42</ele>
        <time>2019-05-23T09:12:51.000Z</time>
      </trkpt>
      <trkpt lat="43.21071" lon="5.38295">
        <ele>41.400001525879</ele>
        <time>2019-05-23T09:12:52.000Z</time>
      </trkpt>
      <trkpt lat="43.21069" lon="5.38293">
        <ele>39.799999237061</ele>
        <time>2019-05-23T09:12:54.000Z</time>
      </trkpt>
      <trkpt lat="43.21067" lon="5.38293">
        <ele>38.799999237061</ele>
        <time>2019-05-23T09:12:57.000Z</time>
      </trkpt>
      <trkpt lat="43.21065" lon="5.38293">
        <ele>38.400001525879</ele>
        <time>2019-05-23T09:12:59.000Z</time>
      </trkpt>
      <trkpt lat="43.21062" lon="5.38291">
        <ele>37.400001525879</ele>
        <time>2019-05-23T09:13:01.000Z</time>
      </trkpt>
      <trkpt lat="43.21061" lon="5.38291">
        <ele>36.799999237061</ele>
        <time>2019-05-23T09:13:02.000Z</time>
      </trkpt>
      <trkpt lat="43.2106" lon="5.38293">
        <ele>36.200000762939</ele>
        <time>2019-05-23T09:13:03.000Z</time>
      </trkpt>
      <trkpt lat="43.2106" lon="5.38294">
        <ele>35.599998474121</ele>
        <time>2019-05-23T09:13:04.000Z</time>
      </trkpt>
      <trkpt lat="43.21059" lon="5.38294">
        <ele>35.200000762939</ele>
        <time>2019-05-23T09:13:06.000Z</time>
      </trkpt>
      <trkpt lat="43.21057" lon="5.38293">
        <ele>34.799999237061</ele>
        <time>2019-05-23T09:13:07.000Z</time>
      </trkpt>
      <trkpt lat="43.21056" lon="5.38292">
        <ele>34.400001525879</ele>
        <time>2019-05-23T09:13:08.000Z</time>
      </trkpt>
      <trkpt lat="43.21054" lon="5.38289">
        <ele>33.200000762939</ele>
        <time>2019-05-23T09:13:10.000Z</time>
      </trkpt>
      <trkpt lat="43.21052" lon="5.38287">
        <ele>32.400001525879</ele>
        <time>2019-05-23T09:13:11.000Z</time>
      </trkpt>
      <trkpt lat="43.21051" lon="5.38284">
        <ele>31.60000038147</ele>
        <time>2019-05-23T09:13:12.000Z</time>
      </trkpt>
      <trkpt lat="43.21051" lon="5.3828">
        <ele>30.799999237061</ele>
        <time>2019-05-23T09:13:13.000Z</time>
      </trkpt>
      <trkpt lat="43.21051" lon="5.38277">
        <ele>30.200000762939</ele>
        <time>2019-05-23T09:13:14.000Z</time>
      </trkpt>
      <trkpt lat="43.21048" lon="5.38268">
        <ele>29</ele>
        <time>2019-05-23T09:13:18.000Z</time>
      </trkpt>
      <trkpt lat="43.21047" lon="5.38265">
        <ele>29</ele>
        <time>2019-05-23T09:13:19.000Z</time>
      </trkpt>
      <trkpt lat="43.21045" lon="5.38263">
        <ele>28.799999237061</ele>
        <time>2019-05-23T09:13:20.000Z</time>
      </trkpt>
      <trkpt lat="43.21039" lon="5.38255">
        <ele>28.200000762939</ele>
        <time>2019-05-23T09:13:23.000Z</time>
      </trkpt>
      <trkpt lat="43.21031" lon="5.38238">
        <ele>28.200000762939</ele>
        <time>2019-05-23T09:13:29.000Z</time>
      </trkpt>
      <trkpt lat="43.2103" lon="5.38223">
        <ele>28</ele>
        <time>2019-05-23T09:13:34.000Z</time>
      </trkpt>
      <trkpt lat="43.21031" lon="5.3822">
        <ele>28</ele>
        <time>2019-05-23T09:13:35.000Z</time>
      </trkpt>
      <trkpt lat="43.21031" lon="5.38217">
        <ele>28</ele>
        <time>2019-05-23T09:13:36.000Z</time>
      </trkpt>
      <trkpt lat="43.21035" lon="5.38207">
        <ele>28</ele>
        <time>2019-05-23T09:13:39.000Z</time>
      </trkpt>
      <trkpt lat="43.21041" lon="5.38192">
        <ele>27.60000038147</ele>
        <time>2019-05-23T09:13:45.000Z</time>
      </trkpt>
      <trkpt lat="43.21042" lon="5.38179">
        <ele>28.799999237061</ele>
        <time>2019-05-23T09:13:50.000Z</time>
      </trkpt>
      <trkpt lat="43.21042" lon="5.38177">
        <ele>29</ele>
        <time>2019-05-23T09:13:51.000Z</time>
      </trkpt>
      <trkpt lat="43.21042" lon="5.38167">
        <ele>30.39999961853</ele>
        <time>2019-05-23T09:13:55.000Z</time>
      </trkpt>
      <trkpt lat="43.21042" lon="5.38166">
        <ele>30.60000038147</ele>
        <time>2019-05-23T09:13:56.000Z</time>
      </trkpt>
      <trkpt lat="43.21042" lon="5.38162">
        <ele>31</ele>
        <time>2019-05-23T09:13:58.000Z</time>
      </trkpt>
      <trkpt lat="43.21042" lon="5.3816">
        <ele>31.39999961853</ele>
        <time>2019-05-23T09:13:59.000Z</time>
      </trkpt>
      <trkpt lat="43.21043" lon="5.38155">
        <ele>32</ele>
        <time>2019-05-23T09:14:01.000Z</time>
      </trkpt>
      <trkpt lat="43.21044" lon="5.3815">
        <ele>32.599998474121</ele>
        <time>2019-05-23T09:14:03.000Z</time>
      </trkpt>
      <trkpt lat="43.21046" lon="5.38139">
        <ele>32.799999237061</ele>
        <time>2019-05-23T09:14:07.000Z</time>
      </trkpt>
      <trkpt lat="43.21048" lon="5.38137">
        <ele>33</ele>
        <time>2019-05-23T09:14:08.000Z</time>
      </trkpt>
      <trkpt lat="43.21052" lon="5.38131">
        <ele>33</ele>
        <time>2019-05-23T09:14:11.000Z</time>
      </trkpt>
      <trkpt lat="43.2106" lon="5.38125">
        <ele>33.599998474121</ele>
        <time>2019-05-23T09:14:15.000Z</time>
      </trkpt>
      <trkpt lat="43.21062" lon="5.38125">
        <ele>33.799999237061</ele>
        <time>2019-05-23T09:14:16.000Z</time>
      </trkpt>
      <trkpt lat="43.21076" lon="5.3812">
        <ele>33.799999237061</ele>
        <time>2019-05-23T09:14:22.000Z</time>
      </trkpt>
      <trkpt lat="43.21081" lon="5.38112">
        <ele>33.200000762939</ele>
        <time>2019-05-23T09:14:26.000Z</time>
      </trkpt>
      <trkpt lat="43.21081" lon="5.3811">
        <ele>33.200000762939</ele>
        <time>2019-05-23T09:14:27.000Z</time>
      </trkpt>
      <trkpt lat="43.21081" lon="5.38104">
        <ele>33.200000762939</ele>
        <time>2019-05-23T09:14:29.000Z</time>
      </trkpt>
      <trkpt lat="43.21079" lon="5.38099">
        <ele>33.200000762939</ele>
        <time>2019-05-23T09:14:31.000Z</time>
      </trkpt>
      <trkpt lat="43.21078" lon="5.38095">
        <ele>33.400001525879</ele>
        <time>2019-05-23T09:14:32.000Z</time>
      </trkpt>
      <trkpt lat="43.21076" lon="5.3808">
        <ele>33.400001525879</ele>
        <time>2019-05-23T09:14:37.000Z</time>
      </trkpt>
      <trkpt lat="43.21076" lon="5.38077">
        <ele>33.200000762939</ele>
        <time>2019-05-23T09:14:38.000Z</time>
      </trkpt>
      <trkpt lat="43.21078" lon="5.38073">
        <ele>32.799999237061</ele>
        <time>2019-05-23T09:14:40.000Z</time>
      </trkpt>
      <trkpt lat="43.2108" lon="5.38072">
        <ele>32.400001525879</ele>
        <time>2019-05-23T09:14:41.000Z</time>
      </trkpt>
      <trkpt lat="43.21082" lon="5.3807">
        <ele>32</ele>
        <time>2019-05-23T09:14:43.000Z</time>
      </trkpt>
      <trkpt lat="43.21089" lon="5.38067">
        <ele>31.39999961853</ele>
        <time>2019-05-23T09:14:46.000Z</time>
      </trkpt>
      <trkpt lat="43.21091" lon="5.38066">
        <ele>31.39999961853</ele>
        <time>2019-05-23T09:14:47.000Z</time>
      </trkpt>
      <trkpt lat="43.21095" lon="5.38063">
        <ele>30.200000762939</ele>
        <time>2019-05-23T09:14:49.000Z</time>
      </trkpt>
      <trkpt lat="43.21099" lon="5.38059">
        <ele>29</ele>
        <time>2019-05-23T09:14:51.000Z</time>
      </trkpt>
      <trkpt lat="43.21104" lon="5.38056">
        <ele>27.799999237061</ele>
        <time>2019-05-23T09:14:54.000Z</time>
      </trkpt>
      <trkpt lat="43.21108" lon="5.38054">
        <ele>27.39999961853</ele>
        <time>2019-05-23T09:14:56.000Z</time>
      </trkpt>
      <trkpt lat="43.21117" lon="5.3805">
        <ele>27.200000762939</ele>
        <time>2019-05-23T09:15:02.000Z</time>
      </trkpt>
      <trkpt lat="43.21119" lon="5.38048">
        <ele>27.60000038147</ele>
        <time>2019-05-23T09:15:05.000Z</time>
      </trkpt>
      <trkpt lat="43.2112" lon="5.38048">
        <ele>27.799999237061</ele>
        <time>2019-05-23T09:15:06.000Z</time>
      </trkpt>
      <trkpt lat="43.21121" lon="5.38047">
        <ele>28</ele>
        <time>2019-05-23T09:15:08.000Z</time>
      </trkpt>
      <trkpt lat="43.21122" lon="5.38044">
        <ele>29</ele>
        <time>2019-05-23T09:15:12.000Z</time>
      </trkpt>
      <trkpt lat="43.21122" lon="5.38043">
        <ele>29.200000762939</ele>
        <time>2019-05-23T09:15:13.000Z</time>
      </trkpt>
      <trkpt lat="43.21122" lon="5.38042">
        <ele>29.39999961853</ele>
        <time>2019-05-23T09:15:14.000Z</time>
      </trkpt>
      <trkpt lat="43.21123" lon="5.3804">
        <ele>30</ele>
        <time>2019-05-23T09:15:16.000Z</time>
      </trkpt>
      <trkpt lat="43.21123" lon="5.38034">
        <ele>31</ele>
        <time>2019-05-23T09:15:20.000Z</time>
      </trkpt>
      <trkpt lat="43.21123" lon="5.38033">
        <ele>31.200000762939</ele>
        <time>2019-05-23T09:15:21.000Z</time>
      </trkpt>
      <trkpt lat="43.21122" lon="5.38028">
        <ele>32.200000762939</ele>
        <time>2019-05-23T09:15:24.000Z</time>
      </trkpt>
      <trkpt lat="43.21121" lon="5.38028">
        <ele>32.599998474121</ele>
        <time>2019-05-23T09:15:25.000Z</time>
      </trkpt>
      <trkpt lat="43.21121" lon="5.38028">
        <ele>33</ele>
        <time>2019-05-23T09:15:27.000Z</time>
      </trkpt>
      <trkpt lat="43.21122" lon="5.38027">
        <ele>33.799999237061</ele>
        <time>2019-05-23T09:15:29.000Z</time>
      </trkpt>
      <trkpt lat="43.21123" lon="5.38026">
        <ele>34</ele>
        <time>2019-05-23T09:15:30.000Z</time>
      </trkpt>
      <trkpt lat="43.21126" lon="5.38023">
        <ele>34.400001525879</ele>
        <time>2019-05-23T09:15:32.000Z</time>
      </trkpt>
      <trkpt lat="43.21129" lon="5.38019">
        <ele>34.400001525879</ele>
        <time>2019-05-23T09:15:34.000Z</time>
      </trkpt>
      <trkpt lat="43.21135" lon="5.38015">
        <ele>34.400001525879</ele>
        <time>2019-05-23T09:15:37.000Z</time>
      </trkpt>
      <trkpt lat="43.2114" lon="5.38012">
        <ele>34.200000762939</ele>
        <time>2019-05-23T09:15:39.000Z</time>
      </trkpt>
      <trkpt lat="43.21147" lon="5.3801">
        <ele>33.799999237061</ele>
        <time>2019-05-23T09:15:42.000Z</time>
      </trkpt>
      <trkpt lat="43.21148" lon="5.38009">
        <ele>33.599998474121</ele>
        <time>2019-05-23T09:15:43.000Z</time>
      </trkpt>
      <trkpt lat="43.21149" lon="5.38005">
        <ele>33.200000762939</ele>
        <time>2019-05-23T09:15:45.000Z</time>
      </trkpt>
      <trkpt lat="43.21149" lon="5.38003">
        <ele>32.799999237061</ele>
        <time>2019-05-23T09:15:46.000Z</time>
      </trkpt>
      <trkpt lat="43.21148" lon="5.38001">
        <ele>32.400001525879</ele>
        <time>2019-05-23T09:15:47.000Z</time>
      </trkpt>
      <trkpt lat="43.21146" lon="5.37998">
        <ele>32.200000762939</ele>
        <time>2019-05-23T09:15:48.000Z</time>
      </trkpt>
      <trkpt lat="43.21143" lon="5.37992">
        <ele>31.799999237061</ele>
        <time>2019-05-23T09:15:50.000Z</time>
      </trkpt>
      <trkpt lat="43.21142" lon="5.37989">
        <ele>31.799999237061</ele>
        <time>2019-05-23T09:15:51.000Z</time>
      </trkpt>
      <trkpt lat="43.21141" lon="5.37984">
        <ele>31.799999237061</ele>
        <time>2019-05-23T09:15:53.000Z</time>
      </trkpt>
      <trkpt lat="43.2114" lon="5.37981">
        <ele>31.799999237061</ele>
        <time>2019-05-23T09:15:54.000Z</time>
      </trkpt>
      <trkpt lat="43.21137" lon="5.37975">
        <ele>32.599998474121</ele>
        <time>2019-05-23T09:15:56.000Z</time>
      </trkpt>
      <trkpt lat="43.21134" lon="5.3797">
        <ele>33.599998474121</ele>
        <time>2019-05-23T09:15:58.000Z</time>
      </trkpt>
      <trkpt lat="43.21132" lon="5.37967">
        <ele>34.200000762939</ele>
        <time>2019-05-23T09:15:59.000Z</time>
      </trkpt>
      <trkpt lat="43.21131" lon="5.37964">
        <ele>34.599998474121</ele>
        <time>2019-05-23T09:16:00.000Z</time>
      </trkpt>
      <trkpt lat="43.21128" lon="5.3796">
        <ele>34.799999237061</ele>
        <time>2019-05-23T09:16:01.000Z</time>
      </trkpt>
      <trkpt lat="43.21123" lon="5.37953">
        <ele>35.799999237061</ele>
        <time>2019-05-23T09:16:04.000Z</time>
      </trkpt>
      <trkpt lat="43.21119" lon="5.37949">
        <ele>37</ele>
        <time>2019-05-23T09:16:07.000Z</time>
      </trkpt>
      <trkpt lat="43.21118" lon="5.37949">
        <ele>37.200000762939</ele>
        <time>2019-05-23T09:16:09.000Z</time>
      </trkpt>
      <trkpt lat="43.21116" lon="5.37946">
        <ele>37.599998474121</ele>
        <time>2019-05-23T09:16:11.000Z</time>
      </trkpt>
      <trkpt lat="43.21115" lon="5.37943">
        <ele>38.200000762939</ele>
        <time>2019-05-23T09:16:13.000Z</time>
      </trkpt>
      <trkpt lat="43.21109" lon="5.37938">
        <ele>39</ele>
        <time>2019-05-23T09:16:19.000Z</time>
      </trkpt>
      <trkpt lat="43.21108" lon="5.37937">
        <ele>39.200000762939</ele>
        <time>2019-05-23T09:16:20.000Z</time>
      </trkpt>
      <trkpt lat="43.21103" lon="5.37929">
        <ele>39.799999237061</ele>
        <time>2019-05-23T09:16:27.000Z</time>
      </trkpt>
      <trkpt lat="43.21101" lon="5.37927">
        <ele>40.200000762939</ele>
        <time>2019-05-23T09:16:29.000Z</time>
      </trkpt>
      <trkpt lat="43.21099" lon="5.37926">
        <ele>41.200000762939</ele>
        <time>2019-05-23T09:16:32.000Z</time>
      </trkpt>
      <trkpt lat="43.21098" lon="5.37926">
        <ele>41.400001525879</ele>
        <time>2019-05-23T09:16:33.000Z</time>
      </trkpt>
      <trkpt lat="43.21088" lon="5.37917">
        <ele>41.799999237061</ele>
        <time>2019-05-23T09:16:39.000Z</time>
      </trkpt>
      <trkpt lat="43.21085" lon="5.37903">
        <ele>41.799999237061</ele>
        <time>2019-05-23T09:16:43.000Z</time>
      </trkpt>
      <trkpt lat="43.21085" lon="5.379">
        <ele>41.799999237061</ele>
        <time>2019-05-23T09:16:44.000Z</time>
      </trkpt>
      <trkpt lat="43.21087" lon="5.37889">
        <ele>41.799999237061</ele>
        <time>2019-05-23T09:16:48.000Z</time>
      </trkpt>
      <trkpt lat="43.21088" lon="5.37885">
        <ele>41.799999237061</ele>
        <time>2019-05-23T09:16:49.000Z</time>
      </trkpt>
      <trkpt lat="43.21088" lon="5.37872">
        <ele>42</ele>
        <time>2019-05-23T09:16:53.000Z</time>
      </trkpt>
      <trkpt lat="43.21094" lon="5.37854">
        <ele>41.599998474121</ele>
        <time>2019-05-23T09:16:59.000Z</time>
      </trkpt>
      <trkpt lat="43.21094" lon="5.37848">
        <ele>41.599998474121</ele>
        <time>2019-05-23T09:17:01.000Z</time>
      </trkpt>
      <trkpt lat="43.21093" lon="5.37842">
        <ele>41.799999237061</ele>
        <time>2019-05-23T09:17:03.000Z</time>
      </trkpt>
      <trkpt lat="43.21084" lon="5.37824">
        <ele>41.799999237061</ele>
        <time>2019-05-23T09:17:09.000Z</time>
      </trkpt>
      <trkpt lat="43.21073" lon="5.37814">
        <ele>41.799999237061</ele>
        <time>2019-05-23T09:17:14.000Z</time>
      </trkpt>
      <trkpt lat="43.21066" lon="5.37799">
        <ele>42.200000762939</ele>
        <time>2019-05-23T09:17:20.000Z</time>
      </trkpt>
      <trkpt lat="43.21066" lon="5.37796">
        <ele>42.599998474121</ele>
        <time>2019-05-23T09:17:21.000Z</time>
      </trkpt>
      <trkpt lat="43.21061" lon="5.37783">
        <ele>43.599998474121</ele>
        <time>2019-05-23T09:17:26.000Z</time>
      </trkpt>
      <trkpt lat="43.21048" lon="5.37761">
        <ele>42.799999237061</ele>
        <time>2019-05-23T09:17:34.000Z</time>
      </trkpt>
      <trkpt lat="43.21047" lon="5.37758">
        <ele>42.799999237061</ele>
        <time>2019-05-23T09:17:35.000Z</time>
      </trkpt>
      <trkpt lat="43.21042" lon="5.37745">
        <ele>42.799999237061</ele>
        <time>2019-05-23T09:17:40.000Z</time>
      </trkpt>
      <trkpt lat="43.21042" lon="5.37733">
        <ele>42.599998474121</ele>
        <time>2019-05-23T09:17:44.000Z</time>
      </trkpt>
      <trkpt lat="43.2104" lon="5.37723">
        <ele>42.599998474121</ele>
        <time>2019-05-23T09:17:47.000Z</time>
      </trkpt>
      <trkpt lat="43.21037" lon="5.37709">
        <ele>42.599998474121</ele>
        <time>2019-05-23T09:17:52.000Z</time>
      </trkpt>
      <trkpt lat="43.21039" lon="5.37688">
        <ele>42.400001525879</ele>
        <time>2019-05-23T09:17:58.000Z</time>
      </trkpt>
      <trkpt lat="43.21044" lon="5.37677">
        <ele>42.200000762939</ele>
        <time>2019-05-23T09:18:02.000Z</time>
      </trkpt>
      <trkpt lat="43.21046" lon="5.37672">
        <ele>42</ele>
        <time>2019-05-23T09:18:04.000Z</time>
      </trkpt>
      <trkpt lat="43.21046" lon="5.37668">
        <ele>41.799999237061</ele>
        <time>2019-05-23T09:18:06.000Z</time>
      </trkpt>
      <trkpt lat="43.21044" lon="5.37661">
        <ele>41.400001525879</ele>
        <time>2019-05-23T09:18:08.000Z</time>
      </trkpt>
      <trkpt lat="43.21043" lon="5.37659">
        <ele>41.200000762939</ele>
        <time>2019-05-23T09:18:09.000Z</time>
      </trkpt>
      <trkpt lat="43.2103" lon="5.37648">
        <ele>40.400001525879</ele>
        <time>2019-05-23T09:18:14.000Z</time>
      </trkpt>
      <trkpt lat="43.21029" lon="5.37646">
        <ele>40.200000762939</ele>
        <time>2019-05-23T09:18:15.000Z</time>
      </trkpt>
      <trkpt lat="43.21026" lon="5.37643">
        <ele>39.599998474121</ele>
        <time>2019-05-23T09:18:17.000Z</time>
      </trkpt>
      <trkpt lat="43.21024" lon="5.37635">
        <ele>39.400001525879</ele>
        <time>2019-05-23T09:18:20.000Z</time>
      </trkpt>
      <trkpt lat="43.21025" lon="5.37625">
        <ele>39.400001525879</ele>
        <time>2019-05-23T09:18:25.000Z</time>
      </trkpt>
      <trkpt lat="43.21026" lon="5.37622">
        <ele>39.200000762939</ele>
        <time>2019-05-23T09:18:26.000Z</time>
      </trkpt>
      <trkpt lat="43.21027" lon="5.37619">
        <ele>38.799999237061</ele>
        <time>2019-05-23T09:18:28.000Z</time>
      </trkpt>
      <trkpt lat="43.21025" lon="5.37614">
        <ele>38.200000762939</ele>
        <time>2019-05-23T09:18:30.000Z</time>
      </trkpt>
      <trkpt lat="43.21023" lon="5.37611">
        <ele>37.599998474121</ele>
        <time>2019-05-23T09:18:31.000Z</time>
      </trkpt>
      <trkpt lat="43.21021" lon="5.37608">
        <ele>37</ele>
        <time>2019-05-23T09:18:32.000Z</time>
      </trkpt>
      <trkpt lat="43.21018" lon="5.37602">
        <ele>36</ele>
        <time>2019-05-23T09:18:34.000Z</time>
      </trkpt>
      <trkpt lat="43.21017" lon="5.37596">
        <ele>35</ele>
        <time>2019-05-23T09:18:36.000Z</time>
      </trkpt>
      <trkpt lat="43.21017" lon="5.37593">
        <ele>34.599998474121</ele>
        <time>2019-05-23T09:18:37.000Z</time>
      </trkpt>
      <trkpt lat="43.21014" lon="5.37579">
        <ele>33.400001525879</ele>
        <time>2019-05-23T09:18:42.000Z</time>
      </trkpt>
      <trkpt lat="43.21014" lon="5.37576">
        <ele>33</ele>
        <time>2019-05-23T09:18:43.000Z</time>
      </trkpt>
      <trkpt lat="43.21011" lon="5.37567">
        <ele>32.200000762939</ele>
        <time>2019-05-23T09:18:46.000Z</time>
      </trkpt>
      <trkpt lat="43.21007" lon="5.3756">
        <ele>31.60000038147</ele>
        <time>2019-05-23T09:18:49.000Z</time>
      </trkpt>
      <trkpt lat="43.21004" lon="5.37556">
        <ele>31.200000762939</ele>
        <time>2019-05-23T09:18:51.000Z</time>
      </trkpt>
      <trkpt lat="43.21" lon="5.37548">
        <ele>30.60000038147</ele>
        <time>2019-05-23T09:18:54.000Z</time>
      </trkpt>
      <trkpt lat="43.20998" lon="5.37541">
        <ele>30</ele>
        <time>2019-05-23T09:18:56.000Z</time>
      </trkpt>
      <trkpt lat="43.20996" lon="5.37533">
        <ele>29.39999961853</ele>
        <time>2019-05-23T09:18:59.000Z</time>
      </trkpt>
      <trkpt lat="43.20995" lon="5.3753">
        <ele>29</ele>
        <time>2019-05-23T09:19:00.000Z</time>
      </trkpt>
      <trkpt lat="43.20993" lon="5.37527">
        <ele>28.799999237061</ele>
        <time>2019-05-23T09:19:01.000Z</time>
      </trkpt>
      <trkpt lat="43.20989" lon="5.37521">
        <ele>28.200000762939</ele>
        <time>2019-05-23T09:19:04.000Z</time>
      </trkpt>
      <trkpt lat="43.20987" lon="5.37518">
        <ele>27.799999237061</ele>
        <time>2019-05-23T09:19:06.000Z</time>
      </trkpt>
      <trkpt lat="43.20987" lon="5.37508">
        <ele>27.200000762939</ele>
        <time>2019-05-23T09:19:09.000Z</time>
      </trkpt>
      <trkpt lat="43.20986" lon="5.375">
        <ele>26.60000038147</ele>
        <time>2019-05-23T09:19:12.000Z</time>
      </trkpt>
      <trkpt lat="43.20983" lon="5.37495">
        <ele>25.60000038147</ele>
        <time>2019-05-23T09:19:15.000Z</time>
      </trkpt>
      <trkpt lat="43.20979" lon="5.37487">
        <ele>24.799999237061</ele>
        <time>2019-05-23T09:19:18.000Z</time>
      </trkpt>
      <trkpt lat="43.20977" lon="5.37485">
        <ele>24.39999961853</ele>
        <time>2019-05-23T09:19:19.000Z</time>
      </trkpt>
      <trkpt lat="43.20975" lon="5.37483">
        <ele>23.799999237061</ele>
        <time>2019-05-23T09:19:21.000Z</time>
      </trkpt>
      <trkpt lat="43.20973" lon="5.37482">
        <ele>27.60000038147</ele>
        <time>2019-05-23T09:19:23.000Z</time>
      </trkpt>
      <trkpt lat="43.20971" lon="5.37476">
        <ele>19</ele>
        <time>2019-05-23T09:20:49.000Z</time>
      </trkpt>
      <trkpt lat="43.2097" lon="5.37474">
        <ele>19</ele>
        <time>2019-05-23T09:20:50.000Z</time>
      </trkpt>
      <trkpt lat="43.20966" lon="5.37469">
        <ele>19</ele>
        <time>2019-05-23T09:20:52.000Z</time>
      </trkpt>
      <trkpt lat="43.20961" lon="5.37465">
        <ele>19</ele>
        <time>2019-05-23T09:20:54.000Z</time>
      </trkpt>
      <trkpt lat="43.20958" lon="5.37459">
        <ele>19</ele>
        <time>2019-05-23T09:20:56.000Z</time>
      </trkpt>
      <trkpt lat="43.20957" lon="5.37452">
        <ele>19</ele>
        <time>2019-05-23T09:20:58.000Z</time>
      </trkpt>
      <trkpt lat="43.20956" lon="5.37443">
        <ele>18.799999237061</ele>
        <time>2019-05-23T09:21:00.000Z</time>
      </trkpt>
      <trkpt lat="43.20956" lon="5.37439">
        <ele>18.60000038147</ele>
        <time>2019-05-23T09:21:01.000Z</time>
      </trkpt>
      <trkpt lat="43.20957" lon="5.37431">
        <ele>18</ele>
        <time>2019-05-23T09:21:03.000Z</time>
      </trkpt>
      <trkpt lat="43.20956" lon="5.37426">
        <ele>17.60000038147</ele>
        <time>2019-05-23T09:21:05.000Z</time>
      </trkpt>
      <trkpt lat="43.20954" lon="5.37418">
        <ele>18.200000762939</ele>
        <time>2019-05-23T09:21:08.000Z</time>
      </trkpt>
      <trkpt lat="43.20951" lon="5.37413">
        <ele>18.799999237061</ele>
        <time>2019-05-23T09:21:10.000Z</time>
      </trkpt>
      <trkpt lat="43.20949" lon="5.37411">
        <ele>19</ele>
        <time>2019-05-23T09:21:11.000Z</time>
      </trkpt>
      <trkpt lat="43.20947" lon="5.37409">
        <ele>19</ele>
        <time>2019-05-23T09:21:12.000Z</time>
      </trkpt>
      <trkpt lat="43.20943" lon="5.37405">
        <ele>19.200000762939</ele>
        <time>2019-05-23T09:21:14.000Z</time>
      </trkpt>
      <trkpt lat="43.2094" lon="5.37401">
        <ele>19.39999961853</ele>
        <time>2019-05-23T09:21:16.000Z</time>
      </trkpt>
      <trkpt lat="43.20935" lon="5.37391">
        <ele>20.200000762939</ele>
        <time>2019-05-23T09:21:20.000Z</time>
      </trkpt>
      <trkpt lat="43.20932" lon="5.37386">
        <ele>20.799999237061</ele>
        <time>2019-05-23T09:21:22.000Z</time>
      </trkpt>
      <trkpt lat="43.2093" lon="5.37373">
        <ele>21.200000762939</ele>
        <time>2019-05-23T09:21:26.000Z</time>
      </trkpt>
      <trkpt lat="43.20931" lon="5.37368">
        <ele>21.200000762939</ele>
        <time>2019-05-23T09:21:27.000Z</time>
      </trkpt>
      <trkpt lat="43.20934" lon="5.37357">
        <ele>21</ele>
        <time>2019-05-23T09:21:30.000Z</time>
      </trkpt>
      <trkpt lat="43.20936" lon="5.37354">
        <ele>21</ele>
        <time>2019-05-23T09:21:31.000Z</time>
      </trkpt>
      <trkpt lat="43.20938" lon="5.37352">
        <ele>21</ele>
        <time>2019-05-23T09:21:32.000Z</time>
      </trkpt>
      <trkpt lat="43.20951" lon="5.37348">
        <ele>21</ele>
        <time>2019-05-23T09:21:37.000Z</time>
      </trkpt>
      <trkpt lat="43.20953" lon="5.37349">
        <ele>21</ele>
        <time>2019-05-23T09:21:38.000Z</time>
      </trkpt>
      <trkpt lat="43.20958" lon="5.37355">
        <ele>21.200000762939</ele>
        <time>2019-05-23T09:21:41.000Z</time>
      </trkpt>
      <trkpt lat="43.20963" lon="5.37366">
        <ele>21</ele>
        <time>2019-05-23T09:21:46.000Z</time>
      </trkpt>
      <trkpt lat="43.2097" lon="5.37376">
        <ele>21.60000038147</ele>
        <time>2019-05-23T09:21:52.000Z</time>
      </trkpt>
      <trkpt lat="43.20979" lon="5.37375">
        <ele>21.60000038147</ele>
        <time>2019-05-23T09:21:55.000Z</time>
      </trkpt>
      <trkpt lat="43.20982" lon="5.37375">
        <ele>21.39999961853</ele>
        <time>2019-05-23T09:21:56.000Z</time>
      </trkpt>
      <trkpt lat="43.20991" lon="5.37375">
        <ele>20.200000762939</ele>
        <time>2019-05-23T09:22:00.000Z</time>
      </trkpt>
      <trkpt lat="43.20995" lon="5.37374">
        <ele>19.799999237061</ele>
        <time>2019-05-23T09:22:04.000Z</time>
      </trkpt>
      <trkpt lat="43.20995" lon="5.37374">
        <ele>19</ele>
        <time>2019-05-23T09:22:07.000Z</time>
      </trkpt>
      <trkpt lat="43.20996" lon="5.37374">
        <ele>18.60000038147</ele>
        <time>2019-05-23T09:22:09.000Z</time>
      </trkpt>
      <trkpt lat="43.20995" lon="5.37373">
        <ele>18.39999961853</ele>
        <time>2019-05-23T09:22:11.000Z</time>
      </trkpt>
      <trkpt lat="43.20995" lon="5.37372">
        <ele>18</ele>
        <time>2019-05-23T09:22:12.000Z</time>
      </trkpt>
      <trkpt lat="43.20991" lon="5.37368">
        <ele>17</ele>
        <time>2019-05-23T09:22:15.000Z</time>
      </trkpt>
      <trkpt lat="43.2099" lon="5.37366">
        <ele>16.799999237061</ele>
        <time>2019-05-23T09:22:16.000Z</time>
      </trkpt>
      <trkpt lat="43.20984" lon="5.3736">
        <ele>15.39999961853</ele>
        <time>2019-05-23T09:22:19.000Z</time>
      </trkpt>
      <trkpt lat="43.20981" lon="5.37357">
        <ele>14</ele>
        <time>2019-05-23T09:22:21.000Z</time>
      </trkpt>
      <trkpt lat="43.20978" lon="5.37352">
        <ele>12.800000190735</ele>
        <time>2019-05-23T09:22:23.000Z</time>
      </trkpt>
      <trkpt lat="43.20976" lon="5.37344">
        <ele>12.199999809265</ele>
        <time>2019-05-23T09:22:25.000Z</time>
      </trkpt>
      <trkpt lat="43.20976" lon="5.37337">
        <ele>12</ele>
        <time>2019-05-23T09:22:27.000Z</time>
      </trkpt>
      <trkpt lat="43.20973" lon="5.37322">
        <ele>13</ele>
        <time>2019-05-23T09:22:33.000Z</time>
      </trkpt>
      <trkpt lat="43.20975" lon="5.37312">
        <ele>13</ele>
        <time>2019-05-23T09:22:36.000Z</time>
      </trkpt>
      <trkpt lat="43.20975" lon="5.37311">
        <ele>12.800000190735</ele>
        <time>2019-05-23T09:22:37.000Z</time>
      </trkpt>
      <trkpt lat="43.20973" lon="5.37309">
        <ele>12.60000038147</ele>
        <time>2019-05-23T09:22:38.000Z</time>
      </trkpt>
      <trkpt lat="43.20972" lon="5.37306">
        <ele>12.60000038147</ele>
        <time>2019-05-23T09:22:39.000Z</time>
      </trkpt>
      <trkpt lat="43.20968" lon="5.37301">
        <ele>12.39999961853</ele>
        <time>2019-05-23T09:22:41.000Z</time>
      </trkpt>
      <trkpt lat="43.20963" lon="5.37292">
        <ele>12.199999809265</ele>
        <time>2019-05-23T09:22:44.000Z</time>
      </trkpt>
      <trkpt lat="43.2096" lon="5.37289">
        <ele>12.199999809265</ele>
        <time>2019-05-23T09:22:46.000Z</time>
      </trkpt>
      <trkpt lat="43.2095" lon="5.37281">
        <ele>11.800000190735</ele>
        <time>2019-05-23T09:22:51.000Z</time>
      </trkpt>
      <trkpt lat="43.20949" lon="5.3728">
        <ele>11.800000190735</ele>
        <time>2019-05-23T09:22:52.000Z</time>
      </trkpt>
      <trkpt lat="43.20947" lon="5.37283">
        <ele>9.1999998092651</ele>
        <time>2019-05-23T09:43:49.000Z</time>
      </trkpt>
      <trkpt lat="43.20947" lon="5.37283">
        <ele>9.1999998092651</ele>
        <time>2019-05-23T09:43:50.000Z</time>
      </trkpt>
      <trkpt lat="43.20949" lon="5.37282">
        <ele>9.1999998092651</ele>
        <time>2019-05-23T09:43:51.000Z</time>
      </trkpt>
      <trkpt lat="43.20954" lon="5.3728">
        <ele>10.800000190735</ele>
        <time>2019-05-23T09:43:54.000Z</time>
      </trkpt>
      <trkpt lat="43.20956" lon="5.3728">
        <ele>11.199999809265</ele>
        <time>2019-05-23T09:43:55.000Z</time>
      </trkpt>
      <trkpt lat="43.2096" lon="5.37282">
        <ele>11.800000190735</ele>
        <time>2019-05-23T09:43:57.000Z</time>
      </trkpt>
      <trkpt lat="43.20964" lon="5.37283">
        <ele>12.39999961853</ele>
        <time>2019-05-23T09:43:59.000Z</time>
      </trkpt>
      <trkpt lat="43.20966" lon="5.37281">
        <ele>12.800000190735</ele>
        <time>2019-05-23T09:44:00.000Z</time>
      </trkpt>
      <trkpt lat="43.20967" lon="5.37278">
        <ele>13</ele>
        <time>2019-05-23T09:44:01.000Z</time>
      </trkpt>
      <trkpt lat="43.20968" lon="5.37276">
        <ele>13.199999809265</ele>
        <time>2019-05-23T09:44:02.000Z</time>
      </trkpt>
      <trkpt lat="43.2097" lon="5.37272">
        <ele>13.39999961853</ele>
        <time>2019-05-23T09:44:04.000Z</time>
      </trkpt>
      <trkpt lat="43.20972" lon="5.37267">
        <ele>13.60000038147</ele>
        <time>2019-05-23T09:44:06.000Z</time>
      </trkpt>
      <trkpt lat="43.20975" lon="5.37262">
        <ele>13.60000038147</ele>
        <time>2019-05-23T09:44:08.000Z</time>
      </trkpt>
      <trkpt lat="43.20977" lon="5.37259">
        <ele>13.800000190735</ele>
        <time>2019-05-23T09:44:10.000Z</time>
      </trkpt>
      <trkpt lat="43.20978" lon="5.37258">
        <ele>13.800000190735</ele>
        <time>2019-05-23T09:44:11.000Z</time>
      </trkpt>
      <trkpt lat="43.20983" lon="5.37254">
        <ele>14</ele>
        <time>2019-05-23T09:44:14.000Z</time>
      </trkpt>
      <trkpt lat="43.20984" lon="5.37252">
        <ele>14.199999809265</ele>
        <time>2019-05-23T09:44:15.000Z</time>
      </trkpt>
      <trkpt lat="43.20985" lon="5.37249">
        <ele>14.199999809265</ele>
        <time>2019-05-23T09:44:16.000Z</time>
      </trkpt>
      <trkpt lat="43.20989" lon="5.37247">
        <ele>14.60000038147</ele>
        <time>2019-05-23T09:44:19.000Z</time>
      </trkpt>
      <trkpt lat="43.20991" lon="5.37244">
        <ele>15</ele>
        <time>2019-05-23T09:44:21.000Z</time>
      </trkpt>
      <trkpt lat="43.20993" lon="5.37238">
        <ele>16.200000762939</ele>
        <time>2019-05-23T09:44:24.000Z</time>
      </trkpt>
      <trkpt lat="43.20993" lon="5.37237">
        <ele>16.60000038147</ele>
        <time>2019-05-23T09:44:25.000Z</time>
      </trkpt>
      <trkpt lat="43.20992" lon="5.37234">
        <ele>17.60000038147</ele>
        <time>2019-05-23T09:44:27.000Z</time>
      </trkpt>
      <trkpt lat="43.20991" lon="5.37231">
        <ele>18</ele>
        <time>2019-05-23T09:44:28.000Z</time>
      </trkpt>
      <trkpt lat="43.2099" lon="5.37226">
        <ele>18.39999961853</ele>
        <time>2019-05-23T09:44:30.000Z</time>
      </trkpt>
      <trkpt lat="43.20989" lon="5.37223">
        <ele>18.60000038147</ele>
        <time>2019-05-23T09:44:31.000Z</time>
      </trkpt>
      <trkpt lat="43.20987" lon="5.37212">
        <ele>19.799999237061</ele>
        <time>2019-05-23T09:44:35.000Z</time>
      </trkpt>
      <trkpt lat="43.20986" lon="5.37208">
        <ele>20.60000038147</ele>
        <time>2019-05-23T09:44:37.000Z</time>
      </trkpt>
      <trkpt lat="43.20985" lon="5.37206">
        <ele>21</ele>
        <time>2019-05-23T09:44:38.000Z</time>
      </trkpt>
      <trkpt lat="43.20983" lon="5.37201">
        <ele>21.60000038147</ele>
        <time>2019-05-23T09:44:41.000Z</time>
      </trkpt>
      <trkpt lat="43.20983" lon="5.37198">
        <ele>21.799999237061</ele>
        <time>2019-05-23T09:44:42.000Z</time>
      </trkpt>
      <trkpt lat="43.20982" lon="5.37196">
        <ele>22.200000762939</ele>
        <time>2019-05-23T09:44:43.000Z</time>
      </trkpt>
      <trkpt lat="43.2098" lon="5.37193">
        <ele>22.799999237061</ele>
        <time>2019-05-23T09:44:45.000Z</time>
      </trkpt>
      <trkpt lat="43.20977" lon="5.3719">
        <ele>23</ele>
        <time>2019-05-23T09:44:47.000Z</time>
      </trkpt>
      <trkpt lat="43.20969" lon="5.37181">
        <ele>22.200000762939</ele>
        <time>2019-05-23T09:44:52.000Z</time>
      </trkpt>
      <trkpt lat="43.20963" lon="5.37175">
        <ele>23</ele>
        <time>2019-05-23T09:44:57.000Z</time>
      </trkpt>
      <trkpt lat="43.20961" lon="5.37171">
        <ele>23.200000762939</ele>
        <time>2019-05-23T09:44:59.000Z</time>
      </trkpt>
      <trkpt lat="43.20956" lon="5.37162">
        <ele>24</ele>
        <time>2019-05-23T09:45:03.000Z</time>
      </trkpt>
      <trkpt lat="43.20955" lon="5.3716">
        <ele>24.200000762939</ele>
        <time>2019-05-23T09:45:04.000Z</time>
      </trkpt>
      <trkpt lat="43.20954" lon="5.37159">
        <ele>24.39999961853</ele>
        <time>2019-05-23T09:45:05.000Z</time>
      </trkpt>
      <trkpt lat="43.20951" lon="5.37148">
        <ele>25</ele>
        <time>2019-05-23T09:45:11.000Z</time>
      </trkpt>
      <trkpt lat="43.2095" lon="5.37145">
        <ele>25.60000038147</ele>
        <time>2019-05-23T09:45:13.000Z</time>
      </trkpt>
      <trkpt lat="43.20949" lon="5.37142">
        <ele>26</ele>
        <time>2019-05-23T09:45:15.000Z</time>
      </trkpt>
      <trkpt lat="43.20948" lon="5.37141">
        <ele>26.200000762939</ele>
        <time>2019-05-23T09:45:16.000Z</time>
      </trkpt>
      <trkpt lat="43.20946" lon="5.37138">
        <ele>26.60000038147</ele>
        <time>2019-05-23T09:45:18.000Z</time>
      </trkpt>
      <trkpt lat="43.20944" lon="5.37133">
        <ele>27.60000038147</ele>
        <time>2019-05-23T09:45:21.000Z</time>
      </trkpt>
      <trkpt lat="43.20943" lon="5.3713">
        <ele>28</ele>
        <time>2019-05-23T09:45:23.000Z</time>
      </trkpt>
      <trkpt lat="43.20942" lon="5.37129">
        <ele>28.39999961853</ele>
        <time>2019-05-23T09:45:24.000Z</time>
      </trkpt>
      <trkpt lat="43.2094" lon="5.37127">
        <ele>28.60000038147</ele>
        <time>2019-05-23T09:45:25.000Z</time>
      </trkpt>
      <trkpt lat="43.20935" lon="5.37121">
        <ele>29.39999961853</ele>
        <time>2019-05-23T09:45:28.000Z</time>
      </trkpt>
      <trkpt lat="43.20932" lon="5.37116">
        <ele>29.60000038147</ele>
        <time>2019-05-23T09:45:30.000Z</time>
      </trkpt>
      <trkpt lat="43.20927" lon="5.3711">
        <ele>29.39999961853</ele>
        <time>2019-05-23T09:45:33.000Z</time>
      </trkpt>
      <trkpt lat="43.20917" lon="5.37103">
        <ele>29</ele>
        <time>2019-05-23T09:45:38.000Z</time>
      </trkpt>
      <trkpt lat="43.20914" lon="5.37101">
        <ele>29</ele>
        <time>2019-05-23T09:45:39.000Z</time>
      </trkpt>
      <trkpt lat="43.20902" lon="5.37094">
        <ele>28.799999237061</ele>
        <time>2019-05-23T09:45:45.000Z</time>
      </trkpt>
      <trkpt lat="43.20891" lon="5.37084">
        <ele>28.799999237061</ele>
        <time>2019-05-23T09:45:51.000Z</time>
      </trkpt>
      <trkpt lat="43.20882" lon="5.37073">
        <ele>28.200000762939</ele>
        <time>2019-05-23T09:45:56.000Z</time>
      </trkpt>
      <trkpt lat="43.2088" lon="5.3707">
        <ele>28</ele>
        <time>2019-05-23T09:45:57.000Z</time>
      </trkpt>
      <trkpt lat="43.20876" lon="5.37063">
        <ele>28</ele>
        <time>2019-05-23T09:46:00.000Z</time>
      </trkpt>
      <trkpt lat="43.20873" lon="5.37054">
        <ele>27.39999961853</ele>
        <time>2019-05-23T09:46:03.000Z</time>
      </trkpt>
      <trkpt lat="43.20872" lon="5.37041">
        <ele>26.799999237061</ele>
        <time>2019-05-23T09:46:07.000Z</time>
      </trkpt>
      <trkpt lat="43.20872" lon="5.37037">
        <ele>26.60000038147</ele>
        <time>2019-05-23T09:46:08.000Z</time>
      </trkpt>
      <trkpt lat="43.20872" lon="5.37034">
        <ele>26.799999237061</ele>
        <time>2019-05-23T09:46:09.000Z</time>
      </trkpt>
      <trkpt lat="43.20872" lon="5.37031">
        <ele>26.799999237061</ele>
        <time>2019-05-23T09:46:10.000Z</time>
      </trkpt>
      <trkpt lat="43.20866" lon="5.37018">
        <ele>26.799999237061</ele>
        <time>2019-05-23T09:46:15.000Z</time>
      </trkpt>
      <trkpt lat="43.20859" lon="5.37002">
        <ele>27.200000762939</ele>
        <time>2019-05-23T09:46:21.000Z</time>
      </trkpt>
      <trkpt lat="43.20854" lon="5.36987">
        <ele>27.200000762939</ele>
        <time>2019-05-23T09:46:27.000Z</time>
      </trkpt>
      <trkpt lat="43.20851" lon="5.36968">
        <ele>27.39999961853</ele>
        <time>2019-05-23T09:46:33.000Z</time>
      </trkpt>
      <trkpt lat="43.2085" lon="5.36961">
        <ele>27</ele>
        <time>2019-05-23T09:46:35.000Z</time>
      </trkpt>
      <trkpt lat="43.20848" lon="5.3695">
        <ele>26.799999237061</ele>
        <time>2019-05-23T09:46:38.000Z</time>
      </trkpt>
      <trkpt lat="43.20844" lon="5.36935">
        <ele>26.39999961853</ele>
        <time>2019-05-23T09:46:44.000Z</time>
      </trkpt>
      <trkpt lat="43.20844" lon="5.36933">
        <ele>26.39999961853</ele>
        <time>2019-05-23T09:46:45.000Z</time>
      </trkpt>
      <trkpt lat="43.2084" lon="5.36924">
        <ele>26.200000762939</ele>
        <time>2019-05-23T09:46:49.000Z</time>
      </trkpt>
      <trkpt lat="43.20834" lon="5.36908">
        <ele>25.39999961853</ele>
        <time>2019-05-23T09:46:55.000Z</time>
      </trkpt>
      <trkpt lat="43.20831" lon="5.36901">
        <ele>25.39999961853</ele>
        <time>2019-05-23T09:46:57.000Z</time>
      </trkpt>
      <trkpt lat="43.2083" lon="5.36889">
        <ele>25.60000038147</ele>
        <time>2019-05-23T09:47:01.000Z</time>
      </trkpt>
      <trkpt lat="43.20829" lon="5.36885">
        <ele>25.60000038147</ele>
        <time>2019-05-23T09:47:03.000Z</time>
      </trkpt>
      <trkpt lat="43.20825" lon="5.36871">
        <ele>25.39999961853</ele>
        <time>2019-05-23T09:47:07.000Z</time>
      </trkpt>
      <trkpt lat="43.20824" lon="5.36858">
        <ele>25.60000038147</ele>
        <time>2019-05-23T09:47:11.000Z</time>
      </trkpt>
      <trkpt lat="43.20824" lon="5.36853">
        <ele>25.60000038147</ele>
        <time>2019-05-23T09:47:13.000Z</time>
      </trkpt>
      <trkpt lat="43.20822" lon="5.36837">
        <ele>25.200000762939</ele>
        <time>2019-05-23T09:47:19.000Z</time>
      </trkpt>
      <trkpt lat="43.20819" lon="5.36823">
        <ele>25</ele>
        <time>2019-05-23T09:47:24.000Z</time>
      </trkpt>
      <trkpt lat="43.20816" lon="5.36812">
        <ele>24.200000762939</ele>
        <time>2019-05-23T09:47:28.000Z</time>
      </trkpt>
      <trkpt lat="43.20815" lon="5.3681">
        <ele>24.200000762939</ele>
        <time>2019-05-23T09:47:29.000Z</time>
      </trkpt>
      <trkpt lat="43.20814" lon="5.36807">
        <ele>24</ele>
        <time>2019-05-23T09:47:30.000Z</time>
      </trkpt>
      <trkpt lat="43.20813" lon="5.36801">
        <ele>24.200000762939</ele>
        <time>2019-05-23T09:47:32.000Z</time>
      </trkpt>
      <trkpt lat="43.20814" lon="5.36797">
        <ele>24.200000762939</ele>
        <time>2019-05-23T09:47:33.000Z</time>
      </trkpt>
      <trkpt lat="43.20813" lon="5.36782">
        <ele>24.39999961853</ele>
        <time>2019-05-23T09:47:38.000Z</time>
      </trkpt>
      <trkpt lat="43.20812" lon="5.36769">
        <ele>24.200000762939</ele>
        <time>2019-05-23T09:47:43.000Z</time>
      </trkpt>
      <trkpt lat="43.20811" lon="5.36756">
        <ele>24</ele>
        <time>2019-05-23T09:47:49.000Z</time>
      </trkpt>
      <trkpt lat="43.20805" lon="5.36746">
        <ele>23.799999237061</ele>
        <time>2019-05-23T09:47:53.000Z</time>
      </trkpt>
      <trkpt lat="43.20801" lon="5.36741">
        <ele>23.60000038147</ele>
        <time>2019-05-23T09:47:55.000Z</time>
      </trkpt>
      <trkpt lat="43.20798" lon="5.36735">
        <ele>23</ele>
        <time>2019-05-23T09:47:57.000Z</time>
      </trkpt>
      <trkpt lat="43.20796" lon="5.36726">
        <ele>21.799999237061</ele>
        <time>2019-05-23T09:48:00.000Z</time>
      </trkpt>
      <trkpt lat="43.20791" lon="5.36713">
        <ele>21.200000762939</ele>
        <time>2019-05-23T09:48:06.000Z</time>
      </trkpt>
      <trkpt lat="43.20789" lon="5.36699">
        <ele>21</ele>
        <time>2019-05-23T09:48:10.000Z</time>
      </trkpt>
      <trkpt lat="43.20789" lon="5.36696">
        <ele>21</ele>
        <time>2019-05-23T09:48:11.000Z</time>
      </trkpt>
      <trkpt lat="43.20787" lon="5.36678">
        <ele>21</ele>
        <time>2019-05-23T09:48:17.000Z</time>
      </trkpt>
      <trkpt lat="43.20787" lon="5.36675">
        <ele>20.799999237061</ele>
        <time>2019-05-23T09:48:18.000Z</time>
      </trkpt>
      <trkpt lat="43.20785" lon="5.36664">
        <ele>20.39999961853</ele>
        <time>2019-05-23T09:48:21.000Z</time>
      </trkpt>
      <trkpt lat="43.20784" lon="5.36658">
        <ele>20.200000762939</ele>
        <time>2019-05-23T09:48:23.000Z</time>
      </trkpt>
      <trkpt lat="43.20783" lon="5.36655">
        <ele>20.200000762939</ele>
        <time>2019-05-23T09:48:24.000Z</time>
      </trkpt>
      <trkpt lat="43.20778" lon="5.36641">
        <ele>20.60000038147</ele>
        <time>2019-05-23T09:48:29.000Z</time>
      </trkpt>
      <trkpt lat="43.20777" lon="5.36629">
        <ele>20.200000762939</ele>
        <time>2019-05-23T09:48:33.000Z</time>
      </trkpt>
      <trkpt lat="43.20776" lon="5.36624">
        <ele>19.799999237061</ele>
        <time>2019-05-23T09:48:35.000Z</time>
      </trkpt>
      <trkpt lat="43.20775" lon="5.36607">
        <ele>19.39999961853</ele>
        <time>2019-05-23T09:48:41.000Z</time>
      </trkpt>
      <trkpt lat="43.20774" lon="5.36593">
        <ele>18.799999237061</ele>
        <time>2019-05-23T09:48:45.000Z</time>
      </trkpt>
      <trkpt lat="43.20773" lon="5.36586">
        <ele>18.39999961853</ele>
        <time>2019-05-23T09:48:47.000Z</time>
      </trkpt>
      <trkpt lat="43.20773" lon="5.36583">
        <ele>18.200000762939</ele>
        <time>2019-05-23T09:48:48.000Z</time>
      </trkpt>
      <trkpt lat="43.20773" lon="5.36573">
        <ele>18</ele>
        <time>2019-05-23T09:48:52.000Z</time>
      </trkpt>
      <trkpt lat="43.2077" lon="5.36557">
        <ele>18.39999961853</ele>
        <time>2019-05-23T09:48:58.000Z</time>
      </trkpt>
      <trkpt lat="43.20769" lon="5.36544">
        <ele>18</ele>
        <time>2019-05-23T09:49:03.000Z</time>
      </trkpt>
      <trkpt lat="43.2077" lon="5.36541">
        <ele>18</ele>
        <time>2019-05-23T09:49:04.000Z</time>
      </trkpt>
      <trkpt lat="43.20772" lon="5.36532">
        <ele>18.200000762939</ele>
        <time>2019-05-23T09:49:08.000Z</time>
      </trkpt>
      <trkpt lat="43.20771" lon="5.36526">
        <ele>18.39999961853</ele>
        <time>2019-05-23T09:49:10.000Z</time>
      </trkpt>
      <trkpt lat="43.20771" lon="5.36523">
        <ele>18.39999961853</ele>
        <time>2019-05-23T09:49:11.000Z</time>
      </trkpt>
      <trkpt lat="43.20772" lon="5.36513">
        <ele>18.60000038147</ele>
        <time>2019-05-23T09:49:14.000Z</time>
      </trkpt>
      <trkpt lat="43.20772" lon="5.36509">
        <ele>18.60000038147</ele>
        <time>2019-05-23T09:49:16.000Z</time>
      </trkpt>
      <trkpt lat="43.20772" lon="5.36504">
        <ele>19</ele>
        <time>2019-05-23T09:49:18.000Z</time>
      </trkpt>
      <trkpt lat="43.20773" lon="5.36498">
        <ele>19.200000762939</ele>
        <time>2019-05-23T09:49:21.000Z</time>
      </trkpt>
      <trkpt lat="43.20773" lon="5.36486">
        <ele>19.799999237061</ele>
        <time>2019-05-23T09:49:26.000Z</time>
      </trkpt>
      <trkpt lat="43.20773" lon="5.36483">
        <ele>19.799999237061</ele>
        <time>2019-05-23T09:49:27.000Z</time>
      </trkpt>
      <trkpt lat="43.2077" lon="5.36462">
        <ele>19.799999237061</ele>
        <time>2019-05-23T09:49:33.000Z</time>
      </trkpt>
      <trkpt lat="43.20773" lon="5.36449">
        <ele>19.799999237061</ele>
        <time>2019-05-23T09:49:38.000Z</time>
      </trkpt>
      <trkpt lat="43.20774" lon="5.3643">
        <ele>19.39999961853</ele>
        <time>2019-05-23T09:49:45.000Z</time>
      </trkpt>
      <trkpt lat="43.20776" lon="5.36426">
        <ele>19.60000038147</ele>
        <time>2019-05-23T09:49:47.000Z</time>
      </trkpt>
      <trkpt lat="43.20779" lon="5.36424">
        <ele>19.60000038147</ele>
        <time>2019-05-23T09:49:49.000Z</time>
      </trkpt>
      <trkpt lat="43.20781" lon="5.36423">
        <ele>19.60000038147</ele>
        <time>2019-05-23T09:49:50.000Z</time>
      </trkpt>
      <trkpt lat="43.20782" lon="5.36421">
        <ele>19.799999237061</ele>
        <time>2019-05-23T09:49:51.000Z</time>
      </trkpt>
      <trkpt lat="43.20783" lon="5.36418">
        <ele>20.200000762939</ele>
        <time>2019-05-23T09:49:53.000Z</time>
      </trkpt>
      <trkpt lat="43.20782" lon="5.3641">
        <ele>20.60000038147</ele>
        <time>2019-05-23T09:49:56.000Z</time>
      </trkpt>
      <trkpt lat="43.20783" lon="5.36407">
        <ele>20.799999237061</ele>
        <time>2019-05-23T09:49:58.000Z</time>
      </trkpt>
      <trkpt lat="43.20786" lon="5.36399">
        <ele>21</ele>
        <time>2019-05-23T09:50:01.000Z</time>
      </trkpt>
      <trkpt lat="43.20787" lon="5.36385">
        <ele>21.39999961853</ele>
        <time>2019-05-23T09:50:06.000Z</time>
      </trkpt>
      <trkpt lat="43.20793" lon="5.36377">
        <ele>21.200000762939</ele>
        <time>2019-05-23T09:50:12.000Z</time>
      </trkpt>
      <trkpt lat="43.20797" lon="5.36372">
        <ele>21.60000038147</ele>
        <time>2019-05-23T09:50:15.000Z</time>
      </trkpt>
      <trkpt lat="43.20799" lon="5.36371">
        <ele>21.799999237061</ele>
        <time>2019-05-23T09:50:16.000Z</time>
      </trkpt>
      <trkpt lat="43.208" lon="5.36368">
        <ele>22</ele>
        <time>2019-05-23T09:50:17.000Z</time>
      </trkpt>
      <trkpt lat="43.20801" lon="5.36367">
        <ele>22</ele>
        <time>2019-05-23T09:50:18.000Z</time>
      </trkpt>
      <trkpt lat="43.20805" lon="5.36361">
        <ele>22.200000762939</ele>
        <time>2019-05-23T09:50:22.000Z</time>
      </trkpt>
      <trkpt lat="43.20807" lon="5.36359">
        <ele>22.200000762939</ele>
        <time>2019-05-23T09:50:23.000Z</time>
      </trkpt>
      <trkpt lat="43.20811" lon="5.36352">
        <ele>22.799999237061</ele>
        <time>2019-05-23T09:50:27.000Z</time>
      </trkpt>
      <trkpt lat="43.20814" lon="5.36349">
        <ele>23.200000762939</ele>
        <time>2019-05-23T09:50:29.000Z</time>
      </trkpt>
      <trkpt lat="43.20818" lon="5.36337">
        <ele>24</ele>
        <time>2019-05-23T09:50:35.000Z</time>
      </trkpt>
      <trkpt lat="43.20819" lon="5.36334">
        <ele>24.200000762939</ele>
        <time>2019-05-23T09:50:36.000Z</time>
      </trkpt>
      <trkpt lat="43.20822" lon="5.3633">
        <ele>24.200000762939</ele>
        <time>2019-05-23T09:50:38.000Z</time>
      </trkpt>
      <trkpt lat="43.20824" lon="5.36326">
        <ele>24.200000762939</ele>
        <time>2019-05-23T09:50:40.000Z</time>
      </trkpt>
      <trkpt lat="43.20825" lon="5.36323">
        <ele>24.200000762939</ele>
        <time>2019-05-23T09:50:41.000Z</time>
      </trkpt>
      <trkpt lat="43.20826" lon="5.36315">
        <ele>24.200000762939</ele>
        <time>2019-05-23T09:50:44.000Z</time>
      </trkpt>
      <trkpt lat="43.20829" lon="5.36303">
        <ele>25</ele>
        <time>2019-05-23T09:50:49.000Z</time>
      </trkpt>
      <trkpt lat="43.20835" lon="5.36289">
        <ele>25.799999237061</ele>
        <time>2019-05-23T09:50:56.000Z</time>
      </trkpt>
      <trkpt lat="43.20838" lon="5.36282">
        <ele>26.200000762939</ele>
        <time>2019-05-23T09:51:00.000Z</time>
      </trkpt>
      <trkpt lat="43.20839" lon="5.3628">
        <ele>26.39999961853</ele>
        <time>2019-05-23T09:51:01.000Z</time>
      </trkpt>
      <trkpt lat="43.20842" lon="5.36268">
        <ele>27.200000762939</ele>
        <time>2019-05-23T09:51:06.000Z</time>
      </trkpt>
      <trkpt lat="43.20843" lon="5.36266">
        <ele>27.39999961853</ele>
        <time>2019-05-23T09:51:07.000Z</time>
      </trkpt>
      <trkpt lat="43.20847" lon="5.3626">
        <ele>28</ele>
        <time>2019-05-23T09:51:11.000Z</time>
      </trkpt>
      <trkpt lat="43.2085" lon="5.36255">
        <ele>28.39999961853</ele>
        <time>2019-05-23T09:51:14.000Z</time>
      </trkpt>
      <trkpt lat="43.20852" lon="5.36253">
        <ele>29</ele>
        <time>2019-05-23T09:51:16.000Z</time>
      </trkpt>
      <trkpt lat="43.20856" lon="5.36249">
        <ele>29.60000038147</ele>
        <time>2019-05-23T09:51:19.000Z</time>
      </trkpt>
      <trkpt lat="43.20859" lon="5.36244">
        <ele>30</ele>
        <time>2019-05-23T09:51:22.000Z</time>
      </trkpt>
      <trkpt lat="43.20865" lon="5.36235">
        <ele>30</ele>
        <time>2019-05-23T09:51:27.000Z</time>
      </trkpt>
      <trkpt lat="43.20866" lon="5.36233">
        <ele>30.200000762939</ele>
        <time>2019-05-23T09:51:28.000Z</time>
      </trkpt>
      <trkpt lat="43.2087" lon="5.36227">
        <ele>30.60000038147</ele>
        <time>2019-05-23T09:51:31.000Z</time>
      </trkpt>
      <trkpt lat="43.20872" lon="5.36226">
        <ele>30.799999237061</ele>
        <time>2019-05-23T09:51:33.000Z</time>
      </trkpt>
      <trkpt lat="43.20877" lon="5.3622">
        <ele>31</ele>
        <time>2019-05-23T09:51:37.000Z</time>
      </trkpt>
      <trkpt lat="43.20879" lon="5.36219">
        <ele>31</ele>
        <time>2019-05-23T09:51:38.000Z</time>
      </trkpt>
      <trkpt lat="43.20881" lon="5.36215">
        <ele>31.200000762939</ele>
        <time>2019-05-23T09:51:40.000Z</time>
      </trkpt>
      <trkpt lat="43.20886" lon="5.36211">
        <ele>31.200000762939</ele>
        <time>2019-05-23T09:51:43.000Z</time>
      </trkpt>
      <trkpt lat="43.20891" lon="5.36206">
        <ele>31.39999961853</ele>
        <time>2019-05-23T09:51:46.000Z</time>
      </trkpt>
      <trkpt lat="43.20897" lon="5.362">
        <ele>31.200000762939</ele>
        <time>2019-05-23T09:51:50.000Z</time>
      </trkpt>
      <trkpt lat="43.20898" lon="5.36199">
        <ele>31</ele>
        <time>2019-05-23T09:51:51.000Z</time>
      </trkpt>
      <trkpt lat="43.20906" lon="5.36191">
        <ele>30.60000038147</ele>
        <time>2019-05-23T09:51:57.000Z</time>
      </trkpt>
      <trkpt lat="43.20916" lon="5.36189">
        <ele>29.60000038147</ele>
        <time>2019-05-23T09:52:01.000Z</time>
      </trkpt>
      <trkpt lat="43.20918" lon="5.36188">
        <ele>29.60000038147</ele>
        <time>2019-05-23T09:52:02.000Z</time>
      </trkpt>
      <trkpt lat="43.20926" lon="5.36187">
        <ele>29.200000762939</ele>
        <time>2019-05-23T09:52:06.000Z</time>
      </trkpt>
      <trkpt lat="43.20927" lon="5.36186">
        <ele>29</ele>
        <time>2019-05-23T09:52:07.000Z</time>
      </trkpt>
      <trkpt lat="43.20929" lon="5.36186">
        <ele>29</ele>
        <time>2019-05-23T09:52:08.000Z</time>
      </trkpt>
      <trkpt lat="43.20931" lon="5.36187">
        <ele>28.60000038147</ele>
        <time>2019-05-23T09:52:10.000Z</time>
      </trkpt>
      <trkpt lat="43.20934" lon="5.36188">
        <ele>28.200000762939</ele>
        <time>2019-05-23T09:52:12.000Z</time>
      </trkpt>
      <trkpt lat="43.20941" lon="5.36191">
        <ele>28</ele>
        <time>2019-05-23T09:52:16.000Z</time>
      </trkpt>
      <trkpt lat="43.20942" lon="5.36192">
        <ele>28</ele>
        <time>2019-05-23T09:52:17.000Z</time>
      </trkpt>
      <trkpt lat="43.20949" lon="5.36191">
        <ele>28</ele>
        <time>2019-05-23T09:52:21.000Z</time>
      </trkpt>
      <trkpt lat="43.20951" lon="5.36192">
        <ele>27.799999237061</ele>
        <time>2019-05-23T09:52:22.000Z</time>
      </trkpt>
      <trkpt lat="43.20954" lon="5.36194">
        <ele>27.60000038147</ele>
        <time>2019-05-23T09:52:23.000Z</time>
      </trkpt>
      <trkpt lat="43.20957" lon="5.36197">
        <ele>27.39999961853</ele>
        <time>2019-05-23T09:52:24.000Z</time>
      </trkpt>
      <trkpt lat="43.20961" lon="5.36196">
        <ele>27.39999961853</ele>
        <time>2019-05-23T09:52:27.000Z</time>
      </trkpt>
      <trkpt lat="43.20967" lon="5.36194">
        <ele>27.200000762939</ele>
        <time>2019-05-23T09:52:32.000Z</time>
      </trkpt>
      <trkpt lat="43.20969" lon="5.36196">
        <ele>27</ele>
        <time>2019-05-23T09:52:34.000Z</time>
      </trkpt>
      <trkpt lat="43.20972" lon="5.36197">
        <ele>26.39999961853</ele>
        <time>2019-05-23T09:52:36.000Z</time>
      </trkpt>
      <trkpt lat="43.20977" lon="5.362">
        <ele>25.60000038147</ele>
        <time>2019-05-23T09:52:39.000Z</time>
      </trkpt>
      <trkpt lat="43.20979" lon="5.36201">
        <ele>25.39999961853</ele>
        <time>2019-05-23T09:52:40.000Z</time>
      </trkpt>
      <trkpt lat="43.20981" lon="5.36203">
        <ele>25.39999961853</ele>
        <time>2019-05-23T09:52:41.000Z</time>
      </trkpt>
      <trkpt lat="43.20986" lon="5.36208">
        <ele>24.39999961853</ele>
        <time>2019-05-23T09:52:45.000Z</time>
      </trkpt>
      <trkpt lat="43.20987" lon="5.36209">
        <ele>23.799999237061</ele>
        <time>2019-05-23T09:52:46.000Z</time>
      </trkpt>
      <trkpt lat="43.20987" lon="5.3621">
        <ele>23.200000762939</ele>
        <time>2019-05-23T09:52:47.000Z</time>
      </trkpt>
      <trkpt lat="43.20989" lon="5.36213">
        <ele>22.39999961853</ele>
        <time>2019-05-23T09:52:49.000Z</time>
      </trkpt>
      <trkpt lat="43.20991" lon="5.36217">
        <ele>21.39999961853</ele>
        <time>2019-05-23T09:52:52.000Z</time>
      </trkpt>
      <trkpt lat="43.20994" lon="5.36218">
        <ele>20.799999237061</ele>
        <time>2019-05-23T09:52:54.000Z</time>
      </trkpt>
      <trkpt lat="43.20996" lon="5.3622">
        <ele>20.60000038147</ele>
        <time>2019-05-23T09:52:55.000Z</time>
      </trkpt>
      <trkpt lat="43.20997" lon="5.36221">
        <ele>20.39999961853</ele>
        <time>2019-05-23T09:52:56.000Z</time>
      </trkpt>
      <trkpt lat="43.20999" lon="5.36221">
        <ele>20.200000762939</ele>
        <time>2019-05-23T09:52:57.000Z</time>
      </trkpt>
      <trkpt lat="43.21001" lon="5.3622">
        <ele>20</ele>
        <time>2019-05-23T09:52:59.000Z</time>
      </trkpt>
      <trkpt lat="43.21003" lon="5.3622">
        <ele>20</ele>
        <time>2019-05-23T09:53:00.000Z</time>
      </trkpt>
      <trkpt lat="43.21011" lon="5.36221">
        <ele>19</ele>
        <time>2019-05-23T09:53:05.000Z</time>
      </trkpt>
      <trkpt lat="43.21012" lon="5.36221">
        <ele>19</ele>
        <time>2019-05-23T09:53:06.000Z</time>
      </trkpt>
      <trkpt lat="43.2101" lon="5.36221">
        <ele>18</ele>
        <time>2019-05-23T09:53:09.000Z</time>
      </trkpt>
      <trkpt lat="43.21031" lon="5.36221">
        <ele>14.60000038147</ele>
        <time>2019-05-23T09:54:37.000Z</time>
      </trkpt>
      <trkpt lat="43.21032" lon="5.36222">
        <ele>14.60000038147</ele>
        <time>2019-05-23T09:54:38.000Z</time>
      </trkpt>
      <trkpt lat="43.21036" lon="5.3623">
        <ele>14.800000190735</ele>
        <time>2019-05-23T09:54:42.000Z</time>
      </trkpt>
      <trkpt lat="43.21037" lon="5.36233">
        <ele>14.800000190735</ele>
        <time>2019-05-23T09:54:43.000Z</time>
      </trkpt>
      <trkpt lat="43.2104" lon="5.36238">
        <ele>15</ele>
        <time>2019-05-23T09:54:45.000Z</time>
      </trkpt>
      <trkpt lat="43.21041" lon="5.3624">
        <ele>15.199999809265</ele>
        <time>2019-05-23T09:54:46.000Z</time>
      </trkpt>
      <trkpt lat="43.21042" lon="5.36243">
        <ele>15.199999809265</ele>
        <time>2019-05-23T09:54:47.000Z</time>
      </trkpt>
      <trkpt lat="43.21044" lon="5.36244">
        <ele>15.39999961853</ele>
        <time>2019-05-23T09:54:48.000Z</time>
      </trkpt>
      <trkpt lat="43.21044" lon="5.36247">
        <ele>15.800000190735</ele>
        <time>2019-05-23T09:54:49.000Z</time>
      </trkpt>
      <trkpt lat="43.21045" lon="5.3625">
        <ele>16</ele>
        <time>2019-05-23T09:54:50.000Z</time>
      </trkpt>
      <trkpt lat="43.21045" lon="5.36255">
        <ele>16.60000038147</ele>
        <time>2019-05-23T09:54:52.000Z</time>
      </trkpt>
      <trkpt lat="43.21045" lon="5.36256">
        <ele>16.799999237061</ele>
        <time>2019-05-23T09:54:53.000Z</time>
      </trkpt>
      <trkpt lat="43.21045" lon="5.36258">
        <ele>17.200000762939</ele>
        <time>2019-05-23T09:54:54.000Z</time>
      </trkpt>
      <trkpt lat="43.21047" lon="5.36268">
        <ele>18</ele>
        <time>2019-05-23T09:54:57.000Z</time>
      </trkpt>
      <trkpt lat="43.21049" lon="5.36273">
        <ele>18.39999961853</ele>
        <time>2019-05-23T09:54:59.000Z</time>
      </trkpt>
      <trkpt lat="43.21048" lon="5.3628">
        <ele>18.60000038147</ele>
        <time>2019-05-23T09:55:02.000Z</time>
      </trkpt>
      <trkpt lat="43.21046" lon="5.36281">
        <ele>18.60000038147</ele>
        <time>2019-05-23T09:55:03.000Z</time>
      </trkpt>
      <trkpt lat="43.21047" lon="5.3629">
        <ele>19</ele>
        <time>2019-05-23T09:55:07.000Z</time>
      </trkpt>
      <trkpt lat="43.21049" lon="5.36294">
        <ele>19.200000762939</ele>
        <time>2019-05-23T09:55:09.000Z</time>
      </trkpt>
      <trkpt lat="43.2105" lon="5.36294">
        <ele>19.39999961853</ele>
        <time>2019-05-23T09:55:10.000Z</time>
      </trkpt>
      <trkpt lat="43.21056" lon="5.36298">
        <ele>19.799999237061</ele>
        <time>2019-05-23T09:55:13.000Z</time>
      </trkpt>
      <trkpt lat="43.21058" lon="5.36299">
        <ele>20</ele>
        <time>2019-05-23T09:55:14.000Z</time>
      </trkpt>
      <trkpt lat="43.21067" lon="5.3631">
        <ele>20.39999961853</ele>
        <time>2019-05-23T09:55:19.000Z</time>
      </trkpt>
      <trkpt lat="43.21072" lon="5.36318">
        <ele>21</ele>
        <time>2019-05-23T09:55:23.000Z</time>
      </trkpt>
      <trkpt lat="43.21073" lon="5.36321">
        <ele>21.200000762939</ele>
        <time>2019-05-23T09:55:24.000Z</time>
      </trkpt>
      <trkpt lat="43.21077" lon="5.36332">
        <ele>22.39999961853</ele>
        <time>2019-05-23T09:55:29.000Z</time>
      </trkpt>
      <trkpt lat="43.21078" lon="5.36337">
        <ele>22.799999237061</ele>
        <time>2019-05-23T09:55:31.000Z</time>
      </trkpt>
      <trkpt lat="43.21079" lon="5.36341">
        <ele>23</ele>
        <time>2019-05-23T09:55:33.000Z</time>
      </trkpt>
      <trkpt lat="43.2108" lon="5.36343">
        <ele>23.200000762939</ele>
        <time>2019-05-23T09:55:34.000Z</time>
      </trkpt>
      <trkpt lat="43.21081" lon="5.36346">
        <ele>23.39999961853</ele>
        <time>2019-05-23T09:55:35.000Z</time>
      </trkpt>
      <trkpt lat="43.21082" lon="5.36353">
        <ele>24</ele>
        <time>2019-05-23T09:55:38.000Z</time>
      </trkpt>
      <trkpt lat="43.21082" lon="5.36356">
        <ele>24.200000762939</ele>
        <time>2019-05-23T09:55:39.000Z</time>
      </trkpt>
      <trkpt lat="43.21083" lon="5.36358">
        <ele>24.39999961853</ele>
        <time>2019-05-23T09:55:40.000Z</time>
      </trkpt>
      <trkpt lat="43.21084" lon="5.3636">
        <ele>24.60000038147</ele>
        <time>2019-05-23T09:55:41.000Z</time>
      </trkpt>
      <trkpt lat="43.21086" lon="5.36369">
        <ele>25.200000762939</ele>
        <time>2019-05-23T09:55:45.000Z</time>
      </trkpt>
      <trkpt lat="43.21088" lon="5.36372">
        <ele>25.39999961853</ele>
        <time>2019-05-23T09:55:47.000Z</time>
      </trkpt>
      <trkpt lat="43.21089" lon="5.36374">
        <ele>25.799999237061</ele>
        <time>2019-05-23T09:55:48.000Z</time>
      </trkpt>
      <trkpt lat="43.21092" lon="5.36384">
        <ele>26.39999961853</ele>
        <time>2019-05-23T09:55:52.000Z</time>
      </trkpt>
      <trkpt lat="43.21094" lon="5.36391">
        <ele>26.799999237061</ele>
        <time>2019-05-23T09:55:55.000Z</time>
      </trkpt>
      <trkpt lat="43.21095" lon="5.36394">
        <ele>26.799999237061</ele>
        <time>2019-05-23T09:55:57.000Z</time>
      </trkpt>
      <trkpt lat="43.21096" lon="5.36396">
        <ele>27</ele>
        <time>2019-05-23T09:55:58.000Z</time>
      </trkpt>
      <trkpt lat="43.21099" lon="5.36405">
        <ele>27.200000762939</ele>
        <time>2019-05-23T09:56:02.000Z</time>
      </trkpt>
      <trkpt lat="43.211" lon="5.36407">
        <ele>27.60000038147</ele>
        <time>2019-05-23T09:56:03.000Z</time>
      </trkpt>
      <trkpt lat="43.211" lon="5.36409">
        <ele>28</ele>
        <time>2019-05-23T09:56:04.000Z</time>
      </trkpt>
      <trkpt lat="43.21101" lon="5.36419">
        <ele>28.799999237061</ele>
        <time>2019-05-23T09:56:08.000Z</time>
      </trkpt>
      <trkpt lat="43.211" lon="5.36425">
        <ele>29</ele>
        <time>2019-05-23T09:56:10.000Z</time>
      </trkpt>
      <trkpt lat="43.211" lon="5.36429">
        <ele>29.60000038147</ele>
        <time>2019-05-23T09:56:13.000Z</time>
      </trkpt>
      <trkpt lat="43.21101" lon="5.36433">
        <ele>30</ele>
        <time>2019-05-23T09:56:16.000Z</time>
      </trkpt>
      <trkpt lat="43.21102" lon="5.36435">
        <ele>30.200000762939</ele>
        <time>2019-05-23T09:56:17.000Z</time>
      </trkpt>
      <trkpt lat="43.21107" lon="5.36443">
        <ele>31.200000762939</ele>
        <time>2019-05-23T09:56:21.000Z</time>
      </trkpt>
      <trkpt lat="43.21111" lon="5.36451">
        <ele>32</ele>
        <time>2019-05-23T09:56:24.000Z</time>
      </trkpt>
      <trkpt lat="43.21113" lon="5.36455">
        <ele>32.400001525879</ele>
        <time>2019-05-23T09:56:26.000Z</time>
      </trkpt>
      <trkpt lat="43.21117" lon="5.36461">
        <ele>32.599998474121</ele>
        <time>2019-05-23T09:56:29.000Z</time>
      </trkpt>
      <trkpt lat="43.2112" lon="5.36468">
        <ele>32.599998474121</ele>
        <time>2019-05-23T09:56:32.000Z</time>
      </trkpt>
      <trkpt lat="43.21124" lon="5.36479">
        <ele>32.400001525879</ele>
        <time>2019-05-23T09:56:38.000Z</time>
      </trkpt>
      <trkpt lat="43.21128" lon="5.36483">
        <ele>32.599998474121</ele>
        <time>2019-05-23T09:56:41.000Z</time>
      </trkpt>
      <trkpt lat="43.21129" lon="5.36485">
        <ele>32.599998474121</ele>
        <time>2019-05-23T09:56:42.000Z</time>
      </trkpt>
      <trkpt lat="43.2113" lon="5.3649">
        <ele>33.200000762939</ele>
        <time>2019-05-23T09:56:44.000Z</time>
      </trkpt>
      <trkpt lat="43.2113" lon="5.36495">
        <ele>33.400001525879</ele>
        <time>2019-05-23T09:56:46.000Z</time>
      </trkpt>
      <trkpt lat="43.21135" lon="5.36507">
        <ele>34</ele>
        <time>2019-05-23T09:56:51.000Z</time>
      </trkpt>
      <trkpt lat="43.21139" lon="5.3651">
        <ele>34.200000762939</ele>
        <time>2019-05-23T09:56:54.000Z</time>
      </trkpt>
      <trkpt lat="43.21143" lon="5.36512">
        <ele>34.400001525879</ele>
        <time>2019-05-23T09:56:56.000Z</time>
      </trkpt>
      <trkpt lat="43.21144" lon="5.36513">
        <ele>34.400001525879</ele>
        <time>2019-05-23T09:56:57.000Z</time>
      </trkpt>
      <trkpt lat="43.21146" lon="5.36514">
        <ele>34.400001525879</ele>
        <time>2019-05-23T09:56:58.000Z</time>
      </trkpt>
      <trkpt lat="43.21149" lon="5.36517">
        <ele>34.400001525879</ele>
        <time>2019-05-23T09:57:00.000Z</time>
      </trkpt>
      <trkpt lat="43.21152" lon="5.36519">
        <ele>34.599998474121</ele>
        <time>2019-05-23T09:57:01.000Z</time>
      </trkpt>
      <trkpt lat="43.21157" lon="5.36523">
        <ele>35.200000762939</ele>
        <time>2019-05-23T09:57:04.000Z</time>
      </trkpt>
      <trkpt lat="43.21159" lon="5.36526">
        <ele>35.400001525879</ele>
        <time>2019-05-23T09:57:06.000Z</time>
      </trkpt>
      <trkpt lat="43.2116" lon="5.36528">
        <ele>35.599998474121</ele>
        <time>2019-05-23T09:57:07.000Z</time>
      </trkpt>
      <trkpt lat="43.21162" lon="5.36534">
        <ele>36</ele>
        <time>2019-05-23T09:57:09.000Z</time>
      </trkpt>
      <trkpt lat="43.21165" lon="5.36539">
        <ele>36</ele>
        <time>2019-05-23T09:57:12.000Z</time>
      </trkpt>
      <trkpt lat="43.21167" lon="5.36541">
        <ele>36</ele>
        <time>2019-05-23T09:57:14.000Z</time>
      </trkpt>
      <trkpt lat="43.21171" lon="5.36546">
        <ele>36.200000762939</ele>
        <time>2019-05-23T09:57:17.000Z</time>
      </trkpt>
      <trkpt lat="43.21175" lon="5.36549">
        <ele>36.599998474121</ele>
        <time>2019-05-23T09:57:20.000Z</time>
      </trkpt>
      <trkpt lat="43.2118" lon="5.36551">
        <ele>37</ele>
        <time>2019-05-23T09:57:22.000Z</time>
      </trkpt>
      <trkpt lat="43.2119" lon="5.36557">
        <ele>37.599998474121</ele>
        <time>2019-05-23T09:57:27.000Z</time>
      </trkpt>
      <trkpt lat="43.21194" lon="5.3656">
        <ele>37.799999237061</ele>
        <time>2019-05-23T09:57:29.000Z</time>
      </trkpt>
      <trkpt lat="43.212" lon="5.36568">
        <ele>38.400001525879</ele>
        <time>2019-05-23T09:57:33.000Z</time>
      </trkpt>
      <trkpt lat="43.21202" lon="5.36572">
        <ele>38.799999237061</ele>
        <time>2019-05-23T09:57:35.000Z</time>
      </trkpt>
      <trkpt lat="43.21201" lon="5.36576">
        <ele>39.200000762939</ele>
        <time>2019-05-23T09:57:37.000Z</time>
      </trkpt>
      <trkpt lat="43.21201" lon="5.36578">
        <ele>39.200000762939</ele>
        <time>2019-05-23T09:57:38.000Z</time>
      </trkpt>
      <trkpt lat="43.21194" lon="5.36584">
        <ele>39.200000762939</ele>
        <time>2019-05-23T09:57:43.000Z</time>
      </trkpt>
      <trkpt lat="43.21192" lon="5.36585">
        <ele>39.200000762939</ele>
        <time>2019-05-23T09:57:45.000Z</time>
      </trkpt>
      <trkpt lat="43.21191" lon="5.36591">
        <ele>39.400001525879</ele>
        <time>2019-05-23T09:57:47.000Z</time>
      </trkpt>
      <trkpt lat="43.2119" lon="5.36596">
        <ele>39.599998474121</ele>
        <time>2019-05-23T09:57:49.000Z</time>
      </trkpt>
      <trkpt lat="43.21191" lon="5.36599">
        <ele>39.599998474121</ele>
        <time>2019-05-23T09:57:51.000Z</time>
      </trkpt>
      <trkpt lat="43.21193" lon="5.36601">
        <ele>39.799999237061</ele>
        <time>2019-05-23T09:57:53.000Z</time>
      </trkpt>
      <trkpt lat="43.21194" lon="5.36602">
        <ele>40</ele>
        <time>2019-05-23T09:57:54.000Z</time>
      </trkpt>
      <trkpt lat="43.21197" lon="5.36602">
        <ele>40.400001525879</ele>
        <time>2019-05-23T09:57:56.000Z</time>
      </trkpt>
      <trkpt lat="43.21198" lon="5.36602">
        <ele>40.599998474121</ele>
        <time>2019-05-23T09:57:57.000Z</time>
      </trkpt>
      <trkpt lat="43.21201" lon="5.36603">
        <ele>40.799999237061</ele>
        <time>2019-05-23T09:57:59.000Z</time>
      </trkpt>
      <trkpt lat="43.21205" lon="5.36603">
        <ele>41</ele>
        <time>2019-05-23T09:58:01.000Z</time>
      </trkpt>
      <trkpt lat="43.2121" lon="5.36605">
        <ele>41.200000762939</ele>
        <time>2019-05-23T09:58:04.000Z</time>
      </trkpt>
      <trkpt lat="43.21219" lon="5.36611">
        <ele>41.599998474121</ele>
        <time>2019-05-23T09:58:09.000Z</time>
      </trkpt>
      <trkpt lat="43.21222" lon="5.36615">
        <ele>42</ele>
        <time>2019-05-23T09:58:12.000Z</time>
      </trkpt>
      <trkpt lat="43.21223" lon="5.36617">
        <ele>42.400001525879</ele>
        <time>2019-05-23T09:58:14.000Z</time>
      </trkpt>
      <trkpt lat="43.21228" lon="5.36618">
        <ele>43.200000762939</ele>
        <time>2019-05-23T09:58:19.000Z</time>
      </trkpt>
      <trkpt lat="43.2123" lon="5.36617">
        <ele>43.200000762939</ele>
        <time>2019-05-23T09:58:20.000Z</time>
      </trkpt>
      <trkpt lat="43.21233" lon="5.36616">
        <ele>43.799999237061</ele>
        <time>2019-05-23T09:58:22.000Z</time>
      </trkpt>
      <trkpt lat="43.21236" lon="5.36616">
        <ele>44</ele>
        <time>2019-05-23T09:58:24.000Z</time>
      </trkpt>
      <trkpt lat="43.21242" lon="5.36616">
        <ele>44.200000762939</ele>
        <time>2019-05-23T09:58:27.000Z</time>
      </trkpt>
      <trkpt lat="43.21245" lon="5.36615">
        <ele>44.200000762939</ele>
        <time>2019-05-23T09:58:29.000Z</time>
      </trkpt>
      <trkpt lat="43.21249" lon="5.36612">
        <ele>44.799999237061</ele>
        <time>2019-05-23T09:58:32.000Z</time>
      </trkpt>
      <trkpt lat="43.21252" lon="5.36612">
        <ele>45</ele>
        <time>2019-05-23T09:58:34.000Z</time>
      </trkpt>
      <trkpt lat="43.21259" lon="5.36618">
        <ele>46</ele>
        <time>2019-05-23T09:58:40.000Z</time>
      </trkpt>
      <trkpt lat="43.21263" lon="5.3662">
        <ele>46.200000762939</ele>
        <time>2019-05-23T09:58:43.000Z</time>
      </trkpt>
      <trkpt lat="43.21265" lon="5.3662">
        <ele>46.400001525879</ele>
        <time>2019-05-23T09:58:44.000Z</time>
      </trkpt>
      <trkpt lat="43.21266" lon="5.36621">
        <ele>46.599998474121</ele>
        <time>2019-05-23T09:58:45.000Z</time>
      </trkpt>
      <trkpt lat="43.2127" lon="5.36618">
        <ele>47.599998474121</ele>
        <time>2019-05-23T09:58:48.000Z</time>
      </trkpt>
      <trkpt lat="43.21276" lon="5.36614">
        <ele>48.200000762939</ele>
        <time>2019-05-23T09:58:51.000Z</time>
      </trkpt>
      <trkpt lat="43.21278" lon="5.36612">
        <ele>48.400001525879</ele>
        <time>2019-05-23T09:58:52.000Z</time>
      </trkpt>
      <trkpt lat="43.21283" lon="5.3661">
        <ele>48.599998474121</ele>
        <time>2019-05-23T09:58:55.000Z</time>
      </trkpt>
      <trkpt lat="43.21285" lon="5.3661">
        <ele>48.599998474121</ele>
        <time>2019-05-23T09:58:56.000Z</time>
      </trkpt>
      <trkpt lat="43.21288" lon="5.3661">
        <ele>48.799999237061</ele>
        <time>2019-05-23T09:58:58.000Z</time>
      </trkpt>
      <trkpt lat="43.21292" lon="5.36612">
        <ele>49.400001525879</ele>
        <time>2019-05-23T09:59:01.000Z</time>
      </trkpt>
      <trkpt lat="43.21295" lon="5.36614">
        <ele>49.799999237061</ele>
        <time>2019-05-23T09:59:03.000Z</time>
      </trkpt>
      <trkpt lat="43.21298" lon="5.36617">
        <ele>50</ele>
        <time>2019-05-23T09:59:04.000Z</time>
      </trkpt>
      <trkpt lat="43.213" lon="5.36618">
        <ele>50.400001525879</ele>
        <time>2019-05-23T09:59:05.000Z</time>
      </trkpt>
      <trkpt lat="43.21305" lon="5.3662">
        <ele>50.799999237061</ele>
        <time>2019-05-23T09:59:07.000Z</time>
      </trkpt>
      <trkpt lat="43.2131" lon="5.36621">
        <ele>51.200000762939</ele>
        <time>2019-05-23T09:59:10.000Z</time>
      </trkpt>
      <trkpt lat="43.21312" lon="5.36621">
        <ele>51.400001525879</ele>
        <time>2019-05-23T09:59:11.000Z</time>
      </trkpt>
      <trkpt lat="43.21317" lon="5.36622">
        <ele>51.799999237061</ele>
        <time>2019-05-23T09:59:14.000Z</time>
      </trkpt>
      <trkpt lat="43.21324" lon="5.36624">
        <ele>52</ele>
        <time>2019-05-23T09:59:17.000Z</time>
      </trkpt>
      <trkpt lat="43.21329" lon="5.36627">
        <ele>52.200000762939</ele>
        <time>2019-05-23T09:59:20.000Z</time>
      </trkpt>
      <trkpt lat="43.21331" lon="5.36628">
        <ele>52.599998474121</ele>
        <time>2019-05-23T09:59:21.000Z</time>
      </trkpt>
      <trkpt lat="43.21334" lon="5.3663">
        <ele>53.200000762939</ele>
        <time>2019-05-23T09:59:23.000Z</time>
      </trkpt>
      <trkpt lat="43.21337" lon="5.36633">
        <ele>53.599998474121</ele>
        <time>2019-05-23T09:59:25.000Z</time>
      </trkpt>
      <trkpt lat="43.21342" lon="5.36637">
        <ele>53.799999237061</ele>
        <time>2019-05-23T09:59:27.000Z</time>
      </trkpt>
      <trkpt lat="43.21347" lon="5.36645">
        <ele>54.200000762939</ele>
        <time>2019-05-23T09:59:31.000Z</time>
      </trkpt>
      <trkpt lat="43.21349" lon="5.36649">
        <ele>54.599998474121</ele>
        <time>2019-05-23T09:59:33.000Z</time>
      </trkpt>
      <trkpt lat="43.21351" lon="5.36651">
        <ele>55</ele>
        <time>2019-05-23T09:59:34.000Z</time>
      </trkpt>
      <trkpt lat="43.21353" lon="5.36654">
        <ele>55.599998474121</ele>
        <time>2019-05-23T09:59:36.000Z</time>
      </trkpt>
      <trkpt lat="43.21353" lon="5.36657">
        <ele>55.799999237061</ele>
        <time>2019-05-23T09:59:37.000Z</time>
      </trkpt>
      <trkpt lat="43.21354" lon="5.36659">
        <ele>56</ele>
        <time>2019-05-23T09:59:38.000Z</time>
      </trkpt>
      <trkpt lat="43.21355" lon="5.36662">
        <ele>56.200000762939</ele>
        <time>2019-05-23T09:59:40.000Z</time>
      </trkpt>
      <trkpt lat="43.21356" lon="5.36663">
        <ele>56.799999237061</ele>
        <time>2019-05-23T09:59:41.000Z</time>
      </trkpt>
      <trkpt lat="43.21358" lon="5.36663">
        <ele>57</ele>
        <time>2019-05-23T09:59:42.000Z</time>
      </trkpt>
      <trkpt lat="43.21358" lon="5.36665">
        <ele>57.400001525879</ele>
        <time>2019-05-23T09:59:44.000Z</time>
      </trkpt>
      <trkpt lat="43.21358" lon="5.36667">
        <ele>57.599998474121</ele>
        <time>2019-05-23T09:59:45.000Z</time>
      </trkpt>
      <trkpt lat="43.21358" lon="5.36669">
        <ele>57.799999237061</ele>
        <time>2019-05-23T09:59:46.000Z</time>
      </trkpt>
      <trkpt lat="43.21357" lon="5.36675">
        <ele>58.200000762939</ele>
        <time>2019-05-23T09:59:48.000Z</time>
      </trkpt>
      <trkpt lat="43.21357" lon="5.36678">
        <ele>58.200000762939</ele>
        <time>2019-05-23T09:59:49.000Z</time>
      </trkpt>
      <trkpt lat="43.21357" lon="5.36685">
        <ele>58.400001525879</ele>
        <time>2019-05-23T09:59:52.000Z</time>
      </trkpt>
      <trkpt lat="43.21356" lon="5.36687">
        <ele>58.400001525879</ele>
        <time>2019-05-23T09:59:55.000Z</time>
      </trkpt>
      <trkpt lat="43.21357" lon="5.36692">
        <ele>58.599998474121</ele>
        <time>2019-05-23T09:59:58.000Z</time>
      </trkpt>
      <trkpt lat="43.21358" lon="5.36693">
        <ele>58.799999237061</ele>
        <time>2019-05-23T09:59:59.000Z</time>
      </trkpt>
      <trkpt lat="43.21358" lon="5.36695">
        <ele>59</ele>
        <time>2019-05-23T10:00:00.000Z</time>
      </trkpt>
      <trkpt lat="43.21359" lon="5.36698">
        <ele>59.400001525879</ele>
        <time>2019-05-23T10:00:03.000Z</time>
      </trkpt>
      <trkpt lat="43.21359" lon="5.36698">
        <ele>59.400001525879</ele>
        <time>2019-05-23T10:00:04.000Z</time>
      </trkpt>
      <trkpt lat="43.21359" lon="5.36699">
        <ele>59.599998474121</ele>
        <time>2019-05-23T10:00:05.000Z</time>
      </trkpt>
      <trkpt lat="43.21357" lon="5.36701">
        <ele>60</ele>
        <time>2019-05-23T10:00:08.000Z</time>
      </trkpt>
      <trkpt lat="43.21356" lon="5.36701">
        <ele>60</ele>
        <time>2019-05-23T10:00:09.000Z</time>
      </trkpt>
      <trkpt lat="43.21356" lon="5.36702">
        <ele>60.200000762939</ele>
        <time>2019-05-23T10:00:10.000Z</time>
      </trkpt>
      <trkpt lat="43.21356" lon="5.36703">
        <ele>60.400001525879</ele>
        <time>2019-05-23T10:00:11.000Z</time>
      </trkpt>
      <trkpt lat="43.21357" lon="5.36705">
        <ele>61</ele>
        <time>2019-05-23T10:00:13.000Z</time>
      </trkpt>
      <trkpt lat="43.21357" lon="5.36705">
        <ele>61.200000762939</ele>
        <time>2019-05-23T10:00:14.000Z</time>
      </trkpt>
      <trkpt lat="43.21358" lon="5.36705">
        <ele>62</ele>
        <time>2019-05-23T10:00:17.000Z</time>
      </trkpt>
      <trkpt lat="43.21358" lon="5.36705">
        <ele>62.200000762939</ele>
        <time>2019-05-23T10:00:18.000Z</time>
      </trkpt>
      <trkpt lat="43.2136" lon="5.36703">
        <ele>62.400001525879</ele>
        <time>2019-05-23T10:00:20.000Z</time>
      </trkpt>
      <trkpt lat="43.21361" lon="5.367">
        <ele>63</ele>
        <time>2019-05-23T10:00:22.000Z</time>
      </trkpt>
      <trkpt lat="43.21362" lon="5.36697">
        <ele>63.200000762939</ele>
        <time>2019-05-23T10:00:23.000Z</time>
      </trkpt>
      <trkpt lat="43.21362" lon="5.36694">
        <ele>63.599998474121</ele>
        <time>2019-05-23T10:00:25.000Z</time>
      </trkpt>
      <trkpt lat="43.21366" lon="5.36692">
        <ele>64</ele>
        <time>2019-05-23T10:00:28.000Z</time>
      </trkpt>
      <trkpt lat="43.21367" lon="5.36691">
        <ele>64.199996948242</ele>
        <time>2019-05-23T10:00:29.000Z</time>
      </trkpt>
      <trkpt lat="43.21368" lon="5.36691">
        <ele>64.400001525879</ele>
        <time>2019-05-23T10:00:30.000Z</time>
      </trkpt>
      <trkpt lat="43.21373" lon="5.36693">
        <ele>65.199996948242</ele>
        <time>2019-05-23T10:00:33.000Z</time>
      </trkpt>
      <trkpt lat="43.21373" lon="5.36694">
        <ele>65.400001525879</ele>
        <time>2019-05-23T10:00:34.000Z</time>
      </trkpt>
      <trkpt lat="43.21375" lon="5.36695">
        <ele>65.400001525879</ele>
        <time>2019-05-23T10:00:35.000Z</time>
      </trkpt>
      <trkpt lat="43.21375" lon="5.36697">
        <ele>65.599998474121</ele>
        <time>2019-05-23T10:00:36.000Z</time>
      </trkpt>
      <trkpt lat="43.21377" lon="5.36702">
        <ele>65.800003051758</ele>
        <time>2019-05-23T10:00:38.000Z</time>
      </trkpt>
      <trkpt lat="43.21379" lon="5.36706">
        <ele>66.199996948242</ele>
        <time>2019-05-23T10:00:41.000Z</time>
      </trkpt>
      <trkpt lat="43.21379" lon="5.36707">
        <ele>66.599998474121</ele>
        <time>2019-05-23T10:00:42.000Z</time>
      </trkpt>
      <trkpt lat="43.2138" lon="5.36708">
        <ele>67.199996948242</ele>
        <time>2019-05-23T10:00:44.000Z</time>
      </trkpt>
      <trkpt lat="43.2138" lon="5.36708">
        <ele>67.400001525879</ele>
        <time>2019-05-23T10:00:45.000Z</time>
      </trkpt>
      <trkpt lat="43.21381" lon="5.36708">
        <ele>67.800003051758</ele>
        <time>2019-05-23T10:00:46.000Z</time>
      </trkpt>
      <trkpt lat="43.21381" lon="5.36709">
        <ele>68</ele>
        <time>2019-05-23T10:00:47.000Z</time>
      </trkpt>
      <trkpt lat="43.21383" lon="5.36709">
        <ele>68.599998474121</ele>
        <time>2019-05-23T10:00:50.000Z</time>
      </trkpt>
      <trkpt lat="43.21384" lon="5.3671">
        <ele>68.800003051758</ele>
        <time>2019-05-23T10:00:51.000Z</time>
      </trkpt>
      <trkpt lat="43.21385" lon="5.36711">
        <ele>68.800003051758</ele>
        <time>2019-05-23T10:00:52.000Z</time>
      </trkpt>
      <trkpt lat="43.21387" lon="5.36712">
        <ele>68.800003051758</ele>
        <time>2019-05-23T10:00:53.000Z</time>
      </trkpt>
      <trkpt lat="43.21389" lon="5.36713">
        <ele>68.800003051758</ele>
        <time>2019-05-23T10:00:54.000Z</time>
      </trkpt>
      <trkpt lat="43.21391" lon="5.36716">
        <ele>69</ele>
        <time>2019-05-23T10:00:55.000Z</time>
      </trkpt>
      <trkpt lat="43.21393" lon="5.36723">
        <ele>69.400001525879</ele>
        <time>2019-05-23T10:00:57.000Z</time>
      </trkpt>
      <trkpt lat="43.21394" lon="5.36728">
        <ele>69.599998474121</ele>
        <time>2019-05-23T10:00:59.000Z</time>
      </trkpt>
      <trkpt lat="43.21394" lon="5.36733">
        <ele>69.800003051758</ele>
        <time>2019-05-23T10:01:02.000Z</time>
      </trkpt>
      <trkpt lat="43.21393" lon="5.36733">
        <ele>69.800003051758</ele>
        <time>2019-05-23T10:01:04.000Z</time>
      </trkpt>
      <trkpt lat="43.21394" lon="5.36733">
        <ele>69.800003051758</ele>
        <time>2019-05-23T10:01:05.000Z</time>
      </trkpt>
      <trkpt lat="43.21397" lon="5.36732">
        <ele>70.800003051758</ele>
        <time>2019-05-23T10:01:08.000Z</time>
      </trkpt>
      <trkpt lat="43.21398" lon="5.36733">
        <ele>71</ele>
        <time>2019-05-23T10:01:09.000Z</time>
      </trkpt>
      <trkpt lat="43.21399" lon="5.36739">
        <ele>72</ele>
        <time>2019-05-23T10:01:12.000Z</time>
      </trkpt>
      <trkpt lat="43.214" lon="5.36743">
        <ele>72.400001525879</ele>
        <time>2019-05-23T10:01:14.000Z</time>
      </trkpt>
      <trkpt lat="43.21403" lon="5.36747">
        <ele>72.800003051758</ele>
        <time>2019-05-23T10:01:16.000Z</time>
      </trkpt>
      <trkpt lat="43.21404" lon="5.36748">
        <ele>73.199996948242</ele>
        <time>2019-05-23T10:01:17.000Z</time>
      </trkpt>
      <trkpt lat="43.21408" lon="5.3675">
        <ele>74</ele>
        <time>2019-05-23T10:01:19.000Z</time>
      </trkpt>
      <trkpt lat="43.21409" lon="5.3675">
        <ele>74.199996948242</ele>
        <time>2019-05-23T10:01:20.000Z</time>
      </trkpt>
      <trkpt lat="43.21413" lon="5.3675">
        <ele>74.800003051758</ele>
        <time>2019-05-23T10:01:22.000Z</time>
      </trkpt>
      <trkpt lat="43.21414" lon="5.36751">
        <ele>74.800003051758</ele>
        <time>2019-05-23T10:01:23.000Z</time>
      </trkpt>
      <trkpt lat="43.21416" lon="5.36752">
        <ele>75.199996948242</ele>
        <time>2019-05-23T10:01:25.000Z</time>
      </trkpt>
      <trkpt lat="43.21417" lon="5.36753">
        <ele>75.400001525879</ele>
        <time>2019-05-23T10:01:26.000Z</time>
      </trkpt>
      <trkpt lat="43.2142" lon="5.36757">
        <ele>76</ele>
        <time>2019-05-23T10:01:30.000Z</time>
      </trkpt>
      <trkpt lat="43.21421" lon="5.3676">
        <ele>76.400001525879</ele>
        <time>2019-05-23T10:01:32.000Z</time>
      </trkpt>
      <trkpt lat="43.21422" lon="5.36762">
        <ele>76.599998474121</ele>
        <time>2019-05-23T10:01:33.000Z</time>
      </trkpt>
      <trkpt lat="43.21423" lon="5.36764">
        <ele>76.800003051758</ele>
        <time>2019-05-23T10:01:34.000Z</time>
      </trkpt>
      <trkpt lat="43.21425" lon="5.36766">
        <ele>77.400001525879</ele>
        <time>2019-05-23T10:01:37.000Z</time>
      </trkpt>
      <trkpt lat="43.21425" lon="5.36766">
        <ele>77.599998474121</ele>
        <time>2019-05-23T10:01:38.000Z</time>
      </trkpt>
      <trkpt lat="43.21425" lon="5.36767">
        <ele>77.800003051758</ele>
        <time>2019-05-23T10:01:39.000Z</time>
      </trkpt>
      <trkpt lat="43.21425" lon="5.36767">
        <ele>78.599998474121</ele>
        <time>2019-05-23T10:01:42.000Z</time>
      </trkpt>
      <trkpt lat="43.21426" lon="5.36768">
        <ele>78.800003051758</ele>
        <time>2019-05-23T10:01:43.000Z</time>
      </trkpt>
      <trkpt lat="43.21427" lon="5.3677">
        <ele>78.800003051758</ele>
        <time>2019-05-23T10:01:44.000Z</time>
      </trkpt>
      <trkpt lat="43.2143" lon="5.36774">
        <ele>79.599998474121</ele>
        <time>2019-05-23T10:01:47.000Z</time>
      </trkpt>
      <trkpt lat="43.2143" lon="5.36775">
        <ele>79.800003051758</ele>
        <time>2019-05-23T10:01:48.000Z</time>
      </trkpt>
      <trkpt lat="43.2143" lon="5.36776">
        <ele>80</ele>
        <time>2019-05-23T10:01:50.000Z</time>
      </trkpt>
      <trkpt lat="43.2143" lon="5.36776">
        <ele>80.400001525879</ele>
        <time>2019-05-23T10:01:52.000Z</time>
      </trkpt>
      <trkpt lat="43.2143" lon="5.36776">
        <ele>80.599998474121</ele>
        <time>2019-05-23T10:01:53.000Z</time>
      </trkpt>
      <trkpt lat="43.21432" lon="5.36776">
        <ele>81</ele>
        <time>2019-05-23T10:01:55.000Z</time>
      </trkpt>
      <trkpt lat="43.21434" lon="5.36778">
        <ele>81.400001525879</ele>
        <time>2019-05-23T10:01:57.000Z</time>
      </trkpt>
      <trkpt lat="43.21434" lon="5.36779">
        <ele>81.599998474121</ele>
        <time>2019-05-23T10:01:58.000Z</time>
      </trkpt>
      <trkpt lat="43.21435" lon="5.3678">
        <ele>81.800003051758</ele>
        <time>2019-05-23T10:01:59.000Z</time>
      </trkpt>
      <trkpt lat="43.21437" lon="5.3678">
        <ele>82</ele>
        <time>2019-05-23T10:02:00.000Z</time>
      </trkpt>
      <trkpt lat="43.21439" lon="5.36782">
        <ele>82.400001525879</ele>
        <time>2019-05-23T10:02:02.000Z</time>
      </trkpt>
      <trkpt lat="43.21441" lon="5.36785">
        <ele>82.800003051758</ele>
        <time>2019-05-23T10:02:04.000Z</time>
      </trkpt>
      <trkpt lat="43.21441" lon="5.36786">
        <ele>83</ele>
        <time>2019-05-23T10:02:05.000Z</time>
      </trkpt>
      <trkpt lat="43.21442" lon="5.36787">
        <ele>83.199996948242</ele>
        <time>2019-05-23T10:02:06.000Z</time>
      </trkpt>
      <trkpt lat="43.21444" lon="5.36792">
        <ele>83.800003051758</ele>
        <time>2019-05-23T10:02:09.000Z</time>
      </trkpt>
      <trkpt lat="43.21445" lon="5.36793">
        <ele>84</ele>
        <time>2019-05-23T10:02:10.000Z</time>
      </trkpt>
      <trkpt lat="43.21445" lon="5.36795">
        <ele>84.400001525879</ele>
        <time>2019-05-23T10:02:12.000Z</time>
      </trkpt>
      <trkpt lat="43.21447" lon="5.36796">
        <ele>84.800003051758</ele>
        <time>2019-05-23T10:02:14.000Z</time>
      </trkpt>
      <trkpt lat="43.2145" lon="5.368">
        <ele>85</ele>
        <time>2019-05-23T10:02:17.000Z</time>
      </trkpt>
      <trkpt lat="43.21452" lon="5.36802">
        <ele>85.199996948242</ele>
        <time>2019-05-23T10:02:19.000Z</time>
      </trkpt>
      <trkpt lat="43.21453" lon="5.36803">
        <ele>85.400001525879</ele>
        <time>2019-05-23T10:02:20.000Z</time>
      </trkpt>
      <trkpt lat="43.21455" lon="5.36804">
        <ele>85.400001525879</ele>
        <time>2019-05-23T10:02:22.000Z</time>
      </trkpt>
      <trkpt lat="43.21456" lon="5.36806">
        <ele>85.599998474121</ele>
        <time>2019-05-23T10:02:24.000Z</time>
      </trkpt>
      <trkpt lat="43.21457" lon="5.36809">
        <ele>85.599998474121</ele>
        <time>2019-05-23T10:02:26.000Z</time>
      </trkpt>
      <trkpt lat="43.21458" lon="5.36811">
        <ele>85.800003051758</ele>
        <time>2019-05-23T10:02:28.000Z</time>
      </trkpt>
      <trkpt lat="43.21458" lon="5.36814">
        <ele>86.199996948242</ele>
        <time>2019-05-23T10:02:30.000Z</time>
      </trkpt>
      <trkpt lat="43.21459" lon="5.36815">
        <ele>86.599998474121</ele>
        <time>2019-05-23T10:02:32.000Z</time>
      </trkpt>
      <trkpt lat="43.21461" lon="5.36819">
        <ele>86.800003051758</ele>
        <time>2019-05-23T10:02:35.000Z</time>
      </trkpt>
      <trkpt lat="43.21462" lon="5.3682">
        <ele>87</ele>
        <time>2019-05-23T10:02:36.000Z</time>
      </trkpt>
      <trkpt lat="43.21463" lon="5.36821">
        <ele>87.199996948242</ele>
        <time>2019-05-23T10:02:37.000Z</time>
      </trkpt>
      <trkpt lat="43.21464" lon="5.36822">
        <ele>87.199996948242</ele>
        <time>2019-05-23T10:02:38.000Z</time>
      </trkpt>
      <trkpt lat="43.21465" lon="5.36823">
        <ele>87.199996948242</ele>
        <time>2019-05-23T10:02:39.000Z</time>
      </trkpt>
      <trkpt lat="43.21466" lon="5.36825">
        <ele>87.400001525879</ele>
        <time>2019-05-23T10:02:41.000Z</time>
      </trkpt>
      <trkpt lat="43.21467" lon="5.36828">
        <ele>88</ele>
        <time>2019-05-23T10:02:44.000Z</time>
      </trkpt>
      <trkpt lat="43.21469" lon="5.3683">
        <ele>88.400001525879</ele>
        <time>2019-05-23T10:02:46.000Z</time>
      </trkpt>
      <trkpt lat="43.2147" lon="5.36831">
        <ele>88.800003051758</ele>
        <time>2019-05-23T10:02:47.000Z</time>
      </trkpt>
      <trkpt lat="43.21473" lon="5.36829">
        <ele>89.400001525879</ele>
        <time>2019-05-23T10:02:51.000Z</time>
      </trkpt>
      <trkpt lat="43.21474" lon="5.36828">
        <ele>89.599998474121</ele>
        <time>2019-05-23T10:02:52.000Z</time>
      </trkpt>
      <trkpt lat="43.21476" lon="5.36828">
        <ele>90.400001525879</ele>
        <time>2019-05-23T10:02:57.000Z</time>
      </trkpt>
      <trkpt lat="43.21477" lon="5.36829">
        <ele>90.599998474121</ele>
        <time>2019-05-23T10:02:58.000Z</time>
      </trkpt>
      <trkpt lat="43.21478" lon="5.3683">
        <ele>90.800003051758</ele>
        <time>2019-05-23T10:02:59.000Z</time>
      </trkpt>
      <trkpt lat="43.21479" lon="5.36831">
        <ele>91</ele>
        <time>2019-05-23T10:03:00.000Z</time>
      </trkpt>
      <trkpt lat="43.21481" lon="5.36835">
        <ele>91.800003051758</ele>
        <time>2019-05-23T10:03:03.000Z</time>
      </trkpt>
      <trkpt lat="43.21482" lon="5.36835">
        <ele>92</ele>
        <time>2019-05-23T10:03:04.000Z</time>
      </trkpt>
      <trkpt lat="43.21484" lon="5.36835">
        <ele>92.599998474121</ele>
        <time>2019-05-23T10:03:06.000Z</time>
      </trkpt>
      <trkpt lat="43.21486" lon="5.36835">
        <ele>93.199996948242</ele>
        <time>2019-05-23T10:03:09.000Z</time>
      </trkpt>
      <trkpt lat="43.21488" lon="5.36834">
        <ele>93.400001525879</ele>
        <time>2019-05-23T10:03:11.000Z</time>
      </trkpt>
      <trkpt lat="43.21492" lon="5.36834">
        <ele>94.199996948242</ele>
        <time>2019-05-23T10:03:14.000Z</time>
      </trkpt>
      <trkpt lat="43.21494" lon="5.36835">
        <ele>95</ele>
        <time>2019-05-23T10:03:16.000Z</time>
      </trkpt>
      <trkpt lat="43.21495" lon="5.36836">
        <ele>95.400001525879</ele>
        <time>2019-05-23T10:03:17.000Z</time>
      </trkpt>
      <trkpt lat="43.21497" lon="5.36836">
        <ele>96</ele>
        <time>2019-05-23T10:03:20.000Z</time>
      </trkpt>
      <trkpt lat="43.21499" lon="5.36836">
        <ele>96.400001525879</ele>
        <time>2019-05-23T10:03:22.000Z</time>
      </trkpt>
      <trkpt lat="43.215" lon="5.36836">
        <ele>96.599998474121</ele>
        <time>2019-05-23T10:03:23.000Z</time>
      </trkpt>
      <trkpt lat="43.21501" lon="5.36836">
        <ele>97</ele>
        <time>2019-05-23T10:03:25.000Z</time>
      </trkpt>
      <trkpt lat="43.21503" lon="5.36836">
        <ele>97.199996948242</ele>
        <time>2019-05-23T10:03:27.000Z</time>
      </trkpt>
      <trkpt lat="43.21504" lon="5.36835">
        <ele>97.400001525879</ele>
        <time>2019-05-23T10:03:28.000Z</time>
      </trkpt>
      <trkpt lat="43.21505" lon="5.36835">
        <ele>97.400001525879</ele>
        <time>2019-05-23T10:03:29.000Z</time>
      </trkpt>
      <trkpt lat="43.21508" lon="5.36832">
        <ele>98.599998474121</ele>
        <time>2019-05-23T10:03:34.000Z</time>
      </trkpt>
      <trkpt lat="43.21509" lon="5.36831">
        <ele>98.800003051758</ele>
        <time>2019-05-23T10:03:35.000Z</time>
      </trkpt>
      <trkpt lat="43.2151" lon="5.3683">
        <ele>99.199996948242</ele>
        <time>2019-05-23T10:03:36.000Z</time>
      </trkpt>
      <trkpt lat="43.21511" lon="5.36829">
        <ele>99.400001525879</ele>
        <time>2019-05-23T10:03:38.000Z</time>
      </trkpt>
      <trkpt lat="43.21511" lon="5.36828">
        <ele>99.599998474121</ele>
        <time>2019-05-23T10:03:39.000Z</time>
      </trkpt>
      <trkpt lat="43.21512" lon="5.36827">
        <ele>99.800003051758</ele>
        <time>2019-05-23T10:03:40.000Z</time>
      </trkpt>
      <trkpt lat="43.21514" lon="5.36825">
        <ele>100</ele>
        <time>2019-05-23T10:03:42.000Z</time>
      </trkpt>
      <trkpt lat="43.21515" lon="5.36824">
        <ele>100.59999847412</ele>
        <time>2019-05-23T10:03:44.000Z</time>
      </trkpt>
      <trkpt lat="43.21515" lon="5.36824">
        <ele>101</ele>
        <time>2019-05-23T10:03:45.000Z</time>
      </trkpt>
      <trkpt lat="43.21516" lon="5.36824">
        <ele>101.40000152588</ele>
        <time>2019-05-23T10:03:46.000Z</time>
      </trkpt>
      <trkpt lat="43.21518" lon="5.36824">
        <ele>102</ele>
        <time>2019-05-23T10:03:48.000Z</time>
      </trkpt>
      <trkpt lat="43.21519" lon="5.36824">
        <ele>102.19999694824</ele>
        <time>2019-05-23T10:03:49.000Z</time>
      </trkpt>
      <trkpt lat="43.21522" lon="5.36823">
        <ele>103</ele>
        <time>2019-05-23T10:03:51.000Z</time>
      </trkpt>
      <trkpt lat="43.21524" lon="5.36823">
        <ele>103.40000152588</ele>
        <time>2019-05-23T10:03:52.000Z</time>
      </trkpt>
      <trkpt lat="43.21526" lon="5.36823">
        <ele>104</ele>
        <time>2019-05-23T10:03:54.000Z</time>
      </trkpt>
      <trkpt lat="43.21529" lon="5.36823">
        <ele>104.40000152588</ele>
        <time>2019-05-23T10:03:56.000Z</time>
      </trkpt>
      <trkpt lat="43.2153" lon="5.36824">
        <ele>104.80000305176</ele>
        <time>2019-05-23T10:03:57.000Z</time>
      </trkpt>
      <trkpt lat="43.21531" lon="5.36824">
        <ele>105.19999694824</ele>
        <time>2019-05-23T10:03:58.000Z</time>
      </trkpt>
      <trkpt lat="43.21532" lon="5.36824">
        <ele>105.80000305176</ele>
        <time>2019-05-23T10:03:59.000Z</time>
      </trkpt>
      <trkpt lat="43.21535" lon="5.36823">
        <ele>106.40000152588</ele>
        <time>2019-05-23T10:04:01.000Z</time>
      </trkpt>
      <trkpt lat="43.21536" lon="5.36822">
        <ele>106.59999847412</ele>
        <time>2019-05-23T10:04:02.000Z</time>
      </trkpt>
      <trkpt lat="43.21537" lon="5.36822">
        <ele>106.59999847412</ele>
        <time>2019-05-23T10:04:03.000Z</time>
      </trkpt>
      <trkpt lat="43.21538" lon="5.36822">
        <ele>106.80000305176</ele>
        <time>2019-05-23T10:04:04.000Z</time>
      </trkpt>
      <trkpt lat="43.21542" lon="5.36824">
        <ele>107.19999694824</ele>
        <time>2019-05-23T10:04:07.000Z</time>
      </trkpt>
      <trkpt lat="43.21543" lon="5.36825">
        <ele>107.19999694824</ele>
        <time>2019-05-23T10:04:08.000Z</time>
      </trkpt>
      <trkpt lat="43.21545" lon="5.36826">
        <ele>107.40000152588</ele>
        <time>2019-05-23T10:04:09.000Z</time>
      </trkpt>
      <trkpt lat="43.21552" lon="5.36828">
        <ele>107.80000305176</ele>
        <time>2019-05-23T10:04:13.000Z</time>
      </trkpt>
      <trkpt lat="43.21554" lon="5.36828">
        <ele>108.19999694824</ele>
        <time>2019-05-23T10:04:14.000Z</time>
      </trkpt>
      <trkpt lat="43.21557" lon="5.36829">
        <ele>108.80000305176</ele>
        <time>2019-05-23T10:04:16.000Z</time>
      </trkpt>
      <trkpt lat="43.21559" lon="5.3683">
        <ele>109</ele>
        <time>2019-05-23T10:04:17.000Z</time>
      </trkpt>
      <trkpt lat="43.2156" lon="5.3683">
        <ele>109.19999694824</ele>
        <time>2019-05-23T10:04:18.000Z</time>
      </trkpt>
      <trkpt lat="43.21562" lon="5.36831">
        <ele>110</ele>
        <time>2019-05-23T10:04:20.000Z</time>
      </trkpt>
      <trkpt lat="43.21563" lon="5.36832">
        <ele>110.59999847412</ele>
        <time>2019-05-23T10:04:21.000Z</time>
      </trkpt>
      <trkpt lat="43.21566" lon="5.36833">
        <ele>111.80000305176</ele>
        <time>2019-05-23T10:04:24.000Z</time>
      </trkpt>
      <trkpt lat="43.21567" lon="5.36833">
        <ele>112</ele>
        <time>2019-05-23T10:04:25.000Z</time>
      </trkpt>
      <trkpt lat="43.21569" lon="5.36833">
        <ele>112.59999847412</ele>
        <time>2019-05-23T10:04:27.000Z</time>
      </trkpt>
      <trkpt lat="43.21569" lon="5.36833">
        <ele>112.59999847412</ele>
        <time>2019-05-23T10:04:28.000Z</time>
      </trkpt>
      <trkpt lat="43.2157" lon="5.36832">
        <ele>112.80000305176</ele>
        <time>2019-05-23T10:04:29.000Z</time>
      </trkpt>
      <trkpt lat="43.21575" lon="5.36831">
        <ele>113.40000152588</ele>
        <time>2019-05-23T10:04:32.000Z</time>
      </trkpt>
      <trkpt lat="43.21578" lon="5.3683">
        <ele>113.80000305176</ele>
        <time>2019-05-23T10:04:34.000Z</time>
      </trkpt>
      <trkpt lat="43.21583" lon="5.36828">
        <ele>115</ele>
        <time>2019-05-23T10:04:38.000Z</time>
      </trkpt>
      <trkpt lat="43.21585" lon="5.36827">
        <ele>115.19999694824</ele>
        <time>2019-05-23T10:04:39.000Z</time>
      </trkpt>
      <trkpt lat="43.21587" lon="5.36825">
        <ele>115.59999847412</ele>
        <time>2019-05-23T10:04:40.000Z</time>
      </trkpt>
      <trkpt lat="43.21589" lon="5.36824">
        <ele>116</ele>
        <time>2019-05-23T10:04:42.000Z</time>
      </trkpt>
      <trkpt lat="43.21591" lon="5.36823">
        <ele>116</ele>
        <time>2019-05-23T10:04:43.000Z</time>
      </trkpt>
      <trkpt lat="43.21593" lon="5.36823">
        <ele>116.19999694824</ele>
        <time>2019-05-23T10:04:44.000Z</time>
      </trkpt>
      <trkpt lat="43.216" lon="5.36823">
        <ele>117.40000152588</ele>
        <time>2019-05-23T10:04:49.000Z</time>
      </trkpt>
      <trkpt lat="43.21601" lon="5.36824">
        <ele>117.59999847412</ele>
        <time>2019-05-23T10:04:50.000Z</time>
      </trkpt>
      <trkpt lat="43.21602" lon="5.36824">
        <ele>117.80000305176</ele>
        <time>2019-05-23T10:04:51.000Z</time>
      </trkpt>
      <trkpt lat="43.21607" lon="5.36824">
        <ele>118.59999847412</ele>
        <time>2019-05-23T10:04:54.000Z</time>
      </trkpt>
      <trkpt lat="43.21608" lon="5.36824">
        <ele>118.80000305176</ele>
        <time>2019-05-23T10:04:55.000Z</time>
      </trkpt>
      <trkpt lat="43.21611" lon="5.36826">
        <ele>119.40000152588</ele>
        <time>2019-05-23T10:04:58.000Z</time>
      </trkpt>
      <trkpt lat="43.21611" lon="5.36826">
        <ele>119.59999847412</ele>
        <time>2019-05-23T10:04:59.000Z</time>
      </trkpt>
      <trkpt lat="43.21612" lon="5.36826">
        <ele>119.80000305176</ele>
        <time>2019-05-23T10:05:00.000Z</time>
      </trkpt>
      <trkpt lat="43.21613" lon="5.36826">
        <ele>120</ele>
        <time>2019-05-23T10:05:01.000Z</time>
      </trkpt>
      <trkpt lat="43.21618" lon="5.36823">
        <ele>120.59999847412</ele>
        <time>2019-05-23T10:05:05.000Z</time>
      </trkpt>
      <trkpt lat="43.21619" lon="5.36822">
        <ele>120.80000305176</ele>
        <time>2019-05-23T10:05:06.000Z</time>
      </trkpt>
      <trkpt lat="43.21623" lon="5.36821">
        <ele>121.40000152588</ele>
        <time>2019-05-23T10:05:09.000Z</time>
      </trkpt>
      <trkpt lat="43.21627" lon="5.36818">
        <ele>121.59999847412</ele>
        <time>2019-05-23T10:05:13.000Z</time>
      </trkpt>
      <trkpt lat="43.21628" lon="5.36817">
        <ele>121.59999847412</ele>
        <time>2019-05-23T10:05:15.000Z</time>
      </trkpt>
      <trkpt lat="43.2163" lon="5.36815">
        <ele>121.80000305176</ele>
        <time>2019-05-23T10:05:17.000Z</time>
      </trkpt>
      <trkpt lat="43.21631" lon="5.36813">
        <ele>122.19999694824</ele>
        <time>2019-05-23T10:05:19.000Z</time>
      </trkpt>
      <trkpt lat="43.21636" lon="5.3681">
        <ele>122.59999847412</ele>
        <time>2019-05-23T10:05:23.000Z</time>
      </trkpt>
      <trkpt lat="43.21637" lon="5.3681">
        <ele>122.80000305176</ele>
        <time>2019-05-23T10:05:24.000Z</time>
      </trkpt>
      <trkpt lat="43.21637" lon="5.36809">
        <ele>123</ele>
        <time>2019-05-23T10:05:25.000Z</time>
      </trkpt>
      <trkpt lat="43.2164" lon="5.36809">
        <ele>123.40000152588</ele>
        <time>2019-05-23T10:05:28.000Z</time>
      </trkpt>
      <trkpt lat="43.21641" lon="5.3681">
        <ele>123.40000152588</ele>
        <time>2019-05-23T10:05:29.000Z</time>
      </trkpt>
      <trkpt lat="43.21642" lon="5.3681">
        <ele>123.80000305176</ele>
        <time>2019-05-23T10:05:30.000Z</time>
      </trkpt>
      <trkpt lat="43.21643" lon="5.3681">
        <ele>124</ele>
        <time>2019-05-23T10:05:31.000Z</time>
      </trkpt>
      <trkpt lat="43.21647" lon="5.36811">
        <ele>124.80000305176</ele>
        <time>2019-05-23T10:05:35.000Z</time>
      </trkpt>
      <trkpt lat="43.21648" lon="5.36812">
        <ele>125</ele>
        <time>2019-05-23T10:05:36.000Z</time>
      </trkpt>
      <trkpt lat="43.21649" lon="5.36812">
        <ele>125</ele>
        <time>2019-05-23T10:05:37.000Z</time>
      </trkpt>
      <trkpt lat="43.21653" lon="5.3681">
        <ele>125.80000305176</ele>
        <time>2019-05-23T10:05:42.000Z</time>
      </trkpt>
      <trkpt lat="43.21656" lon="5.36812">
        <ele>126.40000152588</ele>
        <time>2019-05-23T10:05:45.000Z</time>
      </trkpt>
      <trkpt lat="43.21658" lon="5.36812">
        <ele>127</ele>
        <time>2019-05-23T10:05:47.000Z</time>
      </trkpt>
      <trkpt lat="43.21659" lon="5.36812">
        <ele>127.19999694824</ele>
        <time>2019-05-23T10:05:48.000Z</time>
      </trkpt>
      <trkpt lat="43.2166" lon="5.36811">
        <ele>127.59999847412</ele>
        <time>2019-05-23T10:05:49.000Z</time>
      </trkpt>
      <trkpt lat="43.21662" lon="5.36811">
        <ele>128.19999694824</ele>
        <time>2019-05-23T10:05:52.000Z</time>
      </trkpt>
      <trkpt lat="43.21663" lon="5.36812">
        <ele>128.39999389648</ele>
        <time>2019-05-23T10:05:54.000Z</time>
      </trkpt>
      <trkpt lat="43.21664" lon="5.36812">
        <ele>128.60000610352</ele>
        <time>2019-05-23T10:05:56.000Z</time>
      </trkpt>
      <trkpt lat="43.21667" lon="5.36811">
        <ele>129.19999694824</ele>
        <time>2019-05-23T10:05:59.000Z</time>
      </trkpt>
      <trkpt lat="43.2167" lon="5.36809">
        <ele>129.39999389648</ele>
        <time>2019-05-23T10:06:01.000Z</time>
      </trkpt>
      <trkpt lat="43.21672" lon="5.36807">
        <ele>129.60000610352</ele>
        <time>2019-05-23T10:06:04.000Z</time>
      </trkpt>
      <trkpt lat="43.21673" lon="5.36807">
        <ele>130</ele>
        <time>2019-05-23T10:06:05.000Z</time>
      </trkpt>
      <trkpt lat="43.21673" lon="5.36807">
        <ele>130.39999389648</ele>
        <time>2019-05-23T10:06:06.000Z</time>
      </trkpt>
      <trkpt lat="43.21674" lon="5.36806">
        <ele>130.80000305176</ele>
        <time>2019-05-23T10:06:08.000Z</time>
      </trkpt>
      <trkpt lat="43.21674" lon="5.36805">
        <ele>131.19999694824</ele>
        <time>2019-05-23T10:06:11.000Z</time>
      </trkpt>
      <trkpt lat="43.21657" lon="5.36828">
        <ele>133.39999389648</ele>
        <time>2019-05-23T10:06:13.000Z</time>
      </trkpt>
      <trkpt lat="43.21666" lon="5.36815">
        <ele>129.60000610352</ele>
        <time>2019-05-23T10:07:24.000Z</time>
      </trkpt>
      <trkpt lat="43.21665" lon="5.36815">
        <ele>129.60000610352</ele>
        <time>2019-05-23T10:07:25.000Z</time>
      </trkpt>
      <trkpt lat="43.21666" lon="5.36815">
        <ele>129.60000610352</ele>
        <time>2019-05-23T10:07:26.000Z</time>
      </trkpt>
      <trkpt lat="43.21667" lon="5.36817">
        <ele>130.19999694824</ele>
        <time>2019-05-23T10:07:31.000Z</time>
      </trkpt>
      <trkpt lat="43.21666" lon="5.36817">
        <ele>130.80000305176</ele>
        <time>2019-05-23T10:07:32.000Z</time>
      </trkpt>
      <trkpt lat="43.21665" lon="5.36817">
        <ele>131.80000305176</ele>
        <time>2019-05-23T10:07:34.000Z</time>
      </trkpt>
      <trkpt lat="43.21662" lon="5.3681">
        <ele>132.80000305176</ele>
        <time>2019-05-23T10:07:37.000Z</time>
      </trkpt>
      <trkpt lat="43.21659" lon="5.36807">
        <ele>134</ele>
        <time>2019-05-23T10:07:39.000Z</time>
      </trkpt>
      <trkpt lat="43.21657" lon="5.36806">
        <ele>134.39999389648</ele>
        <time>2019-05-23T10:07:40.000Z</time>
      </trkpt>
      <trkpt lat="43.21656" lon="5.36804">
        <ele>134.80000305176</ele>
        <time>2019-05-23T10:07:41.000Z</time>
      </trkpt>
      <trkpt lat="43.21655" lon="5.36802">
        <ele>135</ele>
        <time>2019-05-23T10:07:42.000Z</time>
      </trkpt>
      <trkpt lat="43.21654" lon="5.36799">
        <ele>135.39999389648</ele>
        <time>2019-05-23T10:07:43.000Z</time>
      </trkpt>
      <trkpt lat="43.21653" lon="5.36797">
        <ele>135.60000610352</ele>
        <time>2019-05-23T10:07:44.000Z</time>
      </trkpt>
      <trkpt lat="43.21651" lon="5.36795">
        <ele>135.80000305176</ele>
        <time>2019-05-23T10:07:45.000Z</time>
      </trkpt>
      <trkpt lat="43.21649" lon="5.36794">
        <ele>136</ele>
        <time>2019-05-23T10:07:46.000Z</time>
      </trkpt>
      <trkpt lat="43.21648" lon="5.36793">
        <ele>136.19999694824</ele>
        <time>2019-05-23T10:07:47.000Z</time>
      </trkpt>
      <trkpt lat="43.21647" lon="5.36792">
        <ele>136.39999389648</ele>
        <time>2019-05-23T10:07:48.000Z</time>
      </trkpt>
      <trkpt lat="43.21645" lon="5.36791">
        <ele>136.39999389648</ele>
        <time>2019-05-23T10:07:49.000Z</time>
      </trkpt>
      <trkpt lat="43.21642" lon="5.3679">
        <ele>136.39999389648</ele>
        <time>2019-05-23T10:07:51.000Z</time>
      </trkpt>
      <trkpt lat="43.2164" lon="5.36791">
        <ele>136.60000610352</ele>
        <time>2019-05-23T10:07:52.000Z</time>
      </trkpt>
      <trkpt lat="43.21638" lon="5.36792">
        <ele>136.80000305176</ele>
        <time>2019-05-23T10:07:53.000Z</time>
      </trkpt>
      <trkpt lat="43.21634" lon="5.36789">
        <ele>137.39999389648</ele>
        <time>2019-05-23T10:07:55.000Z</time>
      </trkpt>
      <trkpt lat="43.21631" lon="5.36785">
        <ele>138.19999694824</ele>
        <time>2019-05-23T10:07:57.000Z</time>
      </trkpt>
      <trkpt lat="43.21629" lon="5.36781">
        <ele>138.80000305176</ele>
        <time>2019-05-23T10:07:58.000Z</time>
      </trkpt>
      <trkpt lat="43.21626" lon="5.36771">
        <ele>139.80000305176</ele>
        <time>2019-05-23T10:08:02.000Z</time>
      </trkpt>
      <trkpt lat="43.21623" lon="5.36765">
        <ele>140.80000305176</ele>
        <time>2019-05-23T10:08:08.000Z</time>
      </trkpt>
      <trkpt lat="43.21622" lon="5.36765">
        <ele>141</ele>
        <time>2019-05-23T10:08:09.000Z</time>
      </trkpt>
      <trkpt lat="43.21618" lon="5.36765">
        <ele>142.19999694824</ele>
        <time>2019-05-23T10:08:14.000Z</time>
      </trkpt>
      <trkpt lat="43.21616" lon="5.36766">
        <ele>142.80000305176</ele>
        <time>2019-05-23T10:08:16.000Z</time>
      </trkpt>
      <trkpt lat="43.21614" lon="5.36763">
        <ele>143.39999389648</ele>
        <time>2019-05-23T10:08:18.000Z</time>
      </trkpt>
      <trkpt lat="43.21614" lon="5.3676">
        <ele>143.80000305176</ele>
        <time>2019-05-23T10:08:20.000Z</time>
      </trkpt>
      <trkpt lat="43.21613" lon="5.36757">
        <ele>144</ele>
        <time>2019-05-23T10:08:22.000Z</time>
      </trkpt>
      <trkpt lat="43.21611" lon="5.36755">
        <ele>144.39999389648</ele>
        <time>2019-05-23T10:08:24.000Z</time>
      </trkpt>
      <trkpt lat="43.2161" lon="5.36754">
        <ele>145</ele>
        <time>2019-05-23T10:08:26.000Z</time>
      </trkpt>
      <trkpt lat="43.21609" lon="5.36753">
        <ele>145.80000305176</ele>
        <time>2019-05-23T10:08:28.000Z</time>
      </trkpt>
      <trkpt lat="43.21608" lon="5.36753">
        <ele>146.60000610352</ele>
        <time>2019-05-23T10:08:31.000Z</time>
      </trkpt>
      <trkpt lat="43.21608" lon="5.36752">
        <ele>146.80000305176</ele>
        <time>2019-05-23T10:08:32.000Z</time>
      </trkpt>
      <trkpt lat="43.21606" lon="5.36752">
        <ele>148</ele>
        <time>2019-05-23T10:08:35.000Z</time>
      </trkpt>
      <trkpt lat="43.21603" lon="5.36752">
        <ele>148.80000305176</ele>
        <time>2019-05-23T10:08:38.000Z</time>
      </trkpt>
      <trkpt lat="43.21602" lon="5.36751">
        <ele>149</ele>
        <time>2019-05-23T10:08:39.000Z</time>
      </trkpt>
      <trkpt lat="43.21598" lon="5.36744">
        <ele>150.19999694824</ele>
        <time>2019-05-23T10:08:42.000Z</time>
      </trkpt>
      <trkpt lat="43.21594" lon="5.36738">
        <ele>150.60000610352</ele>
        <time>2019-05-23T10:08:45.000Z</time>
      </trkpt>
      <trkpt lat="43.21589" lon="5.3673">
        <ele>150.39999389648</ele>
        <time>2019-05-23T10:08:50.000Z</time>
      </trkpt>
      <trkpt lat="43.21586" lon="5.36727">
        <ele>150</ele>
        <time>2019-05-23T10:08:52.000Z</time>
      </trkpt>
      <trkpt lat="43.21584" lon="5.36722">
        <ele>149.19999694824</ele>
        <time>2019-05-23T10:08:54.000Z</time>
      </trkpt>
      <trkpt lat="43.21584" lon="5.3672">
        <ele>149</ele>
        <time>2019-05-23T10:08:55.000Z</time>
      </trkpt>
      <trkpt lat="43.2158" lon="5.36711">
        <ele>147.80000305176</ele>
        <time>2019-05-23T10:08:59.000Z</time>
      </trkpt>
      <trkpt lat="43.21578" lon="5.3671">
        <ele>147.80000305176</ele>
        <time>2019-05-23T10:09:01.000Z</time>
      </trkpt>
      <trkpt lat="43.21576" lon="5.36711">
        <ele>147.80000305176</ele>
        <time>2019-05-23T10:09:03.000Z</time>
      </trkpt>
      <trkpt lat="43.21573" lon="5.36714">
        <ele>148</ele>
        <time>2019-05-23T10:09:05.000Z</time>
      </trkpt>
      <trkpt lat="43.2157" lon="5.36716">
        <ele>148</ele>
        <time>2019-05-23T10:09:07.000Z</time>
      </trkpt>
      <trkpt lat="43.21567" lon="5.36717">
        <ele>148.19999694824</ele>
        <time>2019-05-23T10:09:09.000Z</time>
      </trkpt>
      <trkpt lat="43.21565" lon="5.36717">
        <ele>148.60000610352</ele>
        <time>2019-05-23T10:09:11.000Z</time>
      </trkpt>
      <trkpt lat="43.21564" lon="5.36717">
        <ele>149</ele>
        <time>2019-05-23T10:09:12.000Z</time>
      </trkpt>
      <trkpt lat="43.21561" lon="5.36717">
        <ele>149.80000305176</ele>
        <time>2019-05-23T10:09:14.000Z</time>
      </trkpt>
      <trkpt lat="43.21559" lon="5.36716">
        <ele>150.39999389648</ele>
        <time>2019-05-23T10:09:15.000Z</time>
      </trkpt>
      <trkpt lat="43.21558" lon="5.36715">
        <ele>150.80000305176</ele>
        <time>2019-05-23T10:09:16.000Z</time>
      </trkpt>
      <trkpt lat="43.21556" lon="5.36716">
        <ele>151.19999694824</ele>
        <time>2019-05-23T10:09:17.000Z</time>
      </trkpt>
      <trkpt lat="43.21554" lon="5.36716">
        <ele>151.60000610352</ele>
        <time>2019-05-23T10:09:18.000Z</time>
      </trkpt>
      <trkpt lat="43.2155" lon="5.36714">
        <ele>152.19999694824</ele>
        <time>2019-05-23T10:09:20.000Z</time>
      </trkpt>
      <trkpt lat="43.21548" lon="5.36713">
        <ele>152.39999389648</ele>
        <time>2019-05-23T10:09:21.000Z</time>
      </trkpt>
      <trkpt lat="43.21546" lon="5.36712">
        <ele>152.80000305176</ele>
        <time>2019-05-23T10:09:22.000Z</time>
      </trkpt>
      <trkpt lat="43.21538" lon="5.36703">
        <ele>153.60000610352</ele>
        <time>2019-05-23T10:09:26.000Z</time>
      </trkpt>
      <trkpt lat="43.21536" lon="5.367">
        <ele>153.60000610352</ele>
        <time>2019-05-23T10:09:27.000Z</time>
      </trkpt>
      <trkpt lat="43.21535" lon="5.36694">
        <ele>153.60000610352</ele>
        <time>2019-05-23T10:09:29.000Z</time>
      </trkpt>
      <trkpt lat="43.21535" lon="5.36691">
        <ele>153.39999389648</ele>
        <time>2019-05-23T10:09:30.000Z</time>
      </trkpt>
      <trkpt lat="43.21536" lon="5.3668">
        <ele>153</ele>
        <time>2019-05-23T10:09:33.000Z</time>
      </trkpt>
      <trkpt lat="43.21537" lon="5.36673">
        <ele>152.60000610352</ele>
        <time>2019-05-23T10:09:37.000Z</time>
      </trkpt>
      <trkpt lat="43.21536" lon="5.36673">
        <ele>152.60000610352</ele>
        <time>2019-05-23T10:09:38.000Z</time>
      </trkpt>
      <trkpt lat="43.21535" lon="5.36673">
        <ele>152.60000610352</ele>
        <time>2019-05-23T10:09:39.000Z</time>
      </trkpt>
      <trkpt lat="43.21531" lon="5.36674">
        <ele>153.39999389648</ele>
        <time>2019-05-23T10:09:42.000Z</time>
      </trkpt>
      <trkpt lat="43.21528" lon="5.36671">
        <ele>153.80000305176</ele>
        <time>2019-05-23T10:09:44.000Z</time>
      </trkpt>
      <trkpt lat="43.21527" lon="5.36671">
        <ele>153.80000305176</ele>
        <time>2019-05-23T10:09:45.000Z</time>
      </trkpt>
      <trkpt lat="43.21523" lon="5.3667">
        <ele>153.80000305176</ele>
        <time>2019-05-23T10:09:47.000Z</time>
      </trkpt>
      <trkpt lat="43.21516" lon="5.36673">
        <ele>153.19999694824</ele>
        <time>2019-05-23T10:09:52.000Z</time>
      </trkpt>
      <trkpt lat="43.21507" lon="5.36672">
        <ele>155</ele>
        <time>2019-05-23T10:09:57.000Z</time>
      </trkpt>
      <trkpt lat="43.21505" lon="5.36671">
        <ele>155.19999694824</ele>
        <time>2019-05-23T10:09:58.000Z</time>
      </trkpt>
      <trkpt lat="43.21497" lon="5.3667">
        <ele>156</ele>
        <time>2019-05-23T10:10:02.000Z</time>
      </trkpt>
      <trkpt lat="43.21495" lon="5.36669">
        <ele>156.39999389648</ele>
        <time>2019-05-23T10:10:03.000Z</time>
      </trkpt>
      <trkpt lat="43.21489" lon="5.36662">
        <ele>157</ele>
        <time>2019-05-23T10:10:06.000Z</time>
      </trkpt>
      <trkpt lat="43.21488" lon="5.36659">
        <ele>157.19999694824</ele>
        <time>2019-05-23T10:10:07.000Z</time>
      </trkpt>
      <trkpt lat="43.21484" lon="5.36641">
        <ele>157.80000305176</ele>
        <time>2019-05-23T10:10:13.000Z</time>
      </trkpt>
      <trkpt lat="43.21483" lon="5.3663">
        <ele>157</ele>
        <time>2019-05-23T10:10:17.000Z</time>
      </trkpt>
      <trkpt lat="43.21482" lon="5.36617">
        <ele>156</ele>
        <time>2019-05-23T10:10:21.000Z</time>
      </trkpt>
      <trkpt lat="43.21482" lon="5.36614">
        <ele>155.60000610352</ele>
        <time>2019-05-23T10:10:22.000Z</time>
      </trkpt>
      <trkpt lat="43.21482" lon="5.36611">
        <ele>155.39999389648</ele>
        <time>2019-05-23T10:10:23.000Z</time>
      </trkpt>
      <trkpt lat="43.21483" lon="5.36606">
        <ele>154.80000305176</ele>
        <time>2019-05-23T10:10:25.000Z</time>
      </trkpt>
      <trkpt lat="43.21483" lon="5.36599">
        <ele>154</ele>
        <time>2019-05-23T10:10:27.000Z</time>
      </trkpt>
      <trkpt lat="43.21483" lon="5.36595">
        <ele>153.60000610352</ele>
        <time>2019-05-23T10:10:28.000Z</time>
      </trkpt>
      <trkpt lat="43.21483" lon="5.36588">
        <ele>153.19999694824</ele>
        <time>2019-05-23T10:10:32.000Z</time>
      </trkpt>
      <trkpt lat="43.21484" lon="5.36587">
        <ele>153</ele>
        <time>2019-05-23T10:10:33.000Z</time>
      </trkpt>
      <trkpt lat="43.21485" lon="5.36583">
        <ele>152.60000610352</ele>
        <time>2019-05-23T10:10:35.000Z</time>
      </trkpt>
      <trkpt lat="43.21485" lon="5.36582">
        <ele>152.39999389648</ele>
        <time>2019-05-23T10:10:36.000Z</time>
      </trkpt>
      <trkpt lat="43.21483" lon="5.36577">
        <ele>152</ele>
        <time>2019-05-23T10:10:40.000Z</time>
      </trkpt>
      <trkpt lat="43.21475" lon="5.36564">
        <ele>152.19999694824</ele>
        <time>2019-05-23T10:10:45.000Z</time>
      </trkpt>
      <trkpt lat="43.21469" lon="5.36555">
        <ele>152.60000610352</ele>
        <time>2019-05-23T10:10:50.000Z</time>
      </trkpt>
      <trkpt lat="43.21468" lon="5.36554">
        <ele>152.60000610352</ele>
        <time>2019-05-23T10:10:51.000Z</time>
      </trkpt>
      <trkpt lat="43.21463" lon="5.36553">
        <ele>152.80000305176</ele>
        <time>2019-05-23T10:10:54.000Z</time>
      </trkpt>
      <trkpt lat="43.21455" lon="5.36545">
        <ele>153.19999694824</ele>
        <time>2019-05-23T10:10:59.000Z</time>
      </trkpt>
      <trkpt lat="43.2145" lon="5.36531">
        <ele>153.60000610352</ele>
        <time>2019-05-23T10:11:04.000Z</time>
      </trkpt>
      <trkpt lat="43.21448" lon="5.36525">
        <ele>153.80000305176</ele>
        <time>2019-05-23T10:11:07.000Z</time>
      </trkpt>
      <trkpt lat="43.21447" lon="5.36523">
        <ele>153.60000610352</ele>
        <time>2019-05-23T10:11:08.000Z</time>
      </trkpt>
      <trkpt lat="43.21439" lon="5.36517">
        <ele>153.39999389648</ele>
        <time>2019-05-23T10:11:13.000Z</time>
      </trkpt>
      <trkpt lat="43.21432" lon="5.36504">
        <ele>153.80000305176</ele>
        <time>2019-05-23T10:11:17.000Z</time>
      </trkpt>
      <trkpt lat="43.2143" lon="5.36498">
        <ele>153.60000610352</ele>
        <time>2019-05-23T10:11:19.000Z</time>
      </trkpt>
      <trkpt lat="43.21431" lon="5.36492">
        <ele>153.60000610352</ele>
        <time>2019-05-23T10:11:21.000Z</time>
      </trkpt>
      <trkpt lat="43.21431" lon="5.36484">
        <ele>153.39999389648</ele>
        <time>2019-05-23T10:11:24.000Z</time>
      </trkpt>
      <trkpt lat="43.21431" lon="5.36472">
        <ele>152.60000610352</ele>
        <time>2019-05-23T10:11:30.000Z</time>
      </trkpt>
      <trkpt lat="43.21423" lon="5.36462">
        <ele>151.60000610352</ele>
        <time>2019-05-23T10:11:35.000Z</time>
      </trkpt>
      <trkpt lat="43.2142" lon="5.36457">
        <ele>151.19999694824</ele>
        <time>2019-05-23T10:11:37.000Z</time>
      </trkpt>
      <trkpt lat="43.21418" lon="5.36453">
        <ele>151.19999694824</ele>
        <time>2019-05-23T10:11:39.000Z</time>
      </trkpt>
      <trkpt lat="43.21416" lon="5.36447">
        <ele>151.19999694824</ele>
        <time>2019-05-23T10:11:43.000Z</time>
      </trkpt>
      <trkpt lat="43.21414" lon="5.36445">
        <ele>151.19999694824</ele>
        <time>2019-05-23T10:11:44.000Z</time>
      </trkpt>
      <trkpt lat="43.21413" lon="5.36442">
        <ele>151</ele>
        <time>2019-05-23T10:11:45.000Z</time>
      </trkpt>
      <trkpt lat="43.21408" lon="5.36438">
        <ele>150.39999389648</ele>
        <time>2019-05-23T10:11:48.000Z</time>
      </trkpt>
      <trkpt lat="43.21404" lon="5.36437">
        <ele>149.80000305176</ele>
        <time>2019-05-23T10:11:50.000Z</time>
      </trkpt>
      <trkpt lat="43.21399" lon="5.36438">
        <ele>149.60000610352</ele>
        <time>2019-05-23T10:11:53.000Z</time>
      </trkpt>
      <trkpt lat="43.21393" lon="5.36436">
        <ele>149.80000305176</ele>
        <time>2019-05-23T10:11:56.000Z</time>
      </trkpt>
      <trkpt lat="43.2139" lon="5.36436">
        <ele>150.19999694824</ele>
        <time>2019-05-23T10:11:58.000Z</time>
      </trkpt>
      <trkpt lat="43.21389" lon="5.36437">
        <ele>150.39999389648</ele>
        <time>2019-05-23T10:11:59.000Z</time>
      </trkpt>
      <trkpt lat="43.21384" lon="5.36438">
        <ele>151.39999389648</ele>
        <time>2019-05-23T10:12:02.000Z</time>
      </trkpt>
      <trkpt lat="43.21383" lon="5.36438">
        <ele>151.80000305176</ele>
        <time>2019-05-23T10:12:03.000Z</time>
      </trkpt>
      <trkpt lat="43.21381" lon="5.36438">
        <ele>152</ele>
        <time>2019-05-23T10:12:04.000Z</time>
      </trkpt>
      <trkpt lat="43.21379" lon="5.36439">
        <ele>152.39999389648</ele>
        <time>2019-05-23T10:12:06.000Z</time>
      </trkpt>
      <trkpt lat="43.21375" lon="5.36438">
        <ele>153.39999389648</ele>
        <time>2019-05-23T10:12:09.000Z</time>
      </trkpt>
      <trkpt lat="43.21373" lon="5.36436">
        <ele>153.80000305176</ele>
        <time>2019-05-23T10:12:10.000Z</time>
      </trkpt>
      <trkpt lat="43.2137" lon="5.36433">
        <ele>153.80000305176</ele>
        <time>2019-05-23T10:12:12.000Z</time>
      </trkpt>
      <trkpt lat="43.21369" lon="5.36432">
        <ele>154</ele>
        <time>2019-05-23T10:12:13.000Z</time>
      </trkpt>
      <trkpt lat="43.21367" lon="5.36433">
        <ele>154.19999694824</ele>
        <time>2019-05-23T10:12:15.000Z</time>
      </trkpt>
      <trkpt lat="43.21363" lon="5.36435">
        <ele>154.39999389648</ele>
        <time>2019-05-23T10:12:18.000Z</time>
      </trkpt>
      <trkpt lat="43.21359" lon="5.36435">
        <ele>154.39999389648</ele>
        <time>2019-05-23T10:12:22.000Z</time>
      </trkpt>
      <trkpt lat="43.21357" lon="5.36433">
        <ele>154.60000610352</ele>
        <time>2019-05-23T10:12:24.000Z</time>
      </trkpt>
      <trkpt lat="43.21357" lon="5.36432">
        <ele>154.80000305176</ele>
        <time>2019-05-23T10:12:25.000Z</time>
      </trkpt>
      <trkpt lat="43.21355" lon="5.36429">
        <ele>155.19999694824</ele>
        <time>2019-05-23T10:12:27.000Z</time>
      </trkpt>
      <trkpt lat="43.21353" lon="5.36427">
        <ele>155.39999389648</ele>
        <time>2019-05-23T10:12:29.000Z</time>
      </trkpt>
      <trkpt lat="43.21349" lon="5.36424">
        <ele>155.80000305176</ele>
        <time>2019-05-23T10:12:33.000Z</time>
      </trkpt>
      <trkpt lat="43.21347" lon="5.36424">
        <ele>156.19999694824</ele>
        <time>2019-05-23T10:12:35.000Z</time>
      </trkpt>
      <trkpt lat="43.21345" lon="5.36422">
        <ele>156.39999389648</ele>
        <time>2019-05-23T10:12:37.000Z</time>
      </trkpt>
      <trkpt lat="43.21343" lon="5.36419">
        <ele>156.80000305176</ele>
        <time>2019-05-23T10:12:39.000Z</time>
      </trkpt>
      <trkpt lat="43.2134" lon="5.36415">
        <ele>157</ele>
        <time>2019-05-23T10:12:41.000Z</time>
      </trkpt>
      <trkpt lat="43.21334" lon="5.36402">
        <ele>156.19999694824</ele>
        <time>2019-05-23T10:12:47.000Z</time>
      </trkpt>
      <trkpt lat="43.21332" lon="5.36396">
        <ele>156.60000610352</ele>
        <time>2019-05-23T10:12:50.000Z</time>
      </trkpt>
      <trkpt lat="43.21328" lon="5.36392">
        <ele>157.60000610352</ele>
        <time>2019-05-23T10:12:53.000Z</time>
      </trkpt>
      <trkpt lat="43.21326" lon="5.36389">
        <ele>158.19999694824</ele>
        <time>2019-05-23T10:12:55.000Z</time>
      </trkpt>
      <trkpt lat="43.21325" lon="5.36383">
        <ele>158.39999389648</ele>
        <time>2019-05-23T10:12:57.000Z</time>
      </trkpt>
      <trkpt lat="43.21325" lon="5.36381">
        <ele>158.19999694824</ele>
        <time>2019-05-23T10:12:58.000Z</time>
      </trkpt>
      <trkpt lat="43.21323" lon="5.3637">
        <ele>157.39999389648</ele>
        <time>2019-05-23T10:13:01.000Z</time>
      </trkpt>
      <trkpt lat="43.21322" lon="5.36367">
        <ele>156.80000305176</ele>
        <time>2019-05-23T10:13:02.000Z</time>
      </trkpt>
      <trkpt lat="43.21322" lon="5.36364">
        <ele>156.60000610352</ele>
        <time>2019-05-23T10:13:03.000Z</time>
      </trkpt>
      <trkpt lat="43.21323" lon="5.36347">
        <ele>156</ele>
        <time>2019-05-23T10:13:08.000Z</time>
      </trkpt>
      <trkpt lat="43.21324" lon="5.36345">
        <ele>155.80000305176</ele>
        <time>2019-05-23T10:13:09.000Z</time>
      </trkpt>
      <trkpt lat="43.21333" lon="5.36334">
        <ele>154.60000610352</ele>
        <time>2019-05-23T10:13:14.000Z</time>
      </trkpt>
      <trkpt lat="43.21337" lon="5.36331">
        <ele>153.80000305176</ele>
        <time>2019-05-23T10:13:16.000Z</time>
      </trkpt>
      <trkpt lat="43.21341" lon="5.36331">
        <ele>153.39999389648</ele>
        <time>2019-05-23T10:13:18.000Z</time>
      </trkpt>
      <trkpt lat="43.21343" lon="5.36331">
        <ele>153</ele>
        <time>2019-05-23T10:13:19.000Z</time>
      </trkpt>
      <trkpt lat="43.21346" lon="5.36331">
        <ele>152.19999694824</ele>
        <time>2019-05-23T10:13:21.000Z</time>
      </trkpt>
      <trkpt lat="43.2135" lon="5.3633">
        <ele>151.60000610352</ele>
        <time>2019-05-23T10:13:24.000Z</time>
      </trkpt>
      <trkpt lat="43.21352" lon="5.36328">
        <ele>151.39999389648</ele>
        <time>2019-05-23T10:13:26.000Z</time>
      </trkpt>
      <trkpt lat="43.21355" lon="5.36325">
        <ele>151.60000610352</ele>
        <time>2019-05-23T10:13:28.000Z</time>
      </trkpt>
      <trkpt lat="43.21358" lon="5.36321">
        <ele>151.60000610352</ele>
        <time>2019-05-23T10:13:30.000Z</time>
      </trkpt>
      <trkpt lat="43.21361" lon="5.36315">
        <ele>151.19999694824</ele>
        <time>2019-05-23T10:13:32.000Z</time>
      </trkpt>
      <trkpt lat="43.21365" lon="5.36308">
        <ele>150.80000305176</ele>
        <time>2019-05-23T10:13:35.000Z</time>
      </trkpt>
      <trkpt lat="43.21367" lon="5.36302">
        <ele>150.60000610352</ele>
        <time>2019-05-23T10:13:39.000Z</time>
      </trkpt>
      <trkpt lat="43.21366" lon="5.36299">
        <ele>150.60000610352</ele>
        <time>2019-05-23T10:13:41.000Z</time>
      </trkpt>
      <trkpt lat="43.21364" lon="5.36294">
        <ele>151</ele>
        <time>2019-05-23T10:13:44.000Z</time>
      </trkpt>
      <trkpt lat="43.21351" lon="5.36278">
        <ele>152.19999694824</ele>
        <time>2019-05-23T10:13:50.000Z</time>
      </trkpt>
      <trkpt lat="43.21351" lon="5.36274">
        <ele>152.19999694824</ele>
        <time>2019-05-23T10:13:52.000Z</time>
      </trkpt>
      <trkpt lat="43.21351" lon="5.36268">
        <ele>152</ele>
        <time>2019-05-23T10:13:54.000Z</time>
      </trkpt>
      <trkpt lat="43.21349" lon="5.36264">
        <ele>151.80000305176</ele>
        <time>2019-05-23T10:13:57.000Z</time>
      </trkpt>
      <trkpt lat="43.21346" lon="5.36264">
        <ele>151.60000610352</ele>
        <time>2019-05-23T10:13:59.000Z</time>
      </trkpt>
      <trkpt lat="43.21341" lon="5.36265">
        <ele>151</ele>
        <time>2019-05-23T10:14:01.000Z</time>
      </trkpt>
      <trkpt lat="43.21336" lon="5.36263">
        <ele>150.80000305176</ele>
        <time>2019-05-23T10:14:04.000Z</time>
      </trkpt>
      <trkpt lat="43.21322" lon="5.36257">
        <ele>151.39999389648</ele>
        <time>2019-05-23T10:14:11.000Z</time>
      </trkpt>
      <trkpt lat="43.21315" lon="5.36252">
        <ele>152</ele>
        <time>2019-05-23T10:14:15.000Z</time>
      </trkpt>
      <trkpt lat="43.21313" lon="5.36245">
        <ele>152.80000305176</ele>
        <time>2019-05-23T10:14:18.000Z</time>
      </trkpt>
      <trkpt lat="43.21313" lon="5.36243">
        <ele>153.19999694824</ele>
        <time>2019-05-23T10:14:19.000Z</time>
      </trkpt>
      <trkpt lat="43.21313" lon="5.36237">
        <ele>154.19999694824</ele>
        <time>2019-05-23T10:14:22.000Z</time>
      </trkpt>
      <trkpt lat="43.21314" lon="5.36235">
        <ele>154.19999694824</ele>
        <time>2019-05-23T10:14:23.000Z</time>
      </trkpt>
      <trkpt lat="43.21315" lon="5.36233">
        <ele>154.19999694824</ele>
        <time>2019-05-23T10:14:24.000Z</time>
      </trkpt>
      <trkpt lat="43.21316" lon="5.36233">
        <ele>154</ele>
        <time>2019-05-23T10:14:25.000Z</time>
      </trkpt>
      <trkpt lat="43.21316" lon="5.36229">
        <ele>153</ele>
        <time>2019-05-23T10:14:28.000Z</time>
      </trkpt>
      <trkpt lat="43.21317" lon="5.36224">
        <ele>152.19999694824</ele>
        <time>2019-05-23T10:14:30.000Z</time>
      </trkpt>
      <trkpt lat="43.21319" lon="5.36221">
        <ele>151.60000610352</ele>
        <time>2019-05-23T10:14:32.000Z</time>
      </trkpt>
      <trkpt lat="43.2132" lon="5.36219">
        <ele>151</ele>
        <time>2019-05-23T10:14:33.000Z</time>
      </trkpt>
      <trkpt lat="43.21322" lon="5.36217">
        <ele>150.60000610352</ele>
        <time>2019-05-23T10:14:34.000Z</time>
      </trkpt>
      <trkpt lat="43.21322" lon="5.36215">
        <ele>150</ele>
        <time>2019-05-23T10:14:35.000Z</time>
      </trkpt>
      <trkpt lat="43.21324" lon="5.36211">
        <ele>149.39999389648</ele>
        <time>2019-05-23T10:14:37.000Z</time>
      </trkpt>
      <trkpt lat="43.21325" lon="5.36209">
        <ele>149</ele>
        <time>2019-05-23T10:14:38.000Z</time>
      </trkpt>
      <trkpt lat="43.21326" lon="5.36206">
        <ele>148.39999389648</ele>
        <time>2019-05-23T10:14:39.000Z</time>
      </trkpt>
      <trkpt lat="43.21326" lon="5.36204">
        <ele>148</ele>
        <time>2019-05-23T10:14:40.000Z</time>
      </trkpt>
      <trkpt lat="43.21326" lon="5.36202">
        <ele>147.39999389648</ele>
        <time>2019-05-23T10:14:42.000Z</time>
      </trkpt>
      <trkpt lat="43.21327" lon="5.36201">
        <ele>146.80000305176</ele>
        <time>2019-05-23T10:14:43.000Z</time>
      </trkpt>
      <trkpt lat="43.21328" lon="5.362">
        <ele>146.19999694824</ele>
        <time>2019-05-23T10:14:45.000Z</time>
      </trkpt>
      <trkpt lat="43.21329" lon="5.36199">
        <ele>145.60000610352</ele>
        <time>2019-05-23T10:14:46.000Z</time>
      </trkpt>
      <trkpt lat="43.2133" lon="5.36198">
        <ele>145</ele>
        <time>2019-05-23T10:14:47.000Z</time>
      </trkpt>
      <trkpt lat="43.21331" lon="5.36196">
        <ele>144.60000610352</ele>
        <time>2019-05-23T10:14:48.000Z</time>
      </trkpt>
      <trkpt lat="43.21333" lon="5.36191">
        <ele>143.39999389648</ele>
        <time>2019-05-23T10:14:51.000Z</time>
      </trkpt>
      <trkpt lat="43.21333" lon="5.36188">
        <ele>143</ele>
        <time>2019-05-23T10:14:52.000Z</time>
      </trkpt>
      <trkpt lat="43.21333" lon="5.36184">
        <ele>142.39999389648</ele>
        <time>2019-05-23T10:14:54.000Z</time>
      </trkpt>
      <trkpt lat="43.21329" lon="5.36178">
        <ele>141.39999389648</ele>
        <time>2019-05-23T10:14:57.000Z</time>
      </trkpt>
      <trkpt lat="43.21328" lon="5.36176">
        <ele>141</ele>
        <time>2019-05-23T10:14:58.000Z</time>
      </trkpt>
      <trkpt lat="43.21321" lon="5.36166">
        <ele>140.80000305176</ele>
        <time>2019-05-23T10:15:03.000Z</time>
      </trkpt>
      <trkpt lat="43.21318" lon="5.36162">
        <ele>141.39999389648</ele>
        <time>2019-05-23T10:15:05.000Z</time>
      </trkpt>
      <trkpt lat="43.21314" lon="5.36153">
        <ele>142</ele>
        <time>2019-05-23T10:15:09.000Z</time>
      </trkpt>
      <trkpt lat="43.21317" lon="5.36145">
        <ele>141</ele>
        <time>2019-05-23T10:15:13.000Z</time>
      </trkpt>
      <trkpt lat="43.21319" lon="5.36135">
        <ele>140</ele>
        <time>2019-05-23T10:15:17.000Z</time>
      </trkpt>
      <trkpt lat="43.21319" lon="5.36133">
        <ele>139.80000305176</ele>
        <time>2019-05-23T10:15:18.000Z</time>
      </trkpt>
      <trkpt lat="43.21318" lon="5.36131">
        <ele>139.19999694824</ele>
        <time>2019-05-23T10:15:20.000Z</time>
      </trkpt>
      <trkpt lat="43.21316" lon="5.36129">
        <ele>138.80000305176</ele>
        <time>2019-05-23T10:15:22.000Z</time>
      </trkpt>
      <trkpt lat="43.21313" lon="5.36128">
        <ele>138.60000610352</ele>
        <time>2019-05-23T10:15:23.000Z</time>
      </trkpt>
      <trkpt lat="43.21308" lon="5.36123">
        <ele>138</ele>
        <time>2019-05-23T10:15:25.000Z</time>
      </trkpt>
      <trkpt lat="43.21306" lon="5.36121">
        <ele>137.39999389648</ele>
        <time>2019-05-23T10:15:26.000Z</time>
      </trkpt>
      <trkpt lat="43.21302" lon="5.36117">
        <ele>136.60000610352</ele>
        <time>2019-05-23T10:15:28.000Z</time>
      </trkpt>
      <trkpt lat="43.21301" lon="5.36116">
        <ele>136.39999389648</ele>
        <time>2019-05-23T10:15:29.000Z</time>
      </trkpt>
      <trkpt lat="43.21294" lon="5.36107">
        <ele>136</ele>
        <time>2019-05-23T10:15:33.000Z</time>
      </trkpt>
      <trkpt lat="43.21293" lon="5.36103">
        <ele>136.19999694824</ele>
        <time>2019-05-23T10:15:35.000Z</time>
      </trkpt>
      <trkpt lat="43.2129" lon="5.36098">
        <ele>136.60000610352</ele>
        <time>2019-05-23T10:15:37.000Z</time>
      </trkpt>
      <trkpt lat="43.21289" lon="5.36096">
        <ele>136.80000305176</ele>
        <time>2019-05-23T10:15:38.000Z</time>
      </trkpt>
      <trkpt lat="43.21287" lon="5.36093">
        <ele>137.19999694824</ele>
        <time>2019-05-23T10:15:40.000Z</time>
      </trkpt>
      <trkpt lat="43.21285" lon="5.3609">
        <ele>137.39999389648</ele>
        <time>2019-05-23T10:15:42.000Z</time>
      </trkpt>
      <trkpt lat="43.21283" lon="5.36089">
        <ele>137.60000610352</ele>
        <time>2019-05-23T10:15:43.000Z</time>
      </trkpt>
      <trkpt lat="43.21278" lon="5.36085">
        <ele>138.60000610352</ele>
        <time>2019-05-23T10:15:46.000Z</time>
      </trkpt>
      <trkpt lat="43.21274" lon="5.36081">
        <ele>139</ele>
        <time>2019-05-23T10:15:49.000Z</time>
      </trkpt>
      <trkpt lat="43.21275" lon="5.36078">
        <ele>139</ele>
        <time>2019-05-23T10:15:51.000Z</time>
      </trkpt>
      <trkpt lat="43.21276" lon="5.36073">
        <ele>138.80000305176</ele>
        <time>2019-05-23T10:15:53.000Z</time>
      </trkpt>
      <trkpt lat="43.21276" lon="5.36064">
        <ele>137.19999694824</ele>
        <time>2019-05-23T10:15:58.000Z</time>
      </trkpt>
      <trkpt lat="43.21277" lon="5.36058">
        <ele>136.19999694824</ele>
        <time>2019-05-23T10:16:01.000Z</time>
      </trkpt>
      <trkpt lat="43.21277" lon="5.36056">
        <ele>135.80000305176</ele>
        <time>2019-05-23T10:16:02.000Z</time>
      </trkpt>
      <trkpt lat="43.21279" lon="5.36052">
        <ele>134.80000305176</ele>
        <time>2019-05-23T10:16:04.000Z</time>
      </trkpt>
      <trkpt lat="43.2128" lon="5.36051">
        <ele>134.39999389648</ele>
        <time>2019-05-23T10:16:05.000Z</time>
      </trkpt>
      <trkpt lat="43.21281" lon="5.36051">
        <ele>134.19999694824</ele>
        <time>2019-05-23T10:16:06.000Z</time>
      </trkpt>
      <trkpt lat="43.21281" lon="5.36049">
        <ele>134</ele>
        <time>2019-05-23T10:16:07.000Z</time>
      </trkpt>
      <trkpt lat="43.21281" lon="5.36046">
        <ele>133.19999694824</ele>
        <time>2019-05-23T10:16:09.000Z</time>
      </trkpt>
      <trkpt lat="43.21282" lon="5.36043">
        <ele>132.60000610352</ele>
        <time>2019-05-23T10:16:10.000Z</time>
      </trkpt>
      <trkpt lat="43.21283" lon="5.3604">
        <ele>132.19999694824</ele>
        <time>2019-05-23T10:16:11.000Z</time>
      </trkpt>
      <trkpt lat="43.21287" lon="5.36032">
        <ele>130.80000305176</ele>
        <time>2019-05-23T10:16:14.000Z</time>
      </trkpt>
      <trkpt lat="43.2129" lon="5.36027">
        <ele>129.80000305176</ele>
        <time>2019-05-23T10:16:16.000Z</time>
      </trkpt>
      <trkpt lat="43.21293" lon="5.3602">
        <ele>129</ele>
        <time>2019-05-23T10:16:19.000Z</time>
      </trkpt>
      <trkpt lat="43.21293" lon="5.36018">
        <ele>128.60000610352</ele>
        <time>2019-05-23T10:16:20.000Z</time>
      </trkpt>
      <trkpt lat="43.21293" lon="5.36016">
        <ele>128</ele>
        <time>2019-05-23T10:16:21.000Z</time>
      </trkpt>
      <trkpt lat="43.21292" lon="5.36014">
        <ele>127.19999694824</ele>
        <time>2019-05-23T10:16:22.000Z</time>
      </trkpt>
      <trkpt lat="43.2129" lon="5.36011">
        <ele>126.80000305176</ele>
        <time>2019-05-23T10:16:23.000Z</time>
      </trkpt>
      <trkpt lat="43.21286" lon="5.36004">
        <ele>126</ele>
        <time>2019-05-23T10:16:25.000Z</time>
      </trkpt>
      <trkpt lat="43.21282" lon="5.35994">
        <ele>125.19999694824</ele>
        <time>2019-05-23T10:16:28.000Z</time>
      </trkpt>
      <trkpt lat="43.21279" lon="5.35989">
        <ele>124.80000305176</ele>
        <time>2019-05-23T10:16:30.000Z</time>
      </trkpt>
      <trkpt lat="43.21276" lon="5.35979">
        <ele>124.59999847412</ele>
        <time>2019-05-23T10:16:34.000Z</time>
      </trkpt>
      <trkpt lat="43.21277" lon="5.35973">
        <ele>123.80000305176</ele>
        <time>2019-05-23T10:16:37.000Z</time>
      </trkpt>
      <trkpt lat="43.21278" lon="5.35969">
        <ele>123</ele>
        <time>2019-05-23T10:16:39.000Z</time>
      </trkpt>
      <trkpt lat="43.21279" lon="5.35963">
        <ele>122.59999847412</ele>
        <time>2019-05-23T10:16:41.000Z</time>
      </trkpt>
      <trkpt lat="43.21279" lon="5.35957">
        <ele>121.80000305176</ele>
        <time>2019-05-23T10:16:44.000Z</time>
      </trkpt>
      <trkpt lat="43.21278" lon="5.35955">
        <ele>121.59999847412</ele>
        <time>2019-05-23T10:16:45.000Z</time>
      </trkpt>
      <trkpt lat="43.21276" lon="5.3595">
        <ele>120.59999847412</ele>
        <time>2019-05-23T10:16:47.000Z</time>
      </trkpt>
      <trkpt lat="43.21275" lon="5.35947">
        <ele>120</ele>
        <time>2019-05-23T10:16:48.000Z</time>
      </trkpt>
      <trkpt lat="43.21274" lon="5.35943">
        <ele>119.59999847412</ele>
        <time>2019-05-23T10:16:49.000Z</time>
      </trkpt>
      <trkpt lat="43.21269" lon="5.35931">
        <ele>118.80000305176</ele>
        <time>2019-05-23T10:16:52.000Z</time>
      </trkpt>
      <trkpt lat="43.21267" lon="5.35924">
        <ele>118.19999694824</ele>
        <time>2019-05-23T10:16:54.000Z</time>
      </trkpt>
      <trkpt lat="43.21267" lon="5.35912">
        <ele>117.80000305176</ele>
        <time>2019-05-23T10:16:57.000Z</time>
      </trkpt>
      <trkpt lat="43.21266" lon="5.3591">
        <ele>118</ele>
        <time>2019-05-23T10:16:58.000Z</time>
      </trkpt>
      <trkpt lat="43.21266" lon="5.35908">
        <ele>118.19999694824</ele>
        <time>2019-05-23T10:16:59.000Z</time>
      </trkpt>
      <trkpt lat="43.21266" lon="5.35903">
        <ele>118.80000305176</ele>
        <time>2019-05-23T10:17:02.000Z</time>
      </trkpt>
      <trkpt lat="43.21264" lon="5.359">
        <ele>119.19999694824</ele>
        <time>2019-05-23T10:17:04.000Z</time>
      </trkpt>
      <trkpt lat="43.2126" lon="5.35893">
        <ele>120</ele>
        <time>2019-05-23T10:17:08.000Z</time>
      </trkpt>
      <trkpt lat="43.21257" lon="5.3589">
        <ele>120.59999847412</ele>
        <time>2019-05-23T10:17:10.000Z</time>
      </trkpt>
      <trkpt lat="43.21254" lon="5.35887">
        <ele>121.19999694824</ele>
        <time>2019-05-23T10:17:12.000Z</time>
      </trkpt>
      <trkpt lat="43.21248" lon="5.35887">
        <ele>121.59999847412</ele>
        <time>2019-05-23T10:17:16.000Z</time>
      </trkpt>
      <trkpt lat="43.21237" lon="5.35887">
        <ele>121.19999694824</ele>
        <time>2019-05-23T10:17:21.000Z</time>
      </trkpt>
      <trkpt lat="43.21235" lon="5.35887">
        <ele>121</ele>
        <time>2019-05-23T10:17:22.000Z</time>
      </trkpt>
      <trkpt lat="43.21228" lon="5.3588">
        <ele>120.19999694824</ele>
        <time>2019-05-23T10:17:26.000Z</time>
      </trkpt>
      <trkpt lat="43.21227" lon="5.35877">
        <ele>119.80000305176</ele>
        <time>2019-05-23T10:17:27.000Z</time>
      </trkpt>
      <trkpt lat="43.21226" lon="5.35872">
        <ele>118.59999847412</ele>
        <time>2019-05-23T10:17:29.000Z</time>
      </trkpt>
      <trkpt lat="43.21224" lon="5.35868">
        <ele>117.59999847412</ele>
        <time>2019-05-23T10:17:31.000Z</time>
      </trkpt>
      <trkpt lat="43.21221" lon="5.35864">
        <ele>117</ele>
        <time>2019-05-23T10:17:33.000Z</time>
      </trkpt>
      <trkpt lat="43.2122" lon="5.35862">
        <ele>116.40000152588</ele>
        <time>2019-05-23T10:17:34.000Z</time>
      </trkpt>
      <trkpt lat="43.21218" lon="5.3586">
        <ele>116</ele>
        <time>2019-05-23T10:17:35.000Z</time>
      </trkpt>
      <trkpt lat="43.21217" lon="5.35859">
        <ele>115.40000152588</ele>
        <time>2019-05-23T10:17:36.000Z</time>
      </trkpt>
      <trkpt lat="43.21216" lon="5.35858">
        <ele>114.80000305176</ele>
        <time>2019-05-23T10:17:37.000Z</time>
      </trkpt>
      <trkpt lat="43.21214" lon="5.35856">
        <ele>114.40000152588</ele>
        <time>2019-05-23T10:17:38.000Z</time>
      </trkpt>
      <trkpt lat="43.21212" lon="5.35854">
        <ele>113.80000305176</ele>
        <time>2019-05-23T10:17:39.000Z</time>
      </trkpt>
      <trkpt lat="43.21211" lon="5.35852">
        <ele>113.40000152588</ele>
        <time>2019-05-23T10:17:40.000Z</time>
      </trkpt>
      <trkpt lat="43.21209" lon="5.35849">
        <ele>113.19999694824</ele>
        <time>2019-05-23T10:17:41.000Z</time>
      </trkpt>
      <trkpt lat="43.21205" lon="5.35844">
        <ele>111.80000305176</ele>
        <time>2019-05-23T10:17:44.000Z</time>
      </trkpt>
      <trkpt lat="43.21204" lon="5.35842">
        <ele>111.19999694824</ele>
        <time>2019-05-23T10:17:45.000Z</time>
      </trkpt>
      <trkpt lat="43.21202" lon="5.35841">
        <ele>110.59999847412</ele>
        <time>2019-05-23T10:17:46.000Z</time>
      </trkpt>
      <trkpt lat="43.21197" lon="5.35835">
        <ele>109.40000152588</ele>
        <time>2019-05-23T10:17:49.000Z</time>
      </trkpt>
      <trkpt lat="43.21195" lon="5.35834">
        <ele>108.59999847412</ele>
        <time>2019-05-23T10:17:50.000Z</time>
      </trkpt>
      <trkpt lat="43.21193" lon="5.35832">
        <ele>108.19999694824</ele>
        <time>2019-05-23T10:17:51.000Z</time>
      </trkpt>
      <trkpt lat="43.21187" lon="5.35827">
        <ele>107</ele>
        <time>2019-05-23T10:17:55.000Z</time>
      </trkpt>
      <trkpt lat="43.21185" lon="5.35825">
        <ele>105.80000305176</ele>
        <time>2019-05-23T10:17:57.000Z</time>
      </trkpt>
      <trkpt lat="43.21181" lon="5.35821">
        <ele>104.59999847412</ele>
        <time>2019-05-23T10:17:59.000Z</time>
      </trkpt>
      <trkpt lat="43.21174" lon="5.35817">
        <ele>103.59999847412</ele>
        <time>2019-05-23T10:18:02.000Z</time>
      </trkpt>
      <trkpt lat="43.2117" lon="5.35812">
        <ele>101.80000305176</ele>
        <time>2019-05-23T10:18:04.000Z</time>
      </trkpt>
      <trkpt lat="43.21166" lon="5.35807">
        <ele>100.40000152588</ele>
        <time>2019-05-23T10:18:06.000Z</time>
      </trkpt>
      <trkpt lat="43.21162" lon="5.35803">
        <ele>99.199996948242</ele>
        <time>2019-05-23T10:18:08.000Z</time>
      </trkpt>
      <trkpt lat="43.2116" lon="5.35801">
        <ele>99</ele>
        <time>2019-05-23T10:18:09.000Z</time>
      </trkpt>
      <trkpt lat="43.21152" lon="5.35792">
        <ele>98.800003051758</ele>
        <time>2019-05-23T10:18:13.000Z</time>
      </trkpt>
      <trkpt lat="43.21147" lon="5.35781">
        <ele>98.400001525879</ele>
        <time>2019-05-23T10:18:17.000Z</time>
      </trkpt>
      <trkpt lat="43.21146" lon="5.35779">
        <ele>98.199996948242</ele>
        <time>2019-05-23T10:18:18.000Z</time>
      </trkpt>
      <trkpt lat="43.21141" lon="5.35774">
        <ele>98.199996948242</ele>
        <time>2019-05-23T10:18:21.000Z</time>
      </trkpt>
      <trkpt lat="43.21132" lon="5.35764">
        <ele>98.199996948242</ele>
        <time>2019-05-23T10:18:26.000Z</time>
      </trkpt>
      <trkpt lat="43.21128" lon="5.35754">
        <ele>97</ele>
        <time>2019-05-23T10:18:30.000Z</time>
      </trkpt>
      <trkpt lat="43.21127" lon="5.35751">
        <ele>97</ele>
        <time>2019-05-23T10:18:31.000Z</time>
      </trkpt>
      <trkpt lat="43.21122" lon="5.35739">
        <ele>96.400001525879</ele>
        <time>2019-05-23T10:18:35.000Z</time>
      </trkpt>
      <trkpt lat="43.2112" lon="5.35734">
        <ele>96</ele>
        <time>2019-05-23T10:18:37.000Z</time>
      </trkpt>
      <trkpt lat="43.21119" lon="5.35732">
        <ele>96</ele>
        <time>2019-05-23T10:18:38.000Z</time>
      </trkpt>
      <trkpt lat="43.21117" lon="5.35724">
        <ele>94.800003051758</ele>
        <time>2019-05-23T10:18:41.000Z</time>
      </trkpt>
      <trkpt lat="43.21117" lon="5.35721">
        <ele>94.599998474121</ele>
        <time>2019-05-23T10:18:42.000Z</time>
      </trkpt>
      <trkpt lat="43.21117" lon="5.35713">
        <ele>93.599998474121</ele>
        <time>2019-05-23T10:18:45.000Z</time>
      </trkpt>
      <trkpt lat="43.21118" lon="5.35708">
        <ele>93.199996948242</ele>
        <time>2019-05-23T10:18:47.000Z</time>
      </trkpt>
      <trkpt lat="43.21122" lon="5.35705">
        <ele>92.400001525879</ele>
        <time>2019-05-23T10:18:50.000Z</time>
      </trkpt>
      <trkpt lat="43.21126" lon="5.35704">
        <ele>91.599998474121</ele>
        <time>2019-05-23T10:18:52.000Z</time>
      </trkpt>
      <trkpt lat="43.21127" lon="5.35703">
        <ele>91.199996948242</ele>
        <time>2019-05-23T10:18:53.000Z</time>
      </trkpt>
      <trkpt lat="43.2113" lon="5.357">
        <ele>90</ele>
        <time>2019-05-23T10:18:56.000Z</time>
      </trkpt>
      <trkpt lat="43.21133" lon="5.35701">
        <ele>88.800003051758</ele>
        <time>2019-05-23T10:18:58.000Z</time>
      </trkpt>
      <trkpt lat="43.21135" lon="5.357">
        <ele>87.599998474121</ele>
        <time>2019-05-23T10:19:00.000Z</time>
      </trkpt>
      <trkpt lat="43.21139" lon="5.357">
        <ele>86.400001525879</ele>
        <time>2019-05-23T10:19:02.000Z</time>
      </trkpt>
      <trkpt lat="43.21143" lon="5.35699">
        <ele>85.199996948242</ele>
        <time>2019-05-23T10:19:05.000Z</time>
      </trkpt>
      <trkpt lat="43.21148" lon="5.35698">
        <ele>83.800003051758</ele>
        <time>2019-05-23T10:19:08.000Z</time>
      </trkpt>
      <trkpt lat="43.21151" lon="5.35696">
        <ele>82.199996948242</ele>
        <time>2019-05-23T10:19:10.000Z</time>
      </trkpt>
      <trkpt lat="43.21154" lon="5.35697">
        <ele>80.800003051758</ele>
        <time>2019-05-23T10:19:12.000Z</time>
      </trkpt>
      <trkpt lat="43.2116" lon="5.35701">
        <ele>79.599998474121</ele>
        <time>2019-05-23T10:19:15.000Z</time>
      </trkpt>
      <trkpt lat="43.21166" lon="5.35705">
        <ele>78.400001525879</ele>
        <time>2019-05-23T10:19:18.000Z</time>
      </trkpt>
      <trkpt lat="43.21169" lon="5.35708">
        <ele>78</ele>
        <time>2019-05-23T10:19:20.000Z</time>
      </trkpt>
      <trkpt lat="43.2117" lon="5.3571">
        <ele>77.800003051758</ele>
        <time>2019-05-23T10:19:21.000Z</time>
      </trkpt>
      <trkpt lat="43.21172" lon="5.35713">
        <ele>77.199996948242</ele>
        <time>2019-05-23T10:19:23.000Z</time>
      </trkpt>
      <trkpt lat="43.21174" lon="5.35716">
        <ele>76.599998474121</ele>
        <time>2019-05-23T10:19:25.000Z</time>
      </trkpt>
      <trkpt lat="43.21176" lon="5.35717">
        <ele>76</ele>
        <time>2019-05-23T10:19:26.000Z</time>
      </trkpt>
      <trkpt lat="43.21179" lon="5.35719">
        <ele>75.199996948242</ele>
        <time>2019-05-23T10:19:28.000Z</time>
      </trkpt>
      <trkpt lat="43.2118" lon="5.35719">
        <ele>74.800003051758</ele>
        <time>2019-05-23T10:19:29.000Z</time>
      </trkpt>
      <trkpt lat="43.21183" lon="5.35719">
        <ele>73.800003051758</ele>
        <time>2019-05-23T10:19:31.000Z</time>
      </trkpt>
      <trkpt lat="43.21185" lon="5.3572">
        <ele>73.400001525879</ele>
        <time>2019-05-23T10:19:32.000Z</time>
      </trkpt>
      <trkpt lat="43.21191" lon="5.35724">
        <ele>72.199996948242</ele>
        <time>2019-05-23T10:19:35.000Z</time>
      </trkpt>
      <trkpt lat="43.21194" lon="5.35723">
        <ele>71.400001525879</ele>
        <time>2019-05-23T10:19:37.000Z</time>
      </trkpt>
      <trkpt lat="43.21195" lon="5.35723">
        <ele>71</ele>
        <time>2019-05-23T10:19:38.000Z</time>
      </trkpt>
      <trkpt lat="43.21197" lon="5.35723">
        <ele>70.199996948242</ele>
        <time>2019-05-23T10:19:39.000Z</time>
      </trkpt>
      <trkpt lat="43.21199" lon="5.35725">
        <ele>69.800003051758</ele>
        <time>2019-05-23T10:19:40.000Z</time>
      </trkpt>
      <trkpt lat="43.21202" lon="5.35727">
        <ele>69</ele>
        <time>2019-05-23T10:19:42.000Z</time>
      </trkpt>
      <trkpt lat="43.21203" lon="5.35728">
        <ele>68.599998474121</ele>
        <time>2019-05-23T10:19:43.000Z</time>
      </trkpt>
      <trkpt lat="43.21206" lon="5.35727">
        <ele>67.400001525879</ele>
        <time>2019-05-23T10:19:45.000Z</time>
      </trkpt>
      <trkpt lat="43.21208" lon="5.35725">
        <ele>66.199996948242</ele>
        <time>2019-05-23T10:19:47.000Z</time>
      </trkpt>
      <trkpt lat="43.21212" lon="5.35726">
        <ele>65.199996948242</ele>
        <time>2019-05-23T10:19:50.000Z</time>
      </trkpt>
      <trkpt lat="43.21215" lon="5.35725">
        <ele>64.599998474121</ele>
        <time>2019-05-23T10:19:52.000Z</time>
      </trkpt>
      <trkpt lat="43.21217" lon="5.35724">
        <ele>64.199996948242</ele>
        <time>2019-05-23T10:19:53.000Z</time>
      </trkpt>
      <trkpt lat="43.21222" lon="5.35725">
        <ele>63.200000762939</ele>
        <time>2019-05-23T10:19:55.000Z</time>
      </trkpt>
      <trkpt lat="43.21223" lon="5.35725">
        <ele>62.799999237061</ele>
        <time>2019-05-23T10:19:56.000Z</time>
      </trkpt>
      <trkpt lat="43.21224" lon="5.35726">
        <ele>61.799999237061</ele>
        <time>2019-05-23T10:19:58.000Z</time>
      </trkpt>
      <trkpt lat="43.21224" lon="5.35727">
        <ele>61.200000762939</ele>
        <time>2019-05-23T10:19:59.000Z</time>
      </trkpt>
      <trkpt lat="43.21223" lon="5.35727">
        <ele>60.599998474121</ele>
        <time>2019-05-23T10:20:00.000Z</time>
      </trkpt>
      <trkpt lat="43.21222" lon="5.35726">
        <ele>60</ele>
        <time>2019-05-23T10:20:01.000Z</time>
      </trkpt>
      <trkpt lat="43.21221" lon="5.35725">
        <ele>59.599998474121</ele>
        <time>2019-05-23T10:20:02.000Z</time>
      </trkpt>
      <trkpt lat="43.21219" lon="5.35722">
        <ele>59</ele>
        <time>2019-05-23T10:20:03.000Z</time>
      </trkpt>
      <trkpt lat="43.21218" lon="5.35715">
        <ele>58</ele>
        <time>2019-05-23T10:20:05.000Z</time>
      </trkpt>
      <trkpt lat="43.21217" lon="5.35711">
        <ele>57.799999237061</ele>
        <time>2019-05-23T10:20:06.000Z</time>
      </trkpt>
      <trkpt lat="43.21216" lon="5.3571">
        <ele>57.200000762939</ele>
        <time>2019-05-23T10:20:07.000Z</time>
      </trkpt>
      <trkpt lat="43.21216" lon="5.35707">
        <ele>56.400001525879</ele>
        <time>2019-05-23T10:20:08.000Z</time>
      </trkpt>
      <trkpt lat="43.21214" lon="5.35702">
        <ele>55</ele>
        <time>2019-05-23T10:20:10.000Z</time>
      </trkpt>
      <trkpt lat="43.21213" lon="5.35697">
        <ele>54.200000762939</ele>
        <time>2019-05-23T10:20:12.000Z</time>
      </trkpt>
      <trkpt lat="43.21213" lon="5.35694">
        <ele>53.799999237061</ele>
        <time>2019-05-23T10:20:13.000Z</time>
      </trkpt>
      <trkpt lat="43.21213" lon="5.35687">
        <ele>52.599998474121</ele>
        <time>2019-05-23T10:20:15.000Z</time>
      </trkpt>
      <trkpt lat="43.21214" lon="5.35683">
        <ele>51.599998474121</ele>
        <time>2019-05-23T10:20:17.000Z</time>
      </trkpt>
      <trkpt lat="43.21214" lon="5.3568">
        <ele>50.799999237061</ele>
        <time>2019-05-23T10:20:18.000Z</time>
      </trkpt>
      <trkpt lat="43.21214" lon="5.35678">
        <ele>49.799999237061</ele>
        <time>2019-05-23T10:20:19.000Z</time>
      </trkpt>
      <trkpt lat="43.21215" lon="5.35672">
        <ele>48.799999237061</ele>
        <time>2019-05-23T10:20:21.000Z</time>
      </trkpt>
      <trkpt lat="43.21215" lon="5.35662">
        <ele>48</ele>
        <time>2019-05-23T10:20:24.000Z</time>
      </trkpt>
      <trkpt lat="43.21215" lon="5.35659">
        <ele>47.400001525879</ele>
        <time>2019-05-23T10:20:25.000Z</time>
      </trkpt>
      <trkpt lat="43.21214" lon="5.3565">
        <ele>46.400001525879</ele>
        <time>2019-05-23T10:20:27.000Z</time>
      </trkpt>
      <trkpt lat="43.21213" lon="5.35648">
        <ele>45.799999237061</ele>
        <time>2019-05-23T10:20:28.000Z</time>
      </trkpt>
      <trkpt lat="43.21212" lon="5.35645">
        <ele>45.400001525879</ele>
        <time>2019-05-23T10:20:29.000Z</time>
      </trkpt>
      <trkpt lat="43.21209" lon="5.3564">
        <ele>44.400001525879</ele>
        <time>2019-05-23T10:20:32.000Z</time>
      </trkpt>
      <trkpt lat="43.21208" lon="5.35638">
        <ele>44</ele>
        <time>2019-05-23T10:20:33.000Z</time>
      </trkpt>
      <trkpt lat="43.21205" lon="5.35634">
        <ele>43</ele>
        <time>2019-05-23T10:20:35.000Z</time>
      </trkpt>
      <trkpt lat="43.21204" lon="5.35621">
        <ele>41.799999237061</ele>
        <time>2019-05-23T10:20:38.000Z</time>
      </trkpt>
      <trkpt lat="43.21203" lon="5.35616">
        <ele>41</ele>
        <time>2019-05-23T10:20:40.000Z</time>
      </trkpt>
      <trkpt lat="43.21202" lon="5.35613">
        <ele>40.599998474121</ele>
        <time>2019-05-23T10:20:41.000Z</time>
      </trkpt>
      <trkpt lat="43.21198" lon="5.35599">
        <ele>39.400001525879</ele>
        <time>2019-05-23T10:20:45.000Z</time>
      </trkpt>
      <trkpt lat="43.21197" lon="5.35595">
        <ele>39</ele>
        <time>2019-05-23T10:20:46.000Z</time>
      </trkpt>
      <trkpt lat="43.21194" lon="5.35587">
        <ele>38</ele>
        <time>2019-05-23T10:20:48.000Z</time>
      </trkpt>
      <trkpt lat="43.21194" lon="5.35578">
        <ele>37</ele>
        <time>2019-05-23T10:20:51.000Z</time>
      </trkpt>
      <trkpt lat="43.21195" lon="5.35575">
        <ele>37</ele>
        <time>2019-05-23T10:20:52.000Z</time>
      </trkpt>
      <trkpt lat="43.21199" lon="5.35568">
        <ele>35.400001525879</ele>
        <time>2019-05-23T10:20:55.000Z</time>
      </trkpt>
      <trkpt lat="43.21199" lon="5.35564">
        <ele>34.599998474121</ele>
        <time>2019-05-23T10:20:57.000Z</time>
      </trkpt>
      <trkpt lat="43.21199" lon="5.35563">
        <ele>34.200000762939</ele>
        <time>2019-05-23T10:20:58.000Z</time>
      </trkpt>
      <trkpt lat="43.212" lon="5.35559">
        <ele>33.400001525879</ele>
        <time>2019-05-23T10:21:00.000Z</time>
      </trkpt>
      <trkpt lat="43.21202" lon="5.35558">
        <ele>33.200000762939</ele>
        <time>2019-05-23T10:21:01.000Z</time>
      </trkpt>
      <trkpt lat="43.21206" lon="5.35556">
        <ele>32</ele>
        <time>2019-05-23T10:21:04.000Z</time>
      </trkpt>
      <trkpt lat="43.21206" lon="5.35555">
        <ele>31.799999237061</ele>
        <time>2019-05-23T10:21:05.000Z</time>
      </trkpt>
      <trkpt lat="43.21207" lon="5.35552">
        <ele>30.799999237061</ele>
        <time>2019-05-23T10:21:07.000Z</time>
      </trkpt>
      <trkpt lat="43.21209" lon="5.35546">
        <ele>29.60000038147</ele>
        <time>2019-05-23T10:21:10.000Z</time>
      </trkpt>
      <trkpt lat="43.21211" lon="5.35544">
        <ele>29.200000762939</ele>
        <time>2019-05-23T10:21:11.000Z</time>
      </trkpt>
      <trkpt lat="43.21215" lon="5.35541">
        <ele>28.200000762939</ele>
        <time>2019-05-23T10:21:13.000Z</time>
      </trkpt>
      <trkpt lat="43.21218" lon="5.35538">
        <ele>26.60000038147</ele>
        <time>2019-05-23T10:21:15.000Z</time>
      </trkpt>
      <trkpt lat="43.21222" lon="5.35534">
        <ele>25.39999961853</ele>
        <time>2019-05-23T10:21:17.000Z</time>
      </trkpt>
      <trkpt lat="43.21225" lon="5.35519">
        <ele>24.39999961853</ele>
        <time>2019-05-23T10:21:21.000Z</time>
      </trkpt>
      <trkpt lat="43.21228" lon="5.3551">
        <ele>23</ele>
        <time>2019-05-23T10:21:24.000Z</time>
      </trkpt>
      <trkpt lat="43.2123" lon="5.35505">
        <ele>21.60000038147</ele>
        <time>2019-05-23T10:21:26.000Z</time>
      </trkpt>
      <trkpt lat="43.21233" lon="5.35504">
        <ele>20.60000038147</ele>
        <time>2019-05-23T10:21:28.000Z</time>
      </trkpt>
      <trkpt lat="43.21235" lon="5.35503">
        <ele>20.200000762939</ele>
        <time>2019-05-23T10:21:29.000Z</time>
      </trkpt>
      <trkpt lat="43.21237" lon="5.35501">
        <ele>19.799999237061</ele>
        <time>2019-05-23T10:21:30.000Z</time>
      </trkpt>
      <trkpt lat="43.21241" lon="5.35499">
        <ele>19</ele>
        <time>2019-05-23T10:21:32.000Z</time>
      </trkpt>
      <trkpt lat="43.21244" lon="5.35495">
        <ele>18</ele>
        <time>2019-05-23T10:21:35.000Z</time>
      </trkpt>
      <trkpt lat="43.21246" lon="5.35483">
        <ele>16.799999237061</ele>
        <time>2019-05-23T10:21:38.000Z</time>
      </trkpt>
      <trkpt lat="43.21248" lon="5.35478">
        <ele>16</ele>
        <time>2019-05-23T10:21:40.000Z</time>
      </trkpt>
      <trkpt lat="43.21248" lon="5.35476">
        <ele>15.60000038147</ele>
        <time>2019-05-23T10:21:41.000Z</time>
      </trkpt>
      <trkpt lat="43.21249" lon="5.35472">
        <ele>14.199999809265</ele>
        <time>2019-05-23T10:21:44.000Z</time>
      </trkpt>
      <trkpt lat="43.2125" lon="5.3547">
        <ele>13.800000190735</ele>
        <time>2019-05-23T10:21:45.000Z</time>
      </trkpt>
      <trkpt lat="43.21251" lon="5.35466">
        <ele>13.199999809265</ele>
        <time>2019-05-23T10:21:47.000Z</time>
      </trkpt>
      <trkpt lat="43.21248" lon="5.35468">
        <ele>2.4000000953674</ele>
        <time>2019-05-23T10:21:49.000Z</time>
      </trkpt>
    </trkseg>
  </trk>
</gpx>